<?xml version='1.0' encoding='UTF-8'?>
<gpx version="1.1" creator="https://www.komoot.de" xmlns="http://www.topografix.com/GPX/1/1" xmlns:xsi="http://www.w3.org/2001/XMLSchema-instance" xsi:schemaLocation="http://www.topografix.com/GPX/1/1 http://www.topografix.com/GPX/1/1/gpx.xsd">
  <metadata>
    <name>FLATLANDES 2026 - 200K - FINAL</name>
    <author>
      <link href="https://www.komoot.de">
        <text>komoot</text>
        <type>text/html</type>
      </link>
    </author>
  </metadata>
  <trk>
    <name>FLATLANDES 2026 - 200K - FINAL</name>
    <trkseg>
      <trkpt lat="43.706561" lon="-1.335014">
        <ele>26.886265</ele>
        <time>2026-03-26T17:57:07.229Z</time>
      </trkpt>
      <trkpt lat="43.706577" lon="-1.334927">
        <ele>26.886265</ele>
        <time>2026-03-26T17:57:08.541Z</time>
      </trkpt>
      <trkpt lat="43.706942" lon="-1.332991">
        <ele>27.084460</ele>
        <time>2026-03-26T17:57:37.595Z</time>
      </trkpt>
      <trkpt lat="43.707673" lon="-1.329115">
        <ele>27.945390</ele>
        <time>2026-03-26T17:58:35.311Z</time>
      </trkpt>
      <trkpt lat="43.707927" lon="-1.327769">
        <ele>28.321875</ele>
        <time>2026-03-26T17:58:54.656Z</time>
      </trkpt>
      <trkpt lat="43.708286" lon="-1.325865">
        <ele>29.022825</ele>
        <time>2026-03-26T17:59:24.088Z</time>
      </trkpt>
      <trkpt lat="43.709055" lon="-1.321787">
        <ele>31.011335</ele>
        <time>2026-03-26T18:00:28.051Z</time>
      </trkpt>
      <trkpt lat="43.710176" lon="-1.315568">
        <ele>32.655542</ele>
        <time>2026-03-26T18:01:59.957Z</time>
      </trkpt>
      <trkpt lat="43.710036" lon="-1.314510">
        <ele>33.009132</ele>
        <time>2026-03-26T18:02:16.063Z</time>
      </trkpt>
      <trkpt lat="43.709814" lon="-1.312698">
        <ele>33.854826</ele>
        <time>2026-03-26T18:02:43.870Z</time>
      </trkpt>
      <trkpt lat="43.709808" lon="-1.312652">
        <ele>33.876335</ele>
        <time>2026-03-26T18:02:44.575Z</time>
      </trkpt>
      <trkpt lat="43.709799" lon="-1.312580">
        <ele>33.909958</ele>
        <time>2026-03-26T18:02:45.674Z</time>
      </trkpt>
      <trkpt lat="43.709744" lon="-1.312132">
        <ele>34.119061</ele>
        <time>2026-03-26T18:02:52.527Z</time>
      </trkpt>
      <trkpt lat="43.709384" lon="-1.309190">
        <ele>35.447397</ele>
        <time>2026-03-26T18:03:37.335Z</time>
      </trkpt>
      <trkpt lat="43.708657" lon="-1.303270">
        <ele>37.684137</ele>
        <time>2026-03-26T18:05:05.960Z</time>
      </trkpt>
      <trkpt lat="43.708408" lon="-1.301238">
        <ele>38.484476</ele>
        <time>2026-03-26T18:05:36.361Z</time>
      </trkpt>
      <trkpt lat="43.708321" lon="-1.300529">
        <ele>38.787621</ele>
        <time>2026-03-26T18:05:46.980Z</time>
      </trkpt>
      <trkpt lat="43.708115" lon="-1.298844">
        <ele>39.731865</ele>
        <time>2026-03-26T18:06:12.957Z</time>
      </trkpt>
      <trkpt lat="43.707867" lon="-1.296817">
        <ele>40.914699</ele>
        <time>2026-03-26T18:06:45.528Z</time>
      </trkpt>
      <trkpt lat="43.707222" lon="-1.291554">
        <ele>42.269809</ele>
        <time>2026-03-26T18:08:02.236Z</time>
      </trkpt>
      <trkpt lat="43.707053" lon="-1.290175">
        <ele>42.513245</ele>
        <time>2026-03-26T18:08:22.006Z</time>
      </trkpt>
      <trkpt lat="43.706671" lon="-1.287051">
        <ele>43.308782</ele>
        <time>2026-03-26T18:09:07.124Z</time>
      </trkpt>
      <trkpt lat="43.706458" lon="-1.285315">
        <ele>44.240915</ele>
        <time>2026-03-26T18:09:34.296Z</time>
      </trkpt>
      <trkpt lat="43.706379" lon="-1.284665">
        <ele>44.668156</ele>
        <time>2026-03-26T18:09:45.011Z</time>
      </trkpt>
      <trkpt lat="43.706086" lon="-1.282338">
        <ele>46.200982</ele>
        <time>2026-03-26T18:10:22.402Z</time>
      </trkpt>
      <trkpt lat="43.705927" lon="-1.281081">
        <ele>46.409382</ele>
        <time>2026-03-26T18:10:40.166Z</time>
      </trkpt>
      <trkpt lat="43.705916" lon="-1.280991">
        <ele>46.424289</ele>
        <time>2026-03-26T18:10:41.406Z</time>
      </trkpt>
      <trkpt lat="43.705637" lon="-1.278783">
        <ele>46.507351</ele>
        <time>2026-03-26T18:11:12.128Z</time>
      </trkpt>
      <trkpt lat="43.705229" lon="-1.275542">
        <ele>46.547730</ele>
        <time>2026-03-26T18:11:57.257Z</time>
      </trkpt>
      <trkpt lat="43.705212" lon="-1.275410">
        <ele>46.552598</ele>
        <time>2026-03-26T18:11:59.165Z</time>
      </trkpt>
      <trkpt lat="43.705193" lon="-1.275261">
        <ele>46.562311</ele>
        <time>2026-03-26T18:12:01.324Z</time>
      </trkpt>
      <trkpt lat="43.704743" lon="-1.271694">
        <ele>48.073897</ele>
        <time>2026-03-26T18:12:56.024Z</time>
      </trkpt>
      <trkpt lat="43.705073" lon="-1.271236">
        <ele>48.324079</ele>
        <time>2026-03-26T18:13:02.442Z</time>
      </trkpt>
      <trkpt lat="43.705473" lon="-1.270989">
        <ele>48.558517</ele>
        <time>2026-03-26T18:13:08.168Z</time>
      </trkpt>
      <trkpt lat="43.707912" lon="-1.269611">
        <ele>49.163765</ele>
        <time>2026-03-26T18:13:39.376Z</time>
      </trkpt>
      <trkpt lat="43.709052" lon="-1.268967">
        <ele>49.984964</ele>
        <time>2026-03-26T18:13:58.319Z</time>
      </trkpt>
      <trkpt lat="43.709127" lon="-1.268794">
        <ele>50.067597</ele>
        <time>2026-03-26T18:14:00.588Z</time>
      </trkpt>
      <trkpt lat="43.711562" lon="-1.263172">
        <ele>52.659392</ele>
        <time>2026-03-26T18:15:03.046Z</time>
      </trkpt>
      <trkpt lat="43.712296" lon="-1.262066">
        <ele>53.073004</ele>
        <time>2026-03-26T18:15:17.762Z</time>
      </trkpt>
      <trkpt lat="43.714986" lon="-1.258010">
        <ele>54.067575</ele>
        <time>2026-03-26T18:16:07.951Z</time>
      </trkpt>
      <trkpt lat="43.716814" lon="-1.255254">
        <ele>53.522254</ele>
        <time>2026-03-26T18:16:38.865Z</time>
      </trkpt>
      <trkpt lat="43.718747" lon="-1.251917">
        <ele>52.993613</ele>
        <time>2026-03-26T18:17:46.411Z</time>
      </trkpt>
      <trkpt lat="43.720492" lon="-1.248853">
        <ele>53.726493</ele>
        <time>2026-03-26T18:18:51.909Z</time>
      </trkpt>
      <trkpt lat="43.721644" lon="-1.246952">
        <ele>53.793178</ele>
        <time>2026-03-26T18:19:31.857Z</time>
      </trkpt>
      <trkpt lat="43.722563" lon="-1.245292">
        <ele>53.243872</ele>
        <time>2026-03-26T18:20:04.945Z</time>
      </trkpt>
      <trkpt lat="43.723890" lon="-1.242946">
        <ele>51.436162</ele>
        <time>2026-03-26T18:20:49.215Z</time>
      </trkpt>
      <trkpt lat="43.724109" lon="-1.242559">
        <ele>51.140149</ele>
        <time>2026-03-26T18:20:56.614Z</time>
      </trkpt>
      <trkpt lat="43.724300" lon="-1.242803">
        <ele>50.923526</ele>
        <time>2026-03-26T18:21:02.110Z</time>
      </trkpt>
      <trkpt lat="43.724469" lon="-1.243106">
        <ele>50.693026</ele>
        <time>2026-03-26T18:21:08.030Z</time>
      </trkpt>
      <trkpt lat="43.724713" lon="-1.243310">
        <ele>50.577054</ele>
        <time>2026-03-26T18:21:14.216Z</time>
      </trkpt>
      <trkpt lat="43.725070" lon="-1.243782">
        <ele>50.442962</ele>
        <time>2026-03-26T18:21:25.063Z</time>
      </trkpt>
      <trkpt lat="43.725450" lon="-1.244200">
        <ele>50.311131</ele>
        <time>2026-03-26T18:21:35.834Z</time>
      </trkpt>
      <trkpt lat="43.725609" lon="-1.244463">
        <ele>50.243835</ele>
        <time>2026-03-26T18:21:41.260Z</time>
      </trkpt>
      <trkpt lat="43.726086" lon="-1.245069">
        <ele>49.898738</ele>
        <time>2026-03-26T18:21:55.223Z</time>
      </trkpt>
      <trkpt lat="43.727015" lon="-1.246251">
        <ele>48.825420</ele>
        <time>2026-03-26T18:22:21.377Z</time>
      </trkpt>
      <trkpt lat="43.727086" lon="-1.246341">
        <ele>48.743530</ele>
        <time>2026-03-26T18:22:23.347Z</time>
      </trkpt>
      <trkpt lat="43.727390" lon="-1.246673">
        <ele>48.423044</ele>
        <time>2026-03-26T18:22:31.305Z</time>
      </trkpt>
      <trkpt lat="43.727510" lon="-1.246401">
        <ele>48.235731</ele>
        <time>2026-03-26T18:22:36.054Z</time>
      </trkpt>
      <trkpt lat="43.727607" lon="-1.246267">
        <ele>48.124250</ele>
        <time>2026-03-26T18:22:38.877Z</time>
      </trkpt>
      <trkpt lat="43.729202" lon="-1.244650">
        <ele>46.505443</ele>
        <time>2026-03-26T18:23:20.602Z</time>
      </trkpt>
      <trkpt lat="43.729506" lon="-1.244341">
        <ele>46.193556</ele>
        <time>2026-03-26T18:23:28.494Z</time>
      </trkpt>
      <trkpt lat="43.729987" lon="-1.243885">
        <ele>45.711457</ele>
        <time>2026-03-26T18:23:40.586Z</time>
      </trkpt>
      <trkpt lat="43.730549" lon="-1.243284">
        <ele>45.308721</ele>
        <time>2026-03-26T18:23:55.406Z</time>
      </trkpt>
      <trkpt lat="43.731401" lon="-1.242452">
        <ele>44.739388</ele>
        <time>2026-03-26T18:24:17.784Z</time>
      </trkpt>
      <trkpt lat="43.732859" lon="-1.241015">
        <ele>44.684270</ele>
        <time>2026-03-26T18:24:57.540Z</time>
      </trkpt>
      <trkpt lat="43.732956" lon="-1.240919">
        <ele>44.689078</ele>
        <time>2026-03-26T18:25:00.281Z</time>
      </trkpt>
      <trkpt lat="43.733394" lon="-1.240441">
        <ele>44.922062</ele>
        <time>2026-03-26T18:25:13.272Z</time>
      </trkpt>
      <trkpt lat="43.734728" lon="-1.239100">
        <ele>45.421908</ele>
        <time>2026-03-26T18:25:52.204Z</time>
      </trkpt>
      <trkpt lat="43.734805" lon="-1.239049">
        <ele>45.419149</ele>
        <time>2026-03-26T18:25:54.138Z</time>
      </trkpt>
      <trkpt lat="43.735115" lon="-1.238966">
        <ele>45.408946</ele>
        <time>2026-03-26T18:26:01.222Z</time>
      </trkpt>
      <trkpt lat="43.736918" lon="-1.238641">
        <ele>45.124669</ele>
        <time>2026-03-26T18:26:40.675Z</time>
      </trkpt>
      <trkpt lat="43.739084" lon="-1.238274">
        <ele>44.782578</ele>
        <time>2026-03-26T18:27:28.074Z</time>
      </trkpt>
      <trkpt lat="43.740284" lon="-1.238017">
        <ele>44.909453</ele>
        <time>2026-03-26T18:27:56.478Z</time>
      </trkpt>
      <trkpt lat="43.740510" lon="-1.237963">
        <ele>44.964040</ele>
        <time>2026-03-26T18:28:01.976Z</time>
      </trkpt>
      <trkpt lat="43.740729" lon="-1.237913">
        <ele>45.016869</ele>
        <time>2026-03-26T18:28:07.206Z</time>
      </trkpt>
      <trkpt lat="43.740862" lon="-1.236659">
        <ele>45.081810</ele>
        <time>2026-03-26T18:28:18.362Z</time>
      </trkpt>
      <trkpt lat="43.740870" lon="-1.236581">
        <ele>45.053450</ele>
        <time>2026-03-26T18:28:19.000Z</time>
      </trkpt>
      <trkpt lat="43.741042" lon="-1.235777">
        <ele>44.751603</ele>
        <time>2026-03-26T18:28:25.571Z</time>
      </trkpt>
      <trkpt lat="43.741303" lon="-1.234846">
        <ele>44.392116</ele>
        <time>2026-03-26T18:28:33.330Z</time>
      </trkpt>
      <trkpt lat="43.741314" lon="-1.234774">
        <ele>44.365624</ele>
        <time>2026-03-26T18:28:33.907Z</time>
      </trkpt>
      <trkpt lat="43.741486" lon="-1.232716">
        <ele>44.089309</ele>
        <time>2026-03-26T18:28:51.133Z</time>
      </trkpt>
      <trkpt lat="43.741503" lon="-1.232432">
        <ele>44.058678</ele>
        <time>2026-03-26T18:28:53.697Z</time>
      </trkpt>
      <trkpt lat="43.741488" lon="-1.232158">
        <ele>44.029142</ele>
        <time>2026-03-26T18:28:56.183Z</time>
      </trkpt>
      <trkpt lat="43.740908" lon="-1.229621">
        <ele>44.308984</ele>
        <time>2026-03-26T18:29:20.172Z</time>
      </trkpt>
      <trkpt lat="43.740846" lon="-1.229154">
        <ele>44.309288</ele>
        <time>2026-03-26T18:29:24.161Z</time>
      </trkpt>
      <trkpt lat="43.740871" lon="-1.228457">
        <ele>44.309735</ele>
        <time>2026-03-26T18:29:30.092Z</time>
      </trkpt>
      <trkpt lat="43.740844" lon="-1.227883">
        <ele>44.310104</ele>
        <time>2026-03-26T18:29:34.837Z</time>
      </trkpt>
      <trkpt lat="43.740777" lon="-1.227439">
        <ele>44.310395</ele>
        <time>2026-03-26T18:29:38.685Z</time>
      </trkpt>
      <trkpt lat="43.739983" lon="-1.227604">
        <ele>44.641299</ele>
        <time>2026-03-26T18:29:48.236Z</time>
      </trkpt>
      <trkpt lat="43.739852" lon="-1.226484">
        <ele>45.047418</ele>
        <time>2026-03-26T18:29:59.474Z</time>
      </trkpt>
      <trkpt lat="43.739775" lon="-1.225801">
        <ele>45.224531</ele>
        <time>2026-03-26T18:30:06.259Z</time>
      </trkpt>
      <trkpt lat="43.739609" lon="-1.224304">
        <ele>45.357714</ele>
        <time>2026-03-26T18:30:19.262Z</time>
      </trkpt>
      <trkpt lat="43.740224" lon="-1.224186">
        <ele>45.407430</ele>
        <time>2026-03-26T18:30:25.620Z</time>
      </trkpt>
      <trkpt lat="43.740455" lon="-1.224235">
        <ele>45.378133</ele>
        <time>2026-03-26T18:30:28.069Z</time>
      </trkpt>
      <trkpt lat="43.740655" lon="-1.224340">
        <ele>45.351317</ele>
        <time>2026-03-26T18:30:30.296Z</time>
      </trkpt>
      <trkpt lat="43.741229" lon="-1.224926">
        <ele>45.261900</ele>
        <time>2026-03-26T18:30:37.483Z</time>
      </trkpt>
      <trkpt lat="43.741497" lon="-1.225120">
        <ele>45.223985</ele>
        <time>2026-03-26T18:30:40.486Z</time>
      </trkpt>
      <trkpt lat="43.741765" lon="-1.225211">
        <ele>45.191433</ele>
        <time>2026-03-26T18:30:43.170Z</time>
      </trkpt>
      <trkpt lat="43.742038" lon="-1.225209">
        <ele>45.169542</ele>
        <time>2026-03-26T18:30:45.781Z</time>
      </trkpt>
      <trkpt lat="43.742390" lon="-1.225141">
        <ele>45.141042</ele>
        <time>2026-03-26T18:30:49.143Z</time>
      </trkpt>
      <trkpt lat="43.743819" lon="-1.224816">
        <ele>45.308887</ele>
        <time>2026-03-26T18:31:04.117Z</time>
      </trkpt>
      <trkpt lat="43.744282" lon="-1.224713">
        <ele>45.683363</ele>
        <time>2026-03-26T18:31:10.032Z</time>
      </trkpt>
      <trkpt lat="43.744522" lon="-1.224337">
        <ele>45.972817</ele>
        <time>2026-03-26T18:31:15.448Z</time>
      </trkpt>
      <trkpt lat="43.744621" lon="-1.224028">
        <ele>46.167824</ele>
        <time>2026-03-26T18:31:19.193Z</time>
      </trkpt>
      <trkpt lat="43.744983" lon="-1.222797">
        <ele>46.699717</ele>
        <time>2026-03-26T18:31:33.356Z</time>
      </trkpt>
      <trkpt lat="43.745242" lon="-1.221645">
        <ele>47.030397</ele>
        <time>2026-03-26T18:31:44.964Z</time>
      </trkpt>
      <trkpt lat="43.745370" lon="-1.221076">
        <ele>47.103298</ele>
        <time>2026-03-26T18:31:49.807Z</time>
      </trkpt>
      <trkpt lat="43.745621" lon="-1.220347">
        <ele>46.497238</ele>
        <time>2026-03-26T18:31:55.856Z</time>
      </trkpt>
      <trkpt lat="43.745795" lon="-1.220022">
        <ele>46.193653</ele>
        <time>2026-03-26T18:31:58.832Z</time>
      </trkpt>
      <trkpt lat="43.746067" lon="-1.219804">
        <ele>45.867143</ele>
        <time>2026-03-26T18:32:02.022Z</time>
      </trkpt>
      <trkpt lat="43.746187" lon="-1.219671">
        <ele>45.707446</ele>
        <time>2026-03-26T18:32:03.580Z</time>
      </trkpt>
      <trkpt lat="43.746480" lon="-1.218886">
        <ele>45.278918</ele>
        <time>2026-03-26T18:32:10.194Z</time>
      </trkpt>
      <trkpt lat="43.746539" lon="-1.218672">
        <ele>45.264109</ele>
        <time>2026-03-26T18:32:12.024Z</time>
      </trkpt>
      <trkpt lat="43.746542" lon="-1.218573">
        <ele>45.257703</ele>
        <time>2026-03-26T18:32:12.845Z</time>
      </trkpt>
      <trkpt lat="43.746448" lon="-1.217680">
        <ele>45.199358</ele>
        <time>2026-03-26T18:32:20.982Z</time>
      </trkpt>
      <trkpt lat="43.746452" lon="-1.217516">
        <ele>45.188748</ele>
        <time>2026-03-26T18:32:22.530Z</time>
      </trkpt>
      <trkpt lat="43.746617" lon="-1.216177">
        <ele>45.049818</ele>
        <time>2026-03-26T18:32:35.147Z</time>
      </trkpt>
      <trkpt lat="43.746705" lon="-1.215774">
        <ele>44.987047</ele>
        <time>2026-03-26T18:32:38.819Z</time>
      </trkpt>
      <trkpt lat="43.746802" lon="-1.215452">
        <ele>44.935032</ele>
        <time>2026-03-26T18:32:41.763Z</time>
      </trkpt>
      <trkpt lat="43.746987" lon="-1.215349">
        <ele>44.893878</ele>
        <time>2026-03-26T18:32:44.040Z</time>
      </trkpt>
      <trkpt lat="43.747297" lon="-1.215102">
        <ele>44.820056</ele>
        <time>2026-03-26T18:32:47.996Z</time>
      </trkpt>
      <trkpt lat="43.747507" lon="-1.215022">
        <ele>44.775103</ele>
        <time>2026-03-26T18:32:50.347Z</time>
      </trkpt>
      <trkpt lat="43.747915" lon="-1.215076">
        <ele>44.414169</ele>
        <time>2026-03-26T18:32:54.689Z</time>
      </trkpt>
      <trkpt lat="43.748682" lon="-1.215368">
        <ele>43.670768</ele>
        <time>2026-03-26T18:33:03.053Z</time>
      </trkpt>
      <trkpt lat="43.749083" lon="-1.215416">
        <ele>43.294621</ele>
        <time>2026-03-26T18:33:07.289Z</time>
      </trkpt>
      <trkpt lat="43.749389" lon="-1.215389">
        <ele>43.015993</ele>
        <time>2026-03-26T18:33:10.530Z</time>
      </trkpt>
      <trkpt lat="43.749899" lon="-1.215375">
        <ele>42.586556</ele>
        <time>2026-03-26T18:33:15.950Z</time>
      </trkpt>
      <trkpt lat="43.750689" lon="-1.215421">
        <ele>41.920892</ele>
        <time>2026-03-26T18:33:24.408Z</time>
      </trkpt>
      <trkpt lat="43.751854" lon="-1.215555">
        <ele>41.336743</ele>
        <time>2026-03-26T18:33:37.254Z</time>
      </trkpt>
      <trkpt lat="43.752185" lon="-1.215399">
        <ele>41.227229</ele>
        <time>2026-03-26T18:33:41.262Z</time>
      </trkpt>
      <trkpt lat="43.752787" lon="-1.215013">
        <ele>41.019438</ele>
        <time>2026-03-26T18:33:49.077Z</time>
      </trkpt>
      <trkpt lat="43.753267" lon="-1.214841">
        <ele>40.971021</ele>
        <time>2026-03-26T18:33:55.196Z</time>
      </trkpt>
      <trkpt lat="43.753350" lon="-1.214754">
        <ele>40.962245</ele>
        <time>2026-03-26T18:33:56.431Z</time>
      </trkpt>
      <trkpt lat="43.752964" lon="-1.214493">
        <ele>40.926032</ele>
        <time>2026-03-26T18:34:00.847Z</time>
      </trkpt>
      <trkpt lat="43.752824" lon="-1.214339">
        <ele>40.910958</ele>
        <time>2026-03-26T18:34:02.645Z</time>
      </trkpt>
      <trkpt lat="43.752508" lon="-1.213866">
        <ele>40.871726</ele>
        <time>2026-03-26T18:34:07.237Z</time>
      </trkpt>
      <trkpt lat="43.751469" lon="-1.212278">
        <ele>40.752502</ele>
        <time>2026-03-26T18:34:22.382Z</time>
      </trkpt>
      <trkpt lat="43.751149" lon="-1.211754">
        <ele>40.789674</ele>
        <time>2026-03-26T18:34:27.811Z</time>
      </trkpt>
      <trkpt lat="43.750386" lon="-1.210383">
        <ele>41.726036</ele>
        <time>2026-03-26T18:34:43.451Z</time>
      </trkpt>
      <trkpt lat="43.750027" lon="-1.209737">
        <ele>42.181009</ele>
        <time>2026-03-26T18:34:51.150Z</time>
      </trkpt>
      <trkpt lat="43.749523" lon="-1.209010">
        <ele>42.803904</ele>
        <time>2026-03-26T18:35:00.448Z</time>
      </trkpt>
      <trkpt lat="43.749002" lon="-1.208365">
        <ele>43.402042</ele>
        <time>2026-03-26T18:35:09.187Z</time>
      </trkpt>
      <trkpt lat="43.747692" lon="-1.206848">
        <ele>44.356477</ele>
        <time>2026-03-26T18:35:29.440Z</time>
      </trkpt>
      <trkpt lat="43.747326" lon="-1.206467">
        <ele>44.557416</ele>
        <time>2026-03-26T18:35:34.412Z</time>
      </trkpt>
      <trkpt lat="43.746096" lon="-1.205311">
        <ele>44.932030</ele>
        <time>2026-03-26T18:35:50.184Z</time>
      </trkpt>
      <trkpt lat="43.745109" lon="-1.204474">
        <ele>45.575514</ele>
        <time>2026-03-26T18:36:03.927Z</time>
      </trkpt>
      <trkpt lat="43.742476" lon="-1.202547">
        <ele>47.247753</ele>
        <time>2026-03-26T18:36:40.211Z</time>
      </trkpt>
      <trkpt lat="43.740120" lon="-1.200818">
        <ele>46.765021</ele>
        <time>2026-03-26T18:37:06.257Z</time>
      </trkpt>
      <trkpt lat="43.738994" lon="-1.199992">
        <ele>46.503885</ele>
        <time>2026-03-26T18:37:18.612Z</time>
      </trkpt>
      <trkpt lat="43.738984" lon="-1.199723">
        <ele>46.483957</ele>
        <time>2026-03-26T18:37:22.491Z</time>
      </trkpt>
      <trkpt lat="43.738833" lon="-1.199159">
        <ele>46.439457</ele>
        <time>2026-03-26T18:37:31.204Z</time>
      </trkpt>
      <trkpt lat="43.737407" lon="-1.193955">
        <ele>47.001350</ele>
        <time>2026-03-26T18:38:54.394Z</time>
      </trkpt>
      <trkpt lat="43.735827" lon="-1.188192">
        <ele>47.747159</ele>
        <time>2026-03-26T18:40:26.701Z</time>
      </trkpt>
      <trkpt lat="43.734644" lon="-1.183978">
        <ele>47.944035</ele>
        <time>2026-03-26T18:41:33.315Z</time>
      </trkpt>
      <trkpt lat="43.734558" lon="-1.184029">
        <ele>47.939388</ele>
        <time>2026-03-26T18:41:34.430Z</time>
      </trkpt>
      <trkpt lat="43.734484" lon="-1.184034">
        <ele>47.935709</ele>
        <time>2026-03-26T18:41:35.300Z</time>
      </trkpt>
      <trkpt lat="43.734430" lon="-1.183994">
        <ele>47.932667</ele>
        <time>2026-03-26T18:41:36.029Z</time>
      </trkpt>
      <trkpt lat="43.734432" lon="-1.183774">
        <ele>47.924772</ele>
        <time>2026-03-26T18:41:37.902Z</time>
      </trkpt>
      <trkpt lat="43.734571" lon="-1.182496">
        <ele>47.878389</ele>
        <time>2026-03-26T18:41:48.801Z</time>
      </trkpt>
      <trkpt lat="43.734940" lon="-1.179129">
        <ele>47.487020</ele>
        <time>2026-03-26T18:42:17.353Z</time>
      </trkpt>
      <trkpt lat="43.735274" lon="-1.175997">
        <ele>47.445512</ele>
        <time>2026-03-26T18:42:44.521Z</time>
      </trkpt>
      <trkpt lat="43.735242" lon="-1.175832">
        <ele>47.450393</ele>
        <time>2026-03-26T18:42:46.014Z</time>
      </trkpt>
      <trkpt lat="43.735299" lon="-1.175741">
        <ele>47.453834</ele>
        <time>2026-03-26T18:42:47.024Z</time>
      </trkpt>
      <trkpt lat="43.735321" lon="-1.175620">
        <ele>47.457399</ele>
        <time>2026-03-26T18:42:48.081Z</time>
      </trkpt>
      <trkpt lat="43.736025" lon="-1.168968">
        <ele>47.891100</ele>
        <time>2026-03-26T18:43:46.270Z</time>
      </trkpt>
      <trkpt lat="43.736178" lon="-1.168688">
        <ele>47.847076</ele>
        <time>2026-03-26T18:43:48.979Z</time>
      </trkpt>
      <trkpt lat="43.736334" lon="-1.168507">
        <ele>47.811744</ele>
        <time>2026-03-26T18:43:51.139Z</time>
      </trkpt>
      <trkpt lat="43.736602" lon="-1.168320">
        <ele>47.759652</ele>
        <time>2026-03-26T18:43:54.278Z</time>
      </trkpt>
      <trkpt lat="43.736853" lon="-1.168230">
        <ele>47.689259</ele>
        <time>2026-03-26T18:43:56.969Z</time>
      </trkpt>
      <trkpt lat="43.738759" lon="-1.168110">
        <ele>47.053485</ele>
        <time>2026-03-26T18:44:17.887Z</time>
      </trkpt>
      <trkpt lat="43.739020" lon="-1.168094">
        <ele>47.027742</ele>
        <time>2026-03-26T18:44:23.050Z</time>
      </trkpt>
      <trkpt lat="43.739264" lon="-1.168078">
        <ele>47.003672</ele>
        <time>2026-03-26T18:44:27.857Z</time>
      </trkpt>
      <trkpt lat="43.739518" lon="-1.168063">
        <ele>46.978620</ele>
        <time>2026-03-26T18:44:32.827Z</time>
      </trkpt>
      <trkpt lat="43.741123" lon="-1.167962">
        <ele>46.597634</ele>
        <time>2026-03-26T18:45:02.740Z</time>
      </trkpt>
      <trkpt lat="43.742318" lon="-1.167887">
        <ele>46.125353</ele>
        <time>2026-03-26T18:45:24.593Z</time>
      </trkpt>
      <trkpt lat="43.742593" lon="-1.167527">
        <ele>45.938053</ele>
        <time>2026-03-26T18:45:31.535Z</time>
      </trkpt>
      <trkpt lat="43.744361" lon="-1.163674">
        <ele>44.369256</ele>
        <time>2026-03-26T18:46:31.564Z</time>
      </trkpt>
      <trkpt lat="43.750805" lon="-1.149618">
        <ele>43.017806</ele>
        <time>2026-03-26T18:50:18.711Z</time>
      </trkpt>
      <trkpt lat="43.751990" lon="-1.147033">
        <ele>42.903060</ele>
        <time>2026-03-26T18:51:00.563Z</time>
      </trkpt>
      <trkpt lat="43.759740" lon="-1.130272">
        <ele>42.311634</ele>
        <time>2026-03-26T18:55:33.682Z</time>
      </trkpt>
      <trkpt lat="43.760252" lon="-1.129164">
        <ele>41.809286</ele>
        <time>2026-03-26T18:55:51.489Z</time>
      </trkpt>
      <trkpt lat="43.760452" lon="-1.128873">
        <ele>41.655874</ele>
        <time>2026-03-26T18:55:56.768Z</time>
      </trkpt>
      <trkpt lat="43.757078" lon="-1.121045">
        <ele>34.055027</ele>
        <time>2026-03-26T18:57:04.540Z</time>
      </trkpt>
      <trkpt lat="43.753513" lon="-1.112773">
        <ele>27.297294</ele>
        <time>2026-03-26T18:58:17.869Z</time>
      </trkpt>
      <trkpt lat="43.753398" lon="-1.112507">
        <ele>27.194932</ele>
        <time>2026-03-26T18:58:20.415Z</time>
      </trkpt>
      <trkpt lat="43.753269" lon="-1.112068">
        <ele>27.038442</ele>
        <time>2026-03-26T18:58:24.350Z</time>
      </trkpt>
      <trkpt lat="43.752569" lon="-1.108984">
        <ele>26.642186</ele>
        <time>2026-03-26T18:58:51.564Z</time>
      </trkpt>
      <trkpt lat="43.751605" lon="-1.104921">
        <ele>27.479957</ele>
        <time>2026-03-26T18:59:31.384Z</time>
      </trkpt>
      <trkpt lat="43.751328" lon="-1.103676">
        <ele>27.513611</ele>
        <time>2026-03-26T18:59:43.122Z</time>
      </trkpt>
      <trkpt lat="43.750926" lon="-1.101869">
        <ele>26.754867</ele>
        <time>2026-03-26T18:59:58.223Z</time>
      </trkpt>
      <trkpt lat="43.751266" lon="-1.100814">
        <ele>26.124440</ele>
        <time>2026-03-26T19:00:12.488Z</time>
      </trkpt>
      <trkpt lat="43.751483" lon="-1.100269">
        <ele>25.759290</ele>
        <time>2026-03-26T19:00:20.253Z</time>
      </trkpt>
      <trkpt lat="43.751646" lon="-1.099711">
        <ele>25.406117</ele>
        <time>2026-03-26T19:00:28.010Z</time>
      </trkpt>
      <trkpt lat="43.751817" lon="-1.099330">
        <ele>25.244937</ele>
        <time>2026-03-26T19:00:34.154Z</time>
      </trkpt>
      <trkpt lat="43.751879" lon="-1.099230">
        <ele>25.330983</ele>
        <time>2026-03-26T19:00:36.067Z</time>
      </trkpt>
      <trkpt lat="43.751966" lon="-1.099144">
        <ele>25.427613</ele>
        <time>2026-03-26T19:00:38.208Z</time>
      </trkpt>
      <trkpt lat="43.752030" lon="-1.099093">
        <ele>25.494363</ele>
        <time>2026-03-26T19:00:39.735Z</time>
      </trkpt>
      <trkpt lat="43.752187" lon="-1.098944">
        <ele>25.666422</ele>
        <time>2026-03-26T19:00:43.694Z</time>
      </trkpt>
      <trkpt lat="43.752331" lon="-1.098759">
        <ele>25.843998</ele>
        <time>2026-03-26T19:00:47.996Z</time>
      </trkpt>
      <trkpt lat="43.752847" lon="-1.097740">
        <ele>26.656531</ele>
        <time>2026-03-26T19:01:08.397Z</time>
      </trkpt>
      <trkpt lat="43.752909" lon="-1.097367">
        <ele>26.877997</ele>
        <time>2026-03-26T19:01:14.730Z</time>
      </trkpt>
      <trkpt lat="43.752916" lon="-1.096669">
        <ele>27.188818</ele>
        <time>2026-03-26T19:01:25.988Z</time>
      </trkpt>
      <trkpt lat="43.752925" lon="-1.096522">
        <ele>27.254506</ele>
        <time>2026-03-26T19:01:28.319Z</time>
      </trkpt>
      <trkpt lat="43.752994" lon="-1.095462">
        <ele>27.728393</ele>
        <time>2026-03-26T19:01:43.888Z</time>
      </trkpt>
      <trkpt lat="43.752976" lon="-1.094943">
        <ele>27.909916</ele>
        <time>2026-03-26T19:01:50.953Z</time>
      </trkpt>
      <trkpt lat="43.752927" lon="-1.094408">
        <ele>27.798149</ele>
        <time>2026-03-26T19:01:58.103Z</time>
      </trkpt>
      <trkpt lat="43.752946" lon="-1.093908">
        <ele>27.694380</ele>
        <time>2026-03-26T19:02:04.669Z</time>
      </trkpt>
      <trkpt lat="43.752895" lon="-1.093740">
        <ele>27.656612</ele>
        <time>2026-03-26T19:02:07.069Z</time>
      </trkpt>
      <trkpt lat="43.752969" lon="-1.093614">
        <ele>27.622956</ele>
        <time>2026-03-26T19:02:09.207Z</time>
      </trkpt>
      <trkpt lat="43.753084" lon="-1.093574">
        <ele>27.588935</ele>
        <time>2026-03-26T19:02:11.373Z</time>
      </trkpt>
      <trkpt lat="43.753397" lon="-1.093344">
        <ele>27.487262</ele>
        <time>2026-03-26T19:02:17.904Z</time>
      </trkpt>
      <trkpt lat="43.753845" lon="-1.093169">
        <ele>27.452161</ele>
        <time>2026-03-26T19:02:26.674Z</time>
      </trkpt>
      <trkpt lat="43.754725" lon="-1.092971">
        <ele>27.646318</ele>
        <time>2026-03-26T19:02:44.300Z</time>
      </trkpt>
      <trkpt lat="43.755359" lon="-1.092866">
        <ele>27.785373</ele>
        <time>2026-03-26T19:02:57.335Z</time>
      </trkpt>
      <trkpt lat="43.758041" lon="-1.092601">
        <ele>28.948730</ele>
        <time>2026-03-26T19:03:31.678Z</time>
      </trkpt>
      <trkpt lat="43.759402" lon="-1.092459">
        <ele>29.968064</ele>
        <time>2026-03-26T19:03:51.093Z</time>
      </trkpt>
      <trkpt lat="43.766021" lon="-1.091769">
        <ele>36.846106</ele>
        <time>2026-03-26T19:05:28.966Z</time>
      </trkpt>
      <trkpt lat="43.766070" lon="-1.091765">
        <ele>36.898524</ele>
        <time>2026-03-26T19:05:29.707Z</time>
      </trkpt>
      <trkpt lat="43.767944" lon="-1.091546">
        <ele>39.011482</ele>
        <time>2026-03-26T19:05:57.876Z</time>
      </trkpt>
      <trkpt lat="43.768007" lon="-1.091539">
        <ele>39.082436</ele>
        <time>2026-03-26T19:05:58.844Z</time>
      </trkpt>
      <trkpt lat="43.770630" lon="-1.091284">
        <ele>41.684704</ele>
        <time>2026-03-26T19:06:37.909Z</time>
      </trkpt>
      <trkpt lat="43.769874" lon="-1.087266">
        <ele>43.342117</ele>
        <time>2026-03-26T19:07:12.144Z</time>
      </trkpt>
      <trkpt lat="43.769709" lon="-1.086445">
        <ele>43.818005</ele>
        <time>2026-03-26T19:07:19.722Z</time>
      </trkpt>
      <trkpt lat="43.769112" lon="-1.083481">
        <ele>45.475603</ele>
        <time>2026-03-26T19:07:48.021Z</time>
      </trkpt>
      <trkpt lat="43.768405" lon="-1.081177">
        <ele>46.091452</ele>
        <time>2026-03-26T19:08:08.075Z</time>
      </trkpt>
      <trkpt lat="43.767542" lon="-1.076776">
        <ele>45.351669</ele>
        <time>2026-03-26T19:08:40.816Z</time>
      </trkpt>
      <trkpt lat="43.766844" lon="-1.070817">
        <ele>41.613900</ele>
        <time>2026-03-26T19:09:19.921Z</time>
      </trkpt>
      <trkpt lat="43.765966" lon="-1.067040">
        <ele>40.139539</ele>
        <time>2026-03-26T19:09:47.226Z</time>
      </trkpt>
      <trkpt lat="43.765732" lon="-1.066011">
        <ele>39.785927</ele>
        <time>2026-03-26T19:09:54.692Z</time>
      </trkpt>
      <trkpt lat="43.765614" lon="-1.065489">
        <ele>39.442554</ele>
        <time>2026-03-26T19:09:58.570Z</time>
      </trkpt>
      <trkpt lat="43.765569" lon="-1.064975">
        <ele>39.117519</ele>
        <time>2026-03-26T19:10:02.024Z</time>
      </trkpt>
      <trkpt lat="43.765532" lon="-1.064785">
        <ele>38.993983</ele>
        <time>2026-03-26T19:10:03.261Z</time>
      </trkpt>
      <trkpt lat="43.765398" lon="-1.064642">
        <ele>38.846922</ele>
        <time>2026-03-26T19:10:04.738Z</time>
      </trkpt>
      <trkpt lat="43.765336" lon="-1.064424">
        <ele>38.699838</ele>
        <time>2026-03-26T19:10:06.228Z</time>
      </trkpt>
      <trkpt lat="43.765338" lon="-1.064320">
        <ele>38.634527</ele>
        <time>2026-03-26T19:10:06.906Z</time>
      </trkpt>
      <trkpt lat="43.765394" lon="-1.064127">
        <ele>38.503953</ele>
        <time>2026-03-26T19:10:08.242Z</time>
      </trkpt>
      <trkpt lat="43.765486" lon="-1.064013">
        <ele>38.396635</ele>
        <time>2026-03-26T19:10:09.338Z</time>
      </trkpt>
      <trkpt lat="43.765496" lon="-1.063767">
        <ele>38.241959</ele>
        <time>2026-03-26T19:10:11.213Z</time>
      </trkpt>
      <trkpt lat="43.765356" lon="-1.063494">
        <ele>37.989032</ele>
        <time>2026-03-26T19:10:13.734Z</time>
      </trkpt>
      <trkpt lat="43.764965" lon="-1.062972">
        <ele>37.414392</ele>
        <time>2026-03-26T19:10:19.317Z</time>
      </trkpt>
      <trkpt lat="43.764680" lon="-1.062521">
        <ele>36.956495</ele>
        <time>2026-03-26T19:10:23.782Z</time>
      </trkpt>
      <trkpt lat="43.764180" lon="-1.061333">
        <ele>36.010043</ele>
        <time>2026-03-26T19:10:34.479Z</time>
      </trkpt>
      <trkpt lat="43.764111" lon="-1.061226">
        <ele>35.927640</ele>
        <time>2026-03-26T19:10:35.581Z</time>
      </trkpt>
      <trkpt lat="43.763301" lon="-1.059203">
        <ele>34.624190</ele>
        <time>2026-03-26T19:10:53.562Z</time>
      </trkpt>
      <trkpt lat="43.762214" lon="-1.056468">
        <ele>32.577016</ele>
        <time>2026-03-26T19:11:17.979Z</time>
      </trkpt>
      <trkpt lat="43.761957" lon="-1.055734">
        <ele>31.858854</ele>
        <time>2026-03-26T19:11:23.938Z</time>
      </trkpt>
      <trkpt lat="43.761652" lon="-1.054255">
        <ele>30.171187</ele>
        <time>2026-03-26T19:11:34.811Z</time>
      </trkpt>
      <trkpt lat="43.761329" lon="-1.052846">
        <ele>28.381593</ele>
        <time>2026-03-26T19:11:45.407Z</time>
      </trkpt>
      <trkpt lat="43.760540" lon="-1.049573">
        <ele>24.958992</ele>
        <time>2026-03-26T19:12:10.876Z</time>
      </trkpt>
      <trkpt lat="43.760386" lon="-1.048937">
        <ele>24.288022</ele>
        <time>2026-03-26T19:12:15.822Z</time>
      </trkpt>
      <trkpt lat="43.759794" lon="-1.046393">
        <ele>21.589179</ele>
        <time>2026-03-26T19:12:35.144Z</time>
      </trkpt>
      <trkpt lat="43.759743" lon="-1.046091">
        <ele>21.274611</ele>
        <time>2026-03-26T19:12:37.381Z</time>
      </trkpt>
      <trkpt lat="43.759742" lon="-1.045751">
        <ele>20.929759</ele>
        <time>2026-03-26T19:12:39.899Z</time>
      </trkpt>
      <trkpt lat="43.759813" lon="-1.045345">
        <ele>20.933303</ele>
        <time>2026-03-26T19:12:43.138Z</time>
      </trkpt>
      <trkpt lat="43.759830" lon="-1.045036">
        <ele>20.959586</ele>
        <time>2026-03-26T19:12:45.656Z</time>
      </trkpt>
      <trkpt lat="43.759778" lon="-1.044507">
        <ele>21.004866</ele>
        <time>2026-03-26T19:12:50.270Z</time>
      </trkpt>
      <trkpt lat="43.759629" lon="-1.043617">
        <ele>21.082352</ele>
        <time>2026-03-26T19:12:59.393Z</time>
      </trkpt>
      <trkpt lat="43.759687" lon="-1.043310">
        <ele>21.109266</ele>
        <time>2026-03-26T19:13:02.820Z</time>
      </trkpt>
      <trkpt lat="43.759744" lon="-1.043132">
        <ele>21.200848</ele>
        <time>2026-03-26T19:13:04.937Z</time>
      </trkpt>
      <trkpt lat="43.760740" lon="-1.040686">
        <ele>22.535096</ele>
        <time>2026-03-26T19:13:32.982Z</time>
      </trkpt>
      <trkpt lat="43.760854" lon="-1.040393">
        <ele>22.602386</ele>
        <time>2026-03-26T19:13:36.121Z</time>
      </trkpt>
      <trkpt lat="43.760894" lon="-1.040190">
        <ele>22.644929</ele>
        <time>2026-03-26T19:13:38.073Z</time>
      </trkpt>
      <trkpt lat="43.760893" lon="-1.039851">
        <ele>22.713471</ele>
        <time>2026-03-26T19:13:41.182Z</time>
      </trkpt>
      <trkpt lat="43.760584" lon="-1.037103">
        <ele>23.425233</ele>
        <time>2026-03-26T19:14:05.301Z</time>
      </trkpt>
      <trkpt lat="43.760515" lon="-1.036250">
        <ele>23.700585</ele>
        <time>2026-03-26T19:14:14.094Z</time>
      </trkpt>
      <trkpt lat="43.760435" lon="-1.035584">
        <ele>24.525853</ele>
        <time>2026-03-26T19:14:21.865Z</time>
      </trkpt>
      <trkpt lat="43.760287" lon="-1.034628">
        <ele>25.720966</ele>
        <time>2026-03-26T19:14:34.212Z</time>
      </trkpt>
      <trkpt lat="43.760084" lon="-1.033662">
        <ele>26.888460</ele>
        <time>2026-03-26T19:14:46.552Z</time>
      </trkpt>
      <trkpt lat="43.759686" lon="-1.031835">
        <ele>28.611223</ele>
        <time>2026-03-26T19:15:07.653Z</time>
      </trkpt>
      <trkpt lat="43.759541" lon="-1.031173">
        <ele>29.059721</ele>
        <time>2026-03-26T19:15:14.702Z</time>
      </trkpt>
      <trkpt lat="43.759369" lon="-1.030391">
        <ele>29.325256</ele>
        <time>2026-03-26T19:15:22.733Z</time>
      </trkpt>
      <trkpt lat="43.759014" lon="-1.028039">
        <ele>29.859521</ele>
        <time>2026-03-26T19:15:44.213Z</time>
      </trkpt>
      <trkpt lat="43.758652" lon="-1.026809">
        <ele>29.974809</ele>
        <time>2026-03-26T19:15:55.843Z</time>
      </trkpt>
      <trkpt lat="43.759520" lon="-1.023969">
        <ele>30.568275</ele>
        <time>2026-03-26T19:16:24.247Z</time>
      </trkpt>
      <trkpt lat="43.761207" lon="-1.017829">
        <ele>31.791608</ele>
        <time>2026-03-26T19:18:12.619Z</time>
      </trkpt>
      <trkpt lat="43.761384" lon="-1.017186">
        <ele>32.004178</ele>
        <time>2026-03-26T19:18:24.215Z</time>
      </trkpt>
      <trkpt lat="43.767321" lon="-1.017485">
        <ele>36.000844</ele>
        <time>2026-03-26T19:20:28.450Z</time>
      </trkpt>
      <trkpt lat="43.777439" lon="-1.017996">
        <ele>42.928324</ele>
        <time>2026-03-26T19:24:00.404Z</time>
      </trkpt>
      <trkpt lat="43.778483" lon="-1.018049">
        <ele>43.454476</ele>
        <time>2026-03-26T19:24:21.543Z</time>
      </trkpt>
      <trkpt lat="43.784182" lon="-1.018267">
        <ele>46.520720</ele>
        <time>2026-03-26T19:26:19.022Z</time>
      </trkpt>
      <trkpt lat="43.784567" lon="-1.018281">
        <ele>46.694674</ele>
        <time>2026-03-26T19:26:26.602Z</time>
      </trkpt>
      <trkpt lat="43.784615" lon="-1.018113">
        <ele>46.687494</ele>
        <time>2026-03-26T19:26:29.137Z</time>
      </trkpt>
      <trkpt lat="43.786768" lon="-1.015365">
        <ele>46.404858</ele>
        <time>2026-03-26T19:27:24.272Z</time>
      </trkpt>
      <trkpt lat="43.790309" lon="-1.010844">
        <ele>46.002041</ele>
        <time>2026-03-26T19:28:54.960Z</time>
      </trkpt>
      <trkpt lat="43.793740" lon="-1.006481">
        <ele>46.484336</ele>
        <time>2026-03-26T19:30:26.649Z</time>
      </trkpt>
      <trkpt lat="43.792779" lon="-1.002965">
        <ele>43.324564</ele>
        <time>2026-03-26T19:30:49.828Z</time>
      </trkpt>
      <trkpt lat="43.792441" lon="-1.001709">
        <ele>42.329004</ele>
        <time>2026-03-26T19:30:58.601Z</time>
      </trkpt>
      <trkpt lat="43.792386" lon="-1.001420">
        <ele>42.374271</ele>
        <time>2026-03-26T19:31:00.723Z</time>
      </trkpt>
      <trkpt lat="43.792345" lon="-1.000765">
        <ele>42.473848</ele>
        <time>2026-03-26T19:31:05.620Z</time>
      </trkpt>
      <trkpt lat="43.792355" lon="-0.998536">
        <ele>42.807461</ele>
        <time>2026-03-26T19:31:24.654Z</time>
      </trkpt>
      <trkpt lat="43.792334" lon="-0.998290">
        <ele>42.843611</ele>
        <time>2026-03-26T19:31:26.698Z</time>
      </trkpt>
      <trkpt lat="43.792295" lon="-0.998069">
        <ele>42.876813</ele>
        <time>2026-03-26T19:31:28.491Z</time>
      </trkpt>
      <trkpt lat="43.792231" lon="-0.997864">
        <ele>42.909408</ele>
        <time>2026-03-26T19:31:30.192Z</time>
      </trkpt>
      <trkpt lat="43.791995" lon="-0.997476">
        <ele>42.983453</ele>
        <time>2026-03-26T19:31:33.941Z</time>
      </trkpt>
      <trkpt lat="43.791694" lon="-0.997221">
        <ele>43.054783</ele>
        <time>2026-03-26T19:31:37.486Z</time>
      </trkpt>
      <trkpt lat="43.791638" lon="-0.997127">
        <ele>43.082713</ele>
        <time>2026-03-26T19:31:38.370Z</time>
      </trkpt>
      <trkpt lat="43.791599" lon="-0.996998">
        <ele>43.132750</ele>
        <time>2026-03-26T19:31:39.381Z</time>
      </trkpt>
      <trkpt lat="43.791595" lon="-0.996899">
        <ele>43.168224</ele>
        <time>2026-03-26T19:31:40.103Z</time>
      </trkpt>
      <trkpt lat="43.791718" lon="-0.996934">
        <ele>43.230458</ele>
        <time>2026-03-26T19:31:41.364Z</time>
      </trkpt>
      <trkpt lat="43.791968" lon="-0.996945">
        <ele>43.354425</ele>
        <time>2026-03-26T19:31:43.872Z</time>
      </trkpt>
      <trkpt lat="43.792211" lon="-0.996900">
        <ele>43.475932</ele>
        <time>2026-03-26T19:31:46.363Z</time>
      </trkpt>
      <trkpt lat="43.792689" lon="-0.996747">
        <ele>43.719079</ele>
        <time>2026-03-26T19:31:51.988Z</time>
      </trkpt>
      <trkpt lat="43.793140" lon="-0.996603">
        <ele>43.948464</ele>
        <time>2026-03-26T19:31:58.171Z</time>
      </trkpt>
      <trkpt lat="43.795277" lon="-0.995917">
        <ele>47.759227</ele>
        <time>2026-03-26T19:32:32.152Z</time>
      </trkpt>
      <trkpt lat="43.795501" lon="-0.995880">
        <ele>48.072725</ele>
        <time>2026-03-26T19:32:35.527Z</time>
      </trkpt>
      <trkpt lat="43.795730" lon="-0.995898">
        <ele>48.391478</ele>
        <time>2026-03-26T19:32:38.866Z</time>
      </trkpt>
      <trkpt lat="43.796124" lon="-0.996044">
        <ele>48.958267</ele>
        <time>2026-03-26T19:32:44.599Z</time>
      </trkpt>
      <trkpt lat="43.800148" lon="-0.998560">
        <ele>53.022122</ele>
        <time>2026-03-26T19:33:39.476Z</time>
      </trkpt>
      <trkpt lat="43.803651" lon="-1.000741">
        <ele>57.396855</ele>
        <time>2026-03-26T19:34:31.399Z</time>
      </trkpt>
      <trkpt lat="43.804369" lon="-1.001189">
        <ele>58.190885</ele>
        <time>2026-03-26T19:34:41.755Z</time>
      </trkpt>
      <trkpt lat="43.804612" lon="-1.001269">
        <ele>58.442740</ele>
        <time>2026-03-26T19:34:44.939Z</time>
      </trkpt>
      <trkpt lat="43.804842" lon="-1.001298">
        <ele>58.675623</ele>
        <time>2026-03-26T19:34:47.838Z</time>
      </trkpt>
      <trkpt lat="43.806617" lon="-1.001202">
        <ele>59.988541</ele>
        <time>2026-03-26T19:35:09.441Z</time>
      </trkpt>
      <trkpt lat="43.806654" lon="-1.001334">
        <ele>60.050236</ele>
        <time>2026-03-26T19:35:10.852Z</time>
      </trkpt>
      <trkpt lat="43.806887" lon="-1.002164">
        <ele>60.356684</ele>
        <time>2026-03-26T19:35:19.552Z</time>
      </trkpt>
      <trkpt lat="43.809563" lon="-1.011715">
        <ele>63.893340</ele>
        <time>2026-03-26T19:36:56.694Z</time>
      </trkpt>
      <trkpt lat="43.809803" lon="-1.012569">
        <ele>64.257579</ele>
        <time>2026-03-26T19:37:05.607Z</time>
      </trkpt>
      <trkpt lat="43.809948" lon="-1.012877">
        <ele>64.407096</ele>
        <time>2026-03-26T19:37:09.238Z</time>
      </trkpt>
      <trkpt lat="43.811758" lon="-1.015058">
        <ele>66.058943</ele>
        <time>2026-03-26T19:37:42.499Z</time>
      </trkpt>
      <trkpt lat="43.813415" lon="-1.016906">
        <ele>67.409122</ele>
        <time>2026-03-26T19:38:11.268Z</time>
      </trkpt>
      <trkpt lat="43.814928" lon="-1.018499">
        <ele>68.559526</ele>
        <time>2026-03-26T19:38:37.309Z</time>
      </trkpt>
      <trkpt lat="43.817142" lon="-1.021232">
        <ele>70.183018</ele>
        <time>2026-03-26T19:39:16.989Z</time>
      </trkpt>
      <trkpt lat="43.820571" lon="-1.025484">
        <ele>72.496980</ele>
        <time>2026-03-26T19:40:17.822Z</time>
      </trkpt>
      <trkpt lat="43.824937" lon="-1.030558">
        <ele>75.270205</ele>
        <time>2026-03-26T19:41:33.395Z</time>
      </trkpt>
      <trkpt lat="43.826598" lon="-1.032434">
        <ele>76.084202</ele>
        <time>2026-03-26T19:42:01.010Z</time>
      </trkpt>
      <trkpt lat="43.826859" lon="-1.032729">
        <ele>76.199408</ele>
        <time>2026-03-26T19:42:05.348Z</time>
      </trkpt>
      <trkpt lat="43.830488" lon="-1.036825">
        <ele>77.731529</ele>
        <time>2026-03-26T19:42:57.596Z</time>
      </trkpt>
      <trkpt lat="43.830739" lon="-1.037169">
        <ele>77.811146</ele>
        <time>2026-03-26T19:43:01.349Z</time>
      </trkpt>
      <trkpt lat="43.832774" lon="-1.040257">
        <ele>78.391389</ele>
        <time>2026-03-26T19:43:33.827Z</time>
      </trkpt>
      <trkpt lat="43.836664" lon="-1.046128">
        <ele>79.349707</ele>
        <time>2026-03-26T19:44:35.512Z</time>
      </trkpt>
      <trkpt lat="43.836884" lon="-1.046460">
        <ele>79.318545</ele>
        <time>2026-03-26T19:44:38.877Z</time>
      </trkpt>
      <trkpt lat="43.836965" lon="-1.046506">
        <ele>79.310157</ele>
        <time>2026-03-26T19:44:39.772Z</time>
      </trkpt>
      <trkpt lat="43.837025" lon="-1.046506">
        <ele>79.304408</ele>
        <time>2026-03-26T19:44:40.385Z</time>
      </trkpt>
      <trkpt lat="43.839329" lon="-1.045749">
        <ele>79.086419</ele>
        <time>2026-03-26T19:45:04.126Z</time>
      </trkpt>
      <trkpt lat="43.840239" lon="-1.045450">
        <ele>79.046950</ele>
        <time>2026-03-26T19:45:13.623Z</time>
      </trkpt>
      <trkpt lat="43.842173" lon="-1.044781">
        <ele>79.349556</ele>
        <time>2026-03-26T19:45:34.980Z</time>
      </trkpt>
      <trkpt lat="43.842672" lon="-1.046034">
        <ele>79.609126</ele>
        <time>2026-03-26T19:45:48.073Z</time>
      </trkpt>
      <trkpt lat="43.844756" lon="-1.051268">
        <ele>80.704119</ele>
        <time>2026-03-26T19:46:42.763Z</time>
      </trkpt>
      <trkpt lat="43.845492" lon="-1.053042">
        <ele>80.802945</ele>
        <time>2026-03-26T19:47:00.313Z</time>
      </trkpt>
      <trkpt lat="43.845666" lon="-1.053461">
        <ele>80.812877</ele>
        <time>2026-03-26T19:47:04.442Z</time>
      </trkpt>
      <trkpt lat="43.852109" lon="-1.053413">
        <ele>80.983286</ele>
        <time>2026-03-26T19:48:21.764Z</time>
      </trkpt>
      <trkpt lat="43.858639" lon="-1.053402">
        <ele>80.963720</ele>
        <time>2026-03-26T19:49:39.359Z</time>
      </trkpt>
      <trkpt lat="43.861733" lon="-1.053346">
        <ele>81.317633</ele>
        <time>2026-03-26T19:50:17.198Z</time>
      </trkpt>
      <trkpt lat="43.864431" lon="-1.053337">
        <ele>81.652517</ele>
        <time>2026-03-26T19:50:50.848Z</time>
      </trkpt>
      <trkpt lat="43.864903" lon="-1.053335">
        <ele>81.679184</ele>
        <time>2026-03-26T19:50:56.406Z</time>
      </trkpt>
      <trkpt lat="43.865345" lon="-1.053324">
        <ele>81.604436</ele>
        <time>2026-03-26T19:51:04.630Z</time>
      </trkpt>
      <trkpt lat="43.865674" lon="-1.053086">
        <ele>81.483229</ele>
        <time>2026-03-26T19:51:08.195Z</time>
      </trkpt>
      <trkpt lat="43.866186" lon="-1.052527">
        <ele>81.270387</ele>
        <time>2026-03-26T19:51:14.427Z</time>
      </trkpt>
      <trkpt lat="43.866359" lon="-1.052386">
        <ele>81.204842</ele>
        <time>2026-03-26T19:51:16.366Z</time>
      </trkpt>
      <trkpt lat="43.866542" lon="-1.052320">
        <ele>81.143077</ele>
        <time>2026-03-26T19:51:18.209Z</time>
      </trkpt>
      <trkpt lat="43.866863" lon="-1.052313">
        <ele>81.123773</ele>
        <time>2026-03-26T19:51:21.373Z</time>
      </trkpt>
      <trkpt lat="43.867200" lon="-1.052359">
        <ele>81.161703</ele>
        <time>2026-03-26T19:51:24.791Z</time>
      </trkpt>
      <trkpt lat="43.868066" lon="-1.052490">
        <ele>81.259278</ele>
        <time>2026-03-26T19:51:34.146Z</time>
      </trkpt>
      <trkpt lat="43.868087" lon="-1.052491">
        <ele>81.261632</ele>
        <time>2026-03-26T19:51:34.374Z</time>
      </trkpt>
      <trkpt lat="43.868389" lon="-1.052502">
        <ele>81.295470</ele>
        <time>2026-03-26T19:51:37.733Z</time>
      </trkpt>
      <trkpt lat="43.868726" lon="-1.052592">
        <ele>81.451429</ele>
        <time>2026-03-26T19:51:42.224Z</time>
      </trkpt>
      <trkpt lat="43.869086" lon="-1.052643">
        <ele>81.648033</ele>
        <time>2026-03-26T19:51:47.097Z</time>
      </trkpt>
      <trkpt lat="43.869271" lon="-1.052602">
        <ele>81.749818</ele>
        <time>2026-03-26T19:51:49.679Z</time>
      </trkpt>
      <trkpt lat="43.869630" lon="-1.052436">
        <ele>81.955412</ele>
        <time>2026-03-26T19:51:54.967Z</time>
      </trkpt>
      <trkpt lat="43.869962" lon="-1.052326">
        <ele>82.140861</ele>
        <time>2026-03-26T19:51:59.631Z</time>
      </trkpt>
      <trkpt lat="43.870561" lon="-1.052185">
        <ele>82.357438</ele>
        <time>2026-03-26T19:52:07.724Z</time>
      </trkpt>
      <trkpt lat="43.872092" lon="-1.051754">
        <ele>82.683917</ele>
        <time>2026-03-26T19:52:26.882Z</time>
      </trkpt>
      <trkpt lat="43.875002" lon="-1.051107">
        <ele>82.901101</ele>
        <time>2026-03-26T19:53:02.523Z</time>
      </trkpt>
      <trkpt lat="43.877799" lon="-1.050484">
        <ele>83.059328</ele>
        <time>2026-03-26T19:53:36.847Z</time>
      </trkpt>
      <trkpt lat="43.878600" lon="-1.050300">
        <ele>83.055491</ele>
        <time>2026-03-26T19:53:46.419Z</time>
      </trkpt>
      <trkpt lat="43.879064" lon="-1.050153">
        <ele>83.053242</ele>
        <time>2026-03-26T19:53:52.045Z</time>
      </trkpt>
      <trkpt lat="43.879201" lon="-1.050177">
        <ele>83.052551</ele>
        <time>2026-03-26T19:53:54.665Z</time>
      </trkpt>
      <trkpt lat="43.879900" lon="-1.050018">
        <ele>83.048984</ele>
        <time>2026-03-26T19:54:08.104Z</time>
      </trkpt>
      <trkpt lat="43.882058" lon="-1.049525">
        <ele>82.922292</ele>
        <time>2026-03-26T19:54:50.095Z</time>
      </trkpt>
      <trkpt lat="43.886405" lon="-1.048564">
        <ele>81.431674</ele>
        <time>2026-03-26T19:56:11.142Z</time>
      </trkpt>
      <trkpt lat="43.889888" lon="-1.047793">
        <ele>80.705197</ele>
        <time>2026-03-26T19:57:16.644Z</time>
      </trkpt>
      <trkpt lat="43.891568" lon="-1.047323">
        <ele>81.699814</ele>
        <time>2026-03-26T19:57:53.136Z</time>
      </trkpt>
      <trkpt lat="43.894637" lon="-1.046725">
        <ele>82.810833</ele>
        <time>2026-03-26T19:58:55.539Z</time>
      </trkpt>
      <trkpt lat="43.897716" lon="-1.046546">
        <ele>82.118990</ele>
        <time>2026-03-26T19:59:52.483Z</time>
      </trkpt>
      <trkpt lat="43.897716" lon="-1.046546">
        <ele>82.118990</ele>
        <time>2026-03-26T19:59:52.487Z</time>
      </trkpt>
      <trkpt lat="43.897777" lon="-1.045848">
        <ele>82.008384</ele>
        <time>2026-03-26T20:00:03.321Z</time>
      </trkpt>
      <trkpt lat="43.897838" lon="-1.045150">
        <ele>81.925803</ele>
        <time>2026-03-26T20:00:14.155Z</time>
      </trkpt>
      <trkpt lat="43.897594" lon="-1.044230">
        <ele>82.045082</ele>
        <time>2026-03-26T20:00:29.261Z</time>
      </trkpt>
      <trkpt lat="43.897351" lon="-1.043309">
        <ele>82.164417</ele>
        <time>2026-03-26T20:00:44.374Z</time>
      </trkpt>
      <trkpt lat="43.897107" lon="-1.042389">
        <ele>82.305213</ele>
        <time>2026-03-26T20:00:59.479Z</time>
      </trkpt>
      <trkpt lat="43.896863" lon="-1.041468">
        <ele>82.463288</ele>
        <time>2026-03-26T20:01:14.600Z</time>
      </trkpt>
      <trkpt lat="43.896401" lon="-1.040559">
        <ele>82.646295</ele>
        <time>2026-03-26T20:01:31.740Z</time>
      </trkpt>
      <trkpt lat="43.895939" lon="-1.039650">
        <ele>82.855077</ele>
        <time>2026-03-26T20:01:48.880Z</time>
      </trkpt>
      <trkpt lat="43.895477" lon="-1.038741">
        <ele>83.063859</ele>
        <time>2026-03-26T20:02:06.021Z</time>
      </trkpt>
      <trkpt lat="43.895014" lon="-1.037833">
        <ele>82.962815</ele>
        <time>2026-03-26T20:02:23.161Z</time>
      </trkpt>
      <trkpt lat="43.894552" lon="-1.036924">
        <ele>82.821500</ele>
        <time>2026-03-26T20:02:40.301Z</time>
      </trkpt>
      <trkpt lat="43.894090" lon="-1.036015">
        <ele>82.676014</ele>
        <time>2026-03-26T20:02:57.442Z</time>
      </trkpt>
      <trkpt lat="43.893880" lon="-1.035020">
        <ele>82.538233</ele>
        <time>2026-03-26T20:03:13.419Z</time>
      </trkpt>
      <trkpt lat="43.893670" lon="-1.034025">
        <ele>82.547143</ele>
        <time>2026-03-26T20:03:29.395Z</time>
      </trkpt>
      <trkpt lat="43.893461" lon="-1.033029">
        <ele>82.932705</ele>
        <time>2026-03-26T20:03:45.381Z</time>
      </trkpt>
      <trkpt lat="43.893251" lon="-1.032034">
        <ele>83.318056</ele>
        <time>2026-03-26T20:04:01.358Z</time>
      </trkpt>
      <trkpt lat="43.893041" lon="-1.031039">
        <ele>83.422200</ele>
        <time>2026-03-26T20:04:17.335Z</time>
      </trkpt>
      <trkpt lat="43.893217" lon="-1.030887">
        <ele>83.439808</ele>
        <time>2026-03-26T20:04:21.767Z</time>
      </trkpt>
      <trkpt lat="43.895460" lon="-1.029949">
        <ele>83.229621</ele>
        <time>2026-03-26T20:05:05.335Z</time>
      </trkpt>
      <trkpt lat="43.911943" lon="-1.022877">
        <ele>83.930709</ele>
        <time>2026-03-26T20:10:36.820Z</time>
      </trkpt>
      <trkpt lat="43.913329" lon="-1.022270">
        <ele>83.734514</ele>
        <time>2026-03-26T20:11:03.638Z</time>
      </trkpt>
      <trkpt lat="43.913587" lon="-1.022156">
        <ele>83.745819</ele>
        <time>2026-03-26T20:11:08.681Z</time>
      </trkpt>
      <trkpt lat="43.920701" lon="-1.029487">
        <ele>84.145530</ele>
        <time>2026-03-26T20:14:27.636Z</time>
      </trkpt>
      <trkpt lat="43.920701" lon="-1.029487">
        <ele>84.145530</ele>
        <time>2026-03-26T20:14:27.645Z</time>
      </trkpt>
      <trkpt lat="43.921261" lon="-1.028919">
        <ele>84.124897</ele>
        <time>2026-03-26T20:14:42.475Z</time>
      </trkpt>
      <trkpt lat="43.921822" lon="-1.028350">
        <ele>84.104359</ele>
        <time>2026-03-26T20:14:57.331Z</time>
      </trkpt>
      <trkpt lat="43.922383" lon="-1.027781">
        <ele>84.085467</ele>
        <time>2026-03-26T20:15:12.188Z</time>
      </trkpt>
      <trkpt lat="43.922837" lon="-1.028049">
        <ele>84.072051</ele>
        <time>2026-03-26T20:15:22.738Z</time>
      </trkpt>
      <trkpt lat="43.923445" lon="-1.028914">
        <ele>84.092975</ele>
        <time>2026-03-26T20:15:41.353Z</time>
      </trkpt>
      <trkpt lat="43.924036" lon="-1.029551">
        <ele>84.179612</ele>
        <time>2026-03-26T20:15:57.352Z</time>
      </trkpt>
      <trkpt lat="43.924693" lon="-1.030125">
        <ele>84.267301</ele>
        <time>2026-03-26T20:16:13.952Z</time>
      </trkpt>
      <trkpt lat="43.925411" lon="-1.030555">
        <ele>84.312230</ele>
        <time>2026-03-26T20:16:30.672Z</time>
      </trkpt>
      <trkpt lat="43.926256" lon="-1.030871">
        <ele>84.362512</ele>
        <time>2026-03-26T20:16:49.385Z</time>
      </trkpt>
      <trkpt lat="43.927139" lon="-1.030997">
        <ele>84.308917</ele>
        <time>2026-03-26T20:17:08.367Z</time>
      </trkpt>
      <trkpt lat="43.928028" lon="-1.030980">
        <ele>84.241348</ele>
        <time>2026-03-26T20:17:27.379Z</time>
      </trkpt>
      <trkpt lat="43.928647" lon="-1.030768">
        <ele>84.329122</ele>
        <time>2026-03-26T20:17:41.012Z</time>
      </trkpt>
      <trkpt lat="43.929267" lon="-1.030556">
        <ele>84.450570</ele>
        <time>2026-03-26T20:17:54.666Z</time>
      </trkpt>
      <trkpt lat="43.929775" lon="-1.030208">
        <ele>84.558312</ele>
        <time>2026-03-26T20:18:06.779Z</time>
      </trkpt>
      <trkpt lat="43.930284" lon="-1.029859">
        <ele>84.593304</ele>
        <time>2026-03-26T20:18:18.918Z</time>
      </trkpt>
      <trkpt lat="43.930657" lon="-1.029504">
        <ele>84.611374</ele>
        <time>2026-03-26T20:18:28.588Z</time>
      </trkpt>
      <trkpt lat="43.931031" lon="-1.029148">
        <ele>84.629494</ele>
        <time>2026-03-26T20:18:38.284Z</time>
      </trkpt>
      <trkpt lat="43.931483" lon="-1.028476">
        <ele>84.665127</ele>
        <time>2026-03-26T20:18:52.444Z</time>
      </trkpt>
      <trkpt lat="43.931935" lon="-1.027803">
        <ele>84.715445</ele>
        <time>2026-03-26T20:19:06.616Z</time>
      </trkpt>
      <trkpt lat="43.932358" lon="-1.026812">
        <ele>84.778435</ele>
        <time>2026-03-26T20:19:24.356Z</time>
      </trkpt>
      <trkpt lat="43.932631" lon="-1.026115">
        <ele>84.748678</ele>
        <time>2026-03-26T20:19:36.575Z</time>
      </trkpt>
      <trkpt lat="43.932811" lon="-1.025294">
        <ele>84.708686</ele>
        <time>2026-03-26T20:19:49.791Z</time>
      </trkpt>
      <trkpt lat="43.932991" lon="-1.024472">
        <ele>84.668649</ele>
        <time>2026-03-26T20:20:03.021Z</time>
      </trkpt>
      <trkpt lat="43.933034" lon="-1.023536">
        <ele>84.642326</ele>
        <time>2026-03-26T20:20:17.465Z</time>
      </trkpt>
      <trkpt lat="43.933078" lon="-1.022599">
        <ele>84.617121</ele>
        <time>2026-03-26T20:20:31.925Z</time>
      </trkpt>
      <trkpt lat="43.933005" lon="-1.021869">
        <ele>84.604206</ele>
        <time>2026-03-26T20:20:43.274Z</time>
      </trkpt>
      <trkpt lat="43.932932" lon="-1.021140">
        <ele>84.671229</ele>
        <time>2026-03-26T20:20:54.608Z</time>
      </trkpt>
      <trkpt lat="43.932683" lon="-1.020026">
        <ele>84.777448</ele>
        <time>2026-03-26T20:21:12.571Z</time>
      </trkpt>
      <trkpt lat="43.932785" lon="-1.019941">
        <ele>84.792490</ele>
        <time>2026-03-26T20:21:15.114Z</time>
      </trkpt>
      <trkpt lat="43.940195" lon="-1.017834">
        <ele>85.484084</ele>
        <time>2026-03-26T20:22:47.164Z</time>
      </trkpt>
      <trkpt lat="43.945920" lon="-1.015686">
        <ele>85.827383</ele>
        <time>2026-03-26T20:23:58.311Z</time>
      </trkpt>
      <trkpt lat="43.946611" lon="-1.015675">
        <ele>85.980741</ele>
        <time>2026-03-26T20:24:07.203Z</time>
      </trkpt>
      <trkpt lat="43.949525" lon="-1.015855">
        <ele>86.651733</ele>
        <time>2026-03-26T20:24:43.718Z</time>
      </trkpt>
      <trkpt lat="43.951049" lon="-1.016022">
        <ele>87.056924</ele>
        <time>2026-03-26T20:25:03.246Z</time>
      </trkpt>
      <trkpt lat="43.951278" lon="-1.016146">
        <ele>87.109026</ele>
        <time>2026-03-26T20:25:06.343Z</time>
      </trkpt>
      <trkpt lat="43.953828" lon="-1.018263">
        <ele>87.630358</ele>
        <time>2026-03-26T20:25:42.921Z</time>
      </trkpt>
      <trkpt lat="43.956041" lon="-1.018675">
        <ele>88.213130</ele>
        <time>2026-03-26T20:26:11.031Z</time>
      </trkpt>
      <trkpt lat="43.957457" lon="-1.018939">
        <ele>88.607379</ele>
        <time>2026-03-26T20:26:29.421Z</time>
      </trkpt>
      <trkpt lat="43.962889" lon="-1.019951">
        <ele>88.662008</ele>
        <time>2026-03-26T20:27:34.547Z</time>
      </trkpt>
      <trkpt lat="43.963294" lon="-1.020027">
        <ele>88.726760</ele>
        <time>2026-03-26T20:27:39.739Z</time>
      </trkpt>
      <trkpt lat="43.963478" lon="-1.020061">
        <ele>88.756170</ele>
        <time>2026-03-26T20:27:42.077Z</time>
      </trkpt>
      <trkpt lat="43.963425" lon="-1.019395">
        <ele>88.832585</ele>
        <time>2026-03-26T20:27:47.341Z</time>
      </trkpt>
      <trkpt lat="43.963874" lon="-1.019411">
        <ele>88.903749</ele>
        <time>2026-03-26T20:27:56.183Z</time>
      </trkpt>
      <trkpt lat="43.964365" lon="-1.019347">
        <ele>88.878184</ele>
        <time>2026-03-26T20:28:05.758Z</time>
      </trkpt>
      <trkpt lat="43.964496" lon="-1.019368">
        <ele>88.861601</ele>
        <time>2026-03-26T20:28:08.253Z</time>
      </trkpt>
      <trkpt lat="43.964592" lon="-1.019455">
        <ele>88.847188</ele>
        <time>2026-03-26T20:28:10.387Z</time>
      </trkpt>
      <trkpt lat="43.965114" lon="-1.019926">
        <ele>88.768918</ele>
        <time>2026-03-26T20:28:21.930Z</time>
      </trkpt>
      <trkpt lat="43.965260" lon="-1.019948">
        <ele>88.750451</ele>
        <time>2026-03-26T20:28:24.676Z</time>
      </trkpt>
      <trkpt lat="43.965554" lon="-1.019862">
        <ele>88.712670</ele>
        <time>2026-03-26T20:28:30.279Z</time>
      </trkpt>
      <trkpt lat="43.965998" lon="-1.019685">
        <ele>88.720936</ele>
        <time>2026-03-26T20:28:38.953Z</time>
      </trkpt>
      <trkpt lat="43.970314" lon="-1.016756">
        <ele>89.015215</ele>
        <time>2026-03-26T20:30:11.866Z</time>
      </trkpt>
      <trkpt lat="43.970812" lon="-1.016584">
        <ele>89.002768</ele>
        <time>2026-03-26T20:30:21.519Z</time>
      </trkpt>
      <trkpt lat="43.972876" lon="-1.016147">
        <ele>88.883811</ele>
        <time>2026-03-26T20:31:00.946Z</time>
      </trkpt>
      <trkpt lat="43.973824" lon="-1.015946">
        <ele>88.925526</ele>
        <time>2026-03-26T20:31:19.449Z</time>
      </trkpt>
      <trkpt lat="43.974322" lon="-1.015452">
        <ele>88.921931</ele>
        <time>2026-03-26T20:31:31.260Z</time>
      </trkpt>
      <trkpt lat="43.974912" lon="-1.015044">
        <ele>88.889582</ele>
        <time>2026-03-26T20:31:43.848Z</time>
      </trkpt>
      <trkpt lat="43.975812" lon="-1.014191">
        <ele>88.815049</ele>
        <time>2026-03-26T20:32:04.297Z</time>
      </trkpt>
      <trkpt lat="43.976186" lon="-1.013693">
        <ele>88.750115</ele>
        <time>2026-03-26T20:32:14.046Z</time>
      </trkpt>
      <trkpt lat="43.977317" lon="-1.012571">
        <ele>88.601782</ele>
        <time>2026-03-26T20:32:40.370Z</time>
      </trkpt>
      <trkpt lat="43.978111" lon="-1.012217">
        <ele>88.553271</ele>
        <time>2026-03-26T20:32:56.091Z</time>
      </trkpt>
      <trkpt lat="43.978402" lon="-1.011998">
        <ele>88.534018</ele>
        <time>2026-03-26T20:33:02.362Z</time>
      </trkpt>
      <trkpt lat="43.978682" lon="-1.011622">
        <ele>88.543386</ele>
        <time>2026-03-26T20:33:09.787Z</time>
      </trkpt>
      <trkpt lat="43.978939" lon="-1.011340">
        <ele>88.598911</ele>
        <time>2026-03-26T20:33:16.118Z</time>
      </trkpt>
      <trkpt lat="43.979767" lon="-1.010662">
        <ele>88.761872</ele>
        <time>2026-03-26T20:33:34.996Z</time>
      </trkpt>
      <trkpt lat="43.979935" lon="-1.010442">
        <ele>88.801015</ele>
        <time>2026-03-26T20:33:39.558Z</time>
      </trkpt>
      <trkpt lat="43.980085" lon="-1.010133">
        <ele>88.803683</ele>
        <time>2026-03-26T20:33:44.797Z</time>
      </trkpt>
      <trkpt lat="43.980176" lon="-1.009793">
        <ele>88.761656</ele>
        <time>2026-03-26T20:33:49.827Z</time>
      </trkpt>
      <trkpt lat="43.980286" lon="-1.009543">
        <ele>88.727707</ele>
        <time>2026-03-26T20:33:53.831Z</time>
      </trkpt>
      <trkpt lat="43.980425" lon="-1.009382">
        <ele>88.698573</ele>
        <time>2026-03-26T20:33:57.245Z</time>
      </trkpt>
      <trkpt lat="43.983644" lon="-1.008140">
        <ele>87.897116</ele>
        <time>2026-03-26T20:34:59.025Z</time>
      </trkpt>
      <trkpt lat="43.987214" lon="-1.006652">
        <ele>88.174621</ele>
        <time>2026-03-26T20:36:11.469Z</time>
      </trkpt>
      <trkpt lat="43.991584" lon="-1.004908">
        <ele>88.513016</ele>
        <time>2026-03-26T20:37:38.978Z</time>
      </trkpt>
      <trkpt lat="43.992193" lon="-1.004665">
        <ele>88.373728</ele>
        <time>2026-03-26T20:37:50.992Z</time>
      </trkpt>
      <trkpt lat="43.992633" lon="-1.003160">
        <ele>87.986245</ele>
        <time>2026-03-26T20:38:04.119Z</time>
      </trkpt>
      <trkpt lat="43.992806" lon="-1.002632">
        <ele>87.912447</ele>
        <time>2026-03-26T20:38:08.765Z</time>
      </trkpt>
      <trkpt lat="43.992921" lon="-1.002172">
        <ele>87.895821</ele>
        <time>2026-03-26T20:38:12.725Z</time>
      </trkpt>
      <trkpt lat="43.993020" lon="-1.001895">
        <ele>87.885261</ele>
        <time>2026-03-26T20:38:15.264Z</time>
      </trkpt>
      <trkpt lat="43.994118" lon="-0.998107">
        <ele>88.145101</ele>
        <time>2026-03-26T20:38:52.011Z</time>
      </trkpt>
      <trkpt lat="43.995840" lon="-0.999154">
        <ele>87.689845</ele>
        <time>2026-03-26T20:39:26.963Z</time>
      </trkpt>
      <trkpt lat="43.998700" lon="-1.000893">
        <ele>86.666978</ele>
        <time>2026-03-26T20:40:24.547Z</time>
      </trkpt>
      <trkpt lat="43.999105" lon="-1.001076">
        <ele>86.582606</ele>
        <time>2026-03-26T20:40:32.525Z</time>
      </trkpt>
      <trkpt lat="43.999464" lon="-1.001118">
        <ele>86.570171</ele>
        <time>2026-03-26T20:40:39.312Z</time>
      </trkpt>
      <trkpt lat="43.999788" lon="-1.001472">
        <ele>86.555947</ele>
        <time>2026-03-26T20:40:47.139Z</time>
      </trkpt>
      <trkpt lat="44.000316" lon="-1.001837">
        <ele>86.535593</ele>
        <time>2026-03-26T20:40:58.424Z</time>
      </trkpt>
      <trkpt lat="44.004239" lon="-1.004178">
        <ele>86.607454</ele>
        <time>2026-03-26T20:42:20.648Z</time>
      </trkpt>
      <trkpt lat="44.009724" lon="-1.007452">
        <ele>84.593529</ele>
        <time>2026-03-26T20:44:10.762Z</time>
      </trkpt>
      <trkpt lat="44.011883" lon="-1.008741">
        <ele>83.679712</ele>
        <time>2026-03-26T20:44:53.976Z</time>
      </trkpt>
      <trkpt lat="44.015989" lon="-1.011247">
        <ele>81.714236</ele>
        <time>2026-03-26T20:46:16.097Z</time>
      </trkpt>
      <trkpt lat="44.020576" lon="-1.014047">
        <ele>79.759456</ele>
        <time>2026-03-26T20:47:48.139Z</time>
      </trkpt>
      <trkpt lat="44.020854" lon="-1.014315">
        <ele>79.773944</ele>
        <time>2026-03-26T20:47:54.584Z</time>
      </trkpt>
      <trkpt lat="44.021085" lon="-1.015012">
        <ele>79.797580</ele>
        <time>2026-03-26T20:48:05.254Z</time>
      </trkpt>
      <trkpt lat="44.021195" lon="-1.015179">
        <ele>79.804555</ele>
        <time>2026-03-26T20:48:08.430Z</time>
      </trkpt>
      <trkpt lat="44.022277" lon="-1.014881">
        <ele>79.914665</ele>
        <time>2026-03-26T20:48:22.330Z</time>
      </trkpt>
      <trkpt lat="44.022381" lon="-1.014793">
        <ele>79.932838</ele>
        <time>2026-03-26T20:48:23.791Z</time>
      </trkpt>
      <trkpt lat="44.022494" lon="-1.014555">
        <ele>79.963453</ele>
        <time>2026-03-26T20:48:26.228Z</time>
      </trkpt>
      <trkpt lat="44.022483" lon="-1.013955">
        <ele>80.027881</ele>
        <time>2026-03-26T20:48:31.470Z</time>
      </trkpt>
      <trkpt lat="44.022494" lon="-1.013785">
        <ele>80.046203</ele>
        <time>2026-03-26T20:48:33.026Z</time>
      </trkpt>
      <trkpt lat="44.022535" lon="-1.013635">
        <ele>80.063429</ele>
        <time>2026-03-26T20:48:34.477Z</time>
      </trkpt>
      <trkpt lat="44.022625" lon="-1.013513">
        <ele>80.082191</ele>
        <time>2026-03-26T20:48:36.073Z</time>
      </trkpt>
      <trkpt lat="44.022710" lon="-1.013458">
        <ele>80.089984</ele>
        <time>2026-03-26T20:48:37.249Z</time>
      </trkpt>
      <trkpt lat="44.022817" lon="-1.013402">
        <ele>80.017055</ele>
        <time>2026-03-26T20:48:38.712Z</time>
      </trkpt>
      <trkpt lat="44.023012" lon="-1.013380">
        <ele>79.892256</ele>
        <time>2026-03-26T20:48:41.172Z</time>
      </trkpt>
      <trkpt lat="44.023025" lon="-1.013729">
        <ele>79.731959</ele>
        <time>2026-03-26T20:48:44.188Z</time>
      </trkpt>
      <trkpt lat="44.023042" lon="-1.014274">
        <ele>79.481739</ele>
        <time>2026-03-26T20:48:48.614Z</time>
      </trkpt>
      <trkpt lat="44.023060" lon="-1.014879">
        <ele>79.203995</ele>
        <time>2026-03-26T20:48:53.242Z</time>
      </trkpt>
      <trkpt lat="44.023091" lon="-1.015717">
        <ele>78.828758</ele>
        <time>2026-03-26T20:48:59.093Z</time>
      </trkpt>
      <trkpt lat="44.023150" lon="-1.017241">
        <ele>78.181271</ele>
        <time>2026-03-26T20:49:10.545Z</time>
      </trkpt>
      <trkpt lat="44.023747" lon="-1.017045">
        <ele>77.932452</ele>
        <time>2026-03-26T20:49:18.164Z</time>
      </trkpt>
      <trkpt lat="44.023924" lon="-1.016951">
        <ele>78.009086</ele>
        <time>2026-03-26T20:49:20.830Z</time>
      </trkpt>
      <trkpt lat="44.024217" lon="-1.016678">
        <ele>78.151736</ele>
        <time>2026-03-26T20:49:26.031Z</time>
      </trkpt>
      <trkpt lat="44.024465" lon="-1.016280">
        <ele>78.304905</ele>
        <time>2026-03-26T20:49:31.057Z</time>
      </trkpt>
      <trkpt lat="44.024577" lon="-1.016148">
        <ele>78.364285</ele>
        <time>2026-03-26T20:49:32.675Z</time>
      </trkpt>
      <trkpt lat="44.024856" lon="-1.015928">
        <ele>78.494010</ele>
        <time>2026-03-26T20:49:35.804Z</time>
      </trkpt>
      <trkpt lat="44.025021" lon="-1.015870">
        <ele>78.562848</ele>
        <time>2026-03-26T20:49:37.369Z</time>
      </trkpt>
      <trkpt lat="44.025186" lon="-1.015845">
        <ele>78.579310</ele>
        <time>2026-03-26T20:49:38.850Z</time>
      </trkpt>
      <trkpt lat="44.025429" lon="-1.015869">
        <ele>78.366192</ele>
        <time>2026-03-26T20:49:40.993Z</time>
      </trkpt>
      <trkpt lat="44.027952" lon="-1.016502">
        <ele>76.213348</ele>
        <time>2026-03-26T20:50:04.160Z</time>
      </trkpt>
      <trkpt lat="44.030877" lon="-1.017206">
        <ele>74.423766</ele>
        <time>2026-03-26T20:50:31.886Z</time>
      </trkpt>
      <trkpt lat="44.030891" lon="-1.017431">
        <ele>74.390595</ele>
        <time>2026-03-26T20:50:33.808Z</time>
      </trkpt>
      <trkpt lat="44.030962" lon="-1.017700">
        <ele>74.348506</ele>
        <time>2026-03-26T20:50:36.271Z</time>
      </trkpt>
      <trkpt lat="44.031065" lon="-1.017880">
        <ele>74.314716</ele>
        <time>2026-03-26T20:50:38.247Z</time>
      </trkpt>
      <trkpt lat="44.031481" lon="-1.018429">
        <ele>74.197564</ele>
        <time>2026-03-26T20:50:45.237Z</time>
      </trkpt>
      <trkpt lat="44.032675" lon="-1.020004">
        <ele>73.690151</ele>
        <time>2026-03-26T20:51:03.941Z</time>
      </trkpt>
      <trkpt lat="44.033706" lon="-1.021349">
        <ele>73.236777</ele>
        <time>2026-03-26T20:51:19.886Z</time>
      </trkpt>
      <trkpt lat="44.034782" lon="-1.022753">
        <ele>72.779165</ele>
        <time>2026-03-26T20:51:36.768Z</time>
      </trkpt>
      <trkpt lat="44.036615" lon="-1.025118">
        <ele>71.928535</ele>
        <time>2026-03-26T20:52:05.241Z</time>
      </trkpt>
      <trkpt lat="44.036909" lon="-1.025585">
        <ele>71.758558</ele>
        <time>2026-03-26T20:52:10.233Z</time>
      </trkpt>
      <trkpt lat="44.037214" lon="-1.026440">
        <ele>71.318446</ele>
        <time>2026-03-26T20:52:17.766Z</time>
      </trkpt>
      <trkpt lat="44.037807" lon="-1.028386">
        <ele>70.329527</ele>
        <time>2026-03-26T20:52:34.285Z</time>
      </trkpt>
      <trkpt lat="44.038189" lon="-1.029721">
        <ele>69.631848</ele>
        <time>2026-03-26T20:52:45.686Z</time>
      </trkpt>
      <trkpt lat="44.039251" lon="-1.032218">
        <ele>67.957808</ele>
        <time>2026-03-26T20:53:08.068Z</time>
      </trkpt>
      <trkpt lat="44.039924" lon="-1.033800">
        <ele>66.735353</ele>
        <time>2026-03-26T20:53:22.053Z</time>
      </trkpt>
      <trkpt lat="44.040280" lon="-1.034576">
        <ele>66.137922</ele>
        <time>2026-03-26T20:53:29.095Z</time>
      </trkpt>
      <trkpt lat="44.041415" lon="-1.036493">
        <ele>64.754225</ele>
        <time>2026-03-26T20:53:48.354Z</time>
      </trkpt>
      <trkpt lat="44.042143" lon="-1.037678">
        <ele>64.140171</ele>
        <time>2026-03-26T20:54:00.580Z</time>
      </trkpt>
      <trkpt lat="44.042598" lon="-1.038367">
        <ele>63.794272</ele>
        <time>2026-03-26T20:54:08.181Z</time>
      </trkpt>
      <trkpt lat="44.043026" lon="-1.039164">
        <ele>63.552195</ele>
        <time>2026-03-26T20:54:16.583Z</time>
      </trkpt>
      <trkpt lat="44.043664" lon="-1.040005">
        <ele>63.254672</ele>
        <time>2026-03-26T20:54:26.670Z</time>
      </trkpt>
      <trkpt lat="44.045568" lon="-1.042335">
        <ele>61.278848</ele>
        <time>2026-03-26T20:54:53.676Z</time>
      </trkpt>
      <trkpt lat="44.045772" lon="-1.042618">
        <ele>61.062912</ele>
        <time>2026-03-26T20:54:56.784Z</time>
      </trkpt>
      <trkpt lat="44.045968" lon="-1.043100">
        <ele>60.764553</ele>
        <time>2026-03-26T20:55:01.105Z</time>
      </trkpt>
      <trkpt lat="44.046050" lon="-1.043545">
        <ele>60.517051</ele>
        <time>2026-03-26T20:55:04.709Z</time>
      </trkpt>
      <trkpt lat="44.046284" lon="-1.044810">
        <ele>59.861291</ele>
        <time>2026-03-26T20:55:15.011Z</time>
      </trkpt>
      <trkpt lat="44.046388" lon="-1.045247">
        <ele>59.633195</ele>
        <time>2026-03-26T20:55:18.592Z</time>
      </trkpt>
      <trkpt lat="44.046969" lon="-1.046537">
        <ele>58.953868</ele>
        <time>2026-03-26T20:55:30.513Z</time>
      </trkpt>
      <trkpt lat="44.047195" lon="-1.047038">
        <ele>58.736025</ele>
        <time>2026-03-26T20:55:35.188Z</time>
      </trkpt>
      <trkpt lat="44.049424" lon="-1.051471">
        <ele>56.705848</ele>
        <time>2026-03-26T20:56:18.568Z</time>
      </trkpt>
      <trkpt lat="44.049856" lon="-1.052289">
        <ele>56.298570</ele>
        <time>2026-03-26T20:56:26.601Z</time>
      </trkpt>
      <trkpt lat="44.051954" lon="-1.056262">
        <ele>53.811477</ele>
        <time>2026-03-26T20:57:05.164Z</time>
      </trkpt>
      <trkpt lat="44.052269" lon="-1.056777">
        <ele>53.287311</ele>
        <time>2026-03-26T20:57:10.288Z</time>
      </trkpt>
      <trkpt lat="44.052628" lon="-1.057111">
        <ele>52.821564</ele>
        <time>2026-03-26T20:57:14.750Z</time>
      </trkpt>
      <trkpt lat="44.052875" lon="-1.057322">
        <ele>52.508985</ele>
        <time>2026-03-26T20:57:17.712Z</time>
      </trkpt>
      <trkpt lat="44.053659" lon="-1.057991">
        <ele>51.557390</ele>
        <time>2026-03-26T20:57:27.312Z</time>
      </trkpt>
      <trkpt lat="44.053999" lon="-1.058241">
        <ele>51.187424</ele>
        <time>2026-03-26T20:57:31.363Z</time>
      </trkpt>
      <trkpt lat="44.054207" lon="-1.058394">
        <ele>50.961073</ele>
        <time>2026-03-26T20:57:33.854Z</time>
      </trkpt>
      <trkpt lat="44.054375" lon="-1.058569">
        <ele>50.759172</ele>
        <time>2026-03-26T20:57:36.080Z</time>
      </trkpt>
      <trkpt lat="44.054483" lon="-1.058727">
        <ele>50.608407</ele>
        <time>2026-03-26T20:57:37.752Z</time>
      </trkpt>
      <trkpt lat="44.054549" lon="-1.058944">
        <ele>50.445487</ele>
        <time>2026-03-26T20:57:39.562Z</time>
      </trkpt>
      <trkpt lat="44.054651" lon="-1.059745">
        <ele>50.004282</ele>
        <time>2026-03-26T20:57:45.830Z</time>
      </trkpt>
      <trkpt lat="44.054745" lon="-1.060476">
        <ele>49.715823</ele>
        <time>2026-03-26T20:57:51.568Z</time>
      </trkpt>
      <trkpt lat="44.054815" lon="-1.062563">
        <ele>49.193464</ele>
        <time>2026-03-26T20:58:08.609Z</time>
      </trkpt>
      <trkpt lat="44.054778" lon="-1.062924">
        <ele>49.196409</ele>
        <time>2026-03-26T20:58:11.716Z</time>
      </trkpt>
      <trkpt lat="44.054668" lon="-1.063550">
        <ele>49.201614</ele>
        <time>2026-03-26T20:58:17.321Z</time>
      </trkpt>
      <trkpt lat="44.054708" lon="-1.063990">
        <ele>49.205195</ele>
        <time>2026-03-26T20:58:21.284Z</time>
      </trkpt>
      <trkpt lat="44.055094" lon="-1.064933">
        <ele>49.389452</ele>
        <time>2026-03-26T20:58:31.377Z</time>
      </trkpt>
      <trkpt lat="44.055625" lon="-1.066229">
        <ele>49.743969</ele>
        <time>2026-03-26T20:58:45.452Z</time>
      </trkpt>
      <trkpt lat="44.055790" lon="-1.066624">
        <ele>49.710001</ele>
        <time>2026-03-26T20:58:49.530Z</time>
      </trkpt>
      <trkpt lat="44.055961" lon="-1.067097">
        <ele>49.477146</ele>
        <time>2026-03-26T20:58:54.228Z</time>
      </trkpt>
      <trkpt lat="44.056230" lon="-1.067841">
        <ele>49.110873</ele>
        <time>2026-03-26T20:59:00.828Z</time>
      </trkpt>
      <trkpt lat="44.056413" lon="-1.068192">
        <ele>48.920167</ele>
        <time>2026-03-26T20:59:04.006Z</time>
      </trkpt>
      <trkpt lat="44.056531" lon="-1.068300">
        <ele>48.833738</ele>
        <time>2026-03-26T20:59:05.434Z</time>
      </trkpt>
      <trkpt lat="44.056744" lon="-1.068422">
        <ele>48.686549</ele>
        <time>2026-03-26T20:59:07.782Z</time>
      </trkpt>
      <trkpt lat="44.057013" lon="-1.068597">
        <ele>48.380104</ele>
        <time>2026-03-26T20:59:10.799Z</time>
      </trkpt>
      <trkpt lat="44.057136" lon="-1.068725">
        <ele>48.221599</ele>
        <time>2026-03-26T20:59:12.376Z</time>
      </trkpt>
      <trkpt lat="44.057253" lon="-1.068887">
        <ele>48.051265</ele>
        <time>2026-03-26T20:59:14.066Z</time>
      </trkpt>
      <trkpt lat="44.057345" lon="-1.069066">
        <ele>47.888056</ele>
        <time>2026-03-26T20:59:15.676Z</time>
      </trkpt>
      <trkpt lat="44.057629" lon="-1.069729">
        <ele>47.315634</ele>
        <time>2026-03-26T20:59:21.363Z</time>
      </trkpt>
      <trkpt lat="44.057693" lon="-1.069818">
        <ele>47.222259</ele>
        <time>2026-03-26T20:59:22.338Z</time>
      </trkpt>
      <trkpt lat="44.058023" lon="-1.070070">
        <ele>46.841256</ele>
        <time>2026-03-26T20:59:26.619Z</time>
      </trkpt>
      <trkpt lat="44.058122" lon="-1.070186">
        <ele>46.791482</ele>
        <time>2026-03-26T20:59:28.123Z</time>
      </trkpt>
      <trkpt lat="44.058380" lon="-1.070841">
        <ele>46.585046</ele>
        <time>2026-03-26T20:59:34.429Z</time>
      </trkpt>
      <trkpt lat="44.058516" lon="-1.071303">
        <ele>46.447062</ele>
        <time>2026-03-26T20:59:38.566Z</time>
      </trkpt>
      <trkpt lat="44.058579" lon="-1.071518">
        <ele>46.382892</ele>
        <time>2026-03-26T20:59:40.466Z</time>
      </trkpt>
      <trkpt lat="44.058637" lon="-1.071797">
        <ele>46.302621</ele>
        <time>2026-03-26T20:59:42.830Z</time>
      </trkpt>
      <trkpt lat="44.058650" lon="-1.072063">
        <ele>46.228936</ele>
        <time>2026-03-26T20:59:44.985Z</time>
      </trkpt>
      <trkpt lat="44.058612" lon="-1.073485">
        <ele>45.007213</ele>
        <time>2026-03-26T20:59:55.964Z</time>
      </trkpt>
      <trkpt lat="44.058570" lon="-1.074008">
        <ele>44.483214</ele>
        <time>2026-03-26T20:59:59.800Z</time>
      </trkpt>
      <trkpt lat="44.058506" lon="-1.074388">
        <ele>44.094590</ele>
        <time>2026-03-26T21:00:02.587Z</time>
      </trkpt>
      <trkpt lat="44.058231" lon="-1.075518">
        <ele>41.848929</ele>
        <time>2026-03-26T21:00:10.628Z</time>
      </trkpt>
      <trkpt lat="44.058117" lon="-1.076091">
        <ele>40.427688</ele>
        <time>2026-03-26T21:00:14.429Z</time>
      </trkpt>
      <trkpt lat="44.057946" lon="-1.076652">
        <ele>38.971005</ele>
        <time>2026-03-26T21:00:18.232Z</time>
      </trkpt>
      <trkpt lat="44.057912" lon="-1.076832">
        <ele>38.526110</ele>
        <time>2026-03-26T21:00:19.379Z</time>
      </trkpt>
      <trkpt lat="44.057885" lon="-1.077226">
        <ele>37.593676</ele>
        <time>2026-03-26T21:00:21.816Z</time>
      </trkpt>
      <trkpt lat="44.057899" lon="-1.077543">
        <ele>36.939480</ele>
        <time>2026-03-26T21:00:23.790Z</time>
      </trkpt>
      <trkpt lat="44.057935" lon="-1.078071">
        <ele>35.847010</ele>
        <time>2026-03-26T21:00:27.110Z</time>
      </trkpt>
      <trkpt lat="44.058003" lon="-1.078375">
        <ele>35.191192</ele>
        <time>2026-03-26T21:00:29.157Z</time>
      </trkpt>
      <trkpt lat="44.058184" lon="-1.078892">
        <ele>34.006617</ele>
        <time>2026-03-26T21:00:32.963Z</time>
      </trkpt>
      <trkpt lat="44.059235" lon="-1.080764">
        <ele>31.259991</ele>
        <time>2026-03-26T21:00:50.268Z</time>
      </trkpt>
      <trkpt lat="44.060337" lon="-1.082615">
        <ele>30.307946</ele>
        <time>2026-03-26T21:01:09.794Z</time>
      </trkpt>
      <trkpt lat="44.060568" lon="-1.083236">
        <ele>30.170755</ele>
        <time>2026-03-26T21:01:15.533Z</time>
      </trkpt>
      <trkpt lat="44.060595" lon="-1.083422">
        <ele>30.133527</ele>
        <time>2026-03-26T21:01:17.101Z</time>
      </trkpt>
      <trkpt lat="44.060586" lon="-1.083603">
        <ele>30.229404</ele>
        <time>2026-03-26T21:01:18.639Z</time>
      </trkpt>
      <trkpt lat="44.060560" lon="-1.083720">
        <ele>30.335399</ele>
        <time>2026-03-26T21:01:19.714Z</time>
      </trkpt>
      <trkpt lat="44.060485" lon="-1.083851">
        <ele>30.480366</ele>
        <time>2026-03-26T21:01:21.226Z</time>
      </trkpt>
      <trkpt lat="44.060309" lon="-1.084012">
        <ele>30.734044</ele>
        <time>2026-03-26T21:01:23.997Z</time>
      </trkpt>
      <trkpt lat="44.059883" lon="-1.084222">
        <ele>31.278373</ele>
        <time>2026-03-26T21:01:30.473Z</time>
      </trkpt>
      <trkpt lat="44.059829" lon="-1.084246">
        <ele>31.346648</ele>
        <time>2026-03-26T21:01:31.341Z</time>
      </trkpt>
      <trkpt lat="44.059450" lon="-1.084407">
        <ele>31.823922</ele>
        <time>2026-03-26T21:01:37.030Z</time>
      </trkpt>
      <trkpt lat="44.058176" lon="-1.084775">
        <ele>35.194379</ele>
        <time>2026-03-26T21:01:59.572Z</time>
      </trkpt>
      <trkpt lat="44.057768" lon="-1.084983">
        <ele>36.573731</ele>
        <time>2026-03-26T21:02:08.134Z</time>
      </trkpt>
      <trkpt lat="44.057593" lon="-1.085172">
        <ele>37.276943</ele>
        <time>2026-03-26T21:02:12.777Z</time>
      </trkpt>
      <trkpt lat="44.057458" lon="-1.085394">
        <ele>37.940373</ele>
        <time>2026-03-26T21:02:17.332Z</time>
      </trkpt>
      <trkpt lat="44.057263" lon="-1.085829">
        <ele>39.041842</ele>
        <time>2026-03-26T21:02:25.400Z</time>
      </trkpt>
      <trkpt lat="44.057093" lon="-1.086336">
        <ele>40.239948</ele>
        <time>2026-03-26T21:02:33.926Z</time>
      </trkpt>
      <trkpt lat="44.056938" lon="-1.086696">
        <ele>41.138662</ele>
        <time>2026-03-26T21:02:39.942Z</time>
      </trkpt>
      <trkpt lat="44.056734" lon="-1.087018">
        <ele>42.057925</ele>
        <time>2026-03-26T21:02:45.422Z</time>
      </trkpt>
      <trkpt lat="44.056498" lon="-1.087391">
        <ele>43.122176</ele>
        <time>2026-03-26T21:02:50.816Z</time>
      </trkpt>
      <trkpt lat="44.056262" lon="-1.087764">
        <ele>43.451662</ele>
        <time>2026-03-26T21:02:55.285Z</time>
      </trkpt>
      <trkpt lat="44.056292" lon="-1.087890">
        <ele>43.483796</ele>
        <time>2026-03-26T21:02:57.123Z</time>
      </trkpt>
      <trkpt lat="44.056149" lon="-1.088530">
        <ele>43.646049</ele>
        <time>2026-03-26T21:03:06.095Z</time>
      </trkpt>
      <trkpt lat="44.056125" lon="-1.088670">
        <ele>43.680893</ele>
        <time>2026-03-26T21:03:08.027Z</time>
      </trkpt>
      <trkpt lat="44.055973" lon="-1.089544">
        <ele>43.898587</ele>
        <time>2026-03-26T21:03:20.216Z</time>
      </trkpt>
      <trkpt lat="44.055712" lon="-1.091608">
        <ele>44.599336</ele>
        <time>2026-03-26T21:03:51.872Z</time>
      </trkpt>
      <trkpt lat="44.055667" lon="-1.092219">
        <ele>44.813084</ele>
        <time>2026-03-26T21:04:00.853Z</time>
      </trkpt>
      <trkpt lat="44.055664" lon="-1.092419">
        <ele>44.735059</ele>
        <time>2026-03-26T21:04:03.657Z</time>
      </trkpt>
      <trkpt lat="44.055755" lon="-1.093554">
        <ele>43.904918</ele>
        <time>2026-03-26T21:04:18.568Z</time>
      </trkpt>
      <trkpt lat="44.055765" lon="-1.094247">
        <ele>43.401081</ele>
        <time>2026-03-26T21:04:26.975Z</time>
      </trkpt>
      <trkpt lat="44.055816" lon="-1.095205">
        <ele>42.733011</ele>
        <time>2026-03-26T21:04:38.324Z</time>
      </trkpt>
      <trkpt lat="44.055702" lon="-1.095432">
        <ele>42.551143</ele>
        <time>2026-03-26T21:04:40.230Z</time>
      </trkpt>
      <trkpt lat="44.055251" lon="-1.096050">
        <ele>41.972723</ele>
        <time>2026-03-26T21:04:46.579Z</time>
      </trkpt>
      <trkpt lat="44.055006" lon="-1.096385">
        <ele>41.658835</ele>
        <time>2026-03-26T21:04:50.428Z</time>
      </trkpt>
      <trkpt lat="44.054652" lon="-1.096935">
        <ele>41.678328</ele>
        <time>2026-03-26T21:04:57.822Z</time>
      </trkpt>
      <trkpt lat="44.054490" lon="-1.097244">
        <ele>42.066707</ele>
        <time>2026-03-26T21:05:02.246Z</time>
      </trkpt>
      <trkpt lat="44.054317" lon="-1.097675">
        <ele>42.567985</ele>
        <time>2026-03-26T21:05:08.411Z</time>
      </trkpt>
      <trkpt lat="44.054121" lon="-1.098254">
        <ele>43.217870</ele>
        <time>2026-03-26T21:05:16.522Z</time>
      </trkpt>
      <trkpt lat="44.053989" lon="-1.098806">
        <ele>43.808598</ele>
        <time>2026-03-26T21:05:23.408Z</time>
      </trkpt>
      <trkpt lat="44.053855" lon="-1.099536">
        <ele>43.945150</ele>
        <time>2026-03-26T21:05:31.032Z</time>
      </trkpt>
      <trkpt lat="44.053820" lon="-1.099883">
        <ele>43.962291</ele>
        <time>2026-03-26T21:05:34.037Z</time>
      </trkpt>
      <trkpt lat="44.053791" lon="-1.100301">
        <ele>43.982834</ele>
        <time>2026-03-26T21:05:37.446Z</time>
      </trkpt>
      <trkpt lat="44.053787" lon="-1.100829">
        <ele>44.008665</ele>
        <time>2026-03-26T21:05:41.659Z</time>
      </trkpt>
      <trkpt lat="44.053825" lon="-1.101576">
        <ele>44.026037</ele>
        <time>2026-03-26T21:05:47.598Z</time>
      </trkpt>
      <trkpt lat="44.053929" lon="-1.102237">
        <ele>43.992246</ele>
        <time>2026-03-26T21:05:53.156Z</time>
      </trkpt>
      <trkpt lat="44.054082" lon="-1.102872">
        <ele>43.958800</ele>
        <time>2026-03-26T21:05:59.064Z</time>
      </trkpt>
      <trkpt lat="44.054279" lon="-1.103503">
        <ele>43.924444</ele>
        <time>2026-03-26T21:06:05.396Z</time>
      </trkpt>
      <trkpt lat="44.054607" lon="-1.104288">
        <ele>43.623636</ele>
        <time>2026-03-26T21:06:13.296Z</time>
      </trkpt>
      <trkpt lat="44.057904" lon="-1.111416">
        <ele>39.815013</ele>
        <time>2026-03-26T21:07:19.424Z</time>
      </trkpt>
      <trkpt lat="44.060980" lon="-1.118159">
        <ele>36.679781</ele>
        <time>2026-03-26T21:08:23.884Z</time>
      </trkpt>
      <trkpt lat="44.061500" lon="-1.119098">
        <ele>34.994545</ele>
        <time>2026-03-26T21:08:32.157Z</time>
      </trkpt>
      <trkpt lat="44.062017" lon="-1.120428">
        <ele>32.128060</ele>
        <time>2026-03-26T21:08:41.915Z</time>
      </trkpt>
      <trkpt lat="44.062530" lon="-1.121603">
        <ele>30.231466</ele>
        <time>2026-03-26T21:08:50.961Z</time>
      </trkpt>
      <trkpt lat="44.062723" lon="-1.122020">
        <ele>29.597908</ele>
        <time>2026-03-26T21:08:54.494Z</time>
      </trkpt>
      <trkpt lat="44.063096" lon="-1.122826">
        <ele>28.550505</ele>
        <time>2026-03-26T21:09:01.995Z</time>
      </trkpt>
      <trkpt lat="44.063351" lon="-1.123475">
        <ele>28.923963</ele>
        <time>2026-03-26T21:09:08.916Z</time>
      </trkpt>
      <trkpt lat="44.063586" lon="-1.124580">
        <ele>29.505783</ele>
        <time>2026-03-26T21:09:21.118Z</time>
      </trkpt>
      <trkpt lat="44.063705" lon="-1.125600">
        <ele>30.105280</ele>
        <time>2026-03-26T21:09:32.605Z</time>
      </trkpt>
      <trkpt lat="44.063698" lon="-1.126335">
        <ele>30.585974</ele>
        <time>2026-03-26T21:09:40.577Z</time>
      </trkpt>
      <trkpt lat="44.063590" lon="-1.128818">
        <ele>31.241039</ele>
        <time>2026-03-26T21:10:04.643Z</time>
      </trkpt>
      <trkpt lat="44.063682" lon="-1.130047">
        <ele>31.081801</ele>
        <time>2026-03-26T21:10:14.164Z</time>
      </trkpt>
      <trkpt lat="44.063875" lon="-1.131002">
        <ele>30.537600</ele>
        <time>2026-03-26T21:10:21.508Z</time>
      </trkpt>
      <trkpt lat="44.064168" lon="-1.131849">
        <ele>30.011227</ele>
        <time>2026-03-26T21:10:28.765Z</time>
      </trkpt>
      <trkpt lat="44.068126" lon="-1.140829">
        <ele>28.436266</ele>
        <time>2026-03-26T21:11:56.904Z</time>
      </trkpt>
      <trkpt lat="44.068601" lon="-1.141983">
        <ele>28.183665</ele>
        <time>2026-03-26T21:12:07.542Z</time>
      </trkpt>
      <trkpt lat="44.068980" lon="-1.143050">
        <ele>27.954044</ele>
        <time>2026-03-26T21:12:17.423Z</time>
      </trkpt>
      <trkpt lat="44.069278" lon="-1.144039">
        <ele>27.778275</ele>
        <time>2026-03-26T21:12:26.537Z</time>
      </trkpt>
      <trkpt lat="44.069341" lon="-1.144246">
        <ele>27.741806</ele>
        <time>2026-03-26T21:12:28.430Z</time>
      </trkpt>
      <trkpt lat="44.069377" lon="-1.144333">
        <ele>27.725519</ele>
        <time>2026-03-26T21:12:29.281Z</time>
      </trkpt>
      <trkpt lat="44.069435" lon="-1.144374">
        <ele>27.710831</ele>
        <time>2026-03-26T21:12:30.037Z</time>
      </trkpt>
      <trkpt lat="44.069501" lon="-1.144360">
        <ele>27.695757</ele>
        <time>2026-03-26T21:12:30.827Z</time>
      </trkpt>
      <trkpt lat="44.069783" lon="-1.145650">
        <ele>27.403678</ele>
        <time>2026-03-26T21:12:40.216Z</time>
      </trkpt>
      <trkpt lat="44.070039" lon="-1.146819">
        <ele>26.961787</ele>
        <time>2026-03-26T21:12:48.421Z</time>
      </trkpt>
      <trkpt lat="44.070272" lon="-1.148080">
        <ele>26.543140</ele>
        <time>2026-03-26T21:12:57.313Z</time>
      </trkpt>
      <trkpt lat="44.070541" lon="-1.150013">
        <ele>26.095404</ele>
        <time>2026-03-26T21:13:11.106Z</time>
      </trkpt>
      <trkpt lat="44.070623" lon="-1.150399">
        <ele>26.087943</ele>
        <time>2026-03-26T21:13:14.025Z</time>
      </trkpt>
      <trkpt lat="44.070696" lon="-1.150592">
        <ele>26.109783</ele>
        <time>2026-03-26T21:13:15.882Z</time>
      </trkpt>
      <trkpt lat="44.070805" lon="-1.150877">
        <ele>26.142111</ele>
        <time>2026-03-26T21:13:18.658Z</time>
      </trkpt>
      <trkpt lat="44.070929" lon="-1.151213">
        <ele>26.179933</ele>
        <time>2026-03-26T21:13:21.973Z</time>
      </trkpt>
      <trkpt lat="44.071041" lon="-1.151733">
        <ele>26.234289</ele>
        <time>2026-03-26T21:13:26.828Z</time>
      </trkpt>
      <trkpt lat="44.071228" lon="-1.153022">
        <ele>26.484437</ele>
        <time>2026-03-26T21:13:38.985Z</time>
      </trkpt>
      <trkpt lat="44.071282" lon="-1.153574">
        <ele>26.664782</ele>
        <time>2026-03-26T21:13:44.512Z</time>
      </trkpt>
      <trkpt lat="44.071389" lon="-1.154650">
        <ele>27.016431</ele>
        <time>2026-03-26T21:13:55.139Z</time>
      </trkpt>
      <trkpt lat="44.071404" lon="-1.154782">
        <ele>27.059694</ele>
        <time>2026-03-26T21:13:56.376Z</time>
      </trkpt>
      <trkpt lat="44.071488" lon="-1.155476">
        <ele>26.934219</ele>
        <time>2026-03-26T21:14:02.581Z</time>
      </trkpt>
      <trkpt lat="44.071506" lon="-1.156520">
        <ele>26.544874</ele>
        <time>2026-03-26T21:14:10.920Z</time>
      </trkpt>
      <trkpt lat="44.071521" lon="-1.156783">
        <ele>26.446512</ele>
        <time>2026-03-26T21:14:12.924Z</time>
      </trkpt>
      <trkpt lat="44.071526" lon="-1.156884">
        <ele>26.408767</ele>
        <time>2026-03-26T21:14:13.576Z</time>
      </trkpt>
      <trkpt lat="44.071608" lon="-1.158352">
        <ele>25.149725</ele>
        <time>2026-03-26T21:14:22.953Z</time>
      </trkpt>
      <trkpt lat="44.071610" lon="-1.158598">
        <ele>24.860745</ele>
        <time>2026-03-26T21:14:24.466Z</time>
      </trkpt>
      <trkpt lat="44.071616" lon="-1.159163">
        <ele>24.197000</ele>
        <time>2026-03-26T21:14:27.863Z</time>
      </trkpt>
      <trkpt lat="44.071684" lon="-1.159689">
        <ele>23.569217</ele>
        <time>2026-03-26T21:14:30.962Z</time>
      </trkpt>
      <trkpt lat="44.071867" lon="-1.160375">
        <ele>22.693311</ele>
        <time>2026-03-26T21:14:35.123Z</time>
      </trkpt>
      <trkpt lat="44.072259" lon="-1.161076">
        <ele>21.618259</ele>
        <time>2026-03-26T21:14:40.159Z</time>
      </trkpt>
      <trkpt lat="44.073037" lon="-1.162431">
        <ele>20.445364</ele>
        <time>2026-03-26T21:14:51.290Z</time>
      </trkpt>
      <trkpt lat="44.073136" lon="-1.162551">
        <ele>20.516632</ele>
        <time>2026-03-26T21:14:52.911Z</time>
      </trkpt>
      <trkpt lat="44.073328" lon="-1.162729">
        <ele>20.641869</ele>
        <time>2026-03-26T21:14:55.882Z</time>
      </trkpt>
      <trkpt lat="44.073398" lon="-1.162792">
        <ele>20.687122</ele>
        <time>2026-03-26T21:14:56.951Z</time>
      </trkpt>
      <trkpt lat="44.073524" lon="-1.162904">
        <ele>20.768284</ele>
        <time>2026-03-26T21:14:58.926Z</time>
      </trkpt>
      <trkpt lat="44.073722" lon="-1.163076">
        <ele>20.894990</ele>
        <time>2026-03-26T21:15:02.097Z</time>
      </trkpt>
      <trkpt lat="44.073864" lon="-1.163263">
        <ele>21.001113</ele>
        <time>2026-03-26T21:15:04.788Z</time>
      </trkpt>
      <trkpt lat="44.074022" lon="-1.163671">
        <ele>21.181889</ele>
        <time>2026-03-26T21:15:09.434Z</time>
      </trkpt>
      <trkpt lat="44.074600" lon="-1.165155">
        <ele>22.171548</ele>
        <time>2026-03-26T21:15:24.746Z</time>
      </trkpt>
      <trkpt lat="44.074657" lon="-1.165300">
        <ele>22.269163</ele>
        <time>2026-03-26T21:15:26.138Z</time>
      </trkpt>
      <trkpt lat="44.075378" lon="-1.164633">
        <ele>22.765324</ele>
        <time>2026-03-26T21:15:37.827Z</time>
      </trkpt>
      <trkpt lat="44.075485" lon="-1.164535">
        <ele>22.796519</ele>
        <time>2026-03-26T21:15:39.552Z</time>
      </trkpt>
      <trkpt lat="44.075853" lon="-1.165286">
        <ele>22.955578</ele>
        <time>2026-03-26T21:15:48.176Z</time>
      </trkpt>
      <trkpt lat="44.075941" lon="-1.165465">
        <ele>22.993529</ele>
        <time>2026-03-26T21:15:50.069Z</time>
      </trkpt>
      <trkpt lat="44.076215" lon="-1.166020">
        <ele>23.111357</ele>
        <time>2026-03-26T21:15:55.560Z</time>
      </trkpt>
      <trkpt lat="44.075930" lon="-1.166445">
        <ele>23.058793</ele>
        <time>2026-03-26T21:15:59.629Z</time>
      </trkpt>
      <trkpt lat="44.075876" lon="-1.166527">
        <ele>23.048353</ele>
        <time>2026-03-26T21:16:00.419Z</time>
      </trkpt>
      <trkpt lat="44.075828" lon="-1.166598">
        <ele>23.039203</ele>
        <time>2026-03-26T21:16:01.115Z</time>
      </trkpt>
      <trkpt lat="44.075685" lon="-1.166812">
        <ele>23.011774</ele>
        <time>2026-03-26T21:16:03.219Z</time>
      </trkpt>
      <trkpt lat="44.075567" lon="-1.166981">
        <ele>22.989656</ele>
        <time>2026-03-26T21:16:04.962Z</time>
      </trkpt>
      <trkpt lat="44.075524" lon="-1.167041">
        <ele>22.981702</ele>
        <time>2026-03-26T21:16:05.589Z</time>
      </trkpt>
      <trkpt lat="44.075828" lon="-1.167484">
        <ele>22.924207</ele>
        <time>2026-03-26T21:16:10.133Z</time>
      </trkpt>
      <trkpt lat="44.075916" lon="-1.167612">
        <ele>22.907579</ele>
        <time>2026-03-26T21:16:11.422Z</time>
      </trkpt>
      <trkpt lat="44.076251" lon="-1.168050">
        <ele>22.635119</ele>
        <time>2026-03-26T21:16:16.194Z</time>
      </trkpt>
      <trkpt lat="44.076408" lon="-1.168202">
        <ele>22.434131</ele>
        <time>2026-03-26T21:16:18.080Z</time>
      </trkpt>
      <trkpt lat="44.076486" lon="-1.168214">
        <ele>22.351657</ele>
        <time>2026-03-26T21:16:18.836Z</time>
      </trkpt>
      <trkpt lat="44.076583" lon="-1.168195">
        <ele>22.248710</ele>
        <time>2026-03-26T21:16:19.741Z</time>
      </trkpt>
      <trkpt lat="44.076810" lon="-1.168061">
        <ele>21.989576</ele>
        <time>2026-03-26T21:16:21.966Z</time>
      </trkpt>
      <trkpt lat="44.077059" lon="-1.167914">
        <ele>21.705323</ele>
        <time>2026-03-26T21:16:24.300Z</time>
      </trkpt>
      <trkpt lat="44.077149" lon="-1.167884">
        <ele>21.608063</ele>
        <time>2026-03-26T21:16:25.080Z</time>
      </trkpt>
      <trkpt lat="44.077836" lon="-1.167858">
        <ele>20.890196</ele>
        <time>2026-03-26T21:16:30.721Z</time>
      </trkpt>
      <trkpt lat="44.078002" lon="-1.167937">
        <ele>20.713825</ele>
        <time>2026-03-26T21:16:32.139Z</time>
      </trkpt>
      <trkpt lat="44.078088" lon="-1.168031">
        <ele>20.603897</ele>
        <time>2026-03-26T21:16:33.030Z</time>
      </trkpt>
      <trkpt lat="44.078715" lon="-1.169004">
        <ele>19.659879</ele>
        <time>2026-03-26T21:16:41.162Z</time>
      </trkpt>
      <trkpt lat="44.079199" lon="-1.169632">
        <ele>19.329081</ele>
        <time>2026-03-26T21:16:48.044Z</time>
      </trkpt>
      <trkpt lat="44.079322" lon="-1.169903">
        <ele>19.517297</ele>
        <time>2026-03-26T21:16:50.790Z</time>
      </trkpt>
      <trkpt lat="44.079835" lon="-1.171272">
        <ele>20.423890</ele>
        <time>2026-03-26T21:17:05.886Z</time>
      </trkpt>
      <trkpt lat="44.079910" lon="-1.171486">
        <ele>20.563695</ele>
        <time>2026-03-26T21:17:08.171Z</time>
      </trkpt>
      <trkpt lat="44.080051" lon="-1.171870">
        <ele>20.584938</ele>
        <time>2026-03-26T21:17:12.032Z</time>
      </trkpt>
      <trkpt lat="44.080077" lon="-1.171941">
        <ele>20.567002</ele>
        <time>2026-03-26T21:17:12.709Z</time>
      </trkpt>
      <trkpt lat="44.080160" lon="-1.172393">
        <ele>20.461999</ele>
        <time>2026-03-26T21:17:16.374Z</time>
      </trkpt>
      <trkpt lat="44.080048" lon="-1.172562">
        <ele>20.410249</ele>
        <time>2026-03-26T21:17:18.043Z</time>
      </trkpt>
      <trkpt lat="44.079797" lon="-1.172852">
        <ele>20.308051</ele>
        <time>2026-03-26T21:17:21.122Z</time>
      </trkpt>
      <trkpt lat="44.079363" lon="-1.173216">
        <ele>20.149303</ele>
        <time>2026-03-26T21:17:25.555Z</time>
      </trkpt>
      <trkpt lat="44.078697" lon="-1.173773">
        <ele>19.975033</ele>
        <time>2026-03-26T21:17:32.437Z</time>
      </trkpt>
      <trkpt lat="44.078514" lon="-1.173961">
        <ele>19.931181</ele>
        <time>2026-03-26T21:17:34.631Z</time>
      </trkpt>
      <trkpt lat="44.078359" lon="-1.174386">
        <ele>19.865162</ele>
        <time>2026-03-26T21:17:38.214Z</time>
      </trkpt>
      <trkpt lat="44.078184" lon="-1.174783">
        <ele>19.800646</ele>
        <time>2026-03-26T21:17:41.972Z</time>
      </trkpt>
      <trkpt lat="44.077884" lon="-1.175210">
        <ele>19.756987</ele>
        <time>2026-03-26T21:17:47.091Z</time>
      </trkpt>
      <trkpt lat="44.077792" lon="-1.175442">
        <ele>19.788637</ele>
        <time>2026-03-26T21:17:49.450Z</time>
      </trkpt>
      <trkpt lat="44.077766" lon="-1.175636">
        <ele>19.812206</ele>
        <time>2026-03-26T21:17:51.180Z</time>
      </trkpt>
      <trkpt lat="44.077664" lon="-1.175841">
        <ele>19.841989</ele>
        <time>2026-03-26T21:17:53.306Z</time>
      </trkpt>
      <trkpt lat="44.077366" lon="-1.176245">
        <ele>19.911146</ele>
        <time>2026-03-26T21:18:01.622Z</time>
      </trkpt>
      <trkpt lat="44.076585" lon="-1.177497">
        <ele>19.842585</ele>
        <time>2026-03-26T21:18:23.786Z</time>
      </trkpt>
      <trkpt lat="44.076453" lon="-1.177856">
        <ele>19.710553</ele>
        <time>2026-03-26T21:18:29.082Z</time>
      </trkpt>
      <trkpt lat="44.076367" lon="-1.178725">
        <ele>19.423364</ele>
        <time>2026-03-26T21:18:40.534Z</time>
      </trkpt>
      <trkpt lat="44.076077" lon="-1.180020">
        <ele>18.983176</ele>
        <time>2026-03-26T21:18:58.155Z</time>
      </trkpt>
      <trkpt lat="44.075663" lon="-1.181190">
        <ele>18.563159</ele>
        <time>2026-03-26T21:19:15.323Z</time>
      </trkpt>
      <trkpt lat="44.075456" lon="-1.181564">
        <ele>18.412377</ele>
        <time>2026-03-26T21:19:21.666Z</time>
      </trkpt>
      <trkpt lat="44.075260" lon="-1.181998">
        <ele>18.488476</ele>
        <time>2026-03-26T21:19:28.621Z</time>
      </trkpt>
      <trkpt lat="44.075124" lon="-1.182399">
        <ele>18.554303</ele>
        <time>2026-03-26T21:19:34.699Z</time>
      </trkpt>
      <trkpt lat="44.074553" lon="-1.183598">
        <ele>18.767848</ele>
        <time>2026-03-26T21:19:55.424Z</time>
      </trkpt>
      <trkpt lat="44.074348" lon="-1.184380">
        <ele>18.682186</ele>
        <time>2026-03-26T21:20:07.935Z</time>
      </trkpt>
      <trkpt lat="44.074342" lon="-1.184394">
        <ele>18.679908</ele>
        <time>2026-03-26T21:20:08.181Z</time>
      </trkpt>
      <trkpt lat="44.074010" lon="-1.185122">
        <ele>18.559436</ele>
        <time>2026-03-26T21:20:20.090Z</time>
      </trkpt>
      <trkpt lat="44.073900" lon="-1.185324">
        <ele>18.524023</ele>
        <time>2026-03-26T21:20:23.438Z</time>
      </trkpt>
      <trkpt lat="44.073726" lon="-1.185510">
        <ele>18.481358</ele>
        <time>2026-03-26T21:20:27.351Z</time>
      </trkpt>
      <trkpt lat="44.073565" lon="-1.185826">
        <ele>18.388008</ele>
        <time>2026-03-26T21:20:32.185Z</time>
      </trkpt>
      <trkpt lat="44.073337" lon="-1.186196">
        <ele>17.916426</ele>
        <time>2026-03-26T21:20:38.054Z</time>
      </trkpt>
      <trkpt lat="44.072970" lon="-1.186684">
        <ele>17.232967</ele>
        <time>2026-03-26T21:20:46.350Z</time>
      </trkpt>
      <trkpt lat="44.072750" lon="-1.187022">
        <ele>16.791731</ele>
        <time>2026-03-26T21:20:51.856Z</time>
      </trkpt>
      <trkpt lat="44.072704" lon="-1.187218">
        <ele>16.592249</ele>
        <time>2026-03-26T21:20:54.400Z</time>
      </trkpt>
      <trkpt lat="44.072729" lon="-1.187591">
        <ele>16.229822</ele>
        <time>2026-03-26T21:20:59.122Z</time>
      </trkpt>
      <trkpt lat="44.072986" lon="-1.189092">
        <ele>15.664686</ele>
        <time>2026-03-26T21:21:19.643Z</time>
      </trkpt>
      <trkpt lat="44.073177" lon="-1.189534">
        <ele>15.528797</ele>
        <time>2026-03-26T21:21:26.563Z</time>
      </trkpt>
      <trkpt lat="44.073221" lon="-1.189731">
        <ele>15.474445</ele>
        <time>2026-03-26T21:21:29.315Z</time>
      </trkpt>
      <trkpt lat="44.073263" lon="-1.190296">
        <ele>15.358464</ele>
        <time>2026-03-26T21:21:36.875Z</time>
      </trkpt>
      <trkpt lat="44.073245" lon="-1.190532">
        <ele>15.372506</ele>
        <time>2026-03-26T21:21:40.026Z</time>
      </trkpt>
      <trkpt lat="44.073299" lon="-1.190727">
        <ele>15.384872</ele>
        <time>2026-03-26T21:21:42.809Z</time>
      </trkpt>
      <trkpt lat="44.073522" lon="-1.191339">
        <ele>15.425475</ele>
        <time>2026-03-26T21:21:52.065Z</time>
      </trkpt>
      <trkpt lat="44.073749" lon="-1.192345">
        <ele>15.487866</ele>
        <time>2026-03-26T21:22:07.161Z</time>
      </trkpt>
      <trkpt lat="44.073853" lon="-1.192696">
        <ele>15.531280</ele>
        <time>2026-03-26T21:22:12.828Z</time>
      </trkpt>
      <trkpt lat="44.073890" lon="-1.192828">
        <ele>15.557386</ele>
        <time>2026-03-26T21:22:14.934Z</time>
      </trkpt>
      <trkpt lat="44.073970" lon="-1.193358">
        <ele>15.657169</ele>
        <time>2026-03-26T21:22:22.900Z</time>
      </trkpt>
      <trkpt lat="44.074257" lon="-1.194283">
        <ele>15.842811</ele>
        <time>2026-03-26T21:22:37.179Z</time>
      </trkpt>
      <trkpt lat="44.074348" lon="-1.194438">
        <ele>15.879691</ele>
        <time>2026-03-26T21:22:39.932Z</time>
      </trkpt>
      <trkpt lat="44.074596" lon="-1.194632">
        <ele>15.952647</ele>
        <time>2026-03-26T21:22:45.345Z</time>
      </trkpt>
      <trkpt lat="44.074747" lon="-1.194828">
        <ele>15.927208</ele>
        <time>2026-03-26T21:22:49.262Z</time>
      </trkpt>
      <trkpt lat="44.074772" lon="-1.194860">
        <ele>15.920368</ele>
        <time>2026-03-26T21:22:49.901Z</time>
      </trkpt>
      <trkpt lat="44.074980" lon="-1.195036">
        <ele>15.871349</ele>
        <time>2026-03-26T21:22:54.488Z</time>
      </trkpt>
      <trkpt lat="44.075010" lon="-1.195088">
        <ele>15.861700</ele>
        <time>2026-03-26T21:22:55.389Z</time>
      </trkpt>
      <trkpt lat="44.074896" lon="-1.195323">
        <ele>15.820676</ele>
        <time>2026-03-26T21:22:57.748Z</time>
      </trkpt>
      <trkpt lat="44.074877" lon="-1.195400">
        <ele>15.808897</ele>
        <time>2026-03-26T21:22:58.429Z</time>
      </trkpt>
      <trkpt lat="44.074797" lon="-1.195718">
        <ele>15.760151</ele>
        <time>2026-03-26T21:23:01.234Z</time>
      </trkpt>
      <trkpt lat="44.074632" lon="-1.197144">
        <ele>15.564039</ele>
        <time>2026-03-26T21:23:13.064Z</time>
      </trkpt>
      <trkpt lat="44.074467" lon="-1.197986">
        <ele>15.471384</ele>
        <time>2026-03-26T21:23:20.230Z</time>
      </trkpt>
      <trkpt lat="44.074332" lon="-1.198369">
        <ele>15.426094</ele>
        <time>2026-03-26T21:23:23.821Z</time>
      </trkpt>
      <trkpt lat="44.074000" lon="-1.199050">
        <ele>15.338723</ele>
        <time>2026-03-26T21:23:30.811Z</time>
      </trkpt>
      <trkpt lat="44.073903" lon="-1.199361">
        <ele>15.421935</ele>
        <time>2026-03-26T21:23:33.731Z</time>
      </trkpt>
      <trkpt lat="44.073799" lon="-1.199945">
        <ele>15.603964</ele>
        <time>2026-03-26T21:23:39.144Z</time>
      </trkpt>
      <trkpt lat="44.073888" lon="-1.200631">
        <ele>15.814861</ele>
        <time>2026-03-26T21:23:45.747Z</time>
      </trkpt>
      <trkpt lat="44.073895" lon="-1.200747">
        <ele>15.850079</ele>
        <time>2026-03-26T21:23:46.893Z</time>
      </trkpt>
      <trkpt lat="44.073921" lon="-1.201166">
        <ele>15.977314</ele>
        <time>2026-03-26T21:23:51.013Z</time>
      </trkpt>
      <trkpt lat="44.073927" lon="-1.201513">
        <ele>16.082325</ele>
        <time>2026-03-26T21:23:54.468Z</time>
      </trkpt>
      <trkpt lat="44.073886" lon="-1.201979">
        <ele>16.234469</ele>
        <time>2026-03-26T21:23:59.304Z</time>
      </trkpt>
      <trkpt lat="44.073855" lon="-1.202224">
        <ele>16.315441</ele>
        <time>2026-03-26T21:24:01.946Z</time>
      </trkpt>
      <trkpt lat="44.073500" lon="-1.203466">
        <ele>16.750516</ele>
        <time>2026-03-26T21:24:14.859Z</time>
      </trkpt>
      <trkpt lat="44.073428" lon="-1.203772">
        <ele>16.855321</ele>
        <time>2026-03-26T21:24:17.574Z</time>
      </trkpt>
      <trkpt lat="44.073393" lon="-1.204033">
        <ele>16.872874</ele>
        <time>2026-03-26T21:24:19.754Z</time>
      </trkpt>
      <trkpt lat="44.073404" lon="-1.204467">
        <ele>16.742088</ele>
        <time>2026-03-26T21:24:25.474Z</time>
      </trkpt>
      <trkpt lat="44.073452" lon="-1.205028">
        <ele>16.571940</ele>
        <time>2026-03-26T21:24:32.817Z</time>
      </trkpt>
      <trkpt lat="44.073461" lon="-1.205566">
        <ele>16.409870</ele>
        <time>2026-03-26T21:24:39.774Z</time>
      </trkpt>
      <trkpt lat="44.073512" lon="-1.206196">
        <ele>16.218935</ele>
        <time>2026-03-26T21:24:48.153Z</time>
      </trkpt>
      <trkpt lat="44.073503" lon="-1.206585">
        <ele>16.069384</ele>
        <time>2026-03-26T21:24:53.370Z</time>
      </trkpt>
      <trkpt lat="44.073499" lon="-1.206735">
        <ele>15.995104</ele>
        <time>2026-03-26T21:24:55.375Z</time>
      </trkpt>
      <trkpt lat="44.073514" lon="-1.206940">
        <ele>15.893133</ele>
        <time>2026-03-26T21:24:58.107Z</time>
      </trkpt>
      <trkpt lat="44.073546" lon="-1.207122">
        <ele>15.800411</ele>
        <time>2026-03-26T21:25:00.578Z</time>
      </trkpt>
      <trkpt lat="44.073743" lon="-1.207795">
        <ele>15.440791</ele>
        <time>2026-03-26T21:25:09.872Z</time>
      </trkpt>
      <trkpt lat="44.073814" lon="-1.208483">
        <ele>15.096837</ele>
        <time>2026-03-26T21:25:18.623Z</time>
      </trkpt>
      <trkpt lat="44.073901" lon="-1.208751">
        <ele>14.951306</ele>
        <time>2026-03-26T21:25:22.358Z</time>
      </trkpt>
      <trkpt lat="44.074003" lon="-1.208965">
        <ele>14.890223</ele>
        <time>2026-03-26T21:25:25.650Z</time>
      </trkpt>
      <trkpt lat="44.074136" lon="-1.209041">
        <ele>14.864717</ele>
        <time>2026-03-26T21:25:28.233Z</time>
      </trkpt>
      <trkpt lat="44.074216" lon="-1.209053">
        <ele>14.850442</ele>
        <time>2026-03-26T21:25:29.690Z</time>
      </trkpt>
      <trkpt lat="44.074504" lon="-1.208983">
        <ele>14.798575</ele>
        <time>2026-03-26T21:25:35.042Z</time>
      </trkpt>
      <trkpt lat="44.074626" lon="-1.209011">
        <ele>14.776638</ele>
        <time>2026-03-26T21:25:37.348Z</time>
      </trkpt>
      <trkpt lat="44.074676" lon="-1.209063">
        <ele>14.765565</ele>
        <time>2026-03-26T21:25:38.528Z</time>
      </trkpt>
      <trkpt lat="44.074864" lon="-1.209453">
        <ele>14.705704</ele>
        <time>2026-03-26T21:25:45.038Z</time>
      </trkpt>
      <trkpt lat="44.075012" lon="-1.209591">
        <ele>14.674101</ele>
        <time>2026-03-26T21:25:48.604Z</time>
      </trkpt>
      <trkpt lat="44.075289" lon="-1.209753">
        <ele>14.620797</ele>
        <time>2026-03-26T21:25:54.614Z</time>
      </trkpt>
      <trkpt lat="44.075451" lon="-1.209922">
        <ele>14.590833</ele>
        <time>2026-03-26T21:25:58.606Z</time>
      </trkpt>
      <trkpt lat="44.075620" lon="-1.210220">
        <ele>14.573948</ele>
        <time>2026-03-26T21:26:03.896Z</time>
      </trkpt>
      <trkpt lat="44.075800" lon="-1.210687">
        <ele>14.550377</ele>
        <time>2026-03-26T21:26:11.110Z</time>
      </trkpt>
      <trkpt lat="44.075916" lon="-1.210896">
        <ele>14.538630</ele>
        <time>2026-03-26T21:26:14.644Z</time>
      </trkpt>
      <trkpt lat="44.076057" lon="-1.211062">
        <ele>14.527198</ele>
        <time>2026-03-26T21:26:18.073Z</time>
      </trkpt>
      <trkpt lat="44.076723" lon="-1.211545">
        <ele>14.489099</ele>
        <time>2026-03-26T21:26:32.156Z</time>
      </trkpt>
      <trkpt lat="44.076785" lon="-1.211615">
        <ele>14.505242</ele>
        <time>2026-03-26T21:26:33.673Z</time>
      </trkpt>
      <trkpt lat="44.076904" lon="-1.211816">
        <ele>14.543080</ele>
        <time>2026-03-26T21:26:37.275Z</time>
      </trkpt>
      <trkpt lat="44.077151" lon="-1.212339">
        <ele>14.634006</ele>
        <time>2026-03-26T21:26:45.982Z</time>
      </trkpt>
      <trkpt lat="44.077249" lon="-1.212546">
        <ele>14.670020</ele>
        <time>2026-03-26T21:26:49.425Z</time>
      </trkpt>
      <trkpt lat="44.077303" lon="-1.212558">
        <ele>14.681078</ele>
        <time>2026-03-26T21:26:50.108Z</time>
      </trkpt>
      <trkpt lat="44.077360" lon="-1.212439">
        <ele>14.701856</ele>
        <time>2026-03-26T21:26:51.197Z</time>
      </trkpt>
      <trkpt lat="44.077647" lon="-1.212113">
        <ele>14.776763</ele>
        <time>2026-03-26T21:26:55.319Z</time>
      </trkpt>
      <trkpt lat="44.077779" lon="-1.211899">
        <ele>14.817738</ele>
        <time>2026-03-26T21:26:57.587Z</time>
      </trkpt>
      <trkpt lat="44.077788" lon="-1.211880">
        <ele>14.821044</ele>
        <time>2026-03-26T21:26:57.766Z</time>
      </trkpt>
      <trkpt lat="44.077982" lon="-1.211457">
        <ele>15.046827</ele>
        <time>2026-03-26T21:27:01.808Z</time>
      </trkpt>
      <trkpt lat="44.078475" lon="-1.210170">
        <ele>15.939802</ele>
        <time>2026-03-26T21:27:14.963Z</time>
      </trkpt>
      <trkpt lat="44.078689" lon="-1.209766">
        <ele>16.247116</ele>
        <time>2026-03-26T21:27:19.924Z</time>
      </trkpt>
      <trkpt lat="44.078847" lon="-1.209639">
        <ele>16.404555</ele>
        <time>2026-03-26T21:27:22.397Z</time>
      </trkpt>
      <trkpt lat="44.079438" lon="-1.209277">
        <ele>17.000784</ele>
        <time>2026-03-26T21:27:31.032Z</time>
      </trkpt>
      <trkpt lat="44.079574" lon="-1.209124">
        <ele>17.162252</ele>
        <time>2026-03-26T21:27:33.317Z</time>
      </trkpt>
      <trkpt lat="44.079726" lon="-1.208795">
        <ele>17.421733</ele>
        <time>2026-03-26T21:27:36.887Z</time>
      </trkpt>
      <trkpt lat="44.079965" lon="-1.207930">
        <ele>18.036507</ele>
        <time>2026-03-26T21:27:44.981Z</time>
      </trkpt>
      <trkpt lat="44.080087" lon="-1.207628">
        <ele>18.181121</ele>
        <time>2026-03-26T21:27:47.862Z</time>
      </trkpt>
      <trkpt lat="44.080295" lon="-1.207215">
        <ele>18.389648</ele>
        <time>2026-03-26T21:27:52.038Z</time>
      </trkpt>
      <trkpt lat="44.080303" lon="-1.207199">
        <ele>18.397707</ele>
        <time>2026-03-26T21:27:52.203Z</time>
      </trkpt>
      <trkpt lat="44.080372" lon="-1.206986">
        <ele>18.494307</ele>
        <time>2026-03-26T21:27:54.157Z</time>
      </trkpt>
      <trkpt lat="44.080449" lon="-1.206961">
        <ele>18.539810</ele>
        <time>2026-03-26T21:27:55.211Z</time>
      </trkpt>
      <trkpt lat="44.080546" lon="-1.206877">
        <ele>18.605555</ele>
        <time>2026-03-26T21:27:56.734Z</time>
      </trkpt>
      <trkpt lat="44.080742" lon="-1.206652">
        <ele>18.751762</ele>
        <time>2026-03-26T21:28:00.152Z</time>
      </trkpt>
      <trkpt lat="44.080799" lon="-1.206611">
        <ele>18.788687</ele>
        <time>2026-03-26T21:28:00.998Z</time>
      </trkpt>
      <trkpt lat="44.080908" lon="-1.206534">
        <ele>18.859032</ele>
        <time>2026-03-26T21:28:02.638Z</time>
      </trkpt>
      <trkpt lat="44.081058" lon="-1.206479">
        <ele>18.948303</ele>
        <time>2026-03-26T21:28:04.709Z</time>
      </trkpt>
      <trkpt lat="44.081177" lon="-1.206436">
        <ele>19.019058</ele>
        <time>2026-03-26T21:28:06.367Z</time>
      </trkpt>
      <trkpt lat="44.082199" lon="-1.206351">
        <ele>19.852919</ele>
        <time>2026-03-26T21:28:20.566Z</time>
      </trkpt>
      <trkpt lat="44.083320" lon="-1.206339">
        <ele>20.925236</ele>
        <time>2026-03-26T21:28:36.768Z</time>
      </trkpt>
      <trkpt lat="44.083663" lon="-1.206307">
        <ele>21.395133</ele>
        <time>2026-03-26T21:28:42.045Z</time>
      </trkpt>
      <trkpt lat="44.083936" lon="-1.206282">
        <ele>21.769102</ele>
        <time>2026-03-26T21:28:46.355Z</time>
      </trkpt>
      <trkpt lat="44.084806" lon="-1.206201">
        <ele>22.960957</ele>
        <time>2026-03-26T21:29:00.538Z</time>
      </trkpt>
      <trkpt lat="44.085927" lon="-1.205872">
        <ele>24.232880</ele>
        <time>2026-03-26T21:29:26.733Z</time>
      </trkpt>
      <trkpt lat="44.087893" lon="-1.205191">
        <ele>25.935188</ele>
        <time>2026-03-26T21:30:08.641Z</time>
      </trkpt>
      <trkpt lat="44.091623" lon="-1.202402">
        <ele>29.605979</ele>
        <time>2026-03-26T21:31:40.059Z</time>
      </trkpt>
      <trkpt lat="44.092379" lon="-1.201377">
        <ele>29.963351</ele>
        <time>2026-03-26T21:32:00.975Z</time>
      </trkpt>
      <trkpt lat="44.092837" lon="-1.200789">
        <ele>30.176301</ele>
        <time>2026-03-26T21:32:12.986Z</time>
      </trkpt>
      <trkpt lat="44.093313" lon="-1.200246">
        <ele>30.425493</ele>
        <time>2026-03-26T21:32:25.154Z</time>
      </trkpt>
      <trkpt lat="44.094621" lon="-1.198612">
        <ele>31.223700</ele>
        <time>2026-03-26T21:33:01.109Z</time>
      </trkpt>
      <trkpt lat="44.095255" lon="-1.197820">
        <ele>31.690807</ele>
        <time>2026-03-26T21:33:18.746Z</time>
      </trkpt>
      <trkpt lat="44.095588" lon="-1.197627">
        <ele>31.887888</ele>
        <time>2026-03-26T21:33:26.172Z</time>
      </trkpt>
      <trkpt lat="44.096343" lon="-1.197385">
        <ele>32.280536</ele>
        <time>2026-03-26T21:33:41.870Z</time>
      </trkpt>
      <trkpt lat="44.097658" lon="-1.196966">
        <ele>33.055437</ele>
        <time>2026-03-26T21:34:09.281Z</time>
      </trkpt>
      <trkpt lat="44.098928" lon="-1.196865">
        <ele>34.038909</ele>
        <time>2026-03-26T21:34:36.728Z</time>
      </trkpt>
      <trkpt lat="44.099024" lon="-1.196870">
        <ele>34.113181</ele>
        <time>2026-03-26T21:34:38.841Z</time>
      </trkpt>
      <trkpt lat="44.102285" lon="-1.197011">
        <ele>36.052016</ele>
        <time>2026-03-26T21:35:46.173Z</time>
      </trkpt>
      <trkpt lat="44.108680" lon="-1.197289">
        <ele>38.739836</ele>
        <time>2026-03-26T21:37:55.969Z</time>
      </trkpt>
      <trkpt lat="44.108735" lon="-1.197269">
        <ele>38.741646</ele>
        <time>2026-03-26T21:37:57.056Z</time>
      </trkpt>
      <trkpt lat="44.108254" lon="-1.198883">
        <ele>38.746187</ele>
        <time>2026-03-26T21:38:20.597Z</time>
      </trkpt>
      <trkpt lat="44.104729" lon="-1.210715">
        <ele>35.511517</ele>
        <time>2026-03-26T21:41:10.371Z</time>
      </trkpt>
      <trkpt lat="44.104499" lon="-1.211815">
        <ele>35.216002</ele>
        <time>2026-03-26T21:41:25.777Z</time>
      </trkpt>
      <trkpt lat="44.104231" lon="-1.212886">
        <ele>34.880853</ele>
        <time>2026-03-26T21:41:40.756Z</time>
      </trkpt>
      <trkpt lat="44.104134" lon="-1.213141">
        <ele>34.741441</ele>
        <time>2026-03-26T21:41:44.490Z</time>
      </trkpt>
      <trkpt lat="44.103562" lon="-1.214223">
        <ele>34.092329</ele>
        <time>2026-03-26T21:42:01.688Z</time>
      </trkpt>
      <trkpt lat="44.103520" lon="-1.214375">
        <ele>34.013646</ele>
        <time>2026-03-26T21:42:03.763Z</time>
      </trkpt>
      <trkpt lat="44.102912" lon="-1.215568">
        <ele>33.435747</ele>
        <time>2026-03-26T21:42:22.630Z</time>
      </trkpt>
      <trkpt lat="44.097454" lon="-1.226296">
        <ele>28.794855</ele>
        <time>2026-03-26T21:45:15.439Z</time>
      </trkpt>
      <trkpt lat="44.096955" lon="-1.227335">
        <ele>28.255277</ele>
        <time>2026-03-26T21:45:23.713Z</time>
      </trkpt>
      <trkpt lat="44.096895" lon="-1.227753">
        <ele>28.032948</ele>
        <time>2026-03-26T21:45:26.526Z</time>
      </trkpt>
      <trkpt lat="44.097349" lon="-1.230871">
        <ele>26.326624</ele>
        <time>2026-03-26T21:45:47.554Z</time>
      </trkpt>
      <trkpt lat="44.097354" lon="-1.231053">
        <ele>26.225582</ele>
        <time>2026-03-26T21:45:48.724Z</time>
      </trkpt>
      <trkpt lat="44.097385" lon="-1.232400">
        <ele>25.622418</ele>
        <time>2026-03-26T21:45:57.557Z</time>
      </trkpt>
      <trkpt lat="44.097396" lon="-1.233911">
        <ele>25.279902</ele>
        <time>2026-03-26T21:46:09.480Z</time>
      </trkpt>
      <trkpt lat="44.097449" lon="-1.241312">
        <ele>25.304085</ele>
        <time>2026-03-26T21:47:11.747Z</time>
      </trkpt>
      <trkpt lat="44.097445" lon="-1.242192">
        <ele>25.171342</ele>
        <time>2026-03-26T21:47:18.673Z</time>
      </trkpt>
      <trkpt lat="44.097492" lon="-1.243569">
        <ele>24.543334</ele>
        <time>2026-03-26T21:47:28.995Z</time>
      </trkpt>
      <trkpt lat="44.097560" lon="-1.244093">
        <ele>24.300758</ele>
        <time>2026-03-26T21:47:32.906Z</time>
      </trkpt>
      <trkpt lat="44.098992" lon="-1.250249">
        <ele>22.571718</ele>
        <time>2026-03-26T21:48:22.938Z</time>
      </trkpt>
      <trkpt lat="44.099052" lon="-1.250609">
        <ele>22.639967</ele>
        <time>2026-03-26T21:48:26.101Z</time>
      </trkpt>
      <trkpt lat="44.099125" lon="-1.250793">
        <ele>22.678787</ele>
        <time>2026-03-26T21:48:27.971Z</time>
      </trkpt>
      <trkpt lat="44.099154" lon="-1.250878">
        <ele>22.696166</ele>
        <time>2026-03-26T21:48:28.832Z</time>
      </trkpt>
      <trkpt lat="44.099168" lon="-1.251057">
        <ele>22.729418</ele>
        <time>2026-03-26T21:48:30.522Z</time>
      </trkpt>
      <trkpt lat="44.099123" lon="-1.251290">
        <ele>22.773975</ele>
        <time>2026-03-26T21:48:32.880Z</time>
      </trkpt>
      <trkpt lat="44.098801" lon="-1.252079">
        <ele>23.295456</ele>
        <time>2026-03-26T21:48:42.966Z</time>
      </trkpt>
      <trkpt lat="44.098771" lon="-1.252389">
        <ele>23.543691</ele>
        <time>2026-03-26T21:48:46.504Z</time>
      </trkpt>
      <trkpt lat="44.098823" lon="-1.252695">
        <ele>23.793233</ele>
        <time>2026-03-26T21:48:50.115Z</time>
      </trkpt>
      <trkpt lat="44.098933" lon="-1.252991">
        <ele>24.057721</ele>
        <time>2026-03-26T21:48:53.966Z</time>
      </trkpt>
      <trkpt lat="44.099093" lon="-1.253184">
        <ele>24.291643</ele>
        <time>2026-03-26T21:48:57.280Z</time>
      </trkpt>
      <trkpt lat="44.099750" lon="-1.254159">
        <ele>24.648978</ele>
        <time>2026-03-26T21:49:09.200Z</time>
      </trkpt>
      <trkpt lat="44.100485" lon="-1.255525">
        <ele>24.207908</ele>
        <time>2026-03-26T21:49:21.433Z</time>
      </trkpt>
      <trkpt lat="44.101964" lon="-1.257484">
        <ele>26.137460</ele>
        <time>2026-03-26T21:49:50.198Z</time>
      </trkpt>
      <trkpt lat="44.102204" lon="-1.257878">
        <ele>26.858659</ele>
        <time>2026-03-26T21:49:57.522Z</time>
      </trkpt>
      <trkpt lat="44.102897" lon="-1.259345">
        <ele>29.309776</ele>
        <time>2026-03-26T21:50:20.744Z</time>
      </trkpt>
      <trkpt lat="44.103195" lon="-1.259741">
        <ele>28.823369</ele>
        <time>2026-03-26T21:50:25.359Z</time>
      </trkpt>
      <trkpt lat="44.103516" lon="-1.260077">
        <ele>28.296365</ele>
        <time>2026-03-26T21:50:29.302Z</time>
      </trkpt>
      <trkpt lat="44.103656" lon="-1.260679">
        <ele>27.700036</ele>
        <time>2026-03-26T21:50:33.409Z</time>
      </trkpt>
      <trkpt lat="44.103826" lon="-1.261292">
        <ele>27.080767</ele>
        <time>2026-03-26T21:50:37.581Z</time>
      </trkpt>
      <trkpt lat="44.103885" lon="-1.261658">
        <ele>26.719474</ele>
        <time>2026-03-26T21:50:39.999Z</time>
      </trkpt>
      <trkpt lat="44.103912" lon="-1.262145">
        <ele>26.245058</ele>
        <time>2026-03-26T21:50:43.267Z</time>
      </trkpt>
      <trkpt lat="44.103809" lon="-1.263109">
        <ele>25.298445</ele>
        <time>2026-03-26T21:50:50.281Z</time>
      </trkpt>
      <trkpt lat="44.103789" lon="-1.263535">
        <ele>24.883801</ele>
        <time>2026-03-26T21:50:53.472Z</time>
      </trkpt>
      <trkpt lat="44.103650" lon="-1.264044">
        <ele>24.456186</ele>
        <time>2026-03-26T21:50:57.584Z</time>
      </trkpt>
      <trkpt lat="44.103536" lon="-1.264260">
        <ele>24.331845</ele>
        <time>2026-03-26T21:50:59.632Z</time>
      </trkpt>
      <trkpt lat="44.103387" lon="-1.264448">
        <ele>24.201970</ele>
        <time>2026-03-26T21:51:01.790Z</time>
      </trkpt>
      <trkpt lat="44.102097" lon="-1.265231">
        <ele>23.348266</ele>
        <time>2026-03-26T21:51:16.618Z</time>
      </trkpt>
      <trkpt lat="44.101913" lon="-1.265344">
        <ele>23.294781</ele>
        <time>2026-03-26T21:51:18.721Z</time>
      </trkpt>
      <trkpt lat="44.101180" lon="-1.265475">
        <ele>23.098228</ele>
        <time>2026-03-26T21:51:26.621Z</time>
      </trkpt>
      <trkpt lat="44.099788" lon="-1.265116">
        <ele>23.183584</ele>
        <time>2026-03-26T21:51:43.497Z</time>
      </trkpt>
      <trkpt lat="44.099539" lon="-1.264997">
        <ele>23.286622</ele>
        <time>2026-03-26T21:51:46.953Z</time>
      </trkpt>
      <trkpt lat="44.099248" lon="-1.264787">
        <ele>23.414904</ele>
        <time>2026-03-26T21:51:51.280Z</time>
      </trkpt>
      <trkpt lat="44.098512" lon="-1.264098">
        <ele>23.734512</ele>
        <time>2026-03-26T21:52:02.918Z</time>
      </trkpt>
      <trkpt lat="44.098161" lon="-1.263824">
        <ele>23.863022</ele>
        <time>2026-03-26T21:52:07.806Z</time>
      </trkpt>
      <trkpt lat="44.096831" lon="-1.263232">
        <ele>24.489506</ele>
        <time>2026-03-26T21:52:24.369Z</time>
      </trkpt>
      <trkpt lat="44.096733" lon="-1.263234">
        <ele>24.567144</ele>
        <time>2026-03-26T21:52:25.598Z</time>
      </trkpt>
      <trkpt lat="44.094026" lon="-1.264243">
        <ele>26.804616</ele>
        <time>2026-03-26T21:53:05.922Z</time>
      </trkpt>
      <trkpt lat="44.093758" lon="-1.264309">
        <ele>27.023443</ele>
        <time>2026-03-26T21:53:09.448Z</time>
      </trkpt>
      <trkpt lat="44.093404" lon="-1.264270">
        <ele>26.652785</ele>
        <time>2026-03-26T21:53:13.452Z</time>
      </trkpt>
      <trkpt lat="44.092847" lon="-1.264084">
        <ele>25.909473</ele>
        <time>2026-03-26T21:53:19.271Z</time>
      </trkpt>
      <trkpt lat="44.092377" lon="-1.263827">
        <ele>25.254209</ele>
        <time>2026-03-26T21:53:23.933Z</time>
      </trkpt>
      <trkpt lat="44.091386" lon="-1.263496">
        <ele>23.434035</ele>
        <time>2026-03-26T21:53:33.185Z</time>
      </trkpt>
      <trkpt lat="44.090437" lon="-1.263249">
        <ele>21.394072</ele>
        <time>2026-03-26T21:53:42.215Z</time>
      </trkpt>
      <trkpt lat="44.089607" lon="-1.262919">
        <ele>19.778380</ele>
        <time>2026-03-26T21:53:50.057Z</time>
      </trkpt>
      <trkpt lat="44.089223" lon="-1.262606">
        <ele>18.982827</ele>
        <time>2026-03-26T21:53:54.108Z</time>
      </trkpt>
      <trkpt lat="44.084180" lon="-1.258751">
        <ele>12.915912</ele>
        <time>2026-03-26T21:54:52.458Z</time>
      </trkpt>
      <trkpt lat="44.083008" lon="-1.257879">
        <ele>12.232259</ele>
        <time>2026-03-26T21:55:06.897Z</time>
      </trkpt>
      <trkpt lat="44.080778" lon="-1.256219">
        <ele>11.252653</ele>
        <time>2026-03-26T21:55:34.574Z</time>
      </trkpt>
      <trkpt lat="44.079963" lon="-1.255587">
        <ele>10.767370</ele>
        <time>2026-03-26T21:55:48.490Z</time>
      </trkpt>
      <trkpt lat="44.079861" lon="-1.255564">
        <ele>10.712010</ele>
        <time>2026-03-26T21:55:50.021Z</time>
      </trkpt>
      <trkpt lat="44.079948" lon="-1.255888">
        <ele>10.578886</ele>
        <time>2026-03-26T21:55:52.344Z</time>
      </trkpt>
      <trkpt lat="44.080280" lon="-1.257112">
        <ele>10.175876</ele>
        <time>2026-03-26T21:56:01.266Z</time>
      </trkpt>
      <trkpt lat="44.080540" lon="-1.258107">
        <ele>9.999848</ele>
        <time>2026-03-26T21:56:08.697Z</time>
      </trkpt>
      <trkpt lat="44.080557" lon="-1.258195">
        <ele>9.984698</ele>
        <time>2026-03-26T21:56:09.345Z</time>
      </trkpt>
      <trkpt lat="44.080617" lon="-1.258650">
        <ele>9.907789</ele>
        <time>2026-03-26T21:56:12.693Z</time>
      </trkpt>
      <trkpt lat="44.080631" lon="-1.259026">
        <ele>9.845193</ele>
        <time>2026-03-26T21:56:15.456Z</time>
      </trkpt>
      <trkpt lat="44.080621" lon="-1.259156">
        <ele>9.853288</ele>
        <time>2026-03-26T21:56:16.428Z</time>
      </trkpt>
      <trkpt lat="44.080581" lon="-1.259668">
        <ele>9.970306</ele>
        <time>2026-03-26T21:56:20.293Z</time>
      </trkpt>
      <trkpt lat="44.080331" lon="-1.261265">
        <ele>10.341676</ele>
        <time>2026-03-26T21:56:33.935Z</time>
      </trkpt>
      <trkpt lat="44.080320" lon="-1.261337">
        <ele>10.358401</ele>
        <time>2026-03-26T21:56:34.596Z</time>
      </trkpt>
      <trkpt lat="44.080064" lon="-1.263008">
        <ele>10.123159</ele>
        <time>2026-03-26T21:56:47.805Z</time>
      </trkpt>
      <trkpt lat="44.080028" lon="-1.263528">
        <ele>10.025260</ele>
        <time>2026-03-26T21:56:51.237Z</time>
      </trkpt>
      <trkpt lat="44.080003" lon="-1.263894">
        <ele>9.956362</ele>
        <time>2026-03-26T21:56:53.574Z</time>
      </trkpt>
      <trkpt lat="44.080005" lon="-1.264770">
        <ele>9.488475</ele>
        <time>2026-03-26T21:56:59.025Z</time>
      </trkpt>
      <trkpt lat="44.080020" lon="-1.265065">
        <ele>9.315787</ele>
        <time>2026-03-26T21:57:00.884Z</time>
      </trkpt>
      <trkpt lat="44.080135" lon="-1.266738">
        <ele>8.346013</ele>
        <time>2026-03-26T21:57:12.334Z</time>
      </trkpt>
      <trkpt lat="44.080251" lon="-1.268426">
        <ele>7.438224</ele>
        <time>2026-03-26T21:57:23.820Z</time>
      </trkpt>
      <trkpt lat="44.080271" lon="-1.269079">
        <ele>7.100018</ele>
        <time>2026-03-26T21:57:27.908Z</time>
      </trkpt>
      <trkpt lat="44.080271" lon="-1.269091">
        <ele>7.095263</ele>
        <time>2026-03-26T21:57:27.981Z</time>
      </trkpt>
      <trkpt lat="44.080171" lon="-1.270160">
        <ele>6.668079</ele>
        <time>2026-03-26T21:57:34.710Z</time>
      </trkpt>
      <trkpt lat="44.080153" lon="-1.270613">
        <ele>6.488296</ele>
        <time>2026-03-26T21:57:37.667Z</time>
      </trkpt>
      <trkpt lat="44.080161" lon="-1.271104">
        <ele>6.293679</ele>
        <time>2026-03-26T21:57:41.045Z</time>
      </trkpt>
      <trkpt lat="44.080271" lon="-1.272539">
        <ele>7.611613</ele>
        <time>2026-03-26T21:57:54.511Z</time>
      </trkpt>
      <trkpt lat="44.080280" lon="-1.272652">
        <ele>7.769588</ele>
        <time>2026-03-26T21:57:55.795Z</time>
      </trkpt>
      <trkpt lat="44.081652" lon="-1.273370">
        <ele>10.701523</ele>
        <time>2026-03-26T21:58:23.587Z</time>
      </trkpt>
      <trkpt lat="44.082090" lon="-1.273834">
        <ele>11.870828</ele>
        <time>2026-03-26T21:58:33.469Z</time>
      </trkpt>
      <trkpt lat="44.082297" lon="-1.274052">
        <ele>12.422256</ele>
        <time>2026-03-26T21:58:37.776Z</time>
      </trkpt>
      <trkpt lat="44.083564" lon="-1.274585">
        <ele>14.231190</ele>
        <time>2026-03-26T21:58:56.929Z</time>
      </trkpt>
      <trkpt lat="44.083786" lon="-1.274695">
        <ele>14.451743</ele>
        <time>2026-03-26T21:59:00.103Z</time>
      </trkpt>
      <trkpt lat="44.084006" lon="-1.274804">
        <ele>14.670307</ele>
        <time>2026-03-26T21:59:03.236Z</time>
      </trkpt>
      <trkpt lat="44.084369" lon="-1.275030">
        <ele>15.042490</ele>
        <time>2026-03-26T21:59:08.119Z</time>
      </trkpt>
      <trkpt lat="44.085351" lon="-1.275641">
        <ele>15.097138</ele>
        <time>2026-03-26T21:59:20.632Z</time>
      </trkpt>
      <trkpt lat="44.085440" lon="-1.275806">
        <ele>15.092987</ele>
        <time>2026-03-26T21:59:22.114Z</time>
      </trkpt>
      <trkpt lat="44.085640" lon="-1.276627">
        <ele>15.075550</ele>
        <time>2026-03-26T21:59:27.865Z</time>
      </trkpt>
      <trkpt lat="44.085864" lon="-1.277571">
        <ele>14.679239</ele>
        <time>2026-03-26T21:59:40.233Z</time>
      </trkpt>
      <trkpt lat="44.085912" lon="-1.277776">
        <ele>14.588441</ele>
        <time>2026-03-26T21:59:42.929Z</time>
      </trkpt>
      <trkpt lat="44.086066" lon="-1.278511">
        <ele>14.266026</ele>
        <time>2026-03-26T21:59:52.696Z</time>
      </trkpt>
      <trkpt lat="44.086183" lon="-1.278806">
        <ele>14.124120</ele>
        <time>2026-03-26T21:59:57.244Z</time>
      </trkpt>
      <trkpt lat="44.086281" lon="-1.278979">
        <ele>14.031339</ele>
        <time>2026-03-26T22:00:00.346Z</time>
      </trkpt>
      <trkpt lat="44.086623" lon="-1.279391">
        <ele>14.683049</ele>
        <time>2026-03-26T22:00:09.879Z</time>
      </trkpt>
      <trkpt lat="44.087472" lon="-1.280413">
        <ele>16.402447</ele>
        <time>2026-03-26T22:00:36.755Z</time>
      </trkpt>
      <trkpt lat="44.088067" lon="-1.281497">
        <ele>18.362298</ele>
        <time>2026-03-26T22:01:01.792Z</time>
      </trkpt>
      <trkpt lat="44.088169" lon="-1.281884">
        <ele>19.000294</ele>
        <time>2026-03-26T22:01:09.409Z</time>
      </trkpt>
      <trkpt lat="44.088135" lon="-1.282405">
        <ele>19.809947</ele>
        <time>2026-03-26T22:01:18.896Z</time>
      </trkpt>
      <trkpt lat="44.087833" lon="-1.283746">
        <ele>20.971018</ele>
        <time>2026-03-26T22:01:42.897Z</time>
      </trkpt>
      <trkpt lat="44.087770" lon="-1.284027">
        <ele>21.080327</ele>
        <time>2026-03-26T22:01:47.439Z</time>
      </trkpt>
      <trkpt lat="44.087733" lon="-1.284359">
        <ele>21.205084</ele>
        <time>2026-03-26T22:01:52.405Z</time>
      </trkpt>
      <trkpt lat="44.087723" lon="-1.284775">
        <ele>21.359645</ele>
        <time>2026-03-26T22:01:58.147Z</time>
      </trkpt>
      <trkpt lat="44.087923" lon="-1.285320">
        <ele>21.562364</ele>
        <time>2026-03-26T22:02:06.086Z</time>
      </trkpt>
      <trkpt lat="44.088862" lon="-1.287878">
        <ele>18.494812</ele>
        <time>2026-03-26T22:02:40.503Z</time>
      </trkpt>
      <trkpt lat="44.089000" lon="-1.288254">
        <ele>18.189676</ele>
        <time>2026-03-26T22:02:45.745Z</time>
      </trkpt>
      <trkpt lat="44.089080" lon="-1.288528">
        <ele>17.975936</ele>
        <time>2026-03-26T22:02:49.469Z</time>
      </trkpt>
      <trkpt lat="44.089515" lon="-1.289694">
        <ele>17.026446</ele>
        <time>2026-03-26T22:03:06.420Z</time>
      </trkpt>
      <trkpt lat="44.090846" lon="-1.293263">
        <ele>15.315801</ele>
        <time>2026-03-26T22:03:58.547Z</time>
      </trkpt>
      <trkpt lat="44.092120" lon="-1.296677">
        <ele>14.543073</ele>
        <time>2026-03-26T22:04:49.558Z</time>
      </trkpt>
      <trkpt lat="44.092169" lon="-1.296809">
        <ele>14.604246</ele>
        <time>2026-03-26T22:04:51.793Z</time>
      </trkpt>
      <trkpt lat="44.092396" lon="-1.296395">
        <ele>14.818677</ele>
        <time>2026-03-26T22:04:59.743Z</time>
      </trkpt>
      <trkpt lat="44.092491" lon="-1.296154">
        <ele>14.931855</ele>
        <time>2026-03-26T22:05:04.001Z</time>
      </trkpt>
      <trkpt lat="44.092552" lon="-1.295906">
        <ele>15.039775</ele>
        <time>2026-03-26T22:05:08.115Z</time>
      </trkpt>
      <trkpt lat="44.092726" lon="-1.293738">
        <ele>15.592334</ele>
        <time>2026-03-26T22:05:41.207Z</time>
      </trkpt>
      <trkpt lat="44.092792" lon="-1.293400">
        <ele>15.631514</ele>
        <time>2026-03-26T22:05:46.095Z</time>
      </trkpt>
      <trkpt lat="44.092873" lon="-1.293223">
        <ele>15.654990</ele>
        <time>2026-03-26T22:05:48.951Z</time>
      </trkpt>
      <trkpt lat="44.093045" lon="-1.293019">
        <ele>15.690179</ele>
        <time>2026-03-26T22:05:53.141Z</time>
      </trkpt>
      <trkpt lat="44.093309" lon="-1.292858">
        <ele>15.735066</ele>
        <time>2026-03-26T22:05:58.357Z</time>
      </trkpt>
      <trkpt lat="44.093355" lon="-1.292839">
        <ele>15.742539</ele>
        <time>2026-03-26T22:05:59.204Z</time>
      </trkpt>
      <trkpt lat="44.093528" lon="-1.292768">
        <ele>15.631624</ele>
        <time>2026-03-26T22:06:02.382Z</time>
      </trkpt>
      <trkpt lat="44.094046" lon="-1.292449">
        <ele>15.266969</ele>
        <time>2026-03-26T22:06:08.130Z</time>
      </trkpt>
      <trkpt lat="44.094544" lon="-1.292237">
        <ele>14.931702</ele>
        <time>2026-03-26T22:06:13.345Z</time>
      </trkpt>
      <trkpt lat="44.094712" lon="-1.292117">
        <ele>14.810141</ele>
        <time>2026-03-26T22:06:15.284Z</time>
      </trkpt>
      <trkpt lat="44.094823" lon="-1.291999">
        <ele>14.720232</ele>
        <time>2026-03-26T22:06:16.756Z</time>
      </trkpt>
      <trkpt lat="44.095188" lon="-1.291436">
        <ele>15.449538</ele>
        <time>2026-03-26T22:06:23.087Z</time>
      </trkpt>
      <trkpt lat="44.095734" lon="-1.290839">
        <ele>17.236981</ele>
        <time>2026-03-26T22:06:34.413Z</time>
      </trkpt>
      <trkpt lat="44.095847" lon="-1.290596">
        <ele>17.772286</ele>
        <time>2026-03-26T22:06:38.602Z</time>
      </trkpt>
      <trkpt lat="44.095877" lon="-1.290443">
        <ele>18.065555</ele>
        <time>2026-03-26T22:06:41.079Z</time>
      </trkpt>
      <trkpt lat="44.095884" lon="-1.290242">
        <ele>18.437664</ele>
        <time>2026-03-26T22:06:44.379Z</time>
      </trkpt>
      <trkpt lat="44.095841" lon="-1.289982">
        <ele>18.931017</ele>
        <time>2026-03-26T22:06:49.049Z</time>
      </trkpt>
      <trkpt lat="44.095754" lon="-1.289726">
        <ele>19.769128</ele>
        <time>2026-03-26T22:06:54.366Z</time>
      </trkpt>
      <trkpt lat="44.095338" lon="-1.288778">
        <ele>24.536008</ele>
        <time>2026-03-26T22:07:17.710Z</time>
      </trkpt>
      <trkpt lat="44.095293" lon="-1.288611">
        <ele>25.301349</ele>
        <time>2026-03-26T22:07:21.579Z</time>
      </trkpt>
      <trkpt lat="44.095280" lon="-1.288351">
        <ele>26.419659</ele>
        <time>2026-03-26T22:07:27.201Z</time>
      </trkpt>
      <trkpt lat="44.095315" lon="-1.288167">
        <ele>27.236390</ele>
        <time>2026-03-26T22:07:31.179Z</time>
      </trkpt>
      <trkpt lat="44.095423" lon="-1.287939">
        <ele>28.408321</ele>
        <time>2026-03-26T22:07:36.677Z</time>
      </trkpt>
      <trkpt lat="44.095762" lon="-1.287562">
        <ele>30.748972</ele>
        <time>2026-03-26T22:07:47.933Z</time>
      </trkpt>
      <trkpt lat="44.095912" lon="-1.287349">
        <ele>31.718866</ele>
        <time>2026-03-26T22:07:53.309Z</time>
      </trkpt>
      <trkpt lat="44.096014" lon="-1.287091">
        <ele>32.676381</ele>
        <time>2026-03-26T22:07:58.397Z</time>
      </trkpt>
      <trkpt lat="44.096209" lon="-1.286422">
        <ele>35.023761</ele>
        <time>2026-03-26T22:08:10.230Z</time>
      </trkpt>
      <trkpt lat="44.096308" lon="-1.286176">
        <ele>35.940570</ele>
        <time>2026-03-26T22:08:14.713Z</time>
      </trkpt>
      <trkpt lat="44.096490" lon="-1.285861">
        <ele>37.254986</ele>
        <time>2026-03-26T22:08:21.123Z</time>
      </trkpt>
      <trkpt lat="44.096840" lon="-1.285415">
        <ele>39.208385</ele>
        <time>2026-03-26T22:08:31.934Z</time>
      </trkpt>
      <trkpt lat="44.097094" lon="-1.285146">
        <ele>40.436596</ele>
        <time>2026-03-26T22:08:39.792Z</time>
      </trkpt>
      <trkpt lat="44.097117" lon="-1.285128">
        <ele>40.538141</ele>
        <time>2026-03-26T22:08:40.439Z</time>
      </trkpt>
      <trkpt lat="44.097433" lon="-1.284868">
        <ele>41.950803</ele>
        <time>2026-03-26T22:08:49.107Z</time>
      </trkpt>
      <trkpt lat="44.097612" lon="-1.284806">
        <ele>42.660725</ele>
        <time>2026-03-26T22:08:53.209Z</time>
      </trkpt>
      <trkpt lat="44.097778" lon="-1.284801">
        <ele>43.299768</ele>
        <time>2026-03-26T22:08:56.755Z</time>
      </trkpt>
      <trkpt lat="44.098030" lon="-1.284777">
        <ele>44.271921</ele>
        <time>2026-03-26T22:09:01.976Z</time>
      </trkpt>
      <trkpt lat="44.098195" lon="-1.284686">
        <ele>44.954963</ele>
        <time>2026-03-26T22:09:05.458Z</time>
      </trkpt>
      <trkpt lat="44.098354" lon="-1.284463">
        <ele>45.247190</ele>
        <time>2026-03-26T22:09:09.659Z</time>
      </trkpt>
      <trkpt lat="44.098456" lon="-1.284232">
        <ele>45.453867</ele>
        <time>2026-03-26T22:09:13.096Z</time>
      </trkpt>
      <trkpt lat="44.098851" lon="-1.282918">
        <ele>46.539546</ele>
        <time>2026-03-26T22:09:27.628Z</time>
      </trkpt>
      <trkpt lat="44.099125" lon="-1.280775">
        <ele>45.312160</ele>
        <time>2026-03-26T22:09:44.024Z</time>
      </trkpt>
      <trkpt lat="44.099192" lon="-1.279683">
        <ele>43.553367</ele>
        <time>2026-03-26T22:09:51.164Z</time>
      </trkpt>
      <trkpt lat="44.099199" lon="-1.278701">
        <ele>39.873112</ele>
        <time>2026-03-26T22:09:56.908Z</time>
      </trkpt>
      <trkpt lat="44.099181" lon="-1.278496">
        <ele>39.099148</ele>
        <time>2026-03-26T22:09:58.072Z</time>
      </trkpt>
      <trkpt lat="44.098793" lon="-1.277161">
        <ele>33.833732</ele>
        <time>2026-03-26T22:10:05.906Z</time>
      </trkpt>
      <trkpt lat="44.098620" lon="-1.276347">
        <ele>30.953689</ele>
        <time>2026-03-26T22:10:10.564Z</time>
      </trkpt>
      <trkpt lat="44.098507" lon="-1.275815">
        <ele>29.071486</ele>
        <time>2026-03-26T22:10:13.819Z</time>
      </trkpt>
      <trkpt lat="44.098478" lon="-1.275444">
        <ele>27.805362</ele>
        <time>2026-03-26T22:10:16.142Z</time>
      </trkpt>
      <trkpt lat="44.098515" lon="-1.275149">
        <ele>26.789368</ele>
        <time>2026-03-26T22:10:18.124Z</time>
      </trkpt>
      <trkpt lat="44.098636" lon="-1.274869">
        <ele>26.553984</ele>
        <time>2026-03-26T22:10:20.448Z</time>
      </trkpt>
      <trkpt lat="44.098735" lon="-1.274757">
        <ele>26.526362</ele>
        <time>2026-03-26T22:10:21.807Z</time>
      </trkpt>
      <trkpt lat="44.098864" lon="-1.274665">
        <ele>26.494976</ele>
        <time>2026-03-26T22:10:23.450Z</time>
      </trkpt>
      <trkpt lat="44.098945" lon="-1.274644">
        <ele>26.477134</ele>
        <time>2026-03-26T22:10:24.447Z</time>
      </trkpt>
      <trkpt lat="44.099758" lon="-1.274636">
        <ele>26.301073</ele>
        <time>2026-03-26T22:10:35.222Z</time>
      </trkpt>
      <trkpt lat="44.103234" lon="-1.274929">
        <ele>26.240873</ele>
        <time>2026-03-26T22:11:14.542Z</time>
      </trkpt>
      <trkpt lat="44.104492" lon="-1.274780">
        <ele>27.165649</ele>
        <time>2026-03-26T22:11:31.580Z</time>
      </trkpt>
      <trkpt lat="44.105527" lon="-1.274595">
        <ele>28.395124</ele>
        <time>2026-03-26T22:11:47.724Z</time>
      </trkpt>
      <trkpt lat="44.108033" lon="-1.274060">
        <ele>31.037923</ele>
        <time>2026-03-26T22:12:28.830Z</time>
      </trkpt>
      <trkpt lat="44.108843" lon="-1.273789">
        <ele>30.445241</ele>
        <time>2026-03-26T22:12:36.752Z</time>
      </trkpt>
      <trkpt lat="44.109713" lon="-1.273547">
        <ele>28.586505</ele>
        <time>2026-03-26T22:12:44.313Z</time>
      </trkpt>
      <trkpt lat="44.110011" lon="-1.273492">
        <ele>27.771330</ele>
        <time>2026-03-26T22:12:46.873Z</time>
      </trkpt>
      <trkpt lat="44.110315" lon="-1.273499">
        <ele>26.946836</ele>
        <time>2026-03-26T22:12:49.518Z</time>
      </trkpt>
      <trkpt lat="44.110748" lon="-1.273594">
        <ele>25.758156</ele>
        <time>2026-03-26T22:12:53.489Z</time>
      </trkpt>
      <trkpt lat="44.113726" lon="-1.274314">
        <ele>22.832734</ele>
        <time>2026-03-26T22:13:23.898Z</time>
      </trkpt>
      <trkpt lat="44.114451" lon="-1.274415">
        <ele>22.573663</ele>
        <time>2026-03-26T22:13:33.158Z</time>
      </trkpt>
      <trkpt lat="44.114942" lon="-1.274407">
        <ele>23.165926</ele>
        <time>2026-03-26T22:13:40.328Z</time>
      </trkpt>
      <trkpt lat="44.116812" lon="-1.273994">
        <ele>25.244271</ele>
        <time>2026-03-26T22:14:09.293Z</time>
      </trkpt>
      <trkpt lat="44.118189" lon="-1.273240">
        <ele>26.231383</ele>
        <time>2026-03-26T22:14:28.965Z</time>
      </trkpt>
      <trkpt lat="44.118866" lon="-1.272879">
        <ele>26.104293</ele>
        <time>2026-03-26T22:14:36.680Z</time>
      </trkpt>
      <trkpt lat="44.119126" lon="-1.272767">
        <ele>26.056581</ele>
        <time>2026-03-26T22:14:39.522Z</time>
      </trkpt>
      <trkpt lat="44.119559" lon="-1.272718">
        <ele>25.980418</ele>
        <time>2026-03-26T22:14:44.100Z</time>
      </trkpt>
      <trkpt lat="44.122715" lon="-1.272810">
        <ele>27.354032</ele>
        <time>2026-03-26T22:15:24.758Z</time>
      </trkpt>
      <trkpt lat="44.124118" lon="-1.272812">
        <ele>28.661378</ele>
        <time>2026-03-26T22:15:43.242Z</time>
      </trkpt>
      <trkpt lat="44.125113" lon="-1.272562">
        <ele>29.827248</ele>
        <time>2026-03-26T22:15:59.450Z</time>
      </trkpt>
      <trkpt lat="44.126479" lon="-1.272220">
        <ele>31.274582</ele>
        <time>2026-03-26T22:16:21.336Z</time>
      </trkpt>
      <trkpt lat="44.129468" lon="-1.271381">
        <ele>30.693888</ele>
        <time>2026-03-26T22:16:52.831Z</time>
      </trkpt>
      <trkpt lat="44.130300" lon="-1.270920">
        <ele>31.098035</ele>
        <time>2026-03-26T22:17:05.472Z</time>
      </trkpt>
      <trkpt lat="44.130803" lon="-1.270474">
        <ele>33.433512</ele>
        <time>2026-03-26T22:17:18.139Z</time>
      </trkpt>
      <trkpt lat="44.131546" lon="-1.269152">
        <ele>38.113897</ele>
        <time>2026-03-26T22:17:48.953Z</time>
      </trkpt>
      <trkpt lat="44.131915" lon="-1.266350">
        <ele>41.617357</ele>
        <time>2026-03-26T22:18:24.832Z</time>
      </trkpt>
      <trkpt lat="44.132048" lon="-1.265971">
        <ele>40.921829</ele>
        <time>2026-03-26T22:18:27.543Z</time>
      </trkpt>
      <trkpt lat="44.132253" lon="-1.265447">
        <ele>39.937935</ele>
        <time>2026-03-26T22:18:31.126Z</time>
      </trkpt>
      <trkpt lat="44.132342" lon="-1.265162">
        <ele>39.425522</ele>
        <time>2026-03-26T22:18:32.950Z</time>
      </trkpt>
      <trkpt lat="44.132447" lon="-1.264677">
        <ele>38.590345</ele>
        <time>2026-03-26T22:18:35.913Z</time>
      </trkpt>
      <trkpt lat="44.132545" lon="-1.264048">
        <ele>37.927667</ele>
        <time>2026-03-26T22:18:39.889Z</time>
      </trkpt>
      <trkpt lat="44.132660" lon="-1.263571">
        <ele>37.667980</ele>
        <time>2026-03-26T22:18:43.409Z</time>
      </trkpt>
      <trkpt lat="44.132729" lon="-1.263415">
        <ele>37.573412</ele>
        <time>2026-03-26T22:18:44.803Z</time>
      </trkpt>
      <trkpt lat="44.132889" lon="-1.263198">
        <ele>37.412858</ele>
        <time>2026-03-26T22:18:47.369Z</time>
      </trkpt>
      <trkpt lat="44.132942" lon="-1.263082">
        <ele>37.341893</ele>
        <time>2026-03-26T22:18:48.600Z</time>
      </trkpt>
      <trkpt lat="44.133066" lon="-1.262467">
        <ele>37.012220</ele>
        <time>2026-03-26T22:18:54.912Z</time>
      </trkpt>
      <trkpt lat="44.133100" lon="-1.262350">
        <ele>36.947078</ele>
        <time>2026-03-26T22:18:56.183Z</time>
      </trkpt>
      <trkpt lat="44.133184" lon="-1.262215">
        <ele>36.854871</ele>
        <time>2026-03-26T22:18:57.955Z</time>
      </trkpt>
      <trkpt lat="44.133338" lon="-1.262150">
        <ele>36.790290</ele>
        <time>2026-03-26T22:19:00.114Z</time>
      </trkpt>
      <trkpt lat="44.133607" lon="-1.262124">
        <ele>36.725518</ele>
        <time>2026-03-26T22:19:03.506Z</time>
      </trkpt>
      <trkpt lat="44.133953" lon="-1.261761">
        <ele>36.621478</ele>
        <time>2026-03-26T22:19:08.458Z</time>
      </trkpt>
      <trkpt lat="44.134015" lon="-1.261727">
        <ele>36.605473</ele>
        <time>2026-03-26T22:19:09.192Z</time>
      </trkpt>
      <trkpt lat="44.134171" lon="-1.261678">
        <ele>36.567060</ele>
        <time>2026-03-26T22:19:10.930Z</time>
      </trkpt>
      <trkpt lat="44.134505" lon="-1.261659">
        <ele>36.486763</ele>
        <time>2026-03-26T22:19:14.479Z</time>
      </trkpt>
      <trkpt lat="44.134973" lon="-1.261521">
        <ele>36.319837</ele>
        <time>2026-03-26T22:19:19.407Z</time>
      </trkpt>
      <trkpt lat="44.135184" lon="-1.261551">
        <ele>36.048556</ele>
        <time>2026-03-26T22:19:21.548Z</time>
      </trkpt>
      <trkpt lat="44.135239" lon="-1.261580">
        <ele>35.973340</ele>
        <time>2026-03-26T22:19:22.138Z</time>
      </trkpt>
      <trkpt lat="44.135349" lon="-1.261640">
        <ele>35.822248</ele>
        <time>2026-03-26T22:19:23.315Z</time>
      </trkpt>
      <trkpt lat="44.135487" lon="-1.261773">
        <ele>35.607630</ele>
        <time>2026-03-26T22:19:24.964Z</time>
      </trkpt>
      <trkpt lat="44.135585" lon="-1.261966">
        <ele>35.390604</ele>
        <time>2026-03-26T22:19:26.631Z</time>
      </trkpt>
      <trkpt lat="44.135681" lon="-1.262346">
        <ele>35.020798</ele>
        <time>2026-03-26T22:19:29.438Z</time>
      </trkpt>
      <trkpt lat="44.135767" lon="-1.262581">
        <ele>34.778650</ele>
        <time>2026-03-26T22:19:31.269Z</time>
      </trkpt>
      <trkpt lat="44.136029" lon="-1.263027">
        <ele>34.249580</ele>
        <time>2026-03-26T22:19:35.247Z</time>
      </trkpt>
      <trkpt lat="44.136113" lon="-1.263160">
        <ele>34.086949</ele>
        <time>2026-03-26T22:19:36.472Z</time>
      </trkpt>
      <trkpt lat="44.136278" lon="-1.263328">
        <ele>33.928111</ele>
        <time>2026-03-26T22:19:38.456Z</time>
      </trkpt>
      <trkpt lat="44.136551" lon="-1.263466">
        <ele>33.704434</ele>
        <time>2026-03-26T22:19:41.314Z</time>
      </trkpt>
      <trkpt lat="44.136868" lon="-1.263465">
        <ele>33.460277</ele>
        <time>2026-03-26T22:19:44.502Z</time>
      </trkpt>
      <trkpt lat="44.137328" lon="-1.263331">
        <ele>33.098321</ele>
        <time>2026-03-26T22:19:49.400Z</time>
      </trkpt>
      <trkpt lat="44.137802" lon="-1.263294">
        <ele>32.732669</ele>
        <time>2026-03-26T22:19:54.528Z</time>
      </trkpt>
      <trkpt lat="44.138757" lon="-1.263296">
        <ele>33.532007</ele>
        <time>2026-03-26T22:20:06.680Z</time>
      </trkpt>
      <trkpt lat="44.139067" lon="-1.263260">
        <ele>33.817109</ele>
        <time>2026-03-26T22:20:11.479Z</time>
      </trkpt>
      <trkpt lat="44.139394" lon="-1.263173">
        <ele>34.122220</ele>
        <time>2026-03-26T22:20:16.993Z</time>
      </trkpt>
      <trkpt lat="44.139765" lon="-1.263030">
        <ele>34.228236</ele>
        <time>2026-03-26T22:20:23.324Z</time>
      </trkpt>
      <trkpt lat="44.140290" lon="-1.262682">
        <ele>33.738183</ele>
        <time>2026-03-26T22:20:32.248Z</time>
      </trkpt>
      <trkpt lat="44.140769" lon="-1.262456">
        <ele>33.311905</ele>
        <time>2026-03-26T22:20:37.665Z</time>
      </trkpt>
      <trkpt lat="44.141192" lon="-1.262256">
        <ele>32.935382</ele>
        <time>2026-03-26T22:20:41.634Z</time>
      </trkpt>
      <trkpt lat="44.142827" lon="-1.261149">
        <ele>24.972213</ele>
        <time>2026-03-26T22:20:56.000Z</time>
      </trkpt>
      <trkpt lat="44.143362" lon="-1.260179">
        <ele>23.664463</ele>
        <time>2026-03-26T22:21:04.125Z</time>
      </trkpt>
      <trkpt lat="44.144260" lon="-1.258409">
        <ele>23.019634</ele>
        <time>2026-03-26T22:21:25.318Z</time>
      </trkpt>
      <trkpt lat="44.144780" lon="-1.257383">
        <ele>23.772576</ele>
        <time>2026-03-26T22:21:38.613Z</time>
      </trkpt>
      <trkpt lat="44.145660" lon="-1.255682">
        <ele>24.707345</ele>
        <time>2026-03-26T22:21:59.003Z</time>
      </trkpt>
      <trkpt lat="44.146351" lon="-1.254414">
        <ele>25.182675</ele>
        <time>2026-03-26T22:22:14.134Z</time>
      </trkpt>
      <trkpt lat="44.147995" lon="-1.251155">
        <ele>25.600008</ele>
        <time>2026-03-26T22:22:49.230Z</time>
      </trkpt>
      <trkpt lat="44.148167" lon="-1.250814">
        <ele>25.608569</ele>
        <time>2026-03-26T22:22:52.724Z</time>
      </trkpt>
      <trkpt lat="44.149177" lon="-1.254054">
        <ele>24.971754</ele>
        <time>2026-03-26T22:23:17.420Z</time>
      </trkpt>
      <trkpt lat="44.149583" lon="-1.255333">
        <ele>24.747066</ele>
        <time>2026-03-26T22:23:27.427Z</time>
      </trkpt>
      <trkpt lat="44.150235" lon="-1.257388">
        <ele>24.801821</ele>
        <time>2026-03-26T22:23:44.060Z</time>
      </trkpt>
      <trkpt lat="44.150417" lon="-1.257797">
        <ele>24.866644</ele>
        <time>2026-03-26T22:23:47.800Z</time>
      </trkpt>
      <trkpt lat="44.151106" lon="-1.259011">
        <ele>25.318246</ele>
        <time>2026-03-26T22:24:00.199Z</time>
      </trkpt>
      <trkpt lat="44.151290" lon="-1.259331">
        <ele>25.437888</ele>
        <time>2026-03-26T22:24:03.507Z</time>
      </trkpt>
      <trkpt lat="44.154313" lon="-1.264869">
        <ele>30.982728</ele>
        <time>2026-03-26T22:25:05.165Z</time>
      </trkpt>
      <trkpt lat="44.155027" lon="-1.266117">
        <ele>34.775616</ele>
        <time>2026-03-26T22:25:32.705Z</time>
      </trkpt>
      <trkpt lat="44.155294" lon="-1.266582">
        <ele>36.708487</ele>
        <time>2026-03-26T22:25:43.298Z</time>
      </trkpt>
      <trkpt lat="44.155225" lon="-1.266843">
        <ele>37.611194</ele>
        <time>2026-03-26T22:25:48.125Z</time>
      </trkpt>
      <trkpt lat="44.154570" lon="-1.268281">
        <ele>41.868981</ele>
        <time>2026-03-26T22:26:14.698Z</time>
      </trkpt>
      <trkpt lat="44.153946" lon="-1.269789">
        <ele>44.577260</ele>
        <time>2026-03-26T22:26:35.961Z</time>
      </trkpt>
      <trkpt lat="44.153681" lon="-1.270447">
        <ele>43.549084</ele>
        <time>2026-03-26T22:26:41.332Z</time>
      </trkpt>
      <trkpt lat="44.153515" lon="-1.270770">
        <ele>42.985133</ele>
        <time>2026-03-26T22:26:43.868Z</time>
      </trkpt>
      <trkpt lat="44.153364" lon="-1.270970">
        <ele>42.573032</ele>
        <time>2026-03-26T22:26:45.659Z</time>
      </trkpt>
      <trkpt lat="44.153060" lon="-1.271262">
        <ele>41.842634</ele>
        <time>2026-03-26T22:26:48.763Z</time>
      </trkpt>
      <trkpt lat="44.152917" lon="-1.271353">
        <ele>41.531640</ele>
        <time>2026-03-26T22:26:50.102Z</time>
      </trkpt>
      <trkpt lat="44.152712" lon="-1.271435">
        <ele>41.109710</ele>
        <time>2026-03-26T22:26:51.940Z</time>
      </trkpt>
      <trkpt lat="44.151054" lon="-1.272018">
        <ele>39.026437</ele>
        <time>2026-03-26T22:27:08.447Z</time>
      </trkpt>
      <trkpt lat="44.150866" lon="-1.272114">
        <ele>39.144194</ele>
        <time>2026-03-26T22:27:11.330Z</time>
      </trkpt>
      <trkpt lat="44.150682" lon="-1.272284">
        <ele>39.906892</ele>
        <time>2026-03-26T22:27:14.897Z</time>
      </trkpt>
      <trkpt lat="44.150549" lon="-1.272487">
        <ele>40.588341</ele>
        <time>2026-03-26T22:27:18.416Z</time>
      </trkpt>
      <trkpt lat="44.150448" lon="-1.272748">
        <ele>41.323442</ele>
        <time>2026-03-26T22:27:22.607Z</time>
      </trkpt>
      <trkpt lat="44.150406" lon="-1.272986">
        <ele>41.931010</ele>
        <time>2026-03-26T22:27:26.357Z</time>
      </trkpt>
      <trkpt lat="44.150260" lon="-1.275057">
        <ele>46.934152</ele>
        <time>2026-03-26T22:28:04.337Z</time>
      </trkpt>
      <trkpt lat="44.150185" lon="-1.275640">
        <ele>48.288137</ele>
        <time>2026-03-26T22:28:13.965Z</time>
      </trkpt>
      <trkpt lat="44.150103" lon="-1.275977">
        <ele>49.101609</ele>
        <time>2026-03-26T22:28:19.008Z</time>
      </trkpt>
      <trkpt lat="44.150018" lon="-1.276162">
        <ele>49.603794</ele>
        <time>2026-03-26T22:28:21.840Z</time>
      </trkpt>
      <trkpt lat="44.149797" lon="-1.276453">
        <ele>50.572446</ele>
        <time>2026-03-26T22:28:26.707Z</time>
      </trkpt>
      <trkpt lat="44.147039" lon="-1.279486">
        <ele>47.347922</ele>
        <time>2026-03-26T22:29:01.807Z</time>
      </trkpt>
      <trkpt lat="44.146824" lon="-1.279666">
        <ele>46.964092</ele>
        <time>2026-03-26T22:29:04.194Z</time>
      </trkpt>
      <trkpt lat="44.146644" lon="-1.279768">
        <ele>46.559644</ele>
        <time>2026-03-26T22:29:06.031Z</time>
      </trkpt>
      <trkpt lat="44.146376" lon="-1.279861">
        <ele>45.984782</ele>
        <time>2026-03-26T22:29:08.633Z</time>
      </trkpt>
      <trkpt lat="44.146219" lon="-1.279898">
        <ele>45.653356</ele>
        <time>2026-03-26T22:29:10.129Z</time>
      </trkpt>
      <trkpt lat="44.141921" lon="-1.280919">
        <ele>36.203359</ele>
        <time>2026-03-26T22:29:50.105Z</time>
      </trkpt>
      <trkpt lat="44.140539" lon="-1.281248">
        <ele>32.750712</ele>
        <time>2026-03-26T22:30:02.470Z</time>
      </trkpt>
      <trkpt lat="44.137128" lon="-1.283863">
        <ele>24.543799</ele>
        <time>2026-03-26T22:30:38.211Z</time>
      </trkpt>
      <trkpt lat="44.136901" lon="-1.284038">
        <ele>24.067489</ele>
        <time>2026-03-26T22:30:40.700Z</time>
      </trkpt>
      <trkpt lat="44.136699" lon="-1.284135">
        <ele>23.844829</ele>
        <time>2026-03-26T22:30:42.830Z</time>
      </trkpt>
      <trkpt lat="44.136485" lon="-1.284156">
        <ele>24.120709</ele>
        <time>2026-03-26T22:30:45.055Z</time>
      </trkpt>
      <trkpt lat="44.135900" lon="-1.283973">
        <ele>24.891730</ele>
        <time>2026-03-26T22:30:52.013Z</time>
      </trkpt>
      <trkpt lat="44.132313" lon="-1.283129">
        <ele>29.032799</ele>
        <time>2026-03-26T22:31:52.216Z</time>
      </trkpt>
      <trkpt lat="44.131895" lon="-1.283009">
        <ele>29.329467</ele>
        <time>2026-03-26T22:31:57.628Z</time>
      </trkpt>
      <trkpt lat="44.130261" lon="-1.282654">
        <ele>28.355605</ele>
        <time>2026-03-26T22:32:14.072Z</time>
      </trkpt>
      <trkpt lat="44.130139" lon="-1.282662">
        <ele>28.222715</ele>
        <time>2026-03-26T22:32:15.244Z</time>
      </trkpt>
      <trkpt lat="44.129846" lon="-1.282783">
        <ele>27.890205</ele>
        <time>2026-03-26T22:32:18.228Z</time>
      </trkpt>
      <trkpt lat="44.129458" lon="-1.283059">
        <ele>27.718829</ele>
        <time>2026-03-26T22:32:22.648Z</time>
      </trkpt>
      <trkpt lat="44.129409" lon="-1.283095">
        <ele>27.724158</ele>
        <time>2026-03-26T22:32:23.218Z</time>
      </trkpt>
      <trkpt lat="44.127667" lon="-1.284231">
        <ele>28.304592</ele>
        <time>2026-03-26T22:32:47.390Z</time>
      </trkpt>
      <trkpt lat="44.123856" lon="-1.284758">
        <ele>32.116840</ele>
        <time>2026-03-26T22:33:44.312Z</time>
      </trkpt>
      <trkpt lat="44.121578" lon="-1.285032">
        <ele>33.257391</ele>
        <time>2026-03-26T22:34:10.127Z</time>
      </trkpt>
      <trkpt lat="44.121340" lon="-1.285061">
        <ele>33.403245</ele>
        <time>2026-03-26T22:34:13.381Z</time>
      </trkpt>
      <trkpt lat="44.120983" lon="-1.284964">
        <ele>33.625302</ele>
        <time>2026-03-26T22:34:18.838Z</time>
      </trkpt>
      <trkpt lat="44.119669" lon="-1.284215">
        <ele>36.769517</ele>
        <time>2026-03-26T22:34:47.357Z</time>
      </trkpt>
      <trkpt lat="44.119501" lon="-1.284149">
        <ele>37.164212</ele>
        <time>2026-03-26T22:34:50.562Z</time>
      </trkpt>
      <trkpt lat="44.119253" lon="-1.284126">
        <ele>37.705629</ele>
        <time>2026-03-26T22:34:54.355Z</time>
      </trkpt>
      <trkpt lat="44.119130" lon="-1.284157">
        <ele>37.372099</ele>
        <time>2026-03-26T22:34:55.940Z</time>
      </trkpt>
      <trkpt lat="44.119074" lon="-1.284171">
        <ele>37.220286</ele>
        <time>2026-03-26T22:34:56.604Z</time>
      </trkpt>
      <trkpt lat="44.118922" lon="-1.284301">
        <ele>36.744355</ele>
        <time>2026-03-26T22:34:58.484Z</time>
      </trkpt>
      <trkpt lat="44.118904" lon="-1.284620">
        <ele>36.131404</ele>
        <time>2026-03-26T22:35:00.664Z</time>
      </trkpt>
      <trkpt lat="44.118986" lon="-1.285278">
        <ele>34.852111</ele>
        <time>2026-03-26T22:35:04.828Z</time>
      </trkpt>
      <trkpt lat="44.119225" lon="-1.286001">
        <ele>33.327387</ele>
        <time>2026-03-26T22:35:09.339Z</time>
      </trkpt>
      <trkpt lat="44.119587" lon="-1.287469">
        <ele>30.197470</ele>
        <time>2026-03-26T22:35:18.522Z</time>
      </trkpt>
      <trkpt lat="44.119687" lon="-1.287745">
        <ele>29.569078</ele>
        <time>2026-03-26T22:35:20.643Z</time>
      </trkpt>
      <trkpt lat="44.119880" lon="-1.288138">
        <ele>28.601251</ele>
        <time>2026-03-26T22:35:24.034Z</time>
      </trkpt>
      <trkpt lat="44.120036" lon="-1.288377">
        <ele>27.944689</ele>
        <time>2026-03-26T22:35:26.434Z</time>
      </trkpt>
      <trkpt lat="44.120292" lon="-1.288610">
        <ele>27.672062</ele>
        <time>2026-03-26T22:35:29.713Z</time>
      </trkpt>
      <trkpt lat="44.121004" lon="-1.289064">
        <ele>27.217889</ele>
        <time>2026-03-26T22:35:38.073Z</time>
      </trkpt>
      <trkpt lat="44.121226" lon="-1.289244">
        <ele>27.068904</ele>
        <time>2026-03-26T22:35:40.756Z</time>
      </trkpt>
      <trkpt lat="44.121388" lon="-1.289428">
        <ele>26.947669</ele>
        <time>2026-03-26T22:35:42.877Z</time>
      </trkpt>
      <trkpt lat="44.121696" lon="-1.289870">
        <ele>26.735592</ele>
        <time>2026-03-26T22:35:47.540Z</time>
      </trkpt>
      <trkpt lat="44.122077" lon="-1.290536">
        <ele>26.555030</ele>
        <time>2026-03-26T22:35:55.130Z</time>
      </trkpt>
      <trkpt lat="44.122211" lon="-1.290864">
        <ele>26.475014</ele>
        <time>2026-03-26T22:35:58.737Z</time>
      </trkpt>
      <trkpt lat="44.122292" lon="-1.291168">
        <ele>26.406263</ele>
        <time>2026-03-26T22:36:01.799Z</time>
      </trkpt>
      <trkpt lat="44.122333" lon="-1.291484">
        <ele>26.338179</ele>
        <time>2026-03-26T22:36:04.485Z</time>
      </trkpt>
      <trkpt lat="44.122354" lon="-1.291646">
        <ele>26.303276</ele>
        <time>2026-03-26T22:36:05.753Z</time>
      </trkpt>
      <trkpt lat="44.122392" lon="-1.292555">
        <ele>24.601988</ele>
        <time>2026-03-26T22:36:11.856Z</time>
      </trkpt>
      <trkpt lat="44.122465" lon="-1.293031">
        <ele>23.388634</ele>
        <time>2026-03-26T22:36:14.791Z</time>
      </trkpt>
      <trkpt lat="44.122605" lon="-1.293688">
        <ele>21.680226</ele>
        <time>2026-03-26T22:36:18.756Z</time>
      </trkpt>
      <trkpt lat="44.122846" lon="-1.294626">
        <ele>19.409224</ele>
        <time>2026-03-26T22:36:24.566Z</time>
      </trkpt>
      <trkpt lat="44.122944" lon="-1.294906">
        <ele>18.836983</ele>
        <time>2026-03-26T22:36:26.461Z</time>
      </trkpt>
      <trkpt lat="44.123133" lon="-1.295216">
        <ele>18.089842</ele>
        <time>2026-03-26T22:36:29.029Z</time>
      </trkpt>
      <trkpt lat="44.123645" lon="-1.295921">
        <ele>16.247585</ele>
        <time>2026-03-26T22:36:35.662Z</time>
      </trkpt>
      <trkpt lat="44.123813" lon="-1.296254">
        <ele>15.499908</ele>
        <time>2026-03-26T22:36:38.541Z</time>
      </trkpt>
      <trkpt lat="44.123859" lon="-1.296452">
        <ele>15.378855</ele>
        <time>2026-03-26T22:36:40.054Z</time>
      </trkpt>
      <trkpt lat="44.123870" lon="-1.296688">
        <ele>15.343942</ele>
        <time>2026-03-26T22:36:41.811Z</time>
      </trkpt>
      <trkpt lat="44.123852" lon="-1.296857">
        <ele>15.318721</ele>
        <time>2026-03-26T22:36:43.120Z</time>
      </trkpt>
      <trkpt lat="44.123845" lon="-1.296929">
        <ele>15.307995</ele>
        <time>2026-03-26T22:36:43.683Z</time>
      </trkpt>
      <trkpt lat="44.123763" lon="-1.297143">
        <ele>15.272184</ele>
        <time>2026-03-26T22:36:45.589Z</time>
      </trkpt>
      <trkpt lat="44.123704" lon="-1.297168">
        <ele>15.259502</ele>
        <time>2026-03-26T22:36:46.292Z</time>
      </trkpt>
      <trkpt lat="44.122822" lon="-1.297177">
        <ele>15.078112</ele>
        <time>2026-03-26T22:36:56.855Z</time>
      </trkpt>
      <trkpt lat="44.122607" lon="-1.297224">
        <ele>15.033355</ele>
        <time>2026-03-26T22:36:59.679Z</time>
      </trkpt>
      <trkpt lat="44.121286" lon="-1.297775">
        <ele>15.280933</ele>
        <time>2026-03-26T22:37:16.066Z</time>
      </trkpt>
      <trkpt lat="44.120518" lon="-1.298084">
        <ele>15.362319</ele>
        <time>2026-03-26T22:37:25.653Z</time>
      </trkpt>
      <trkpt lat="44.119591" lon="-1.298458">
        <ele>15.372050</ele>
        <time>2026-03-26T22:37:37.178Z</time>
      </trkpt>
      <trkpt lat="44.119364" lon="-1.298572">
        <ele>15.374484</ele>
        <time>2026-03-26T22:37:39.867Z</time>
      </trkpt>
      <trkpt lat="44.119018" lon="-1.298843">
        <ele>15.347154</ele>
        <time>2026-03-26T22:37:44.154Z</time>
      </trkpt>
      <trkpt lat="44.118145" lon="-1.299692">
        <ele>15.169183</ele>
        <time>2026-03-26T22:37:55.793Z</time>
      </trkpt>
      <trkpt lat="44.117894" lon="-1.299876">
        <ele>15.121772</ele>
        <time>2026-03-26T22:37:59.030Z</time>
      </trkpt>
      <trkpt lat="44.117643" lon="-1.299988">
        <ele>15.077717</ele>
        <time>2026-03-26T22:38:02.176Z</time>
      </trkpt>
      <trkpt lat="44.117358" lon="-1.299984">
        <ele>15.164602</ele>
        <time>2026-03-26T22:38:05.734Z</time>
      </trkpt>
      <trkpt lat="44.114919" lon="-1.299437">
        <ele>15.496167</ele>
        <time>2026-03-26T22:38:36.558Z</time>
      </trkpt>
      <trkpt lat="44.114679" lon="-1.299408">
        <ele>15.455741</ele>
        <time>2026-03-26T22:38:39.167Z</time>
      </trkpt>
      <trkpt lat="44.114402" lon="-1.299434">
        <ele>15.409153</ele>
        <time>2026-03-26T22:38:42.120Z</time>
      </trkpt>
      <trkpt lat="44.113361" lon="-1.299758">
        <ele>14.300697</ele>
        <time>2026-03-26T22:38:52.979Z</time>
      </trkpt>
      <trkpt lat="44.112748" lon="-1.299949">
        <ele>13.399214</ele>
        <time>2026-03-26T22:38:58.873Z</time>
      </trkpt>
      <trkpt lat="44.112398" lon="-1.300111">
        <ele>12.869907</ele>
        <time>2026-03-26T22:39:02.339Z</time>
      </trkpt>
      <trkpt lat="44.112195" lon="-1.300237">
        <ele>12.594328</ele>
        <time>2026-03-26T22:39:04.398Z</time>
      </trkpt>
      <trkpt lat="44.111224" lon="-1.301076">
        <ele>11.276317</ele>
        <time>2026-03-26T22:39:15.615Z</time>
      </trkpt>
      <trkpt lat="44.110949" lon="-1.301273">
        <ele>10.919623</ele>
        <time>2026-03-26T22:39:18.927Z</time>
      </trkpt>
      <trkpt lat="44.110670" lon="-1.301382">
        <ele>10.634211</ele>
        <time>2026-03-26T22:39:22.031Z</time>
      </trkpt>
      <trkpt lat="44.110240" lon="-1.301399">
        <ele>10.354486</ele>
        <time>2026-03-26T22:39:26.728Z</time>
      </trkpt>
      <trkpt lat="44.110001" lon="-1.301479">
        <ele>10.194648</ele>
        <time>2026-03-26T22:39:29.451Z</time>
      </trkpt>
      <trkpt lat="44.109686" lon="-1.301713">
        <ele>9.962501</ele>
        <time>2026-03-26T22:39:33.179Z</time>
      </trkpt>
      <trkpt lat="44.109055" lon="-1.302262">
        <ele>9.491466</ele>
        <time>2026-03-26T22:39:40.749Z</time>
      </trkpt>
      <trkpt lat="44.108672" lon="-1.302577">
        <ele>9.277558</ele>
        <time>2026-03-26T22:39:45.466Z</time>
      </trkpt>
      <trkpt lat="44.108476" lon="-1.302613">
        <ele>9.182483</ele>
        <time>2026-03-26T22:39:47.584Z</time>
      </trkpt>
      <trkpt lat="44.107417" lon="-1.302247">
        <ele>8.662523</ele>
        <time>2026-03-26T22:39:59.474Z</time>
      </trkpt>
      <trkpt lat="44.106430" lon="-1.301906">
        <ele>8.642674</ele>
        <time>2026-03-26T22:40:11.034Z</time>
      </trkpt>
      <trkpt lat="44.106083" lon="-1.301884">
        <ele>8.635894</ele>
        <time>2026-03-26T22:40:15.044Z</time>
      </trkpt>
      <trkpt lat="44.105901" lon="-1.301990">
        <ele>8.632043</ele>
        <time>2026-03-26T22:40:17.359Z</time>
      </trkpt>
      <trkpt lat="44.105668" lon="-1.302301">
        <ele>8.623613</ele>
        <time>2026-03-26T22:40:21.243Z</time>
      </trkpt>
      <trkpt lat="44.105615" lon="-1.302407">
        <ele>8.619744</ele>
        <time>2026-03-26T22:40:22.367Z</time>
      </trkpt>
      <trkpt lat="44.105579" lon="-1.302537">
        <ele>8.615571</ele>
        <time>2026-03-26T22:40:23.575Z</time>
      </trkpt>
      <trkpt lat="44.105516" lon="-1.303111">
        <ele>8.598177</ele>
        <time>2026-03-26T22:40:28.600Z</time>
      </trkpt>
      <trkpt lat="44.105494" lon="-1.303514">
        <ele>8.586071</ele>
        <time>2026-03-26T22:40:32.050Z</time>
      </trkpt>
      <trkpt lat="44.105353" lon="-1.303973">
        <ele>8.571116</ele>
        <time>2026-03-26T22:40:36.178Z</time>
      </trkpt>
      <trkpt lat="44.105350" lon="-1.304105">
        <ele>8.567160</ele>
        <time>2026-03-26T22:40:37.249Z</time>
      </trkpt>
      <trkpt lat="44.105399" lon="-1.304470">
        <ele>8.556038</ele>
        <time>2026-03-26T22:40:40.218Z</time>
      </trkpt>
      <trkpt lat="44.105241" lon="-1.306066">
        <ele>7.810663</ele>
        <time>2026-03-26T22:40:52.276Z</time>
      </trkpt>
      <trkpt lat="44.105107" lon="-1.307008">
        <ele>7.334367</ele>
        <time>2026-03-26T22:40:59.351Z</time>
      </trkpt>
      <trkpt lat="44.105012" lon="-1.307313">
        <ele>7.190981</ele>
        <time>2026-03-26T22:41:01.842Z</time>
      </trkpt>
      <trkpt lat="44.104313" lon="-1.308366">
        <ele>6.588419</ele>
        <time>2026-03-26T22:41:12.821Z</time>
      </trkpt>
      <trkpt lat="44.104248" lon="-1.308464">
        <ele>6.532362</ele>
        <time>2026-03-26T22:41:13.866Z</time>
      </trkpt>
      <trkpt lat="44.103546" lon="-1.309810">
        <ele>5.960063</ele>
        <time>2026-03-26T22:41:26.712Z</time>
      </trkpt>
      <trkpt lat="44.103337" lon="-1.310061">
        <ele>5.846792</ele>
        <time>2026-03-26T22:41:29.652Z</time>
      </trkpt>
      <trkpt lat="44.102999" lon="-1.310344">
        <ele>5.684925</ele>
        <time>2026-03-26T22:41:33.886Z</time>
      </trkpt>
      <trkpt lat="44.102643" lon="-1.310602">
        <ele>5.520211</ele>
        <time>2026-03-26T22:41:37.771Z</time>
      </trkpt>
      <trkpt lat="44.102502" lon="-1.310746">
        <ele>5.554846</ele>
        <time>2026-03-26T22:41:39.497Z</time>
      </trkpt>
      <trkpt lat="44.102153" lon="-1.311251">
        <ele>5.657613</ele>
        <time>2026-03-26T22:41:44.817Z</time>
      </trkpt>
      <trkpt lat="44.102009" lon="-1.311399">
        <ele>5.694156</ele>
        <time>2026-03-26T22:41:46.884Z</time>
      </trkpt>
      <trkpt lat="44.101665" lon="-1.311608">
        <ele>5.770791</ele>
        <time>2026-03-26T22:41:51.280Z</time>
      </trkpt>
      <trkpt lat="44.101294" lon="-1.311747">
        <ele>5.849238</ele>
        <time>2026-03-26T22:41:55.627Z</time>
      </trkpt>
      <trkpt lat="44.101097" lon="-1.311853">
        <ele>5.894852</ele>
        <time>2026-03-26T22:41:58.002Z</time>
      </trkpt>
      <trkpt lat="44.100485" lon="-1.312125">
        <ele>6.084349</ele>
        <time>2026-03-26T22:42:05.018Z</time>
      </trkpt>
      <trkpt lat="44.100269" lon="-1.312271">
        <ele>6.155173</ele>
        <time>2026-03-26T22:42:07.529Z</time>
      </trkpt>
      <trkpt lat="44.099278" lon="-1.313209">
        <ele>6.890192</ele>
        <time>2026-03-26T22:42:20.511Z</time>
      </trkpt>
      <trkpt lat="44.099071" lon="-1.313405">
        <ele>7.272557</ele>
        <time>2026-03-26T22:42:23.787Z</time>
      </trkpt>
      <trkpt lat="44.098071" lon="-1.314417">
        <ele>9.160843</ele>
        <time>2026-03-26T22:42:43.493Z</time>
      </trkpt>
      <trkpt lat="44.097666" lon="-1.314841">
        <ele>9.791976</ele>
        <time>2026-03-26T22:42:51.689Z</time>
      </trkpt>
      <trkpt lat="44.096218" lon="-1.316360">
        <ele>11.393351</ele>
        <time>2026-03-26T22:43:14.481Z</time>
      </trkpt>
      <trkpt lat="44.096071" lon="-1.316531">
        <ele>11.389962</ele>
        <time>2026-03-26T22:43:16.457Z</time>
      </trkpt>
      <trkpt lat="44.095013" lon="-1.317765">
        <ele>11.173149</ele>
        <time>2026-03-26T22:43:29.681Z</time>
      </trkpt>
      <trkpt lat="44.093817" lon="-1.318563">
        <ele>10.274333</ele>
        <time>2026-03-26T22:43:41.558Z</time>
      </trkpt>
      <trkpt lat="44.093726" lon="-1.318646">
        <ele>10.200606</ele>
        <time>2026-03-26T22:43:42.611Z</time>
      </trkpt>
      <trkpt lat="44.093408" lon="-1.318834">
        <ele>10.229208</ele>
        <time>2026-03-26T22:43:46.080Z</time>
      </trkpt>
      <trkpt lat="44.092687" lon="-1.319267">
        <ele>10.451826</ele>
        <time>2026-03-26T22:43:55.158Z</time>
      </trkpt>
      <trkpt lat="44.092463" lon="-1.319390">
        <ele>10.520093</ele>
        <time>2026-03-26T22:43:58.177Z</time>
      </trkpt>
      <trkpt lat="44.092450" lon="-1.319238">
        <ele>10.551263</ele>
        <time>2026-03-26T22:43:59.545Z</time>
      </trkpt>
      <trkpt lat="44.092528" lon="-1.319190">
        <ele>10.575441</ele>
        <time>2026-03-26T22:44:00.585Z</time>
      </trkpt>
      <trkpt lat="44.092524" lon="-1.318885">
        <ele>10.637556</ele>
        <time>2026-03-26T22:44:03.160Z</time>
      </trkpt>
      <trkpt lat="44.092562" lon="-1.318574">
        <ele>10.680064</ele>
        <time>2026-03-26T22:44:05.663Z</time>
      </trkpt>
      <trkpt lat="44.092532" lon="-1.318442">
        <ele>10.692995</ele>
        <time>2026-03-26T22:44:06.713Z</time>
      </trkpt>
      <trkpt lat="44.092419" lon="-1.318242">
        <ele>10.716761</ele>
        <time>2026-03-26T22:44:08.578Z</time>
      </trkpt>
      <trkpt lat="44.092361" lon="-1.318096">
        <ele>10.732343</ele>
        <time>2026-03-26T22:44:09.805Z</time>
      </trkpt>
      <trkpt lat="44.092263" lon="-1.317848">
        <ele>10.758780</ele>
        <time>2026-03-26T22:44:11.890Z</time>
      </trkpt>
      <trkpt lat="44.092146" lon="-1.317017">
        <ele>10.837868</ele>
        <time>2026-03-26T22:44:18.054Z</time>
      </trkpt>
      <trkpt lat="44.092123" lon="-1.316823">
        <ele>10.856232</ele>
        <time>2026-03-26T22:44:19.517Z</time>
      </trkpt>
      <trkpt lat="44.091949" lon="-1.315085">
        <ele>10.697373</ele>
        <time>2026-03-26T22:44:33.353Z</time>
      </trkpt>
      <trkpt lat="44.091905" lon="-1.314641">
        <ele>10.630785</ele>
        <time>2026-03-26T22:44:36.624Z</time>
      </trkpt>
      <trkpt lat="44.091733" lon="-1.313327">
        <ele>10.374485</ele>
        <time>2026-03-26T22:44:45.129Z</time>
      </trkpt>
      <trkpt lat="44.091695" lon="-1.313071">
        <ele>10.310989</ele>
        <time>2026-03-26T22:44:46.798Z</time>
      </trkpt>
      <trkpt lat="44.091612" lon="-1.312473">
        <ele>10.163048</ele>
        <time>2026-03-26T22:44:50.880Z</time>
      </trkpt>
      <trkpt lat="44.091588" lon="-1.312373">
        <ele>10.137437</ele>
        <time>2026-03-26T22:44:51.606Z</time>
      </trkpt>
      <trkpt lat="44.091533" lon="-1.312297">
        <ele>10.111231</ele>
        <time>2026-03-26T22:44:52.372Z</time>
      </trkpt>
      <trkpt lat="44.091513" lon="-1.312269">
        <ele>10.101639</ele>
        <time>2026-03-26T22:44:52.646Z</time>
      </trkpt>
      <trkpt lat="44.090552" lon="-1.311249">
        <ele>10.084515</ele>
        <time>2026-03-26T22:45:07.159Z</time>
      </trkpt>
      <trkpt lat="44.090278" lon="-1.310997">
        <ele>10.169125</ele>
        <time>2026-03-26T22:45:11.128Z</time>
      </trkpt>
      <trkpt lat="44.089875" lon="-1.310703">
        <ele>10.286352</ele>
        <time>2026-03-26T22:45:16.010Z</time>
      </trkpt>
      <trkpt lat="44.088948" lon="-1.310079">
        <ele>10.020634</ele>
        <time>2026-03-26T22:45:25.717Z</time>
      </trkpt>
      <trkpt lat="44.088627" lon="-1.309960">
        <ele>9.843534</ele>
        <time>2026-03-26T22:45:28.717Z</time>
      </trkpt>
      <trkpt lat="44.088342" lon="-1.309934">
        <ele>9.691264</ele>
        <time>2026-03-26T22:45:31.365Z</time>
      </trkpt>
      <trkpt lat="44.088091" lon="-1.309960">
        <ele>9.557077</ele>
        <time>2026-03-26T22:45:33.845Z</time>
      </trkpt>
      <trkpt lat="44.087877" lon="-1.310020">
        <ele>9.440695</ele>
        <time>2026-03-26T22:45:36.050Z</time>
      </trkpt>
      <trkpt lat="44.087702" lon="-1.310096">
        <ele>9.351018</ele>
        <time>2026-03-26T22:45:37.846Z</time>
      </trkpt>
      <trkpt lat="44.087511" lon="-1.310248">
        <ele>9.246038</ele>
        <time>2026-03-26T22:45:39.935Z</time>
      </trkpt>
      <trkpt lat="44.087353" lon="-1.310375">
        <ele>9.158980</ele>
        <time>2026-03-26T22:45:41.618Z</time>
      </trkpt>
      <trkpt lat="44.087260" lon="-1.310498">
        <ele>9.097770</ele>
        <time>2026-03-26T22:45:42.768Z</time>
      </trkpt>
      <trkpt lat="44.087233" lon="-1.310646">
        <ele>9.045433</ele>
        <time>2026-03-26T22:45:43.747Z</time>
      </trkpt>
      <trkpt lat="44.087209" lon="-1.310665">
        <ele>9.032259</ele>
        <time>2026-03-26T22:45:43.997Z</time>
      </trkpt>
      <trkpt lat="44.087173" lon="-1.310689">
        <ele>9.013212</ele>
        <time>2026-03-26T22:45:44.363Z</time>
      </trkpt>
      <trkpt lat="44.087101" lon="-1.310495">
        <ele>8.938368</ele>
        <time>2026-03-26T22:45:45.779Z</time>
      </trkpt>
      <trkpt lat="44.086808" lon="-1.310362">
        <ele>8.791311</ele>
        <time>2026-03-26T22:45:48.642Z</time>
      </trkpt>
      <trkpt lat="44.086591" lon="-1.310265">
        <ele>8.682557</ele>
        <time>2026-03-26T22:45:50.836Z</time>
      </trkpt>
      <trkpt lat="44.086515" lon="-1.310231">
        <ele>8.644465</ele>
        <time>2026-03-26T22:45:51.629Z</time>
      </trkpt>
      <trkpt lat="44.086524" lon="-1.310184">
        <ele>8.627793</ele>
        <time>2026-03-26T22:45:51.955Z</time>
      </trkpt>
      <trkpt lat="44.086234" lon="-1.310067">
        <ele>9.013000</ele>
        <time>2026-03-26T22:45:54.940Z</time>
      </trkpt>
      <trkpt lat="44.085939" lon="-1.309969">
        <ele>9.853821</ele>
        <time>2026-03-26T22:45:58.327Z</time>
      </trkpt>
      <trkpt lat="44.085647" lon="-1.309874">
        <ele>10.685175</ele>
        <time>2026-03-26T22:46:02.748Z</time>
      </trkpt>
      <trkpt lat="44.085270" lon="-1.309758">
        <ele>11.755595</ele>
        <time>2026-03-26T22:46:09.932Z</time>
      </trkpt>
      <trkpt lat="44.084919" lon="-1.309592">
        <ele>12.783327</ele>
        <time>2026-03-26T22:46:18.233Z</time>
      </trkpt>
      <trkpt lat="44.084764" lon="-1.309446">
        <ele>13.302169</ele>
        <time>2026-03-26T22:46:22.878Z</time>
      </trkpt>
      <trkpt lat="44.084399" lon="-1.308974">
        <ele>15.751138</ele>
        <time>2026-03-26T22:46:35.881Z</time>
      </trkpt>
      <trkpt lat="44.084010" lon="-1.308604">
        <ele>18.285816</ele>
        <time>2026-03-26T22:46:48.660Z</time>
      </trkpt>
      <trkpt lat="44.083840" lon="-1.308377">
        <ele>19.553138</ele>
        <time>2026-03-26T22:46:54.884Z</time>
      </trkpt>
      <trkpt lat="44.083430" lon="-1.307511">
        <ele>23.352108</ele>
        <time>2026-03-26T22:47:12.926Z</time>
      </trkpt>
      <trkpt lat="44.083167" lon="-1.306955">
        <ele>24.325049</ele>
        <time>2026-03-26T22:47:22.820Z</time>
      </trkpt>
      <trkpt lat="44.082548" lon="-1.305368">
        <ele>26.810690</ele>
        <time>2026-03-26T22:47:40.844Z</time>
      </trkpt>
      <trkpt lat="44.082290" lon="-1.304942">
        <ele>26.062389</ele>
        <time>2026-03-26T22:47:44.397Z</time>
      </trkpt>
      <trkpt lat="44.078560" lon="-1.299926">
        <ele>17.540355</ele>
        <time>2026-03-26T22:48:26.066Z</time>
      </trkpt>
      <trkpt lat="44.077945" lon="-1.299070">
        <ele>20.200263</ele>
        <time>2026-03-26T22:48:41.741Z</time>
      </trkpt>
      <trkpt lat="44.077678" lon="-1.298645">
        <ele>21.440746</ele>
        <time>2026-03-26T22:48:51.975Z</time>
      </trkpt>
      <trkpt lat="44.077441" lon="-1.298102">
        <ele>23.094598</ele>
        <time>2026-03-26T22:49:04.261Z</time>
      </trkpt>
      <trkpt lat="44.077297" lon="-1.297603">
        <ele>24.887353</ele>
        <time>2026-03-26T22:49:14.851Z</time>
      </trkpt>
      <trkpt lat="44.077213" lon="-1.297136">
        <ele>26.492292</ele>
        <time>2026-03-26T22:49:24.151Z</time>
      </trkpt>
      <trkpt lat="44.076919" lon="-1.294995">
        <ele>29.826283</ele>
        <time>2026-03-26T22:49:54.235Z</time>
      </trkpt>
      <trkpt lat="44.076450" lon="-1.292618">
        <ele>25.264496</ele>
        <time>2026-03-26T22:50:07.087Z</time>
      </trkpt>
      <trkpt lat="44.075988" lon="-1.290627">
        <ele>18.555925</ele>
        <time>2026-03-26T22:50:17.456Z</time>
      </trkpt>
      <trkpt lat="44.075962" lon="-1.290200">
        <ele>17.608433</ele>
        <time>2026-03-26T22:50:19.692Z</time>
      </trkpt>
      <trkpt lat="44.076011" lon="-1.289581">
        <ele>16.231525</ele>
        <time>2026-03-26T22:50:23.103Z</time>
      </trkpt>
      <trkpt lat="44.075962" lon="-1.289226">
        <ele>15.432256</ele>
        <time>2026-03-26T22:50:25.225Z</time>
      </trkpt>
      <trkpt lat="44.075606" lon="-1.288394">
        <ele>13.726433</ele>
        <time>2026-03-26T22:50:31.344Z</time>
      </trkpt>
      <trkpt lat="44.075492" lon="-1.288207">
        <ele>13.489481</ele>
        <time>2026-03-26T22:50:32.919Z</time>
      </trkpt>
      <trkpt lat="44.075479" lon="-1.288187">
        <ele>13.463423</ele>
        <time>2026-03-26T22:50:33.093Z</time>
      </trkpt>
      <trkpt lat="44.075296" lon="-1.287972">
        <ele>13.141373</ele>
        <time>2026-03-26T22:50:35.220Z</time>
      </trkpt>
      <trkpt lat="44.075193" lon="-1.287873">
        <ele>12.973040</ele>
        <time>2026-03-26T22:50:36.332Z</time>
      </trkpt>
      <trkpt lat="44.075139" lon="-1.287821">
        <ele>12.884735</ele>
        <time>2026-03-26T22:50:36.906Z</time>
      </trkpt>
      <trkpt lat="44.074956" lon="-1.287671">
        <ele>12.599130</ele>
        <time>2026-03-26T22:50:38.754Z</time>
      </trkpt>
      <trkpt lat="44.074437" lon="-1.287259">
        <ele>11.795632</ele>
        <time>2026-03-26T22:50:43.791Z</time>
      </trkpt>
      <trkpt lat="44.073135" lon="-1.286094">
        <ele>9.835597</ele>
        <time>2026-03-26T22:50:56.832Z</time>
      </trkpt>
      <trkpt lat="44.072969" lon="-1.285884">
        <ele>9.552907</ele>
        <time>2026-03-26T22:50:58.913Z</time>
      </trkpt>
      <trkpt lat="44.071016" lon="-1.282017">
        <ele>8.643849</ele>
        <time>2026-03-26T22:51:33.320Z</time>
      </trkpt>
      <trkpt lat="44.070890" lon="-1.281782">
        <ele>8.580023</ele>
        <time>2026-03-26T22:51:35.200Z</time>
      </trkpt>
      <trkpt lat="44.070671" lon="-1.281466">
        <ele>8.415207</ele>
        <time>2026-03-26T22:51:37.999Z</time>
      </trkpt>
      <trkpt lat="44.070446" lon="-1.281261">
        <ele>8.233988</ele>
        <time>2026-03-26T22:51:40.372Z</time>
      </trkpt>
      <trkpt lat="44.070266" lon="-1.281149">
        <ele>8.101122</ele>
        <time>2026-03-26T22:51:42.094Z</time>
      </trkpt>
      <trkpt lat="44.068748" lon="-1.280623">
        <ele>7.915477</ele>
        <time>2026-03-26T22:51:56.882Z</time>
      </trkpt>
      <trkpt lat="44.068261" lon="-1.280454">
        <ele>8.618922</ele>
        <time>2026-03-26T22:52:03.089Z</time>
      </trkpt>
      <trkpt lat="44.068306" lon="-1.281229">
        <ele>9.401906</ele>
        <time>2026-03-26T22:52:16.415Z</time>
      </trkpt>
      <trkpt lat="44.068336" lon="-1.281457">
        <ele>9.635324</ele>
        <time>2026-03-26T22:52:20.857Z</time>
      </trkpt>
      <trkpt lat="44.068462" lon="-1.282422">
        <ele>12.456001</ele>
        <time>2026-03-26T22:52:42.081Z</time>
      </trkpt>
      <trkpt lat="44.068466" lon="-1.282482">
        <ele>12.660536</ele>
        <time>2026-03-26T22:52:43.498Z</time>
      </trkpt>
      <trkpt lat="44.068466" lon="-1.282482">
        <ele>12.660536</ele>
        <time>2026-03-26T22:52:43.502Z</time>
      </trkpt>
      <trkpt lat="44.068241" lon="-1.283319">
        <ele>15.693935</ele>
        <time>2026-03-26T22:52:57.248Z</time>
      </trkpt>
      <trkpt lat="44.068419" lon="-1.283986">
        <ele>18.109085</ele>
        <time>2026-03-26T22:53:08.193Z</time>
      </trkpt>
      <trkpt lat="44.068598" lon="-1.284654">
        <ele>19.376780</ele>
        <time>2026-03-26T22:53:19.156Z</time>
      </trkpt>
      <trkpt lat="44.068596" lon="-1.284937">
        <ele>19.830165</ele>
        <time>2026-03-26T22:53:25.343Z</time>
      </trkpt>
      <trkpt lat="44.068551" lon="-1.285462">
        <ele>20.677174</ele>
        <time>2026-03-26T22:53:35.707Z</time>
      </trkpt>
      <trkpt lat="44.068495" lon="-1.286126">
        <ele>21.748200</ele>
        <time>2026-03-26T22:53:46.618Z</time>
      </trkpt>
      <trkpt lat="44.068326" lon="-1.287336">
        <ele>19.498021</ele>
        <time>2026-03-26T22:54:00.862Z</time>
      </trkpt>
      <trkpt lat="44.068172" lon="-1.288783">
        <ele>14.592260</ele>
        <time>2026-03-26T22:54:15.486Z</time>
      </trkpt>
      <trkpt lat="44.068066" lon="-1.289408">
        <ele>12.656358</ele>
        <time>2026-03-26T22:54:21.842Z</time>
      </trkpt>
      <trkpt lat="44.067966" lon="-1.290000">
        <ele>10.908406</ele>
        <time>2026-03-26T22:54:28.084Z</time>
      </trkpt>
      <trkpt lat="44.067875" lon="-1.290693">
        <ele>8.883549</ele>
        <time>2026-03-26T22:54:35.755Z</time>
      </trkpt>
      <trkpt lat="44.067768" lon="-1.290922">
        <ele>8.098407</ele>
        <time>2026-03-26T22:54:38.867Z</time>
      </trkpt>
      <trkpt lat="44.067676" lon="-1.291001">
        <ele>7.665968</ele>
        <time>2026-03-26T22:54:39.898Z</time>
      </trkpt>
      <trkpt lat="44.067538" lon="-1.291186">
        <ele>6.899485</ele>
        <time>2026-03-26T22:54:41.796Z</time>
      </trkpt>
      <trkpt lat="44.067047" lon="-1.291357">
        <ele>6.658037</ele>
        <time>2026-03-26T22:54:47.217Z</time>
      </trkpt>
      <trkpt lat="44.065945" lon="-1.291809">
        <ele>6.393920</ele>
        <time>2026-03-26T22:55:01.026Z</time>
      </trkpt>
      <trkpt lat="44.065528" lon="-1.291922">
        <ele>6.819258</ele>
        <time>2026-03-26T22:55:06.673Z</time>
      </trkpt>
      <trkpt lat="44.064776" lon="-1.292107">
        <ele>8.254081</ele>
        <time>2026-03-26T22:55:18.939Z</time>
      </trkpt>
      <trkpt lat="44.064171" lon="-1.292220">
        <ele>9.400995</ele>
        <time>2026-03-26T22:55:31.093Z</time>
      </trkpt>
      <trkpt lat="44.063930" lon="-1.292212">
        <ele>9.794982</ele>
        <time>2026-03-26T22:55:36.060Z</time>
      </trkpt>
      <trkpt lat="44.063422" lon="-1.292105">
        <ele>10.290892</ele>
        <time>2026-03-26T22:55:45.955Z</time>
      </trkpt>
      <trkpt lat="44.063239" lon="-1.292124">
        <ele>10.468015</ele>
        <time>2026-03-26T22:55:49.081Z</time>
      </trkpt>
      <trkpt lat="44.062912" lon="-1.292235">
        <ele>10.792892</ele>
        <time>2026-03-26T22:55:54.114Z</time>
      </trkpt>
      <trkpt lat="44.062061" lon="-1.292634">
        <ele>11.356245</ele>
        <time>2026-03-26T22:56:03.779Z</time>
      </trkpt>
      <trkpt lat="44.061768" lon="-1.292865">
        <ele>11.164638</ele>
        <time>2026-03-26T22:56:07.078Z</time>
      </trkpt>
      <trkpt lat="44.061092" lon="-1.293708">
        <ele>10.648164</ele>
        <time>2026-03-26T22:56:16.831Z</time>
      </trkpt>
      <trkpt lat="44.060918" lon="-1.293961">
        <ele>10.504977</ele>
        <time>2026-03-26T22:56:19.965Z</time>
      </trkpt>
      <trkpt lat="44.060404" lon="-1.294838">
        <ele>11.635815</ele>
        <time>2026-03-26T22:56:31.623Z</time>
      </trkpt>
      <trkpt lat="44.060390" lon="-1.294862">
        <ele>11.673140</ele>
        <time>2026-03-26T22:56:31.991Z</time>
      </trkpt>
      <trkpt lat="44.060002" lon="-1.295257">
        <ele>12.480926</ele>
        <time>2026-03-26T22:56:40.440Z</time>
      </trkpt>
      <trkpt lat="44.059874" lon="-1.295309">
        <ele>12.704980</ele>
        <time>2026-03-26T22:56:42.890Z</time>
      </trkpt>
      <trkpt lat="44.059340" lon="-1.295306">
        <ele>13.570855</ele>
        <time>2026-03-26T22:56:53.205Z</time>
      </trkpt>
      <trkpt lat="44.058900" lon="-1.295500">
        <ele>14.165550</ele>
        <time>2026-03-26T22:57:02.066Z</time>
      </trkpt>
      <trkpt lat="44.058708" lon="-1.295485">
        <ele>14.413322</ele>
        <time>2026-03-26T22:57:05.675Z</time>
      </trkpt>
      <trkpt lat="44.058484" lon="-1.295377">
        <ele>14.718768</ele>
        <time>2026-03-26T22:57:09.785Z</time>
      </trkpt>
      <trkpt lat="44.058472" lon="-1.295538">
        <ele>14.868641</ele>
        <time>2026-03-26T22:57:11.594Z</time>
      </trkpt>
      <trkpt lat="44.058529" lon="-1.296120">
        <ele>15.412508</ele>
        <time>2026-03-26T22:57:17.197Z</time>
      </trkpt>
      <trkpt lat="44.058546" lon="-1.296294">
        <ele>15.575100</ele>
        <time>2026-03-26T22:57:18.616Z</time>
      </trkpt>
      <trkpt lat="44.058549" lon="-1.296578">
        <ele>15.697289</ele>
        <time>2026-03-26T22:57:20.763Z</time>
      </trkpt>
      <trkpt lat="44.058505" lon="-1.296788">
        <ele>15.362077</ele>
        <time>2026-03-26T22:57:22.293Z</time>
      </trkpt>
      <trkpt lat="44.058422" lon="-1.297029">
        <ele>14.952538</ele>
        <time>2026-03-26T22:57:24.078Z</time>
      </trkpt>
      <trkpt lat="44.057870" lon="-1.298317">
        <ele>12.654397</ele>
        <time>2026-03-26T22:57:33.647Z</time>
      </trkpt>
      <trkpt lat="44.057483" lon="-1.298905">
        <ele>11.615800</ele>
        <time>2026-03-26T22:57:38.782Z</time>
      </trkpt>
      <trkpt lat="44.057170" lon="-1.299467">
        <ele>10.912455</ele>
        <time>2026-03-26T22:57:43.550Z</time>
      </trkpt>
      <trkpt lat="44.056422" lon="-1.301392">
        <ele>9.528207</ele>
        <time>2026-03-26T22:57:59.786Z</time>
      </trkpt>
      <trkpt lat="44.055997" lon="-1.302072">
        <ele>9.595110</ele>
        <time>2026-03-26T22:58:07.665Z</time>
      </trkpt>
      <trkpt lat="44.055493" lon="-1.302643">
        <ele>9.701119</ele>
        <time>2026-03-26T22:58:16.415Z</time>
      </trkpt>
      <trkpt lat="44.054979" lon="-1.302967">
        <ele>10.590550</ele>
        <time>2026-03-26T22:58:24.455Z</time>
      </trkpt>
      <trkpt lat="44.054441" lon="-1.303215">
        <ele>11.483877</ele>
        <time>2026-03-26T22:58:33.022Z</time>
      </trkpt>
      <trkpt lat="44.053915" lon="-1.303300">
        <ele>12.318540</ele>
        <time>2026-03-26T22:58:41.911Z</time>
      </trkpt>
      <trkpt lat="44.053516" lon="-1.303260">
        <ele>13.499256</ele>
        <time>2026-03-26T22:58:49.415Z</time>
      </trkpt>
      <trkpt lat="44.053249" lon="-1.303152">
        <ele>14.468053</ele>
        <time>2026-03-26T22:58:55.092Z</time>
      </trkpt>
      <trkpt lat="44.052414" lon="-1.302812">
        <ele>17.499387</ele>
        <time>2026-03-26T22:59:14.655Z</time>
      </trkpt>
      <trkpt lat="44.051682" lon="-1.302770">
        <ele>19.632649</ele>
        <time>2026-03-26T22:59:30.810Z</time>
      </trkpt>
      <trkpt lat="44.050662" lon="-1.302706">
        <ele>22.034209</ele>
        <time>2026-03-26T22:59:49.295Z</time>
      </trkpt>
      <trkpt lat="44.049725" lon="-1.303122">
        <ele>22.722015</ele>
        <time>2026-03-26T23:00:02.756Z</time>
      </trkpt>
      <trkpt lat="44.049610" lon="-1.303173">
        <ele>22.665479</ele>
        <time>2026-03-26T23:00:04.165Z</time>
      </trkpt>
      <trkpt lat="44.049107" lon="-1.303661">
        <ele>22.378248</ele>
        <time>2026-03-26T23:00:10.716Z</time>
      </trkpt>
      <trkpt lat="44.048838" lon="-1.303260">
        <ele>22.193582</ele>
        <time>2026-03-26T23:00:14.497Z</time>
      </trkpt>
      <trkpt lat="44.048582" lon="-1.303149">
        <ele>21.561488</ele>
        <time>2026-03-26T23:00:16.929Z</time>
      </trkpt>
      <trkpt lat="44.048321" lon="-1.303173">
        <ele>20.677604</ele>
        <time>2026-03-26T23:00:19.221Z</time>
      </trkpt>
      <trkpt lat="44.048002" lon="-1.303245">
        <ele>19.585561</ele>
        <time>2026-03-26T23:00:21.939Z</time>
      </trkpt>
      <trkpt lat="44.047428" lon="-1.303375">
        <ele>17.620393</ele>
        <time>2026-03-26T23:00:26.715Z</time>
      </trkpt>
      <trkpt lat="44.047064" lon="-1.303496">
        <ele>16.355758</ele>
        <time>2026-03-26T23:00:29.805Z</time>
      </trkpt>
      <trkpt lat="44.046397" lon="-1.303617">
        <ele>15.393725</ele>
        <time>2026-03-26T23:00:35.641Z</time>
      </trkpt>
      <trkpt lat="44.042745" lon="-1.304612">
        <ele>14.604109</ele>
        <time>2026-03-26T23:01:18.562Z</time>
      </trkpt>
      <trkpt lat="44.042230" lon="-1.305123">
        <ele>15.129469</ele>
        <time>2026-03-26T23:01:27.875Z</time>
      </trkpt>
      <trkpt lat="44.041378" lon="-1.306114">
        <ele>16.390236</ele>
        <time>2026-03-26T23:01:45.346Z</time>
      </trkpt>
      <trkpt lat="44.041242" lon="-1.306355">
        <ele>16.686579</ele>
        <time>2026-03-26T23:01:48.765Z</time>
      </trkpt>
      <trkpt lat="44.040784" lon="-1.307468">
        <ele>17.926210</ele>
        <time>2026-03-26T23:02:02.829Z</time>
      </trkpt>
      <trkpt lat="44.040653" lon="-1.307815">
        <ele>17.957291</ele>
        <time>2026-03-26T23:02:06.988Z</time>
      </trkpt>
      <trkpt lat="44.040084" lon="-1.309329">
        <ele>18.092768</ele>
        <time>2026-03-26T23:02:21.454Z</time>
      </trkpt>
      <trkpt lat="44.039220" lon="-1.311786">
        <ele>16.804881</ele>
        <time>2026-03-26T23:02:41.027Z</time>
      </trkpt>
      <trkpt lat="44.039147" lon="-1.311992">
        <ele>16.733655</ele>
        <time>2026-03-26T23:02:43.059Z</time>
      </trkpt>
      <trkpt lat="44.039147" lon="-1.311992">
        <ele>16.733655</ele>
        <time>2026-03-26T23:02:43.077Z</time>
      </trkpt>
      <trkpt lat="44.039147" lon="-1.311992">
        <ele>16.733655</ele>
        <time>2026-03-26T23:02:43.077Z</time>
      </trkpt>
      <trkpt lat="44.039053" lon="-1.311875">
        <ele>16.800473</ele>
        <time>2026-03-26T23:02:45.777Z</time>
      </trkpt>
      <trkpt lat="44.038947" lon="-1.310517">
        <ele>17.320650</ele>
        <time>2026-03-26T23:02:58.806Z</time>
      </trkpt>
      <trkpt lat="44.038707" lon="-1.308533">
        <ele>17.617621</ele>
        <time>2026-03-26T23:03:14.977Z</time>
      </trkpt>
      <trkpt lat="44.038570" lon="-1.308327">
        <ele>17.606215</ele>
        <time>2026-03-26T23:03:16.904Z</time>
      </trkpt>
      <trkpt lat="44.038083" lon="-1.307874">
        <ele>17.573093</ele>
        <time>2026-03-26T23:03:22.547Z</time>
      </trkpt>
      <trkpt lat="44.037491" lon="-1.307265">
        <ele>17.303313</ele>
        <time>2026-03-26T23:03:29.703Z</time>
      </trkpt>
      <trkpt lat="44.037167" lon="-1.306695">
        <ele>17.046986</ele>
        <time>2026-03-26T23:03:34.685Z</time>
      </trkpt>
      <trkpt lat="44.036977" lon="-1.306363">
        <ele>16.897294</ele>
        <time>2026-03-26T23:03:37.455Z</time>
      </trkpt>
      <trkpt lat="44.036831" lon="-1.306179">
        <ele>16.800624</ele>
        <time>2026-03-26T23:03:39.260Z</time>
      </trkpt>
      <trkpt lat="44.036201" lon="-1.305524">
        <ele>17.124755</ele>
        <time>2026-03-26T23:03:46.757Z</time>
      </trkpt>
      <trkpt lat="44.034948" lon="-1.304347">
        <ele>18.696907</ele>
        <time>2026-03-26T23:04:07.577Z</time>
      </trkpt>
      <trkpt lat="44.034633" lon="-1.304190">
        <ele>19.398107</ele>
        <time>2026-03-26T23:04:13.816Z</time>
      </trkpt>
      <trkpt lat="44.034025" lon="-1.303711">
        <ele>20.862383</ele>
        <time>2026-03-26T23:04:27.174Z</time>
      </trkpt>
      <trkpt lat="44.033742" lon="-1.303560">
        <ele>21.497564</ele>
        <time>2026-03-26T23:04:31.856Z</time>
      </trkpt>
      <trkpt lat="44.033532" lon="-1.303395">
        <ele>21.891203</ele>
        <time>2026-03-26T23:04:35.166Z</time>
      </trkpt>
      <trkpt lat="44.033055" lon="-1.302998">
        <ele>20.996530</ele>
        <time>2026-03-26T23:04:40.734Z</time>
      </trkpt>
      <trkpt lat="44.032229" lon="-1.301601">
        <ele>18.916362</ele>
        <time>2026-03-26T23:04:50.742Z</time>
      </trkpt>
      <trkpt lat="44.032152" lon="-1.300973">
        <ele>18.246038</ele>
        <time>2026-03-26T23:04:54.352Z</time>
      </trkpt>
      <trkpt lat="44.032138" lon="-1.300565">
        <ele>17.816250</ele>
        <time>2026-03-26T23:04:56.758Z</time>
      </trkpt>
      <trkpt lat="44.031892" lon="-1.298696">
        <ele>16.349698</ele>
        <time>2026-03-26T23:05:09.405Z</time>
      </trkpt>
      <trkpt lat="44.031847" lon="-1.298555">
        <ele>16.332584</ele>
        <time>2026-03-26T23:05:10.541Z</time>
      </trkpt>
      <trkpt lat="44.031763" lon="-1.298468">
        <ele>16.316424</ele>
        <time>2026-03-26T23:05:11.619Z</time>
      </trkpt>
      <trkpt lat="44.031481" lon="-1.298482">
        <ele>16.272883</ele>
        <time>2026-03-26T23:05:17.022Z</time>
      </trkpt>
      <trkpt lat="44.031080" lon="-1.298593">
        <ele>16.209794</ele>
        <time>2026-03-26T23:05:24.932Z</time>
      </trkpt>
      <trkpt lat="44.030609" lon="-1.298724">
        <ele>16.135679</ele>
        <time>2026-03-26T23:05:34.268Z</time>
      </trkpt>
      <trkpt lat="44.029842" lon="-1.298895">
        <ele>16.129888</ele>
        <time>2026-03-26T23:05:49.010Z</time>
      </trkpt>
      <trkpt lat="44.029642" lon="-1.298940">
        <ele>16.128560</ele>
        <time>2026-03-26T23:05:52.859Z</time>
      </trkpt>
      <trkpt lat="44.029536" lon="-1.299215">
        <ele>16.127090</ele>
        <time>2026-03-26T23:05:55.130Z</time>
      </trkpt>
      <trkpt lat="44.029431" lon="-1.299478">
        <ele>16.125673</ele>
        <time>2026-03-26T23:05:57.339Z</time>
      </trkpt>
      <trkpt lat="44.028476" lon="-1.301882">
        <ele>16.351061</ele>
        <time>2026-03-26T23:06:18.003Z</time>
      </trkpt>
      <trkpt lat="44.028340" lon="-1.302388">
        <ele>16.509930</ele>
        <time>2026-03-26T23:06:22.462Z</time>
      </trkpt>
      <trkpt lat="44.028286" lon="-1.302888">
        <ele>16.769220</ele>
        <time>2026-03-26T23:06:26.765Z</time>
      </trkpt>
      <trkpt lat="44.028318" lon="-1.303624">
        <ele>17.147351</ele>
        <time>2026-03-26T23:06:33.221Z</time>
      </trkpt>
      <trkpt lat="44.029151" lon="-1.309128">
        <ele>20.785523</ele>
        <time>2026-03-26T23:07:24.801Z</time>
      </trkpt>
      <trkpt lat="44.029184" lon="-1.309349">
        <ele>20.943125</ele>
        <time>2026-03-26T23:07:27.102Z</time>
      </trkpt>
      <trkpt lat="44.028709" lon="-1.309415">
        <ele>21.049428</ele>
        <time>2026-03-26T23:07:34.129Z</time>
      </trkpt>
      <trkpt lat="44.028137" lon="-1.309580">
        <ele>21.041085</ele>
        <time>2026-03-26T23:07:41.824Z</time>
      </trkpt>
      <trkpt lat="44.027896" lon="-1.309696">
        <ele>21.037443</ele>
        <time>2026-03-26T23:07:44.747Z</time>
      </trkpt>
      <trkpt lat="44.027341" lon="-1.310039">
        <ele>21.009723</ele>
        <time>2026-03-26T23:07:50.881Z</time>
      </trkpt>
      <trkpt lat="44.025623" lon="-1.311182">
        <ele>17.740720</ele>
        <time>2026-03-26T23:08:08.393Z</time>
      </trkpt>
      <trkpt lat="44.025277" lon="-1.311412">
        <ele>17.792061</ele>
        <time>2026-03-26T23:08:12.242Z</time>
      </trkpt>
      <trkpt lat="44.023432" lon="-1.312582">
        <ele>19.077725</ele>
        <time>2026-03-26T23:08:41.261Z</time>
      </trkpt>
      <trkpt lat="44.022512" lon="-1.312980">
        <ele>20.547381</ele>
        <time>2026-03-26T23:08:59.308Z</time>
      </trkpt>
      <trkpt lat="44.022226" lon="-1.313190">
        <ele>20.421920</ele>
        <time>2026-03-26T23:09:04.362Z</time>
      </trkpt>
      <trkpt lat="44.021923" lon="-1.313643">
        <ele>19.832620</ele>
        <time>2026-03-26T23:09:09.669Z</time>
      </trkpt>
      <trkpt lat="44.020835" lon="-1.315437">
        <ele>17.623166</ele>
        <time>2026-03-26T23:09:25.189Z</time>
      </trkpt>
      <trkpt lat="44.020538" lon="-1.315819">
        <ele>17.106350</ele>
        <time>2026-03-26T23:09:29.128Z</time>
      </trkpt>
      <trkpt lat="44.019979" lon="-1.316323">
        <ele>16.255275</ele>
        <time>2026-03-26T23:09:36.466Z</time>
      </trkpt>
      <trkpt lat="44.018912" lon="-1.317168">
        <ele>17.628688</ele>
        <time>2026-03-26T23:09:54.705Z</time>
      </trkpt>
      <trkpt lat="44.018749" lon="-1.317363">
        <ele>17.955930</ele>
        <time>2026-03-26T23:09:58.388Z</time>
      </trkpt>
      <trkpt lat="44.018457" lon="-1.317792">
        <ele>18.602414</ele>
        <time>2026-03-26T23:10:06.133Z</time>
      </trkpt>
      <trkpt lat="44.018065" lon="-1.318479">
        <ele>19.843111</ele>
        <time>2026-03-26T23:10:18.668Z</time>
      </trkpt>
      <trkpt lat="44.017930" lon="-1.318837">
        <ele>20.441715</ele>
        <time>2026-03-26T23:10:24.664Z</time>
      </trkpt>
      <trkpt lat="44.017857" lon="-1.319180">
        <ele>20.971419</ele>
        <time>2026-03-26T23:10:29.858Z</time>
      </trkpt>
      <trkpt lat="44.017762" lon="-1.319461">
        <ele>21.431225</ele>
        <time>2026-03-26T23:10:33.974Z</time>
      </trkpt>
      <trkpt lat="44.017367" lon="-1.320274">
        <ele>22.079242</ele>
        <time>2026-03-26T23:10:44.020Z</time>
      </trkpt>
      <trkpt lat="44.017205" lon="-1.320660">
        <ele>21.453427</ele>
        <time>2026-03-26T23:10:47.405Z</time>
      </trkpt>
      <trkpt lat="44.016713" lon="-1.322027">
        <ele>19.312910</ele>
        <time>2026-03-26T23:10:57.436Z</time>
      </trkpt>
      <trkpt lat="44.016539" lon="-1.322355">
        <ele>18.769984</ele>
        <time>2026-03-26T23:11:00.043Z</time>
      </trkpt>
      <trkpt lat="44.016191" lon="-1.322823">
        <ele>17.943296</ele>
        <time>2026-03-26T23:11:04.510Z</time>
      </trkpt>
      <trkpt lat="44.015984" lon="-1.323065">
        <ele>17.481497</ele>
        <time>2026-03-26T23:11:07.132Z</time>
      </trkpt>
      <trkpt lat="44.015591" lon="-1.323353">
        <ele>16.722921</ele>
        <time>2026-03-26T23:11:11.669Z</time>
      </trkpt>
      <trkpt lat="44.015232" lon="-1.323525">
        <ele>16.074525</ele>
        <time>2026-03-26T23:11:15.769Z</time>
      </trkpt>
      <trkpt lat="44.014879" lon="-1.323735">
        <ele>15.839063</ele>
        <time>2026-03-26T23:11:20.129Z</time>
      </trkpt>
      <trkpt lat="44.014576" lon="-1.324055">
        <ele>15.760521</ele>
        <time>2026-03-26T23:11:24.577Z</time>
      </trkpt>
      <trkpt lat="44.013964" lon="-1.324991">
        <ele>15.572722</ele>
        <time>2026-03-26T23:11:35.424Z</time>
      </trkpt>
      <trkpt lat="44.013226" lon="-1.325908">
        <ele>15.095652</ele>
        <time>2026-03-26T23:11:46.918Z</time>
      </trkpt>
      <trkpt lat="44.012635" lon="-1.326621">
        <ele>14.653766</ele>
        <time>2026-03-26T23:11:55.281Z</time>
      </trkpt>
      <trkpt lat="44.012203" lon="-1.327293">
        <ele>14.542815</ele>
        <time>2026-03-26T23:12:02.037Z</time>
      </trkpt>
      <trkpt lat="44.011999" lon="-1.327611">
        <ele>14.568568</ele>
        <time>2026-03-26T23:12:05.369Z</time>
      </trkpt>
      <trkpt lat="44.011547" lon="-1.328337">
        <ele>14.626601</ele>
        <time>2026-03-26T23:12:13.971Z</time>
      </trkpt>
      <trkpt lat="44.011423" lon="-1.328407">
        <ele>14.637847</ele>
        <time>2026-03-26T23:12:15.945Z</time>
      </trkpt>
      <trkpt lat="44.010554" lon="-1.328220">
        <ele>15.264577</ele>
        <time>2026-03-26T23:12:30.142Z</time>
      </trkpt>
      <trkpt lat="44.010398" lon="-1.328186">
        <ele>15.422171</ele>
        <time>2026-03-26T23:12:32.808Z</time>
      </trkpt>
      <trkpt lat="44.008960" lon="-1.328220">
        <ele>16.174368</ele>
        <time>2026-03-26T23:12:53.009Z</time>
      </trkpt>
      <trkpt lat="44.005273" lon="-1.328403">
        <ele>13.488402</ele>
        <time>2026-03-26T23:13:31.015Z</time>
      </trkpt>
      <trkpt lat="44.004833" lon="-1.328427">
        <ele>13.861985</ele>
        <time>2026-03-26T23:13:36.583Z</time>
      </trkpt>
      <trkpt lat="44.004578" lon="-1.328362">
        <ele>14.081933</ele>
        <time>2026-03-26T23:13:40.425Z</time>
      </trkpt>
      <trkpt lat="44.004369" lon="-1.328260">
        <ele>14.269856</ele>
        <time>2026-03-26T23:13:44.207Z</time>
      </trkpt>
      <trkpt lat="44.004056" lon="-1.328167">
        <ele>14.541401</ele>
        <time>2026-03-26T23:13:50.421Z</time>
      </trkpt>
      <trkpt lat="44.003913" lon="-1.328146">
        <ele>14.875542</ele>
        <time>2026-03-26T23:13:53.448Z</time>
      </trkpt>
      <trkpt lat="44.003804" lon="-1.328131">
        <ele>15.256412</ele>
        <time>2026-03-26T23:13:55.829Z</time>
      </trkpt>
      <trkpt lat="44.003656" lon="-1.328010">
        <ele>15.853433</ele>
        <time>2026-03-26T23:13:59.614Z</time>
      </trkpt>
      <trkpt lat="44.003561" lon="-1.327514">
        <ele>17.137234</ele>
        <time>2026-03-26T23:14:08.077Z</time>
      </trkpt>
      <trkpt lat="44.003433" lon="-1.326843">
        <ele>18.873529</ele>
        <time>2026-03-26T23:14:19.255Z</time>
      </trkpt>
      <trkpt lat="44.003215" lon="-1.325440">
        <ele>22.157888</ele>
        <time>2026-03-26T23:14:40.426Z</time>
      </trkpt>
      <trkpt lat="44.003039" lon="-1.324305">
        <ele>24.511992</ele>
        <time>2026-03-26T23:14:55.898Z</time>
      </trkpt>
      <trkpt lat="44.002904" lon="-1.323431">
        <ele>26.392520</ele>
        <time>2026-03-26T23:15:08.518Z</time>
      </trkpt>
      <trkpt lat="44.002641" lon="-1.322450">
        <ele>28.871686</ele>
        <time>2026-03-26T23:15:24.483Z</time>
      </trkpt>
      <trkpt lat="44.002366" lon="-1.321581">
        <ele>31.119877</ele>
        <time>2026-03-26T23:15:39.134Z</time>
      </trkpt>
      <trkpt lat="44.002232" lon="-1.321280">
        <ele>31.936143</ele>
        <time>2026-03-26T23:15:44.446Z</time>
      </trkpt>
      <trkpt lat="44.002054" lon="-1.321033">
        <ele>32.609321</ele>
        <time>2026-03-26T23:15:49.638Z</time>
      </trkpt>
      <trkpt lat="44.000780" lon="-1.319714">
        <ele>36.738517</ele>
        <time>2026-03-26T23:16:19.728Z</time>
      </trkpt>
      <trkpt lat="43.999935" lon="-1.318839">
        <ele>37.881886</ele>
        <time>2026-03-26T23:16:37.289Z</time>
      </trkpt>
      <trkpt lat="43.999219" lon="-1.318013">
        <ele>38.107047</ele>
        <time>2026-03-26T23:16:48.201Z</time>
      </trkpt>
      <trkpt lat="43.999037" lon="-1.317737">
        <ele>37.594438</ele>
        <time>2026-03-26T23:16:50.897Z</time>
      </trkpt>
      <trkpt lat="43.998638" lon="-1.316900">
        <ele>36.219730</ele>
        <time>2026-03-26T23:16:57.668Z</time>
      </trkpt>
      <trkpt lat="43.998579" lon="-1.316711">
        <ele>35.937656</ele>
        <time>2026-03-26T23:16:58.998Z</time>
      </trkpt>
      <trkpt lat="43.998533" lon="-1.316516">
        <ele>35.656693</ele>
        <time>2026-03-26T23:17:00.320Z</time>
      </trkpt>
      <trkpt lat="43.998464" lon="-1.315818">
        <ele>35.247174</ele>
        <time>2026-03-26T23:17:05.044Z</time>
      </trkpt>
      <trkpt lat="43.998405" lon="-1.315587">
        <ele>35.290697</ele>
        <time>2026-03-26T23:17:06.799Z</time>
      </trkpt>
      <trkpt lat="43.998269" lon="-1.315304">
        <ele>35.351126</ele>
        <time>2026-03-26T23:17:09.383Z</time>
      </trkpt>
      <trkpt lat="43.998136" lon="-1.315096">
        <ele>35.400538</ele>
        <time>2026-03-26T23:17:11.672Z</time>
      </trkpt>
      <trkpt lat="43.997630" lon="-1.314303">
        <ele>35.588748</ele>
        <time>2026-03-26T23:17:23.582Z</time>
      </trkpt>
      <trkpt lat="43.997373" lon="-1.313948">
        <ele>36.186657</ele>
        <time>2026-03-26T23:17:31.069Z</time>
      </trkpt>
      <trkpt lat="43.997108" lon="-1.313749">
        <ele>37.005435</ele>
        <time>2026-03-26T23:17:37.634Z</time>
      </trkpt>
      <trkpt lat="43.996366" lon="-1.313449">
        <ele>39.106098</ele>
        <time>2026-03-26T23:17:53.553Z</time>
      </trkpt>
      <trkpt lat="43.996127" lon="-1.313220">
        <ele>39.895193</ele>
        <time>2026-03-26T23:17:58.921Z</time>
      </trkpt>
      <trkpt lat="43.995828" lon="-1.312854">
        <ele>40.856642</ele>
        <time>2026-03-26T23:18:05.675Z</time>
      </trkpt>
      <trkpt lat="43.995752" lon="-1.312735">
        <ele>41.085821</ele>
        <time>2026-03-26T23:18:07.504Z</time>
      </trkpt>
      <trkpt lat="43.994874" lon="-1.311350">
        <ele>43.744501</ele>
        <time>2026-03-26T23:18:28.722Z</time>
      </trkpt>
      <trkpt lat="43.994123" lon="-1.310400">
        <ele>47.275447</ele>
        <time>2026-03-26T23:18:50.283Z</time>
      </trkpt>
      <trkpt lat="43.994038" lon="-1.310196">
        <ele>47.921466</ele>
        <time>2026-03-26T23:18:54.381Z</time>
      </trkpt>
      <trkpt lat="43.993649" lon="-1.308462">
        <ele>52.587989</ele>
        <time>2026-03-26T23:19:25.804Z</time>
      </trkpt>
      <trkpt lat="43.993504" lon="-1.308178">
        <ele>53.388583</ele>
        <time>2026-03-26T23:19:31.244Z</time>
      </trkpt>
      <trkpt lat="43.992811" lon="-1.307261">
        <ele>56.446036</ele>
        <time>2026-03-26T23:19:49.643Z</time>
      </trkpt>
      <trkpt lat="43.992577" lon="-1.307040">
        <ele>56.920404</ele>
        <time>2026-03-26T23:19:54.350Z</time>
      </trkpt>
      <trkpt lat="43.991983" lon="-1.306614">
        <ele>57.607673</ele>
        <time>2026-03-26T23:20:04.655Z</time>
      </trkpt>
      <trkpt lat="43.989947" lon="-1.305151">
        <ele>58.119322</ele>
        <time>2026-03-26T23:20:34.458Z</time>
      </trkpt>
      <trkpt lat="43.989713" lon="-1.304984">
        <ele>58.032933</ele>
        <time>2026-03-26T23:20:37.182Z</time>
      </trkpt>
      <trkpt lat="43.989548" lon="-1.304819">
        <ele>57.883459</ele>
        <time>2026-03-26T23:20:39.196Z</time>
      </trkpt>
      <trkpt lat="43.989539" lon="-1.305016">
        <ele>57.412011</ele>
        <time>2026-03-26T23:20:49.066Z</time>
      </trkpt>
      <trkpt lat="43.990136" lon="-1.307576">
        <ele>50.939420</ele>
        <time>2026-03-26T23:23:03.686Z</time>
      </trkpt>
      <trkpt lat="43.990270" lon="-1.308150">
        <ele>49.434088</ele>
        <time>2026-03-26T23:23:33.885Z</time>
      </trkpt>
      <trkpt lat="43.990542" lon="-1.309488">
        <ele>45.965784</ele>
        <time>2026-03-26T23:24:43.410Z</time>
      </trkpt>
      <trkpt lat="43.990652" lon="-1.310323">
        <ele>45.184875</ele>
        <time>2026-03-26T23:25:25.885Z</time>
      </trkpt>
      <trkpt lat="43.990668" lon="-1.310464">
        <ele>45.076680</ele>
        <time>2026-03-26T23:25:33.043Z</time>
      </trkpt>
      <trkpt lat="43.990755" lon="-1.311300">
        <ele>44.436425</ele>
        <time>2026-03-26T23:26:15.230Z</time>
      </trkpt>
      <trkpt lat="43.990638" lon="-1.311799">
        <ele>44.038621</ele>
        <time>2026-03-26T23:26:41.490Z</time>
      </trkpt>
      <trkpt lat="43.990583" lon="-1.312035">
        <ele>43.844832</ele>
        <time>2026-03-26T23:26:53.915Z</time>
      </trkpt>
      <trkpt lat="43.990559" lon="-1.312224">
        <ele>43.662578</ele>
        <time>2026-03-26T23:27:03.511Z</time>
      </trkpt>
      <trkpt lat="43.990569" lon="-1.312383">
        <ele>43.511011</ele>
        <time>2026-03-26T23:27:11.453Z</time>
      </trkpt>
      <trkpt lat="43.990769" lon="-1.313266">
        <ele>42.631917</ele>
        <time>2026-03-26T23:27:57.761Z</time>
      </trkpt>
      <trkpt lat="43.990771" lon="-1.313823">
        <ele>42.102969</ele>
        <time>2026-03-26T23:28:25.620Z</time>
      </trkpt>
      <trkpt lat="43.990747" lon="-1.314099">
        <ele>41.838965</ele>
        <time>2026-03-26T23:28:39.495Z</time>
      </trkpt>
      <trkpt lat="43.990653" lon="-1.314462">
        <ele>41.450055</ele>
        <time>2026-03-26T23:28:58.793Z</time>
      </trkpt>
      <trkpt lat="43.990384" lon="-1.315098">
        <ele>40.157336</ele>
        <time>2026-03-26T23:29:35.699Z</time>
      </trkpt>
      <trkpt lat="43.990307" lon="-1.315356">
        <ele>39.667909</ele>
        <time>2026-03-26T23:29:49.667Z</time>
      </trkpt>
      <trkpt lat="43.990139" lon="-1.316455">
        <ele>37.699224</ele>
        <time>2026-03-26T23:30:45.856Z</time>
      </trkpt>
      <trkpt lat="43.990068" lon="-1.316636">
        <ele>37.337994</ele>
        <time>2026-03-26T23:30:56.173Z</time>
      </trkpt>
      <trkpt lat="43.989457" lon="-1.317416">
        <ele>36.579291</ele>
        <time>2026-03-26T23:31:53.845Z</time>
      </trkpt>
      <trkpt lat="43.989248" lon="-1.317738">
        <ele>36.351716</ele>
        <time>2026-03-26T23:32:15.524Z</time>
      </trkpt>
      <trkpt lat="43.989201" lon="-1.318037">
        <ele>36.191110</ele>
        <time>2026-03-26T23:32:30.831Z</time>
      </trkpt>
      <trkpt lat="43.989178" lon="-1.319412">
        <ele>34.545466</ele>
        <time>2026-03-26T23:33:39.581Z</time>
      </trkpt>
      <trkpt lat="43.989134" lon="-1.319597">
        <ele>34.163288</ele>
        <time>2026-03-26T23:33:49.311Z</time>
      </trkpt>
      <trkpt lat="43.988586" lon="-1.320662">
        <ele>31.595094</ele>
        <time>2026-03-26T23:34:54.819Z</time>
      </trkpt>
      <trkpt lat="43.988126" lon="-1.321315">
        <ele>30.833355</ele>
        <time>2026-03-26T23:35:40.546Z</time>
      </trkpt>
      <trkpt lat="43.988015" lon="-1.321472">
        <ele>30.805909</ele>
        <time>2026-03-26T23:35:51.553Z</time>
      </trkpt>
      <trkpt lat="43.987844" lon="-1.321684">
        <ele>30.766198</ele>
        <time>2026-03-26T23:36:07.486Z</time>
      </trkpt>
      <trkpt lat="43.987706" lon="-1.321805">
        <ele>30.737921</ele>
        <time>2026-03-26T23:36:18.817Z</time>
      </trkpt>
      <trkpt lat="43.987400" lon="-1.321989">
        <ele>30.680140</ele>
        <time>2026-03-26T23:36:41.991Z</time>
      </trkpt>
      <trkpt lat="43.984443" lon="-1.323176">
        <ele>37.124270</ele>
        <time>2026-03-26T23:40:15.977Z</time>
      </trkpt>
      <trkpt lat="43.982369" lon="-1.323735">
        <ele>39.787545</ele>
        <time>2026-03-26T23:42:42.769Z</time>
      </trkpt>
      <trkpt lat="43.982206" lon="-1.323808">
        <ele>39.916056</ele>
        <time>2026-03-26T23:42:54.652Z</time>
      </trkpt>
      <trkpt lat="43.981355" lon="-1.324871">
        <ele>39.679735</ele>
        <time>2026-03-26T23:44:14.221Z</time>
      </trkpt>
      <trkpt lat="43.981340" lon="-1.324931">
        <ele>39.630524</ele>
        <time>2026-03-26T23:44:17.425Z</time>
      </trkpt>
      <trkpt lat="43.981336" lon="-1.325036">
        <ele>39.549060</ele>
        <time>2026-03-26T23:44:22.636Z</time>
      </trkpt>
      <trkpt lat="43.981504" lon="-1.326344">
        <ele>38.519659</ele>
        <time>2026-03-26T23:45:29.103Z</time>
      </trkpt>
      <trkpt lat="43.981984" lon="-1.330097">
        <ele>31.033858</ele>
        <time>2026-03-26T23:48:39.758Z</time>
      </trkpt>
      <trkpt lat="43.982458" lon="-1.334428">
        <ele>21.159126</ele>
        <time>2026-03-26T23:52:18.974Z</time>
      </trkpt>
      <trkpt lat="43.982309" lon="-1.334434">
        <ele>20.956539</ele>
        <time>2026-03-26T23:52:20.415Z</time>
      </trkpt>
      <trkpt lat="43.982142" lon="-1.334414">
        <ele>20.728732</ele>
        <time>2026-03-26T23:52:22.078Z</time>
      </trkpt>
      <trkpt lat="43.981669" lon="-1.334356">
        <ele>20.083391</ele>
        <time>2026-03-26T23:52:26.999Z</time>
      </trkpt>
      <trkpt lat="43.981350" lon="-1.334378">
        <ele>19.649312</ele>
        <time>2026-03-26T23:52:30.610Z</time>
      </trkpt>
      <trkpt lat="43.980699" lon="-1.334517">
        <ele>19.823771</ele>
        <time>2026-03-26T23:52:39.111Z</time>
      </trkpt>
      <trkpt lat="43.979675" lon="-1.334682">
        <ele>21.590011</ele>
        <time>2026-03-26T23:52:55.816Z</time>
      </trkpt>
      <trkpt lat="43.977841" lon="-1.334639">
        <ele>26.634930</ele>
        <time>2026-03-26T23:53:34.214Z</time>
      </trkpt>
      <trkpt lat="43.977143" lon="-1.334571">
        <ele>28.572787</ele>
        <time>2026-03-26T23:53:47.425Z</time>
      </trkpt>
      <trkpt lat="43.975271" lon="-1.333525">
        <ele>33.416718</ele>
        <time>2026-03-26T23:54:24.237Z</time>
      </trkpt>
      <trkpt lat="43.974444" lon="-1.333234">
        <ele>35.422831</ele>
        <time>2026-03-26T23:54:40.046Z</time>
      </trkpt>
      <trkpt lat="43.974190" lon="-1.333070">
        <ele>36.081455</ele>
        <time>2026-03-26T23:54:45.050Z</time>
      </trkpt>
      <trkpt lat="43.974069" lon="-1.332945">
        <ele>36.429056</ele>
        <time>2026-03-26T23:54:47.746Z</time>
      </trkpt>
      <trkpt lat="43.973702" lon="-1.332310">
        <ele>37.603652</ele>
        <time>2026-03-26T23:54:58.091Z</time>
      </trkpt>
      <trkpt lat="43.972949" lon="-1.330862">
        <ele>40.161968</ele>
        <time>2026-03-26T23:55:20.076Z</time>
      </trkpt>
      <trkpt lat="43.972753" lon="-1.330598">
        <ele>40.655585</ele>
        <time>2026-03-26T23:55:24.746Z</time>
      </trkpt>
      <trkpt lat="43.971913" lon="-1.329800">
        <ele>42.495645</ele>
        <time>2026-03-26T23:55:41.558Z</time>
      </trkpt>
      <trkpt lat="43.971480" lon="-1.329353">
        <ele>43.477857</ele>
        <time>2026-03-26T23:55:50.615Z</time>
      </trkpt>
      <trkpt lat="43.970450" lon="-1.327694">
        <ele>46.415003</ele>
        <time>2026-03-26T23:56:17.911Z</time>
      </trkpt>
      <trkpt lat="43.970364" lon="-1.327519">
        <ele>46.643802</ele>
        <time>2026-03-26T23:56:20.382Z</time>
      </trkpt>
      <trkpt lat="43.970195" lon="-1.327302">
        <ele>46.841873</ele>
        <time>2026-03-26T23:56:24.031Z</time>
      </trkpt>
      <trkpt lat="43.970094" lon="-1.327172">
        <ele>46.960378</ele>
        <time>2026-03-26T23:56:26.158Z</time>
      </trkpt>
      <trkpt lat="43.969861" lon="-1.326981">
        <ele>47.193237</ele>
        <time>2026-03-26T23:56:30.193Z</time>
      </trkpt>
      <trkpt lat="43.968998" lon="-1.326438">
        <ele>48.008685</ele>
        <time>2026-03-26T23:56:43.046Z</time>
      </trkpt>
      <trkpt lat="43.968514" lon="-1.326046">
        <ele>47.951227</ele>
        <time>2026-03-26T23:56:50.082Z</time>
      </trkpt>
      <trkpt lat="43.967705" lon="-1.325082">
        <ele>47.439341</ele>
        <time>2026-03-26T23:57:01.729Z</time>
      </trkpt>
      <trkpt lat="43.966832" lon="-1.324443">
        <ele>48.578304</ele>
        <time>2026-03-26T23:57:11.972Z</time>
      </trkpt>
      <trkpt lat="43.966606" lon="-1.324277">
        <ele>49.083777</ele>
        <time>2026-03-26T23:57:15.507Z</time>
      </trkpt>
      <trkpt lat="43.966579" lon="-1.324278">
        <ele>49.137183</ele>
        <time>2026-03-26T23:57:15.948Z</time>
      </trkpt>
      <trkpt lat="43.966505" lon="-1.324280">
        <ele>49.283530</ele>
        <time>2026-03-26T23:57:17.185Z</time>
      </trkpt>
      <trkpt lat="43.966400" lon="-1.324338">
        <ele>49.506953</ele>
        <time>2026-03-26T23:57:19.277Z</time>
      </trkpt>
      <trkpt lat="43.966350" lon="-1.324366">
        <ele>49.613546</ele>
        <time>2026-03-26T23:57:20.314Z</time>
      </trkpt>
      <trkpt lat="43.966150" lon="-1.324624">
        <ele>50.153180</ele>
        <time>2026-03-26T23:57:26.446Z</time>
      </trkpt>
      <trkpt lat="43.966037" lon="-1.324855">
        <ele>50.550672</ele>
        <time>2026-03-26T23:57:31.611Z</time>
      </trkpt>
      <trkpt lat="43.965712" lon="-1.326010">
        <ele>54.711228</ele>
        <time>2026-03-26T23:57:59.152Z</time>
      </trkpt>
      <trkpt lat="43.965447" lon="-1.326583">
        <ele>57.251136</ele>
        <time>2026-03-26T23:58:13.875Z</time>
      </trkpt>
      <trkpt lat="43.965298" lon="-1.326971">
        <ele>58.891124</ele>
        <time>2026-03-26T23:58:21.772Z</time>
      </trkpt>
      <trkpt lat="43.965172" lon="-1.327422">
        <ele>59.818762</ele>
        <time>2026-03-26T23:58:28.414Z</time>
      </trkpt>
      <trkpt lat="43.965061" lon="-1.328301">
        <ele>57.736159</ele>
        <time>2026-03-26T23:58:35.354Z</time>
      </trkpt>
      <trkpt lat="43.965054" lon="-1.328351">
        <ele>57.617291</ele>
        <time>2026-03-26T23:58:35.691Z</time>
      </trkpt>
      <trkpt lat="43.965036" lon="-1.328637">
        <ele>56.947321</ele>
        <time>2026-03-26T23:58:37.482Z</time>
      </trkpt>
      <trkpt lat="43.965002" lon="-1.329221">
        <ele>55.580021</ele>
        <time>2026-03-26T23:58:40.939Z</time>
      </trkpt>
      <trkpt lat="43.964936" lon="-1.332029">
        <ele>43.254992</ele>
        <time>2026-03-26T23:58:56.541Z</time>
      </trkpt>
      <trkpt lat="43.964954" lon="-1.334123">
        <ele>40.384674</ele>
        <time>2026-03-26T23:59:11.733Z</time>
      </trkpt>
      <trkpt lat="43.964848" lon="-1.334675">
        <ele>39.845435</ele>
        <time>2026-03-26T23:59:17.903Z</time>
      </trkpt>
      <trkpt lat="43.964750" lon="-1.334882">
        <ele>39.813150</ele>
        <time>2026-03-26T23:59:20.550Z</time>
      </trkpt>
      <trkpt lat="43.964599" lon="-1.335000">
        <ele>39.845632</ele>
        <time>2026-03-26T23:59:23.060Z</time>
      </trkpt>
      <trkpt lat="43.964291" lon="-1.335117">
        <ele>39.905500</ele>
        <time>2026-03-26T23:59:27.616Z</time>
      </trkpt>
      <trkpt lat="43.964106" lon="-1.335148">
        <ele>39.940438</ele>
        <time>2026-03-26T23:59:30.129Z</time>
      </trkpt>
      <trkpt lat="43.963984" lon="-1.335221">
        <ele>39.965343</ele>
        <time>2026-03-26T23:59:31.722Z</time>
      </trkpt>
      <trkpt lat="43.963782" lon="-1.335209">
        <ele>40.003252</ele>
        <time>2026-03-26T23:59:33.945Z</time>
      </trkpt>
      <trkpt lat="43.963629" lon="-1.335084">
        <ele>40.036531</ele>
        <time>2026-03-26T23:59:35.831Z</time>
      </trkpt>
      <trkpt lat="43.963492" lon="-1.335028">
        <ele>40.063306</ele>
        <time>2026-03-26T23:59:37.353Z</time>
      </trkpt>
      <trkpt lat="43.963274" lon="-1.335049">
        <ele>40.104278</ele>
        <time>2026-03-26T23:59:39.791Z</time>
      </trkpt>
      <trkpt lat="43.963032" lon="-1.335115">
        <ele>40.202673</ele>
        <time>2026-03-26T23:59:42.697Z</time>
      </trkpt>
      <trkpt lat="43.962759" lon="-1.335277">
        <ele>40.372857</ele>
        <time>2026-03-26T23:59:46.660Z</time>
      </trkpt>
      <trkpt lat="43.962468" lon="-1.335616">
        <ele>40.590568</ele>
        <time>2026-03-26T23:59:52.419Z</time>
      </trkpt>
      <trkpt lat="43.962065" lon="-1.336324">
        <ele>40.963030</ele>
        <time>2026-03-27T00:00:02.344Z</time>
      </trkpt>
      <trkpt lat="43.961903" lon="-1.336609">
        <ele>41.112882</ele>
        <time>2026-03-27T00:00:06.009Z</time>
      </trkpt>
      <trkpt lat="43.961839" lon="-1.336675">
        <ele>41.152316</ele>
        <time>2026-03-27T00:00:07.009Z</time>
      </trkpt>
      <trkpt lat="43.961722" lon="-1.336719">
        <ele>41.031398</ele>
        <time>2026-03-27T00:00:08.450Z</time>
      </trkpt>
      <trkpt lat="43.961615" lon="-1.336701">
        <ele>40.923877</ele>
        <time>2026-03-27T00:00:09.687Z</time>
      </trkpt>
      <trkpt lat="43.960851" lon="-1.335953">
        <ele>39.991473</ele>
        <time>2026-03-27T00:00:19.249Z</time>
      </trkpt>
      <trkpt lat="43.960700" lon="-1.335843">
        <ele>39.821384</ele>
        <time>2026-03-27T00:00:20.917Z</time>
      </trkpt>
      <trkpt lat="43.960546" lon="-1.335793">
        <ele>39.663616</ele>
        <time>2026-03-27T00:00:22.469Z</time>
      </trkpt>
      <trkpt lat="43.960381" lon="-1.335800">
        <ele>39.498938</ele>
        <time>2026-03-27T00:00:24.124Z</time>
      </trkpt>
      <trkpt lat="43.959973" lon="-1.335912">
        <ele>39.491171</ele>
        <time>2026-03-27T00:00:28.357Z</time>
      </trkpt>
      <trkpt lat="43.959118" lon="-1.336153">
        <ele>39.895678</ele>
        <time>2026-03-27T00:00:38.214Z</time>
      </trkpt>
      <trkpt lat="43.958920" lon="-1.335990">
        <ele>40.002392</ele>
        <time>2026-03-27T00:00:41.625Z</time>
      </trkpt>
      <trkpt lat="43.958845" lon="-1.335850">
        <ele>40.060638</ele>
        <time>2026-03-27T00:00:43.673Z</time>
      </trkpt>
      <trkpt lat="43.958808" lon="-1.335651">
        <ele>40.129236</ele>
        <time>2026-03-27T00:00:46.266Z</time>
      </trkpt>
      <trkpt lat="43.958797" lon="-1.335105">
        <ele>41.455512</ele>
        <time>2026-03-27T00:00:54.196Z</time>
      </trkpt>
      <trkpt lat="43.958737" lon="-1.334422">
        <ele>43.957942</ele>
        <time>2026-03-27T00:01:06.499Z</time>
      </trkpt>
      <trkpt lat="43.958762" lon="-1.334183">
        <ele>44.836290</ele>
        <time>2026-03-27T00:01:11.604Z</time>
      </trkpt>
      <trkpt lat="43.958836" lon="-1.333981">
        <ele>45.660607</ele>
        <time>2026-03-27T00:01:16.599Z</time>
      </trkpt>
      <trkpt lat="43.958888" lon="-1.333878">
        <ele>46.118153</ele>
        <time>2026-03-27T00:01:19.430Z</time>
      </trkpt>
      <trkpt lat="43.959074" lon="-1.333509">
        <ele>47.756477</ele>
        <time>2026-03-27T00:01:29.274Z</time>
      </trkpt>
      <trkpt lat="43.959100" lon="-1.333234">
        <ele>48.765209</ele>
        <time>2026-03-27T00:01:34.931Z</time>
      </trkpt>
      <trkpt lat="43.959060" lon="-1.333001">
        <ele>49.508710</ele>
        <time>2026-03-27T00:01:39.523Z</time>
      </trkpt>
      <trkpt lat="43.958955" lon="-1.332818">
        <ele>50.052030</ele>
        <time>2026-03-27T00:01:43.786Z</time>
      </trkpt>
      <trkpt lat="43.958765" lon="-1.332688">
        <ele>50.735125</ele>
        <time>2026-03-27T00:01:48.816Z</time>
      </trkpt>
      <trkpt lat="43.958617" lon="-1.332683">
        <ele>51.212605</ele>
        <time>2026-03-27T00:01:52.086Z</time>
      </trkpt>
      <trkpt lat="43.958349" lon="-1.332692">
        <ele>52.077230</ele>
        <time>2026-03-27T00:01:57.549Z</time>
      </trkpt>
      <trkpt lat="43.958007" lon="-1.332780">
        <ele>53.199033</ele>
        <time>2026-03-27T00:02:03.943Z</time>
      </trkpt>
      <trkpt lat="43.957792" lon="-1.332914">
        <ele>53.959058</ele>
        <time>2026-03-27T00:02:07.824Z</time>
      </trkpt>
      <trkpt lat="43.957463" lon="-1.333008">
        <ele>55.042382</ele>
        <time>2026-03-27T00:02:13.064Z</time>
      </trkpt>
      <trkpt lat="43.956975" lon="-1.333010">
        <ele>56.636951</ele>
        <time>2026-03-27T00:02:21.464Z</time>
      </trkpt>
      <trkpt lat="43.956711" lon="-1.332968">
        <ele>57.505530</ele>
        <time>2026-03-27T00:02:26.689Z</time>
      </trkpt>
      <trkpt lat="43.956286" lon="-1.332777">
        <ele>58.965621</ele>
        <time>2026-03-27T00:02:36.345Z</time>
      </trkpt>
      <trkpt lat="43.955915" lon="-1.332771">
        <ele>60.178394</ele>
        <time>2026-03-27T00:02:45.026Z</time>
      </trkpt>
      <trkpt lat="43.955720" lon="-1.332809">
        <ele>60.822033</ele>
        <time>2026-03-27T00:02:49.765Z</time>
      </trkpt>
      <trkpt lat="43.955555" lon="-1.332889">
        <ele>61.468553</ele>
        <time>2026-03-27T00:02:54.024Z</time>
      </trkpt>
      <trkpt lat="43.955470" lon="-1.332992">
        <ele>61.901857</ele>
        <time>2026-03-27T00:02:56.777Z</time>
      </trkpt>
      <trkpt lat="43.955372" lon="-1.333247">
        <ele>62.701236</ele>
        <time>2026-03-27T00:03:01.822Z</time>
      </trkpt>
      <trkpt lat="43.955255" lon="-1.333440">
        <ele>63.398999</ele>
        <time>2026-03-27T00:03:06.201Z</time>
      </trkpt>
      <trkpt lat="43.955067" lon="-1.333578">
        <ele>64.215832</ele>
        <time>2026-03-27T00:03:11.232Z</time>
      </trkpt>
      <trkpt lat="43.954271" lon="-1.333938">
        <ele>67.431647</ele>
        <time>2026-03-27T00:03:29.601Z</time>
      </trkpt>
      <trkpt lat="43.953968" lon="-1.334018">
        <ele>67.874545</ele>
        <time>2026-03-27T00:03:35.813Z</time>
      </trkpt>
      <trkpt lat="43.953772" lon="-1.333987">
        <ele>67.875926</ele>
        <time>2026-03-27T00:03:39.623Z</time>
      </trkpt>
      <trkpt lat="43.953066" lon="-1.333343">
        <ele>67.881839</ele>
        <time>2026-03-27T00:03:51.649Z</time>
      </trkpt>
      <trkpt lat="43.952957" lon="-1.333184">
        <ele>67.882946</ele>
        <time>2026-03-27T00:03:53.243Z</time>
      </trkpt>
      <trkpt lat="43.952892" lon="-1.332976">
        <ele>67.884089</ele>
        <time>2026-03-27T00:03:54.791Z</time>
      </trkpt>
      <trkpt lat="43.952811" lon="-1.332359">
        <ele>66.829015</ele>
        <time>2026-03-27T00:04:01.621Z</time>
      </trkpt>
      <trkpt lat="43.952723" lon="-1.332145">
        <ele>65.934208</ele>
        <time>2026-03-27T00:04:04.169Z</time>
      </trkpt>
      <trkpt lat="43.952092" lon="-1.331182">
        <ele>61.206354</ele>
        <time>2026-03-27T00:04:16.951Z</time>
      </trkpt>
      <trkpt lat="43.951882" lon="-1.330416">
        <ele>58.934465</ele>
        <time>2026-03-27T00:04:25.584Z</time>
      </trkpt>
      <trkpt lat="43.951738" lon="-1.330085">
        <ele>59.222574</ele>
        <time>2026-03-27T00:04:30.402Z</time>
      </trkpt>
      <trkpt lat="43.951650" lon="-1.329885">
        <ele>59.397191</ele>
        <time>2026-03-27T00:04:33.652Z</time>
      </trkpt>
      <trkpt lat="43.951572" lon="-1.329855">
        <ele>59.480941</ele>
        <time>2026-03-27T00:04:35.408Z</time>
      </trkpt>
      <trkpt lat="43.951604" lon="-1.330043">
        <ele>59.624856</ele>
        <time>2026-03-27T00:04:37.414Z</time>
      </trkpt>
      <trkpt lat="43.951619" lon="-1.330348">
        <ele>59.852600</ele>
        <time>2026-03-27T00:04:41.255Z</time>
      </trkpt>
      <trkpt lat="43.951603" lon="-1.330447">
        <ele>59.928188</ele>
        <time>2026-03-27T00:04:42.670Z</time>
      </trkpt>
      <trkpt lat="43.951556" lon="-1.330731">
        <ele>60.145276</ele>
        <time>2026-03-27T00:04:47.309Z</time>
      </trkpt>
      <trkpt lat="43.951133" lon="-1.332117">
        <ele>59.301555</ele>
        <time>2026-03-27T00:05:08.231Z</time>
      </trkpt>
      <trkpt lat="43.950946" lon="-1.333006">
        <ele>57.697083</ele>
        <time>2026-03-27T00:05:13.357Z</time>
      </trkpt>
      <trkpt lat="43.950794" lon="-1.334614">
        <ele>51.652617</ele>
        <time>2026-03-27T00:05:20.976Z</time>
      </trkpt>
      <trkpt lat="43.950799" lon="-1.335071">
        <ele>49.106725</ele>
        <time>2026-03-27T00:05:23.085Z</time>
      </trkpt>
      <trkpt lat="43.950989" lon="-1.337893">
        <ele>34.936661</ele>
        <time>2026-03-27T00:05:36.473Z</time>
      </trkpt>
      <trkpt lat="43.951066" lon="-1.339092">
        <ele>30.433134</ele>
        <time>2026-03-27T00:05:42.539Z</time>
      </trkpt>
      <trkpt lat="43.951212" lon="-1.341685">
        <ele>26.087577</ele>
        <time>2026-03-27T00:05:58.455Z</time>
      </trkpt>
      <trkpt lat="43.951214" lon="-1.342360">
        <ele>24.788333</ele>
        <time>2026-03-27T00:06:02.465Z</time>
      </trkpt>
      <trkpt lat="43.951089" lon="-1.343008">
        <ele>23.497071</ele>
        <time>2026-03-27T00:06:06.172Z</time>
      </trkpt>
      <trkpt lat="43.950912" lon="-1.343628">
        <ele>22.213294</ele>
        <time>2026-03-27T00:06:09.700Z</time>
      </trkpt>
      <trkpt lat="43.950522" lon="-1.344557">
        <ele>19.995886</ele>
        <time>2026-03-27T00:06:15.274Z</time>
      </trkpt>
      <trkpt lat="43.950385" lon="-1.344896">
        <ele>19.192146</ele>
        <time>2026-03-27T00:06:17.343Z</time>
      </trkpt>
      <trkpt lat="43.950346" lon="-1.345048">
        <ele>18.858531</ele>
        <time>2026-03-27T00:06:18.230Z</time>
      </trkpt>
      <trkpt lat="43.950311" lon="-1.345222">
        <ele>18.485015</ele>
        <time>2026-03-27T00:06:19.246Z</time>
      </trkpt>
      <trkpt lat="43.950297" lon="-1.345474">
        <ele>17.962465</ele>
        <time>2026-03-27T00:06:20.715Z</time>
      </trkpt>
      <trkpt lat="43.950301" lon="-1.345687">
        <ele>17.521946</ele>
        <time>2026-03-27T00:06:22.013Z</time>
      </trkpt>
      <trkpt lat="43.950346" lon="-1.346081">
        <ele>17.011982</ele>
        <time>2026-03-27T00:06:24.637Z</time>
      </trkpt>
      <trkpt lat="43.950466" lon="-1.346519">
        <ele>17.169295</ele>
        <time>2026-03-27T00:06:28.153Z</time>
      </trkpt>
      <trkpt lat="43.950595" lon="-1.346788">
        <ele>17.277791</ele>
        <time>2026-03-27T00:06:31.022Z</time>
      </trkpt>
      <trkpt lat="43.951388" lon="-1.348152">
        <ele>17.637419</ele>
        <time>2026-03-27T00:06:48.367Z</time>
      </trkpt>
      <trkpt lat="43.951518" lon="-1.348439">
        <ele>17.314578</ele>
        <time>2026-03-27T00:06:50.696Z</time>
      </trkpt>
      <trkpt lat="43.951612" lon="-1.348748">
        <ele>16.995191</ele>
        <time>2026-03-27T00:06:52.849Z</time>
      </trkpt>
      <trkpt lat="43.951747" lon="-1.349347">
        <ele>16.397590</ele>
        <time>2026-03-27T00:06:56.593Z</time>
      </trkpt>
      <trkpt lat="43.951814" lon="-1.349881">
        <ele>15.881505</ele>
        <time>2026-03-27T00:06:59.630Z</time>
      </trkpt>
      <trkpt lat="43.951957" lon="-1.351909">
        <ele>14.023397</ele>
        <time>2026-03-27T00:07:11.480Z</time>
      </trkpt>
      <trkpt lat="43.952026" lon="-1.353192">
        <ele>13.303073</ele>
        <time>2026-03-27T00:07:21.147Z</time>
      </trkpt>
      <trkpt lat="43.952042" lon="-1.353490">
        <ele>13.407939</ele>
        <time>2026-03-27T00:07:23.828Z</time>
      </trkpt>
      <trkpt lat="43.951995" lon="-1.353494">
        <ele>13.430891</ele>
        <time>2026-03-27T00:07:24.431Z</time>
      </trkpt>
      <trkpt lat="43.951713" lon="-1.353503">
        <ele>13.568387</ele>
        <time>2026-03-27T00:07:27.993Z</time>
      </trkpt>
      <trkpt lat="43.950195" lon="-1.353556">
        <ele>13.948871</ele>
        <time>2026-03-27T00:07:45.808Z</time>
      </trkpt>
      <trkpt lat="43.949245" lon="-1.353589">
        <ele>13.749336</ele>
        <time>2026-03-27T00:07:55.104Z</time>
      </trkpt>
      <trkpt lat="43.948955" lon="-1.353491">
        <ele>13.686667</ele>
        <time>2026-03-27T00:07:57.807Z</time>
      </trkpt>
      <trkpt lat="43.948485" lon="-1.353137">
        <ele>13.310294</ele>
        <time>2026-03-27T00:08:02.534Z</time>
      </trkpt>
      <trkpt lat="43.948294" lon="-1.353089">
        <ele>13.167116</ele>
        <time>2026-03-27T00:08:04.229Z</time>
      </trkpt>
      <trkpt lat="43.948194" lon="-1.353095">
        <ele>13.093283</ele>
        <time>2026-03-27T00:08:05.106Z</time>
      </trkpt>
      <trkpt lat="43.948115" lon="-1.353099">
        <ele>13.034970</ele>
        <time>2026-03-27T00:08:05.797Z</time>
      </trkpt>
      <trkpt lat="43.947364" lon="-1.353219">
        <ele>12.477344</ele>
        <time>2026-03-27T00:08:12.798Z</time>
      </trkpt>
      <trkpt lat="43.946859" lon="-1.353229">
        <ele>12.245838</ele>
        <time>2026-03-27T00:08:17.845Z</time>
      </trkpt>
      <trkpt lat="43.946157" lon="-1.353244">
        <ele>12.022555</ele>
        <time>2026-03-27T00:08:25.042Z</time>
      </trkpt>
      <trkpt lat="43.945817" lon="-1.353314">
        <ele>11.913244</ele>
        <time>2026-03-27T00:08:28.458Z</time>
      </trkpt>
      <trkpt lat="43.945542" lon="-1.353453">
        <ele>11.820174</ele>
        <time>2026-03-27T00:08:31.275Z</time>
      </trkpt>
      <trkpt lat="43.944752" lon="-1.354226">
        <ele>10.869102</ele>
        <time>2026-03-27T00:08:40.020Z</time>
      </trkpt>
      <trkpt lat="43.944424" lon="-1.354467">
        <ele>10.467491</ele>
        <time>2026-03-27T00:08:43.181Z</time>
      </trkpt>
      <trkpt lat="43.944293" lon="-1.354564">
        <ele>10.306818</ele>
        <time>2026-03-27T00:08:44.442Z</time>
      </trkpt>
      <trkpt lat="43.944034" lon="-1.354658">
        <ele>10.017089</ele>
        <time>2026-03-27T00:08:46.724Z</time>
      </trkpt>
      <trkpt lat="43.943512" lon="-1.354621">
        <ele>9.665743</ele>
        <time>2026-03-27T00:08:51.246Z</time>
      </trkpt>
      <trkpt lat="43.943395" lon="-1.354609">
        <ele>9.609897</ele>
        <time>2026-03-27T00:08:52.291Z</time>
      </trkpt>
      <trkpt lat="43.942852" lon="-1.354556">
        <ele>9.350779</ele>
        <time>2026-03-27T00:08:57.282Z</time>
      </trkpt>
      <trkpt lat="43.942444" lon="-1.354544">
        <ele>9.156518</ele>
        <time>2026-03-27T00:09:01.426Z</time>
      </trkpt>
      <trkpt lat="43.942273" lon="-1.354540">
        <ele>9.075106</ele>
        <time>2026-03-27T00:09:03.395Z</time>
      </trkpt>
      <trkpt lat="43.941931" lon="-1.354467">
        <ele>9.003259</ele>
        <time>2026-03-27T00:09:07.579Z</time>
      </trkpt>
      <trkpt lat="43.941065" lon="-1.354081">
        <ele>9.166379</ele>
        <time>2026-03-27T00:09:18.192Z</time>
      </trkpt>
      <trkpt lat="43.940917" lon="-1.354081">
        <ele>9.192922</ele>
        <time>2026-03-27T00:09:19.758Z</time>
      </trkpt>
      <trkpt lat="43.940598" lon="-1.354159">
        <ele>9.251015</ele>
        <time>2026-03-27T00:09:23.025Z</time>
      </trkpt>
      <trkpt lat="43.940288" lon="-1.354274">
        <ele>9.282580</ele>
        <time>2026-03-27T00:09:26.142Z</time>
      </trkpt>
      <trkpt lat="43.939594" lon="-1.354535">
        <ele>8.999492</ele>
        <time>2026-03-27T00:09:32.849Z</time>
      </trkpt>
      <trkpt lat="43.939155" lon="-1.354743">
        <ele>8.816864</ele>
        <time>2026-03-27T00:09:37.218Z</time>
      </trkpt>
      <trkpt lat="43.938899" lon="-1.354856">
        <ele>8.711101</ele>
        <time>2026-03-27T00:09:40.230Z</time>
      </trkpt>
      <trkpt lat="43.938482" lon="-1.354915">
        <ele>8.646598</ele>
        <time>2026-03-27T00:09:45.057Z</time>
      </trkpt>
      <trkpt lat="43.938400" lon="-1.354926">
        <ele>8.684757</ele>
        <time>2026-03-27T00:09:46.030Z</time>
      </trkpt>
      <trkpt lat="43.938010" lon="-1.354950">
        <ele>8.865579</ele>
        <time>2026-03-27T00:09:50.728Z</time>
      </trkpt>
      <trkpt lat="43.937400" lon="-1.355034">
        <ele>9.149511</ele>
        <time>2026-03-27T00:09:58.581Z</time>
      </trkpt>
      <trkpt lat="43.937376" lon="-1.355037">
        <ele>9.160672</ele>
        <time>2026-03-27T00:09:58.900Z</time>
      </trkpt>
      <trkpt lat="43.936178" lon="-1.355461">
        <ele>10.446615</ele>
        <time>2026-03-27T00:10:17.615Z</time>
      </trkpt>
      <trkpt lat="43.936076" lon="-1.355471">
        <ele>10.603688</ele>
        <time>2026-03-27T00:10:24.743Z</time>
      </trkpt>
      <trkpt lat="43.936007" lon="-1.355452">
        <ele>10.711743</ele>
        <time>2026-03-27T00:10:29.608Z</time>
      </trkpt>
      <trkpt lat="43.935897" lon="-1.355364">
        <ele>10.906749</ele>
        <time>2026-03-27T00:10:38.426Z</time>
      </trkpt>
      <trkpt lat="43.935584" lon="-1.355062">
        <ele>11.492216</ele>
        <time>2026-03-27T00:11:04.935Z</time>
      </trkpt>
      <trkpt lat="43.934458" lon="-1.353974">
        <ele>13.417633</ele>
        <time>2026-03-27T00:12:40.306Z</time>
      </trkpt>
      <trkpt lat="43.934025" lon="-1.353580">
        <ele>14.110415</ele>
        <time>2026-03-27T00:13:16.259Z</time>
      </trkpt>
      <trkpt lat="43.933296" lon="-1.352916">
        <ele>14.264609</ele>
        <time>2026-03-27T00:14:16.835Z</time>
      </trkpt>
      <trkpt lat="43.933092" lon="-1.352791">
        <ele>14.119883</ele>
        <time>2026-03-27T00:14:32.323Z</time>
      </trkpt>
      <trkpt lat="43.931767" lon="-1.352448">
        <ele>12.955916</ele>
        <time>2026-03-27T00:16:06.028Z</time>
      </trkpt>
      <trkpt lat="43.929681" lon="-1.351907">
        <ele>9.828769</ele>
        <time>2026-03-27T00:18:33.519Z</time>
      </trkpt>
      <trkpt lat="43.927435" lon="-1.351292">
        <ele>8.429227</ele>
        <time>2026-03-27T00:21:12.622Z</time>
      </trkpt>
      <trkpt lat="43.926928" lon="-1.351153">
        <ele>8.313612</ele>
        <time>2026-03-27T00:21:48.546Z</time>
      </trkpt>
      <trkpt lat="43.924994" lon="-1.350640">
        <ele>9.183972</ele>
        <time>2026-03-27T00:24:05.391Z</time>
      </trkpt>
      <trkpt lat="43.922624" lon="-1.349981">
        <ele>11.163324</ele>
        <time>2026-03-27T00:26:53.378Z</time>
      </trkpt>
      <trkpt lat="43.922232" lon="-1.349832">
        <ele>11.485734</ele>
        <time>2026-03-27T00:27:21.589Z</time>
      </trkpt>
      <trkpt lat="43.922196" lon="-1.349814">
        <ele>11.516088</ele>
        <time>2026-03-27T00:27:24.268Z</time>
      </trkpt>
      <trkpt lat="43.921948" lon="-1.349685">
        <ele>11.726177</ele>
        <time>2026-03-27T00:27:42.662Z</time>
      </trkpt>
      <trkpt lat="43.921289" lon="-1.348979">
        <ele>12.351973</ele>
        <time>2026-03-27T00:28:40.482Z</time>
      </trkpt>
      <trkpt lat="43.920470" lon="-1.348019">
        <ele>13.095274</ele>
        <time>2026-03-27T00:29:55.000Z</time>
      </trkpt>
      <trkpt lat="43.920128" lon="-1.347681">
        <ele>13.409406</ele>
        <time>2026-03-27T00:30:24.169Z</time>
      </trkpt>
      <trkpt lat="43.919950" lon="-1.347558">
        <ele>13.664848</ele>
        <time>2026-03-27T00:30:37.979Z</time>
      </trkpt>
      <trkpt lat="43.919831" lon="-1.347397">
        <ele>13.878320</ele>
        <time>2026-03-27T00:30:49.564Z</time>
      </trkpt>
      <trkpt lat="43.919556" lon="-1.347394">
        <ele>14.231629</ele>
        <time>2026-03-27T00:31:08.630Z</time>
      </trkpt>
      <trkpt lat="43.919167" lon="-1.347501">
        <ele>14.741099</ele>
        <time>2026-03-27T00:31:36.218Z</time>
      </trkpt>
      <trkpt lat="43.915990" lon="-1.348371">
        <ele>18.535767</ele>
        <time>2026-03-27T00:35:21.284Z</time>
      </trkpt>
      <trkpt lat="43.913535" lon="-1.349047">
        <ele>23.907807</ele>
        <time>2026-03-27T00:38:15.266Z</time>
      </trkpt>
      <trkpt lat="43.912742" lon="-1.348796">
        <ele>25.251668</ele>
        <time>2026-03-27T00:38:27.537Z</time>
      </trkpt>
      <trkpt lat="43.912515" lon="-1.348723">
        <ele>25.505575</ele>
        <time>2026-03-27T00:38:30.722Z</time>
      </trkpt>
      <trkpt lat="43.912601" lon="-1.347983">
        <ele>26.093986</ele>
        <time>2026-03-27T00:38:37.096Z</time>
      </trkpt>
      <trkpt lat="43.912778" lon="-1.346451">
        <ele>27.753325</ele>
        <time>2026-03-27T00:38:52.612Z</time>
      </trkpt>
      <trkpt lat="43.912782" lon="-1.345324">
        <ele>29.317423</ele>
        <time>2026-03-27T00:39:05.372Z</time>
      </trkpt>
      <trkpt lat="43.912707" lon="-1.344566">
        <ele>30.434450</ele>
        <time>2026-03-27T00:39:14.753Z</time>
      </trkpt>
      <trkpt lat="43.912080" lon="-1.341385">
        <ele>34.911765</ele>
        <time>2026-03-27T00:39:55.595Z</time>
      </trkpt>
      <trkpt lat="43.911890" lon="-1.340823">
        <ele>35.021472</ele>
        <time>2026-03-27T00:40:00.437Z</time>
      </trkpt>
      <trkpt lat="43.911710" lon="-1.340501">
        <ele>35.093496</ele>
        <time>2026-03-27T00:40:02.992Z</time>
      </trkpt>
      <trkpt lat="43.911607" lon="-1.340228">
        <ele>35.147956</ele>
        <time>2026-03-27T00:40:04.785Z</time>
      </trkpt>
      <trkpt lat="43.911543" lon="-1.339947">
        <ele>35.121025</ele>
        <time>2026-03-27T00:40:06.462Z</time>
      </trkpt>
      <trkpt lat="43.911528" lon="-1.339751">
        <ele>34.909708</ele>
        <time>2026-03-27T00:40:07.572Z</time>
      </trkpt>
      <trkpt lat="43.911590" lon="-1.338958">
        <ele>34.054530</ele>
        <time>2026-03-27T00:40:12.098Z</time>
      </trkpt>
      <trkpt lat="43.911638" lon="-1.338621">
        <ele>33.686234</ele>
        <time>2026-03-27T00:40:14.109Z</time>
      </trkpt>
      <trkpt lat="43.911989" lon="-1.337510">
        <ele>32.481085</ele>
        <time>2026-03-27T00:40:22.163Z</time>
      </trkpt>
      <trkpt lat="43.912186" lon="-1.336872">
        <ele>32.298521</ele>
        <time>2026-03-27T00:40:27.613Z</time>
      </trkpt>
      <trkpt lat="43.912245" lon="-1.335998">
        <ele>32.067643</ele>
        <time>2026-03-27T00:40:33.743Z</time>
      </trkpt>
      <trkpt lat="43.912228" lon="-1.334690">
        <ele>31.494010</ele>
        <time>2026-03-27T00:40:42.556Z</time>
      </trkpt>
      <trkpt lat="43.912199" lon="-1.334379">
        <ele>31.267971</ele>
        <time>2026-03-27T00:40:44.831Z</time>
      </trkpt>
      <trkpt lat="43.912283" lon="-1.333263">
        <ele>30.459182</ele>
        <time>2026-03-27T00:40:52.461Z</time>
      </trkpt>
      <trkpt lat="43.912323" lon="-1.333042">
        <ele>30.294935</ele>
        <time>2026-03-27T00:40:53.884Z</time>
      </trkpt>
      <trkpt lat="43.912515" lon="-1.332546">
        <ele>29.437558</ele>
        <time>2026-03-27T00:40:57.168Z</time>
      </trkpt>
      <trkpt lat="43.912469" lon="-1.332053">
        <ele>28.109009</ele>
        <time>2026-03-27T00:40:59.867Z</time>
      </trkpt>
      <trkpt lat="43.912339" lon="-1.331631">
        <ele>26.882425</ele>
        <time>2026-03-27T00:41:02.252Z</time>
      </trkpt>
      <trkpt lat="43.912189" lon="-1.330927">
        <ele>24.920411</ele>
        <time>2026-03-27T00:41:05.985Z</time>
      </trkpt>
      <trkpt lat="43.912218" lon="-1.330015">
        <ele>22.518989</ele>
        <time>2026-03-27T00:41:10.742Z</time>
      </trkpt>
      <trkpt lat="43.912209" lon="-1.329773">
        <ele>21.898847</ele>
        <time>2026-03-27T00:41:12.021Z</time>
      </trkpt>
      <trkpt lat="43.912207" lon="-1.329723">
        <ele>21.770692</ele>
        <time>2026-03-27T00:41:12.287Z</time>
      </trkpt>
      <trkpt lat="43.912148" lon="-1.329723">
        <ele>21.561100</ele>
        <time>2026-03-27T00:41:13.203Z</time>
      </trkpt>
      <trkpt lat="43.912142" lon="-1.329434">
        <ele>20.821195</ele>
        <time>2026-03-27T00:41:14.736Z</time>
      </trkpt>
      <trkpt lat="43.912116" lon="-1.329179">
        <ele>20.162104</ele>
        <time>2026-03-27T00:41:16.125Z</time>
      </trkpt>
      <trkpt lat="43.912085" lon="-1.328871">
        <ele>19.366226</ele>
        <time>2026-03-27T00:41:17.810Z</time>
      </trkpt>
      <trkpt lat="43.912004" lon="-1.328028">
        <ele>17.189743</ele>
        <time>2026-03-27T00:41:22.430Z</time>
      </trkpt>
      <trkpt lat="43.911988" lon="-1.327802">
        <ele>16.756754</ele>
        <time>2026-03-27T00:41:23.665Z</time>
      </trkpt>
      <trkpt lat="43.911982" lon="-1.327492">
        <ele>16.268372</ele>
        <time>2026-03-27T00:41:25.345Z</time>
      </trkpt>
      <trkpt lat="43.912017" lon="-1.327262">
        <ele>15.898163</ele>
        <time>2026-03-27T00:41:26.625Z</time>
      </trkpt>
      <trkpt lat="43.912061" lon="-1.327116">
        <ele>15.648925</ele>
        <time>2026-03-27T00:41:27.495Z</time>
      </trkpt>
      <trkpt lat="43.912126" lon="-1.326898">
        <ele>15.277364</ele>
        <time>2026-03-27T00:41:28.807Z</time>
      </trkpt>
      <trkpt lat="43.912514" lon="-1.325899">
        <ele>13.490014</ele>
        <time>2026-03-27T00:41:35.568Z</time>
      </trkpt>
      <trkpt lat="43.912576" lon="-1.325721">
        <ele>13.178646</ele>
        <time>2026-03-27T00:41:36.841Z</time>
      </trkpt>
      <trkpt lat="43.912582" lon="-1.325711">
        <ele>13.158151</ele>
        <time>2026-03-27T00:41:36.929Z</time>
      </trkpt>
      <trkpt lat="43.912556" lon="-1.325672">
        <ele>13.074468</ele>
        <time>2026-03-27T00:41:37.278Z</time>
      </trkpt>
      <trkpt lat="43.912592" lon="-1.325601">
        <ele>13.039479</ele>
        <time>2026-03-27T00:41:37.855Z</time>
      </trkpt>
      <trkpt lat="43.912981" lon="-1.324851">
        <ele>12.777030</ele>
        <time>2026-03-27T00:41:44.250Z</time>
      </trkpt>
      <trkpt lat="43.912983" lon="-1.324783">
        <ele>12.757703</ele>
        <time>2026-03-27T00:41:44.727Z</time>
      </trkpt>
      <trkpt lat="43.912883" lon="-1.324636">
        <ele>12.700286</ele>
        <time>2026-03-27T00:41:46.168Z</time>
      </trkpt>
      <trkpt lat="43.912875" lon="-1.324623">
        <ele>12.695431</ele>
        <time>2026-03-27T00:41:46.295Z</time>
      </trkpt>
      <trkpt lat="43.912483" lon="-1.323657">
        <ele>12.380571</ele>
        <time>2026-03-27T00:41:54.265Z</time>
      </trkpt>
      <trkpt lat="43.912381" lon="-1.322750">
        <ele>12.352297</ele>
        <time>2026-03-27T00:42:00.748Z</time>
      </trkpt>
      <trkpt lat="43.912335" lon="-1.322616">
        <ele>12.352201</ele>
        <time>2026-03-27T00:42:01.814Z</time>
      </trkpt>
      <trkpt lat="43.912326" lon="-1.322590">
        <ele>12.352183</ele>
        <time>2026-03-27T00:42:02.021Z</time>
      </trkpt>
      <trkpt lat="43.912231" lon="-1.321446">
        <ele>12.351442</ele>
        <time>2026-03-27T00:42:10.666Z</time>
      </trkpt>
      <trkpt lat="43.912187" lon="-1.321333">
        <ele>12.351360</ele>
        <time>2026-03-27T00:42:11.680Z</time>
      </trkpt>
      <trkpt lat="43.912235" lon="-1.320803">
        <ele>12.370660</ele>
        <time>2026-03-27T00:42:15.979Z</time>
      </trkpt>
      <trkpt lat="43.912233" lon="-1.320213">
        <ele>12.407069</ele>
        <time>2026-03-27T00:42:20.867Z</time>
      </trkpt>
      <trkpt lat="43.911965" lon="-1.319741">
        <ele>12.444156</ele>
        <time>2026-03-27T00:42:25.704Z</time>
      </trkpt>
      <trkpt lat="43.911783" lon="-1.319423">
        <ele>12.469219</ele>
        <time>2026-03-27T00:42:28.771Z</time>
      </trkpt>
      <trkpt lat="43.911678" lon="-1.319192">
        <ele>12.486074</ele>
        <time>2026-03-27T00:42:30.756Z</time>
      </trkpt>
      <trkpt lat="43.911355" lon="-1.319252">
        <ele>12.435827</ele>
        <time>2026-03-27T00:42:33.924Z</time>
      </trkpt>
      <trkpt lat="43.909085" lon="-1.319669">
        <ele>11.066101</ele>
        <time>2026-03-27T00:42:54.894Z</time>
      </trkpt>
      <trkpt lat="43.908893" lon="-1.319704">
        <ele>10.997915</ele>
        <time>2026-03-27T00:42:56.750Z</time>
      </trkpt>
      <trkpt lat="43.908783" lon="-1.319734">
        <ele>10.958442</ele>
        <time>2026-03-27T00:42:57.828Z</time>
      </trkpt>
      <trkpt lat="43.908819" lon="-1.319411">
        <ele>10.875530</ele>
        <time>2026-03-27T00:43:00.146Z</time>
      </trkpt>
      <trkpt lat="43.908931" lon="-1.318406">
        <ele>10.655115</ele>
        <time>2026-03-27T00:43:07.606Z</time>
      </trkpt>
      <trkpt lat="43.908900" lon="-1.318016">
        <ele>10.711897</ele>
        <time>2026-03-27T00:43:10.678Z</time>
      </trkpt>
      <trkpt lat="43.908986" lon="-1.317367">
        <ele>10.807392</ele>
        <time>2026-03-27T00:43:15.916Z</time>
      </trkpt>
      <trkpt lat="43.909026" lon="-1.316309">
        <ele>10.960710</ele>
        <time>2026-03-27T00:43:24.342Z</time>
      </trkpt>
      <trkpt lat="43.909160" lon="-1.315115">
        <ele>10.920001</ele>
        <time>2026-03-27T00:43:33.510Z</time>
      </trkpt>
      <trkpt lat="43.909151" lon="-1.314960">
        <ele>10.905979</ele>
        <time>2026-03-27T00:43:34.651Z</time>
      </trkpt>
      <trkpt lat="43.909105" lon="-1.314795">
        <ele>10.890026</ele>
        <time>2026-03-27T00:43:35.938Z</time>
      </trkpt>
      <trkpt lat="43.909034" lon="-1.314667">
        <ele>10.875459</ele>
        <time>2026-03-27T00:43:37.109Z</time>
      </trkpt>
      <trkpt lat="43.908783" lon="-1.314374">
        <ele>10.834410</ele>
        <time>2026-03-27T00:43:40.357Z</time>
      </trkpt>
      <trkpt lat="43.908585" lon="-1.314338">
        <ele>10.809416</ele>
        <time>2026-03-27T00:43:42.305Z</time>
      </trkpt>
      <trkpt lat="43.908059" lon="-1.314387">
        <ele>10.617724</ele>
        <time>2026-03-27T00:43:47.359Z</time>
      </trkpt>
      <trkpt lat="43.907107" lon="-1.314477">
        <ele>10.059387</ele>
        <time>2026-03-27T00:43:56.373Z</time>
      </trkpt>
      <trkpt lat="43.906892" lon="-1.314497">
        <ele>9.933302</ele>
        <time>2026-03-27T00:43:58.378Z</time>
      </trkpt>
      <trkpt lat="43.906827" lon="-1.314466">
        <ele>9.893086</ele>
        <time>2026-03-27T00:43:59.014Z</time>
      </trkpt>
      <trkpt lat="43.906794" lon="-1.314409">
        <ele>9.862259</ele>
        <time>2026-03-27T00:43:59.493Z</time>
      </trkpt>
      <trkpt lat="43.906362" lon="-1.312326">
        <ele>8.751258</ele>
        <time>2026-03-27T00:44:13.750Z</time>
      </trkpt>
      <trkpt lat="43.905925" lon="-1.311584">
        <ele>8.382620</ele>
        <time>2026-03-27T00:44:20.202Z</time>
      </trkpt>
      <trkpt lat="43.905792" lon="-1.311407">
        <ele>8.363363</ele>
        <time>2026-03-27T00:44:21.964Z</time>
      </trkpt>
      <trkpt lat="43.905516" lon="-1.310969">
        <ele>8.319548</ele>
        <time>2026-03-27T00:44:26.039Z</time>
      </trkpt>
      <trkpt lat="43.905263" lon="-1.310568">
        <ele>8.279413</ele>
        <time>2026-03-27T00:44:29.927Z</time>
      </trkpt>
      <trkpt lat="43.905042" lon="-1.310074">
        <ele>8.235628</ele>
        <time>2026-03-27T00:44:34.366Z</time>
      </trkpt>
      <trkpt lat="43.904946" lon="-1.310026">
        <ele>8.224964</ele>
        <time>2026-03-27T00:44:35.520Z</time>
      </trkpt>
      <trkpt lat="43.904741" lon="-1.310012">
        <ele>8.276640</ele>
        <time>2026-03-27T00:44:37.886Z</time>
      </trkpt>
      <trkpt lat="43.904737" lon="-1.309992">
        <ele>8.283214</ele>
        <time>2026-03-27T00:44:38.059Z</time>
      </trkpt>
      <trkpt lat="43.904727" lon="-1.309944">
        <ele>8.299040</ele>
        <time>2026-03-27T00:44:38.499Z</time>
      </trkpt>
      <trkpt lat="43.904702" lon="-1.309857">
        <ele>8.328705</ele>
        <time>2026-03-27T00:44:39.329Z</time>
      </trkpt>
      <trkpt lat="43.904555" lon="-1.309864">
        <ele>8.393363</ele>
        <time>2026-03-27T00:44:41.142Z</time>
      </trkpt>
      <trkpt lat="43.904370" lon="-1.309873">
        <ele>8.474737</ele>
        <time>2026-03-27T00:44:43.462Z</time>
      </trkpt>
      <trkpt lat="43.904319" lon="-1.309874">
        <ele>8.497158</ele>
        <time>2026-03-27T00:44:44.089Z</time>
      </trkpt>
      <trkpt lat="43.903561" lon="-1.309878">
        <ele>8.830370</ele>
        <time>2026-03-27T00:44:53.123Z</time>
      </trkpt>
      <trkpt lat="43.903460" lon="-1.309944">
        <ele>8.879443</ele>
        <time>2026-03-27T00:44:54.330Z</time>
      </trkpt>
      <trkpt lat="43.903249" lon="-1.310081">
        <ele>8.981845</ele>
        <time>2026-03-27T00:44:56.866Z</time>
      </trkpt>
      <trkpt lat="43.902853" lon="-1.310328">
        <ele>8.888791</ele>
        <time>2026-03-27T00:45:01.452Z</time>
      </trkpt>
      <trkpt lat="43.902752" lon="-1.310391">
        <ele>8.853443</ele>
        <time>2026-03-27T00:45:02.567Z</time>
      </trkpt>
      <trkpt lat="43.902461" lon="-1.310567">
        <ele>8.752113</ele>
        <time>2026-03-27T00:45:05.660Z</time>
      </trkpt>
      <trkpt lat="43.902126" lon="-1.310739">
        <ele>8.638091</ele>
        <time>2026-03-27T00:45:09.028Z</time>
      </trkpt>
      <trkpt lat="43.902071" lon="-1.310768">
        <ele>8.619309</ele>
        <time>2026-03-27T00:45:09.587Z</time>
      </trkpt>
      <trkpt lat="43.901780" lon="-1.309179">
        <ele>7.911834</ele>
        <time>2026-03-27T00:45:22.539Z</time>
      </trkpt>
      <trkpt lat="43.901764" lon="-1.309092">
        <ele>7.855619</ele>
        <time>2026-03-27T00:45:23.225Z</time>
      </trkpt>
      <trkpt lat="43.901561" lon="-1.308339">
        <ele>7.352259</ele>
        <time>2026-03-27T00:45:31.610Z</time>
      </trkpt>
      <trkpt lat="43.901236" lon="-1.307657">
        <ele>6.840490</ele>
        <time>2026-03-27T00:45:40.070Z</time>
      </trkpt>
      <trkpt lat="43.901110" lon="-1.307523">
        <ele>6.703274</ele>
        <time>2026-03-27T00:45:42.353Z</time>
      </trkpt>
      <trkpt lat="43.901041" lon="-1.307383">
        <ele>6.597629</ele>
        <time>2026-03-27T00:45:44.888Z</time>
      </trkpt>
      <trkpt lat="43.900745" lon="-1.307019">
        <ele>6.255772</ele>
        <time>2026-03-27T00:45:48.903Z</time>
      </trkpt>
      <trkpt lat="43.900552" lon="-1.306643">
        <ele>5.968235</ele>
        <time>2026-03-27T00:45:52.284Z</time>
      </trkpt>
      <trkpt lat="43.900406" lon="-1.306209">
        <ele>5.669909</ele>
        <time>2026-03-27T00:45:55.801Z</time>
      </trkpt>
      <trkpt lat="43.900372" lon="-1.306106">
        <ele>5.599344</ele>
        <time>2026-03-27T00:45:56.650Z</time>
      </trkpt>
      <trkpt lat="43.900343" lon="-1.306021">
        <ele>5.540767</ele>
        <time>2026-03-27T00:45:57.353Z</time>
      </trkpt>
      <trkpt lat="43.899639" lon="-1.306388">
        <ele>5.232592</ele>
        <time>2026-03-27T00:46:05.415Z</time>
      </trkpt>
      <trkpt lat="43.899624" lon="-1.306396">
        <ele>5.229857</ele>
        <time>2026-03-27T00:46:05.595Z</time>
      </trkpt>
      <trkpt lat="43.899575" lon="-1.306303">
        <ele>5.215727</ele>
        <time>2026-03-27T00:46:06.511Z</time>
      </trkpt>
      <trkpt lat="43.899098" lon="-1.305388">
        <ele>5.077217</ele>
        <time>2026-03-27T00:46:15.699Z</time>
      </trkpt>
      <trkpt lat="43.898570" lon="-1.304618">
        <ele>5.078371</ele>
        <time>2026-03-27T00:46:25.046Z</time>
      </trkpt>
      <trkpt lat="43.898263" lon="-1.304111">
        <ele>5.165582</ele>
        <time>2026-03-27T00:46:30.652Z</time>
      </trkpt>
      <trkpt lat="43.898129" lon="-1.303942">
        <ele>5.198673</ele>
        <time>2026-03-27T00:46:32.782Z</time>
      </trkpt>
      <trkpt lat="43.898082" lon="-1.303883">
        <ele>5.210255</ele>
        <time>2026-03-27T00:46:33.525Z</time>
      </trkpt>
      <trkpt lat="43.897328" lon="-1.302684">
        <ele>5.477228</ele>
        <time>2026-03-27T00:46:47.412Z</time>
      </trkpt>
      <trkpt lat="43.897196" lon="-1.302545">
        <ele>5.529014</ele>
        <time>2026-03-27T00:46:49.427Z</time>
      </trkpt>
      <trkpt lat="43.896492" lon="-1.302178">
        <ele>5.764047</ele>
        <time>2026-03-27T00:46:58.810Z</time>
      </trkpt>
      <trkpt lat="43.896099" lon="-1.301973">
        <ele>5.895261</ele>
        <time>2026-03-27T00:47:04.144Z</time>
      </trkpt>
      <trkpt lat="43.896054" lon="-1.301950">
        <ele>5.911491</ele>
        <time>2026-03-27T00:47:04.761Z</time>
      </trkpt>
      <trkpt lat="43.894542" lon="-1.301174">
        <ele>6.483863</ele>
        <time>2026-03-27T00:47:24.987Z</time>
      </trkpt>
      <trkpt lat="43.894348" lon="-1.301131">
        <ele>6.546846</ele>
        <time>2026-03-27T00:47:27.324Z</time>
      </trkpt>
      <trkpt lat="43.894348" lon="-1.301131">
        <ele>6.546846</ele>
        <time>2026-03-27T00:47:27.326Z</time>
      </trkpt>
      <trkpt lat="43.894150" lon="-1.301151">
        <ele>6.582979</ele>
        <time>2026-03-27T00:47:29.673Z</time>
      </trkpt>
      <trkpt lat="43.894067" lon="-1.301412">
        <ele>6.620396</ele>
        <time>2026-03-27T00:47:34.266Z</time>
      </trkpt>
      <trkpt lat="43.894044" lon="-1.301580">
        <ele>6.642825</ele>
        <time>2026-03-27T00:47:37.015Z</time>
      </trkpt>
      <trkpt lat="43.894139" lon="-1.302259">
        <ele>6.733546</ele>
        <time>2026-03-27T00:47:48.174Z</time>
      </trkpt>
      <trkpt lat="43.894197" lon="-1.302623">
        <ele>6.782441</ele>
        <time>2026-03-27T00:47:54.238Z</time>
      </trkpt>
      <trkpt lat="43.894257" lon="-1.302999">
        <ele>6.832951</ele>
        <time>2026-03-27T00:48:00.584Z</time>
      </trkpt>
      <trkpt lat="43.894264" lon="-1.303133">
        <ele>6.850573</ele>
        <time>2026-03-27T00:48:02.513Z</time>
      </trkpt>
      <trkpt lat="43.894209" lon="-1.303289">
        <ele>6.882146</ele>
        <time>2026-03-27T00:48:05.012Z</time>
      </trkpt>
      <trkpt lat="43.894157" lon="-1.303332">
        <ele>6.908648</ele>
        <time>2026-03-27T00:48:06.241Z</time>
      </trkpt>
      <trkpt lat="43.894130" lon="-1.303340">
        <ele>6.920735</ele>
        <time>2026-03-27T00:48:09.604Z</time>
      </trkpt>
      <trkpt lat="43.894023" lon="-1.303373">
        <ele>6.968723</ele>
        <time>2026-03-27T00:48:12.175Z</time>
      </trkpt>
      <trkpt lat="43.893991" lon="-1.303383">
        <ele>6.983084</ele>
        <time>2026-03-27T00:48:16.186Z</time>
      </trkpt>
      <trkpt lat="43.893969" lon="-1.303382">
        <ele>6.992720</ele>
        <time>2026-03-27T00:48:16.464Z</time>
      </trkpt>
      <trkpt lat="43.893872" lon="-1.303346">
        <ele>7.036680</ele>
        <time>2026-03-27T00:48:18.822Z</time>
      </trkpt>
      <trkpt lat="43.893814" lon="-1.303264">
        <ele>7.072930</ele>
        <time>2026-03-27T00:48:20.773Z</time>
      </trkpt>
      <trkpt lat="43.893738" lon="-1.302909">
        <ele>7.189768</ele>
        <time>2026-03-27T00:48:27.124Z</time>
      </trkpt>
      <trkpt lat="43.893714" lon="-1.302754">
        <ele>7.239786</ele>
        <time>2026-03-27T00:48:29.859Z</time>
      </trkpt>
      <trkpt lat="43.893479" lon="-1.301218">
        <ele>7.692232</ele>
        <time>2026-03-27T00:48:56.462Z</time>
      </trkpt>
      <trkpt lat="43.893491" lon="-1.301077">
        <ele>7.713165</ele>
        <time>2026-03-27T00:48:58.796Z</time>
      </trkpt>
      <trkpt lat="43.893464" lon="-1.300573">
        <ele>7.787677</ele>
        <time>2026-03-27T00:49:07.106Z</time>
      </trkpt>
      <trkpt lat="43.893350" lon="-1.299939">
        <ele>7.884018</ele>
        <time>2026-03-27T00:49:17.766Z</time>
      </trkpt>
      <trkpt lat="43.893224" lon="-1.299724">
        <ele>7.924876</ele>
        <time>2026-03-27T00:49:22.266Z</time>
      </trkpt>
      <trkpt lat="43.892896" lon="-1.299500">
        <ele>7.999669</ele>
        <time>2026-03-27T00:49:30.481Z</time>
      </trkpt>
      <trkpt lat="43.892494" lon="-1.299581">
        <ele>7.988905</ele>
        <time>2026-03-27T00:49:39.644Z</time>
      </trkpt>
      <trkpt lat="43.892357" lon="-1.299557">
        <ele>7.973131</ele>
        <time>2026-03-27T00:49:42.731Z</time>
      </trkpt>
      <trkpt lat="43.892123" lon="-1.299605">
        <ele>7.946111</ele>
        <time>2026-03-27T00:49:48.019Z</time>
      </trkpt>
      <trkpt lat="43.891784" lon="-1.299572">
        <ele>7.907293</ele>
        <time>2026-03-27T00:49:55.520Z</time>
      </trkpt>
      <trkpt lat="43.891663" lon="-1.299314">
        <ele>7.881953</ele>
        <time>2026-03-27T00:50:00.370Z</time>
      </trkpt>
      <trkpt lat="43.891639" lon="-1.298867">
        <ele>7.845054</ele>
        <time>2026-03-27T00:50:07.399Z</time>
      </trkpt>
      <trkpt lat="43.891666" lon="-1.298452">
        <ele>7.822331</ele>
        <time>2026-03-27T00:50:13.903Z</time>
      </trkpt>
      <trkpt lat="43.891606" lon="-1.298308">
        <ele>7.833689</ele>
        <time>2026-03-27T00:50:16.501Z</time>
      </trkpt>
      <trkpt lat="43.891519" lon="-1.298100">
        <ele>7.850111</ele>
        <time>2026-03-27T00:50:20.264Z</time>
      </trkpt>
      <trkpt lat="43.891275" lon="-1.297732">
        <ele>7.884257</ele>
        <time>2026-03-27T00:50:28.114Z</time>
      </trkpt>
      <trkpt lat="43.890816" lon="-1.297241">
        <ele>7.939172</ele>
        <time>2026-03-27T00:50:41.059Z</time>
      </trkpt>
      <trkpt lat="43.890711" lon="-1.297000">
        <ele>7.958403</ele>
        <time>2026-03-27T00:50:45.778Z</time>
      </trkpt>
      <trkpt lat="43.890413" lon="-1.296737">
        <ele>8.022960</ele>
        <time>2026-03-27T00:50:54.256Z</time>
      </trkpt>
      <trkpt lat="43.889712" lon="-1.296615">
        <ele>8.567522</ele>
        <time>2026-03-27T00:51:11.743Z</time>
      </trkpt>
      <trkpt lat="43.889325" lon="-1.296372">
        <ele>8.894940</ele>
        <time>2026-03-27T00:51:22.315Z</time>
      </trkpt>
      <trkpt lat="43.888857" lon="-1.296125">
        <ele>9.280887</ele>
        <time>2026-03-27T00:51:34.506Z</time>
      </trkpt>
      <trkpt lat="43.888277" lon="-1.295577">
        <ele>9.485933</ele>
        <time>2026-03-27T00:51:50.824Z</time>
      </trkpt>
      <trkpt lat="43.887833" lon="-1.295040">
        <ele>9.599506</ele>
        <time>2026-03-27T00:52:03.946Z</time>
      </trkpt>
      <trkpt lat="43.887457" lon="-1.294237">
        <ele>9.735426</ele>
        <time>2026-03-27T00:52:19.480Z</time>
      </trkpt>
      <trkpt lat="43.887376" lon="-1.294065">
        <ele>9.770823</ele>
        <time>2026-03-27T00:52:22.790Z</time>
      </trkpt>
      <trkpt lat="43.887380" lon="-1.294061">
        <ele>9.772002</ele>
        <time>2026-03-27T00:52:22.841Z</time>
      </trkpt>
      <trkpt lat="43.887502" lon="-1.293950">
        <ele>9.806875</ele>
        <time>2026-03-27T00:52:24.342Z</time>
      </trkpt>
      <trkpt lat="43.887623" lon="-1.293838">
        <ele>9.841645</ele>
        <time>2026-03-27T00:52:25.829Z</time>
      </trkpt>
      <trkpt lat="43.887628" lon="-1.293834">
        <ele>9.843024</ele>
        <time>2026-03-27T00:52:25.879Z</time>
      </trkpt>
      <trkpt lat="43.887673" lon="-1.293595">
        <ele>9.885581</ele>
        <time>2026-03-27T00:52:27.988Z</time>
      </trkpt>
      <trkpt lat="43.887679" lon="-1.293189">
        <ele>9.955540</ele>
        <time>2026-03-27T00:52:31.643Z</time>
      </trkpt>
      <trkpt lat="43.887603" lon="-1.292840">
        <ele>10.018350</ele>
        <time>2026-03-27T00:52:35.064Z</time>
      </trkpt>
      <trkpt lat="43.887461" lon="-1.292417">
        <ele>10.098742</ele>
        <time>2026-03-27T00:52:39.520Z</time>
      </trkpt>
      <trkpt lat="43.887401" lon="-1.292241">
        <ele>10.132284</ele>
        <time>2026-03-27T00:52:41.315Z</time>
      </trkpt>
      <trkpt lat="43.887248" lon="-1.291797">
        <ele>10.297045</ele>
        <time>2026-03-27T00:52:45.888Z</time>
      </trkpt>
      <trkpt lat="43.887103" lon="-1.291268">
        <ele>10.511994</ele>
        <time>2026-03-27T00:52:51.236Z</time>
      </trkpt>
      <trkpt lat="43.886949" lon="-1.290451">
        <ele>10.832720</ele>
        <time>2026-03-27T00:52:59.595Z</time>
      </trkpt>
      <trkpt lat="43.886859" lon="-1.289724">
        <ele>11.110173</ele>
        <time>2026-03-27T00:53:06.694Z</time>
      </trkpt>
      <trkpt lat="43.886803" lon="-1.288902">
        <ele>11.364869</ele>
        <time>2026-03-27T00:53:14.668Z</time>
      </trkpt>
      <trkpt lat="43.886722" lon="-1.287969">
        <ele>11.654755</ele>
        <time>2026-03-27T00:53:23.634Z</time>
      </trkpt>
      <trkpt lat="43.886673" lon="-1.287187">
        <ele>11.849747</ele>
        <time>2026-03-27T00:53:30.831Z</time>
      </trkpt>
      <trkpt lat="43.886737" lon="-1.286352">
        <ele>11.681012</ele>
        <time>2026-03-27T00:53:37.968Z</time>
      </trkpt>
      <trkpt lat="43.886925" lon="-1.285151">
        <ele>11.434053</ele>
        <time>2026-03-27T00:53:47.867Z</time>
      </trkpt>
      <trkpt lat="43.887143" lon="-1.284183">
        <ele>11.232842</ele>
        <time>2026-03-27T00:53:55.995Z</time>
      </trkpt>
      <trkpt lat="43.887249" lon="-1.283790">
        <ele>11.150113</ele>
        <time>2026-03-27T00:53:59.409Z</time>
      </trkpt>
      <trkpt lat="43.887378" lon="-1.283315">
        <ele>11.050038</ele>
        <time>2026-03-27T00:54:03.596Z</time>
      </trkpt>
      <trkpt lat="43.888207" lon="-1.280520">
        <ele>10.815301</ele>
        <time>2026-03-27T00:54:29.275Z</time>
      </trkpt>
      <trkpt lat="43.888685" lon="-1.278998">
        <ele>10.850755</ele>
        <time>2026-03-27T00:54:43.714Z</time>
      </trkpt>
      <trkpt lat="43.889013" lon="-1.278182">
        <ele>10.883538</ele>
        <time>2026-03-27T00:54:51.766Z</time>
      </trkpt>
      <trkpt lat="43.890514" lon="-1.275430">
        <ele>12.162330</ele>
        <time>2026-03-27T00:55:23.307Z</time>
      </trkpt>
      <trkpt lat="43.890812" lon="-1.274853">
        <ele>12.908899</ele>
        <time>2026-03-27T00:55:32.138Z</time>
      </trkpt>
      <trkpt lat="43.891108" lon="-1.273905">
        <ele>13.995457</ele>
        <time>2026-03-27T00:55:45.362Z</time>
      </trkpt>
      <trkpt lat="43.891190" lon="-1.273482">
        <ele>14.294621</ele>
        <time>2026-03-27T00:55:50.572Z</time>
      </trkpt>
      <trkpt lat="43.891171" lon="-1.273311">
        <ele>14.402592</ele>
        <time>2026-03-27T00:55:52.488Z</time>
      </trkpt>
      <trkpt lat="43.891121" lon="-1.273128">
        <ele>14.524723</ele>
        <time>2026-03-27T00:55:54.584Z</time>
      </trkpt>
      <trkpt lat="43.890431" lon="-1.271375">
        <ele>15.714478</ele>
        <time>2026-03-27T00:56:13.573Z</time>
      </trkpt>
      <trkpt lat="43.890411" lon="-1.271147">
        <ele>15.805280</ele>
        <time>2026-03-27T00:56:15.757Z</time>
      </trkpt>
      <trkpt lat="43.890422" lon="-1.270790">
        <ele>15.946546</ele>
        <time>2026-03-27T00:56:19.229Z</time>
      </trkpt>
      <trkpt lat="43.890717" lon="-1.268209">
        <ele>17.180855</ele>
        <time>2026-03-27T00:56:44.705Z</time>
      </trkpt>
      <trkpt lat="43.890839" lon="-1.267149">
        <ele>17.831961</ele>
        <time>2026-03-27T00:56:55.689Z</time>
      </trkpt>
      <trkpt lat="43.890932" lon="-1.266633">
        <ele>18.148546</ele>
        <time>2026-03-27T00:57:01.502Z</time>
      </trkpt>
      <trkpt lat="43.891229" lon="-1.265468">
        <ele>18.777656</ele>
        <time>2026-03-27T00:57:14.711Z</time>
      </trkpt>
      <trkpt lat="43.891318" lon="-1.265110">
        <ele>18.970451</ele>
        <time>2026-03-27T00:57:18.504Z</time>
      </trkpt>
      <trkpt lat="43.891383" lon="-1.264688">
        <ele>19.190139</ele>
        <time>2026-03-27T00:57:22.573Z</time>
      </trkpt>
      <trkpt lat="43.891454" lon="-1.263952">
        <ele>19.382049</ele>
        <time>2026-03-27T00:57:28.973Z</time>
      </trkpt>
      <trkpt lat="43.891568" lon="-1.263518">
        <ele>19.374818</ele>
        <time>2026-03-27T00:57:32.778Z</time>
      </trkpt>
      <trkpt lat="43.891486" lon="-1.263450">
        <ele>19.372743</ele>
        <time>2026-03-27T00:57:34.241Z</time>
      </trkpt>
      <trkpt lat="43.891443" lon="-1.263359">
        <ele>19.371039</ele>
        <time>2026-03-27T00:57:35.442Z</time>
      </trkpt>
      <trkpt lat="43.891416" lon="-1.263222">
        <ele>19.368816</ele>
        <time>2026-03-27T00:57:36.998Z</time>
      </trkpt>
      <trkpt lat="43.891331" lon="-1.262114">
        <ele>19.351372</ele>
        <time>2026-03-27T00:57:49.478Z</time>
      </trkpt>
      <trkpt lat="43.891300" lon="-1.261688">
        <ele>19.471089</ele>
        <time>2026-03-27T00:57:54.787Z</time>
      </trkpt>
      <trkpt lat="43.891269" lon="-1.261260">
        <ele>19.684869</ele>
        <time>2026-03-27T00:58:00.398Z</time>
      </trkpt>
      <trkpt lat="43.891233" lon="-1.261181">
        <ele>19.731321</ele>
        <time>2026-03-27T00:58:01.627Z</time>
      </trkpt>
      <trkpt lat="43.891008" lon="-1.261311">
        <ele>19.899400</ele>
        <time>2026-03-27T00:58:04.629Z</time>
      </trkpt>
      <trkpt lat="43.890824" lon="-1.261356">
        <ele>20.028246</ele>
        <time>2026-03-27T00:58:06.911Z</time>
      </trkpt>
      <trkpt lat="43.890675" lon="-1.261353">
        <ele>20.131011</ele>
        <time>2026-03-27T00:58:08.741Z</time>
      </trkpt>
      <trkpt lat="43.890513" lon="-1.261318">
        <ele>20.244076</ele>
        <time>2026-03-27T00:58:10.810Z</time>
      </trkpt>
      <trkpt lat="43.890334" lon="-1.261231">
        <ele>20.374872</ele>
        <time>2026-03-27T00:58:13.251Z</time>
      </trkpt>
      <trkpt lat="43.890091" lon="-1.261047">
        <ele>20.565777</ele>
        <time>2026-03-27T00:58:16.875Z</time>
      </trkpt>
      <trkpt lat="43.889842" lon="-1.260847">
        <ele>20.728296</ele>
        <time>2026-03-27T00:58:20.560Z</time>
      </trkpt>
      <trkpt lat="43.889348" lon="-1.260463">
        <ele>21.038823</ele>
        <time>2026-03-27T00:58:27.249Z</time>
      </trkpt>
      <trkpt lat="43.888659" lon="-1.259928">
        <ele>21.471816</ele>
        <time>2026-03-27T00:58:36.297Z</time>
      </trkpt>
      <trkpt lat="43.888440" lon="-1.259721">
        <ele>21.564938</ele>
        <time>2026-03-27T00:58:39.254Z</time>
      </trkpt>
      <trkpt lat="43.888337" lon="-1.259551">
        <ele>21.543183</ele>
        <time>2026-03-27T00:58:40.991Z</time>
      </trkpt>
      <trkpt lat="43.888161" lon="-1.259119">
        <ele>21.494574</ele>
        <time>2026-03-27T00:58:44.723Z</time>
      </trkpt>
      <trkpt lat="43.887662" lon="-1.257088">
        <ele>20.962169</ele>
        <time>2026-03-27T00:58:59.865Z</time>
      </trkpt>
      <trkpt lat="43.887421" lon="-1.256416">
        <ele>20.378660</ele>
        <time>2026-03-27T00:59:04.823Z</time>
      </trkpt>
      <trkpt lat="43.886345" lon="-1.254160">
        <ele>18.082070</ele>
        <time>2026-03-27T00:59:21.336Z</time>
      </trkpt>
      <trkpt lat="43.885482" lon="-1.252381">
        <ele>16.696832</ele>
        <time>2026-03-27T00:59:35.274Z</time>
      </trkpt>
      <trkpt lat="43.885414" lon="-1.252252">
        <ele>16.635294</ele>
        <time>2026-03-27T00:59:36.410Z</time>
      </trkpt>
      <trkpt lat="43.885097" lon="-1.251644">
        <ele>16.346353</ele>
        <time>2026-03-27T00:59:41.763Z</time>
      </trkpt>
      <trkpt lat="43.884966" lon="-1.251494">
        <ele>16.255612</ele>
        <time>2026-03-27T00:59:43.454Z</time>
      </trkpt>
      <trkpt lat="43.884844" lon="-1.251391">
        <ele>16.179317</ele>
        <time>2026-03-27T00:59:44.886Z</time>
      </trkpt>
      <trkpt lat="43.883829" lon="-1.250530">
        <ele>15.818254</ele>
        <time>2026-03-27T00:59:56.243Z</time>
      </trkpt>
      <trkpt lat="43.883544" lon="-1.250360">
        <ele>15.727191</ele>
        <time>2026-03-27T00:59:59.179Z</time>
      </trkpt>
      <trkpt lat="43.881899" lon="-1.249537">
        <ele>16.424636</ele>
        <time>2026-03-27T01:00:17.762Z</time>
      </trkpt>
      <trkpt lat="43.881189" lon="-1.249174">
        <ele>17.286430</ele>
        <time>2026-03-27T01:00:29.183Z</time>
      </trkpt>
      <trkpt lat="43.881172" lon="-1.249165">
        <ele>17.318620</ele>
        <time>2026-03-27T01:00:29.481Z</time>
      </trkpt>
      <trkpt lat="43.880879" lon="-1.249022">
        <ele>17.868091</ele>
        <time>2026-03-27T01:00:34.630Z</time>
      </trkpt>
      <trkpt lat="43.880844" lon="-1.249006">
        <ele>17.933283</ele>
        <time>2026-03-27T01:00:35.214Z</time>
      </trkpt>
      <trkpt lat="43.880698" lon="-1.248932">
        <ele>18.208262</ele>
        <time>2026-03-27T01:00:37.762Z</time>
      </trkpt>
      <trkpt lat="43.880332" lon="-1.248747">
        <ele>18.897373</ele>
        <time>2026-03-27T01:00:44.039Z</time>
      </trkpt>
      <trkpt lat="43.880307" lon="-1.248737">
        <ele>18.943401</ele>
        <time>2026-03-27T01:00:44.435Z</time>
      </trkpt>
      <trkpt lat="43.880219" lon="-1.248694">
        <ele>19.108452</ele>
        <time>2026-03-27T01:00:45.877Z</time>
      </trkpt>
      <trkpt lat="43.879470" lon="-1.248318">
        <ele>20.102075</ele>
        <time>2026-03-27T01:00:56.983Z</time>
      </trkpt>
      <trkpt lat="43.878969" lon="-1.248067">
        <ele>20.471878</ele>
        <time>2026-03-27T01:01:02.728Z</time>
      </trkpt>
      <trkpt lat="43.878851" lon="-1.247994">
        <ele>20.561576</ele>
        <time>2026-03-27T01:01:04.105Z</time>
      </trkpt>
      <trkpt lat="43.878888" lon="-1.247880">
        <ele>20.624140</ele>
        <time>2026-03-27T01:01:05.107Z</time>
      </trkpt>
      <trkpt lat="43.877789" lon="-1.247292">
        <ele>21.636698</ele>
        <time>2026-03-27T01:01:21.132Z</time>
      </trkpt>
      <trkpt lat="43.875782" lon="-1.246218">
        <ele>24.295530</ele>
        <time>2026-03-27T01:01:54.272Z</time>
      </trkpt>
      <trkpt lat="43.875572" lon="-1.246161">
        <ele>24.612150</ele>
        <time>2026-03-27T01:01:57.773Z</time>
      </trkpt>
      <trkpt lat="43.873470" lon="-1.245646">
        <ele>27.836308</ele>
        <time>2026-03-27T01:02:32.724Z</time>
      </trkpt>
      <trkpt lat="43.872931" lon="-1.245404">
        <ele>28.532631</ele>
        <time>2026-03-27T01:02:41.545Z</time>
      </trkpt>
      <trkpt lat="43.871694" lon="-1.244726">
        <ele>29.372684</ele>
        <time>2026-03-27T01:02:59.972Z</time>
      </trkpt>
      <trkpt lat="43.871370" lon="-1.244620">
        <ele>29.539760</ele>
        <time>2026-03-27T01:03:03.877Z</time>
      </trkpt>
      <trkpt lat="43.870612" lon="-1.244511">
        <ele>29.392603</ele>
        <time>2026-03-27T01:03:12.467Z</time>
      </trkpt>
      <trkpt lat="43.866541" lon="-1.244016">
        <ele>28.832060</ele>
        <time>2026-03-27T01:03:59.774Z</time>
      </trkpt>
      <trkpt lat="43.866346" lon="-1.243991">
        <ele>28.828581</ele>
        <time>2026-03-27T01:04:02.234Z</time>
      </trkpt>
      <trkpt lat="43.865662" lon="-1.244035">
        <ele>29.165394</ele>
        <time>2026-03-27T01:04:11.182Z</time>
      </trkpt>
      <trkpt lat="43.865256" lon="-1.244061">
        <ele>29.525947</ele>
        <time>2026-03-27T01:04:16.956Z</time>
      </trkpt>
      <trkpt lat="43.865221" lon="-1.243894">
        <ele>29.637179</ele>
        <time>2026-03-27T01:04:19.673Z</time>
      </trkpt>
      <trkpt lat="43.865191" lon="-1.243843">
        <ele>29.679277</ele>
        <time>2026-03-27T01:04:20.702Z</time>
      </trkpt>
      <trkpt lat="43.865110" lon="-1.243705">
        <ele>29.793091</ele>
        <time>2026-03-27T01:04:23.514Z</time>
      </trkpt>
      <trkpt lat="43.864920" lon="-1.243555">
        <ele>29.987034</ele>
        <time>2026-03-27T01:04:28.313Z</time>
      </trkpt>
      <trkpt lat="43.862412" lon="-1.242829">
        <ele>33.106443</ele>
        <time>2026-03-27T01:05:25.674Z</time>
      </trkpt>
      <trkpt lat="43.861213" lon="-1.242488">
        <ele>34.961461</ele>
        <time>2026-03-27T01:05:54.241Z</time>
      </trkpt>
      <trkpt lat="43.854854" lon="-1.240677">
        <ele>45.265276</ele>
        <time>2026-03-27T01:08:27.525Z</time>
      </trkpt>
      <trkpt lat="43.850551" lon="-1.239500">
        <ele>49.088993</ele>
        <time>2026-03-27T01:10:00.896Z</time>
      </trkpt>
      <trkpt lat="43.849120" lon="-1.239109">
        <ele>49.124714</ele>
        <time>2026-03-27T01:10:28.038Z</time>
      </trkpt>
      <trkpt lat="43.848931" lon="-1.239061">
        <ele>49.109768</ele>
        <time>2026-03-27T01:10:31.610Z</time>
      </trkpt>
      <trkpt lat="43.845475" lon="-1.238193">
        <ele>49.365118</ele>
        <time>2026-03-27T01:11:39.649Z</time>
      </trkpt>
      <trkpt lat="43.840931" lon="-1.237050">
        <ele>49.469951</ele>
        <time>2026-03-27T01:13:08.036Z</time>
      </trkpt>
      <trkpt lat="43.835681" lon="-1.235756">
        <ele>49.279652</ele>
        <time>2026-03-27T01:14:49.212Z</time>
      </trkpt>
      <trkpt lat="43.834909" lon="-1.235566">
        <ele>49.224832</ele>
        <time>2026-03-27T01:15:04.060Z</time>
      </trkpt>
      <trkpt lat="43.834495" lon="-1.235463">
        <ele>49.195423</ele>
        <time>2026-03-27T01:15:12.010Z</time>
      </trkpt>
      <trkpt lat="43.827863" lon="-1.233807">
        <ele>49.181813</ele>
        <time>2026-03-27T01:17:19.844Z</time>
      </trkpt>
      <trkpt lat="43.827199" lon="-1.233558">
        <ele>49.448572</ele>
        <time>2026-03-27T01:17:34.350Z</time>
      </trkpt>
      <trkpt lat="43.824556" lon="-1.231605">
        <ele>51.691868</ele>
        <time>2026-03-27T01:18:39.141Z</time>
      </trkpt>
      <trkpt lat="43.818409" lon="-1.227062">
        <ele>49.503712</ele>
        <time>2026-03-27T01:20:47.253Z</time>
      </trkpt>
      <trkpt lat="43.815684" lon="-1.225024">
        <ele>48.915186</ele>
        <time>2026-03-27T01:21:45.376Z</time>
      </trkpt>
      <trkpt lat="43.811708" lon="-1.222051">
        <ele>48.291679</ele>
        <time>2026-03-27T01:23:10.465Z</time>
      </trkpt>
      <trkpt lat="43.806157" lon="-1.217933">
        <ele>46.799658</ele>
        <time>2026-03-27T01:25:08.790Z</time>
      </trkpt>
      <trkpt lat="43.805359" lon="-1.217341">
        <ele>45.973054</ele>
        <time>2026-03-27T01:25:24.489Z</time>
      </trkpt>
      <trkpt lat="43.804895" lon="-1.216997">
        <ele>45.262198</ele>
        <time>2026-03-27T01:25:33.252Z</time>
      </trkpt>
      <trkpt lat="43.804507" lon="-1.217095">
        <ele>44.568779</ele>
        <time>2026-03-27T01:25:39.793Z</time>
      </trkpt>
      <trkpt lat="43.804143" lon="-1.217060">
        <ele>43.927260</ele>
        <time>2026-03-27T01:25:45.884Z</time>
      </trkpt>
      <trkpt lat="43.803707" lon="-1.217106">
        <ele>43.158470</ele>
        <time>2026-03-27T01:25:53.121Z</time>
      </trkpt>
      <trkpt lat="43.803250" lon="-1.217199">
        <ele>42.371951</ele>
        <time>2026-03-27T01:26:00.833Z</time>
      </trkpt>
      <trkpt lat="43.802124" lon="-1.217304">
        <ele>40.606017</ele>
        <time>2026-03-27T01:26:19.808Z</time>
      </trkpt>
      <trkpt lat="43.801860" lon="-1.217478">
        <ele>40.148557</ele>
        <time>2026-03-27T01:26:24.732Z</time>
      </trkpt>
      <trkpt lat="43.801592" lon="-1.217542">
        <ele>39.750785</ele>
        <time>2026-03-27T01:26:29.375Z</time>
      </trkpt>
      <trkpt lat="43.801185" lon="-1.217756">
        <ele>39.525316</ele>
        <time>2026-03-27T01:26:36.952Z</time>
      </trkpt>
      <trkpt lat="43.800821" lon="-1.217867">
        <ele>39.332275</ele>
        <time>2026-03-27T01:26:43.664Z</time>
      </trkpt>
      <trkpt lat="43.800247" lon="-1.218093">
        <ele>39.023209</ele>
        <time>2026-03-27T01:26:54.908Z</time>
      </trkpt>
      <trkpt lat="43.800104" lon="-1.218180">
        <ele>38.942318</ele>
        <time>2026-03-27T01:26:57.913Z</time>
      </trkpt>
      <trkpt lat="43.799447" lon="-1.218790">
        <ele>38.567007</ele>
        <time>2026-03-27T01:27:13.090Z</time>
      </trkpt>
      <trkpt lat="43.798307" lon="-1.219591">
        <ele>37.970016</ele>
        <time>2026-03-27T01:27:36.107Z</time>
      </trkpt>
      <trkpt lat="43.797931" lon="-1.219853">
        <ele>37.701577</ele>
        <time>2026-03-27T01:27:43.517Z</time>
      </trkpt>
      <trkpt lat="43.797488" lon="-1.220012">
        <ele>37.409700</ele>
        <time>2026-03-27T01:27:51.688Z</time>
      </trkpt>
      <trkpt lat="43.797289" lon="-1.220163">
        <ele>37.264986</ele>
        <time>2026-03-27T01:27:55.767Z</time>
      </trkpt>
      <trkpt lat="43.796799" lon="-1.220317">
        <ele>36.944518</ele>
        <time>2026-03-27T01:28:04.898Z</time>
      </trkpt>
      <trkpt lat="43.796688" lon="-1.220338">
        <ele>36.873065</ele>
        <time>2026-03-27T01:28:06.974Z</time>
      </trkpt>
      <trkpt lat="43.796387" lon="-1.220303">
        <ele>36.787199</ele>
        <time>2026-03-27T01:28:12.602Z</time>
      </trkpt>
      <trkpt lat="43.796115" lon="-1.220353">
        <ele>36.715889</ele>
        <time>2026-03-27T01:28:17.776Z</time>
      </trkpt>
      <trkpt lat="43.795754" lon="-1.220491">
        <ele>36.618563</ele>
        <time>2026-03-27T01:28:24.861Z</time>
      </trkpt>
      <trkpt lat="43.795090" lon="-1.220541">
        <ele>36.445742</ele>
        <time>2026-03-27T01:28:37.438Z</time>
      </trkpt>
      <trkpt lat="43.794276" lon="-1.220360">
        <ele>35.573884</ele>
        <time>2026-03-27T01:28:52.274Z</time>
      </trkpt>
      <trkpt lat="43.793975" lon="-1.220355">
        <ele>35.177504</ele>
        <time>2026-03-27T01:28:57.410Z</time>
      </trkpt>
      <trkpt lat="43.793844" lon="-1.220408">
        <ele>34.997801</ele>
        <time>2026-03-27T01:28:59.702Z</time>
      </trkpt>
      <trkpt lat="43.793413" lon="-1.220679">
        <ele>34.374548</ele>
        <time>2026-03-27T01:29:07.563Z</time>
      </trkpt>
      <trkpt lat="43.793368" lon="-1.220707">
        <ele>34.309591</ele>
        <time>2026-03-27T01:29:08.364Z</time>
      </trkpt>
      <trkpt lat="43.793039" lon="-1.220833">
        <ele>33.848644</ele>
        <time>2026-03-27T01:29:13.924Z</time>
      </trkpt>
      <trkpt lat="43.791774" lon="-1.219523">
        <ele>31.624000</ele>
        <time>2026-03-27T01:29:28.867Z</time>
      </trkpt>
      <trkpt lat="43.791379" lon="-1.219132">
        <ele>31.408584</ele>
        <time>2026-03-27T01:29:34.070Z</time>
      </trkpt>
      <trkpt lat="43.791124" lon="-1.218933">
        <ele>31.346726</ele>
        <time>2026-03-27T01:29:37.375Z</time>
      </trkpt>
      <trkpt lat="43.789893" lon="-1.218167">
        <ele>30.959437</ele>
        <time>2026-03-27T01:29:52.989Z</time>
      </trkpt>
      <trkpt lat="43.789165" lon="-1.217752">
        <ele>30.450800</ele>
        <time>2026-03-27T01:30:01.194Z</time>
      </trkpt>
      <trkpt lat="43.788333" lon="-1.217373">
        <ele>29.897301</ele>
        <time>2026-03-27T01:30:09.821Z</time>
      </trkpt>
      <trkpt lat="43.787975" lon="-1.217191">
        <ele>29.698509</ele>
        <time>2026-03-27T01:30:13.592Z</time>
      </trkpt>
      <trkpt lat="43.787358" lon="-1.216842">
        <ele>29.351093</ele>
        <time>2026-03-27T01:30:20.898Z</time>
      </trkpt>
      <trkpt lat="43.787010" lon="-1.216760">
        <ele>29.167079</ele>
        <time>2026-03-27T01:30:25.003Z</time>
      </trkpt>
      <trkpt lat="43.786435" lon="-1.216515">
        <ele>28.868961</ele>
        <time>2026-03-27T01:30:32.469Z</time>
      </trkpt>
      <trkpt lat="43.786239" lon="-1.216502">
        <ele>28.776700</ele>
        <time>2026-03-27T01:30:34.955Z</time>
      </trkpt>
      <trkpt lat="43.785584" lon="-1.216458">
        <ele>28.468369</ele>
        <time>2026-03-27T01:30:42.712Z</time>
      </trkpt>
      <trkpt lat="43.784596" lon="-1.216382">
        <ele>27.551622</ele>
        <time>2026-03-27T01:30:52.808Z</time>
      </trkpt>
      <trkpt lat="43.784522" lon="-1.216372">
        <ele>27.419593</ele>
        <time>2026-03-27T01:30:53.545Z</time>
      </trkpt>
      <trkpt lat="43.784306" lon="-1.216344">
        <ele>27.034354</ele>
        <time>2026-03-27T01:30:55.669Z</time>
      </trkpt>
      <trkpt lat="43.784207" lon="-1.216298">
        <ele>26.848927</ele>
        <time>2026-03-27T01:30:56.681Z</time>
      </trkpt>
      <trkpt lat="43.784133" lon="-1.216209">
        <ele>26.674899</ele>
        <time>2026-03-27T01:30:57.630Z</time>
      </trkpt>
      <trkpt lat="43.784102" lon="-1.216116">
        <ele>26.543577</ele>
        <time>2026-03-27T01:30:58.342Z</time>
      </trkpt>
      <trkpt lat="43.784082" lon="-1.215102">
        <ele>25.243136</ele>
        <time>2026-03-27T01:31:05.370Z</time>
      </trkpt>
      <trkpt lat="43.784025" lon="-1.215118">
        <ele>25.139860</ele>
        <time>2026-03-27T01:31:05.843Z</time>
      </trkpt>
      <trkpt lat="43.783947" lon="-1.215085">
        <ele>24.995035</ele>
        <time>2026-03-27T01:31:06.513Z</time>
      </trkpt>
      <trkpt lat="43.783782" lon="-1.215195">
        <ele>24.847069</ele>
        <time>2026-03-27T01:31:08.049Z</time>
      </trkpt>
      <trkpt lat="43.783477" lon="-1.215399">
        <ele>24.598650</ele>
        <time>2026-03-27T01:31:10.929Z</time>
      </trkpt>
      <trkpt lat="43.783450" lon="-1.215472">
        <ele>24.555217</ele>
        <time>2026-03-27T01:31:11.434Z</time>
      </trkpt>
      <trkpt lat="43.783406" lon="-1.215497">
        <ele>24.520335</ele>
        <time>2026-03-27T01:31:11.842Z</time>
      </trkpt>
      <trkpt lat="43.783294" lon="-1.215513">
        <ele>24.437753</ele>
        <time>2026-03-27T01:31:12.789Z</time>
      </trkpt>
      <trkpt lat="43.782019" lon="-1.216398">
        <ele>24.213962</ele>
        <time>2026-03-27T01:31:26.860Z</time>
      </trkpt>
      <trkpt lat="43.781989" lon="-1.216415">
        <ele>24.265140</ele>
        <time>2026-03-27T01:31:27.352Z</time>
      </trkpt>
      <trkpt lat="43.781960" lon="-1.216347">
        <ele>24.355168</ele>
        <time>2026-03-27T01:31:28.206Z</time>
      </trkpt>
      <trkpt lat="43.781729" lon="-1.216501">
        <ele>24.759942</ele>
        <time>2026-03-27T01:31:32.225Z</time>
      </trkpt>
      <trkpt lat="43.781016" lon="-1.216972">
        <ele>26.007178</ele>
        <time>2026-03-27T01:31:45.217Z</time>
      </trkpt>
      <trkpt lat="43.780976" lon="-1.216995">
        <ele>26.075560</ele>
        <time>2026-03-27T01:31:45.973Z</time>
      </trkpt>
      <trkpt lat="43.780905" lon="-1.217031">
        <ele>26.194937</ele>
        <time>2026-03-27T01:31:47.289Z</time>
      </trkpt>
      <trkpt lat="43.780901" lon="-1.217091">
        <ele>26.263625</ele>
        <time>2026-03-27T01:31:48.024Z</time>
      </trkpt>
      <trkpt lat="43.780869" lon="-1.217132">
        <ele>26.332452</ele>
        <time>2026-03-27T01:31:48.760Z</time>
      </trkpt>
      <trkpt lat="43.780826" lon="-1.217135">
        <ele>26.400431</ele>
        <time>2026-03-27T01:31:49.486Z</time>
      </trkpt>
      <trkpt lat="43.780792" lon="-1.217098">
        <ele>26.468701</ele>
        <time>2026-03-27T01:31:50.202Z</time>
      </trkpt>
      <trkpt lat="43.780467" lon="-1.217227">
        <ele>26.950463</ele>
        <time>2026-03-27T01:31:55.679Z</time>
      </trkpt>
      <trkpt lat="43.779480" lon="-1.217453">
        <ele>28.368855</ele>
        <time>2026-03-27T01:32:09.828Z</time>
      </trkpt>
      <trkpt lat="43.778887" lon="-1.217594">
        <ele>29.235824</ele>
        <time>2026-03-27T01:32:18.002Z</time>
      </trkpt>
      <trkpt lat="43.778605" lon="-1.217655">
        <ele>29.671856</ele>
        <time>2026-03-27T01:32:21.993Z</time>
      </trkpt>
      <trkpt lat="43.778425" lon="-1.217699">
        <ele>29.951090</ele>
        <time>2026-03-27T01:32:24.578Z</time>
      </trkpt>
      <trkpt lat="43.778270" lon="-1.217732">
        <ele>30.190664</ele>
        <time>2026-03-27T01:32:26.831Z</time>
      </trkpt>
      <trkpt lat="43.777351" lon="-1.217945">
        <ele>31.614135</ele>
        <time>2026-03-27T01:32:41.164Z</time>
      </trkpt>
      <trkpt lat="43.777228" lon="-1.218041">
        <ele>31.821396</ele>
        <time>2026-03-27T01:32:43.453Z</time>
      </trkpt>
      <trkpt lat="43.777117" lon="-1.217988">
        <ele>31.962464</ele>
        <time>2026-03-27T01:32:45.325Z</time>
      </trkpt>
      <trkpt lat="43.776713" lon="-1.218073">
        <ele>32.453432</ele>
        <time>2026-03-27T01:32:51.869Z</time>
      </trkpt>
      <trkpt lat="43.775755" lon="-1.218286">
        <ele>33.619190</ele>
        <time>2026-03-27T01:33:05.347Z</time>
      </trkpt>
      <trkpt lat="43.774297" lon="-1.218608">
        <ele>33.933472</ele>
        <time>2026-03-27T01:33:19.819Z</time>
      </trkpt>
      <trkpt lat="43.774211" lon="-1.218628">
        <ele>33.932170</ele>
        <time>2026-03-27T01:33:20.671Z</time>
      </trkpt>
      <trkpt lat="43.773755" lon="-1.218713">
        <ele>33.925298</ele>
        <time>2026-03-27T01:33:25.367Z</time>
      </trkpt>
      <trkpt lat="43.773454" lon="-1.218707">
        <ele>34.039629</ele>
        <time>2026-03-27T01:33:28.763Z</time>
      </trkpt>
      <trkpt lat="43.773279" lon="-1.218643">
        <ele>34.123083</ele>
        <time>2026-03-27T01:33:30.930Z</time>
      </trkpt>
      <trkpt lat="43.773029" lon="-1.218455">
        <ele>34.254250</ele>
        <time>2026-03-27T01:33:34.412Z</time>
      </trkpt>
      <trkpt lat="43.772907" lon="-1.218304">
        <ele>34.329693</ele>
        <time>2026-03-27T01:33:36.441Z</time>
      </trkpt>
      <trkpt lat="43.772849" lon="-1.218233">
        <ele>34.365386</ele>
        <time>2026-03-27T01:33:37.397Z</time>
      </trkpt>
      <trkpt lat="43.772583" lon="-1.217730">
        <ele>34.572961</ele>
        <time>2026-03-27T01:33:42.851Z</time>
      </trkpt>
      <trkpt lat="43.772300" lon="-1.217153">
        <ele>34.762195</ele>
        <time>2026-03-27T01:33:48.525Z</time>
      </trkpt>
      <trkpt lat="43.771581" lon="-1.215704">
        <ele>34.857405</ele>
        <time>2026-03-27T01:34:01.404Z</time>
      </trkpt>
      <trkpt lat="43.771388" lon="-1.215884">
        <ele>34.874855</ele>
        <time>2026-03-27T01:34:03.778Z</time>
      </trkpt>
      <trkpt lat="43.770955" lon="-1.216289">
        <ele>35.040037</ele>
        <time>2026-03-27T01:34:09.353Z</time>
      </trkpt>
      <trkpt lat="43.770595" lon="-1.216685">
        <ele>35.246166</ele>
        <time>2026-03-27T01:34:14.574Z</time>
      </trkpt>
      <trkpt lat="43.770430" lon="-1.217026">
        <ele>35.379061</ele>
        <time>2026-03-27T01:34:18.051Z</time>
      </trkpt>
      <trkpt lat="43.770336" lon="-1.217380">
        <ele>35.501175</ele>
        <time>2026-03-27T01:34:21.320Z</time>
      </trkpt>
      <trkpt lat="43.770090" lon="-1.217409">
        <ele>35.611868</ele>
        <time>2026-03-27T01:34:24.734Z</time>
      </trkpt>
      <trkpt lat="43.769940" lon="-1.217426">
        <ele>35.679345</ele>
        <time>2026-03-27T01:34:26.796Z</time>
      </trkpt>
      <trkpt lat="43.769711" lon="-1.217453">
        <ele>35.800366</ele>
        <time>2026-03-27T01:34:29.944Z</time>
      </trkpt>
      <trkpt lat="43.769331" lon="-1.217453">
        <ele>36.005848</ele>
        <time>2026-03-27T01:34:35.120Z</time>
      </trkpt>
      <trkpt lat="43.767593" lon="-1.217386">
        <ele>36.874017</ele>
        <time>2026-03-27T01:34:58.165Z</time>
      </trkpt>
      <trkpt lat="43.767470" lon="-1.217380">
        <ele>36.923349</ele>
        <time>2026-03-27T01:34:59.730Z</time>
      </trkpt>
      <trkpt lat="43.766432" lon="-1.217330">
        <ele>37.339653</ele>
        <time>2026-03-27T01:35:12.878Z</time>
      </trkpt>
      <trkpt lat="43.766295" lon="-1.217325">
        <ele>37.397017</ele>
        <time>2026-03-27T01:35:14.638Z</time>
      </trkpt>
      <trkpt lat="43.763917" lon="-1.217232">
        <ele>38.510890</ele>
        <time>2026-03-27T01:35:46.922Z</time>
      </trkpt>
      <trkpt lat="43.760863" lon="-1.217075">
        <ele>38.673551</ele>
        <time>2026-03-27T01:36:23.003Z</time>
      </trkpt>
      <trkpt lat="43.760672" lon="-1.217065">
        <ele>38.730519</ele>
        <time>2026-03-27T01:36:25.392Z</time>
      </trkpt>
      <trkpt lat="43.760095" lon="-1.217180">
        <ele>38.904267</ele>
        <time>2026-03-27T01:36:32.924Z</time>
      </trkpt>
      <trkpt lat="43.759432" lon="-1.217375">
        <ele>39.106283</ele>
        <time>2026-03-27T01:36:41.693Z</time>
      </trkpt>
      <trkpt lat="43.759256" lon="-1.217494">
        <ele>39.164660</ele>
        <time>2026-03-27T01:36:44.233Z</time>
      </trkpt>
      <trkpt lat="43.758670" lon="-1.217027">
        <ele>39.322984</ele>
        <time>2026-03-27T01:36:51.775Z</time>
      </trkpt>
      <trkpt lat="43.757157" lon="-1.215715">
        <ele>39.532360</ele>
        <time>2026-03-27T01:37:10.869Z</time>
      </trkpt>
      <trkpt lat="43.756515" lon="-1.215237">
        <ele>39.451004</ele>
        <time>2026-03-27T01:37:18.225Z</time>
      </trkpt>
      <trkpt lat="43.756179" lon="-1.215121">
        <ele>39.412355</ele>
        <time>2026-03-27T01:37:21.579Z</time>
      </trkpt>
      <trkpt lat="43.755607" lon="-1.215094">
        <ele>39.393239</ele>
        <time>2026-03-27T01:37:26.982Z</time>
      </trkpt>
      <trkpt lat="43.754690" lon="-1.215050">
        <ele>39.389890</ele>
        <time>2026-03-27T01:37:36.053Z</time>
      </trkpt>
      <trkpt lat="43.754527" lon="-1.215082">
        <ele>39.389289</ele>
        <time>2026-03-27T01:37:37.921Z</time>
      </trkpt>
      <trkpt lat="43.754321" lon="-1.215213">
        <ele>39.388461</ele>
        <time>2026-03-27T01:37:40.651Z</time>
      </trkpt>
      <trkpt lat="43.754238" lon="-1.215231">
        <ele>39.394933</ele>
        <time>2026-03-27T01:37:41.734Z</time>
      </trkpt>
      <trkpt lat="43.754119" lon="-1.215206">
        <ele>39.486618</ele>
        <time>2026-03-27T01:37:43.269Z</time>
      </trkpt>
      <trkpt lat="43.753350" lon="-1.214754">
        <ele>40.123000</ele>
        <time>2026-03-27T01:37:54.147Z</time>
      </trkpt>
      <trkpt lat="43.753267" lon="-1.214841">
        <ele>40.202302</ele>
        <time>2026-03-27T01:37:55.695Z</time>
      </trkpt>
      <trkpt lat="43.752787" lon="-1.215013">
        <ele>40.579984</ele>
        <time>2026-03-27T01:38:02.654Z</time>
      </trkpt>
      <trkpt lat="43.752654" lon="-1.215098">
        <ele>40.691569</ele>
        <time>2026-03-27T01:38:04.638Z</time>
      </trkpt>
      <trkpt lat="43.752185" lon="-1.215399">
        <ele>40.996294</ele>
        <time>2026-03-27T01:38:11.346Z</time>
      </trkpt>
      <trkpt lat="43.751854" lon="-1.215555">
        <ele>41.190121</ele>
        <time>2026-03-27T01:38:15.744Z</time>
      </trkpt>
      <trkpt lat="43.750689" lon="-1.215421">
        <ele>41.887418</ele>
        <time>2026-03-27T01:38:31.624Z</time>
      </trkpt>
      <trkpt lat="43.749899" lon="-1.215375">
        <ele>42.586498</ele>
        <time>2026-03-27T01:38:42.851Z</time>
      </trkpt>
      <trkpt lat="43.749389" lon="-1.215389">
        <ele>43.037492</ele>
        <time>2026-03-27T01:38:50.161Z</time>
      </trkpt>
      <trkpt lat="43.749083" lon="-1.215416">
        <ele>43.308584</ele>
        <time>2026-03-27T01:38:54.615Z</time>
      </trkpt>
      <trkpt lat="43.748682" lon="-1.215368">
        <ele>43.665869</ele>
        <time>2026-03-27T01:39:00.509Z</time>
      </trkpt>
      <trkpt lat="43.747915" lon="-1.215076">
        <ele>44.372318</ele>
        <time>2026-03-27T01:39:12.186Z</time>
      </trkpt>
      <trkpt lat="43.747507" lon="-1.215022">
        <ele>44.736308</ele>
        <time>2026-03-27T01:39:18.102Z</time>
      </trkpt>
      <trkpt lat="43.747297" lon="-1.215102">
        <ele>44.929738</ele>
        <time>2026-03-27T01:39:21.162Z</time>
      </trkpt>
      <trkpt lat="43.746987" lon="-1.215349">
        <ele>44.967765</ele>
        <time>2026-03-27T01:39:25.955Z</time>
      </trkpt>
      <trkpt lat="43.746802" lon="-1.215452">
        <ele>44.982222</ele>
        <time>2026-03-27T01:39:28.495Z</time>
      </trkpt>
      <trkpt lat="43.746705" lon="-1.215774">
        <ele>45.000496</ele>
        <time>2026-03-27T01:39:31.586Z</time>
      </trkpt>
      <trkpt lat="43.746617" lon="-1.216177">
        <ele>45.022547</ele>
        <time>2026-03-27T01:39:35.169Z</time>
      </trkpt>
      <trkpt lat="43.746452" lon="-1.217516">
        <ele>45.147539</ele>
        <time>2026-03-27T01:39:46.311Z</time>
      </trkpt>
      <trkpt lat="43.746448" lon="-1.217680">
        <ele>45.178845</ele>
        <time>2026-03-27T01:39:47.637Z</time>
      </trkpt>
      <trkpt lat="43.746542" lon="-1.218573">
        <ele>45.351008</ele>
        <time>2026-03-27T01:39:55.175Z</time>
      </trkpt>
      <trkpt lat="43.746539" lon="-1.218672">
        <ele>45.369912</ele>
        <time>2026-03-27T01:39:56.083Z</time>
      </trkpt>
      <trkpt lat="43.746480" lon="-1.218886">
        <ele>45.413611</ele>
        <time>2026-03-27T01:39:58.282Z</time>
      </trkpt>
      <trkpt lat="43.746187" lon="-1.219671">
        <ele>45.665673</ele>
        <time>2026-03-27T01:40:07.933Z</time>
      </trkpt>
      <trkpt lat="43.746067" lon="-1.219804">
        <ele>45.806358</ele>
        <time>2026-03-27T01:40:10.316Z</time>
      </trkpt>
      <trkpt lat="43.745795" lon="-1.220022">
        <ele>46.093997</ele>
        <time>2026-03-27T01:40:15.241Z</time>
      </trkpt>
      <trkpt lat="43.745621" lon="-1.220347">
        <ele>46.361438</ele>
        <time>2026-03-27T01:40:19.825Z</time>
      </trkpt>
      <trkpt lat="43.745370" lon="-1.221076">
        <ele>46.895345</ele>
        <time>2026-03-27T01:40:28.580Z</time>
      </trkpt>
      <trkpt lat="43.744983" lon="-1.222797">
        <ele>46.667108</ele>
        <time>2026-03-27T01:40:43.635Z</time>
      </trkpt>
      <trkpt lat="43.744621" lon="-1.224028">
        <ele>46.127624</ele>
        <time>2026-03-27T01:40:53.696Z</time>
      </trkpt>
      <trkpt lat="43.744522" lon="-1.224337">
        <ele>45.959145</ele>
        <time>2026-03-27T01:40:56.202Z</time>
      </trkpt>
      <trkpt lat="43.744282" lon="-1.224713">
        <ele>45.709067</ele>
        <time>2026-03-27T01:40:59.976Z</time>
      </trkpt>
      <trkpt lat="43.743819" lon="-1.224816">
        <ele>45.385533</ele>
        <time>2026-03-27T01:41:04.234Z</time>
      </trkpt>
      <trkpt lat="43.742390" lon="-1.225141">
        <ele>45.123020</ele>
        <time>2026-03-27T01:41:19.013Z</time>
      </trkpt>
      <trkpt lat="43.742038" lon="-1.225209">
        <ele>45.181515</ele>
        <time>2026-03-27T01:41:23.179Z</time>
      </trkpt>
      <trkpt lat="43.741765" lon="-1.225211">
        <ele>45.226446</ele>
        <time>2026-03-27T01:41:26.305Z</time>
      </trkpt>
      <trkpt lat="43.741497" lon="-1.225120">
        <ele>45.271862</ele>
        <time>2026-03-27T01:41:29.381Z</time>
      </trkpt>
      <trkpt lat="43.741229" lon="-1.224926">
        <ele>45.297175</ele>
        <time>2026-03-27T01:41:32.666Z</time>
      </trkpt>
      <trkpt lat="43.740655" lon="-1.224340">
        <ele>45.349986</ele>
        <time>2026-03-27T01:41:40.194Z</time>
      </trkpt>
      <trkpt lat="43.740455" lon="-1.224235">
        <ele>45.365824</ele>
        <time>2026-03-27T01:41:42.370Z</time>
      </trkpt>
      <trkpt lat="43.740224" lon="-1.224186">
        <ele>45.383128</ele>
        <time>2026-03-27T01:41:44.725Z</time>
      </trkpt>
      <trkpt lat="43.739609" lon="-1.224304">
        <ele>45.365744</ele>
        <time>2026-03-27T01:41:51.133Z</time>
      </trkpt>
      <trkpt lat="43.739775" lon="-1.225801">
        <ele>45.173042</ele>
        <time>2026-03-27T01:42:04.222Z</time>
      </trkpt>
      <trkpt lat="43.739852" lon="-1.226484">
        <ele>45.071153</ele>
        <time>2026-03-27T01:42:09.710Z</time>
      </trkpt>
      <trkpt lat="43.739983" lon="-1.227604">
        <ele>44.690211</ele>
        <time>2026-03-27T01:42:18.654Z</time>
      </trkpt>
      <trkpt lat="43.740777" lon="-1.227439">
        <ele>44.317086</ele>
        <time>2026-03-27T01:42:26.186Z</time>
      </trkpt>
      <trkpt lat="43.740844" lon="-1.227883">
        <ele>44.262753</ele>
        <time>2026-03-27T01:42:30.179Z</time>
      </trkpt>
      <trkpt lat="43.740871" lon="-1.228457">
        <ele>44.273209</ele>
        <time>2026-03-27T01:42:35.469Z</time>
      </trkpt>
      <trkpt lat="43.740846" lon="-1.229154">
        <ele>44.285894</ele>
        <time>2026-03-27T01:42:41.602Z</time>
      </trkpt>
      <trkpt lat="43.740908" lon="-1.229621">
        <ele>44.294525</ele>
        <time>2026-03-27T01:42:45.837Z</time>
      </trkpt>
      <trkpt lat="43.740949" lon="-1.229800">
        <ele>44.297938</ele>
        <time>2026-03-27T01:42:47.490Z</time>
      </trkpt>
      <trkpt lat="43.741488" lon="-1.232158">
        <ele>44.036574</ele>
        <time>2026-03-27T01:43:08.080Z</time>
      </trkpt>
      <trkpt lat="43.741503" lon="-1.232432">
        <ele>44.003241</ele>
        <time>2026-03-27T01:43:10.365Z</time>
      </trkpt>
      <trkpt lat="43.741486" lon="-1.232716">
        <ele>44.046686</ele>
        <time>2026-03-27T01:43:12.753Z</time>
      </trkpt>
      <trkpt lat="43.741314" lon="-1.234774">
        <ele>44.402355</ele>
        <time>2026-03-27T01:43:31.542Z</time>
      </trkpt>
      <trkpt lat="43.741303" lon="-1.234846">
        <ele>44.414989</ele>
        <time>2026-03-27T01:43:32.282Z</time>
      </trkpt>
      <trkpt lat="43.741042" lon="-1.235777">
        <ele>44.713091</ele>
        <time>2026-03-27T01:43:42.436Z</time>
      </trkpt>
      <trkpt lat="43.740870" lon="-1.236581">
        <ele>44.972403</ele>
        <time>2026-03-27T01:43:50.840Z</time>
      </trkpt>
      <trkpt lat="43.740862" lon="-1.236659">
        <ele>44.996767</ele>
        <time>2026-03-27T01:43:51.586Z</time>
      </trkpt>
      <trkpt lat="43.740729" lon="-1.237913">
        <ele>45.073622</ele>
        <time>2026-03-27T01:44:02.339Z</time>
      </trkpt>
      <trkpt lat="43.740510" lon="-1.237963">
        <ele>45.011427</ele>
        <time>2026-03-27T01:44:07.059Z</time>
      </trkpt>
      <trkpt lat="43.740284" lon="-1.238017">
        <ele>44.947163</ele>
        <time>2026-03-27T01:44:11.952Z</time>
      </trkpt>
      <trkpt lat="43.739084" lon="-1.238274">
        <ele>44.731594</ele>
        <time>2026-03-27T01:44:38.062Z</time>
      </trkpt>
      <trkpt lat="43.736918" lon="-1.238641">
        <ele>45.122660</ele>
        <time>2026-03-27T01:45:28.394Z</time>
      </trkpt>
      <trkpt lat="43.735115" lon="-1.238966">
        <ele>45.405035</ele>
        <time>2026-03-27T01:46:10.354Z</time>
      </trkpt>
      <trkpt lat="43.734805" lon="-1.239049">
        <ele>45.380339</ele>
        <time>2026-03-27T01:46:17.359Z</time>
      </trkpt>
      <trkpt lat="43.734728" lon="-1.239100">
        <ele>45.373663</ele>
        <time>2026-03-27T01:46:19.231Z</time>
      </trkpt>
      <trkpt lat="43.733394" lon="-1.240441">
        <ele>44.954380</ele>
        <time>2026-03-27T01:46:54.488Z</time>
      </trkpt>
      <trkpt lat="43.732956" lon="-1.240919">
        <ele>44.743141</ele>
        <time>2026-03-27T01:47:06.517Z</time>
      </trkpt>
      <trkpt lat="43.732859" lon="-1.241015">
        <ele>44.697980</ele>
        <time>2026-03-27T01:47:09.126Z</time>
      </trkpt>
      <trkpt lat="43.731401" lon="-1.242452">
        <ele>44.740595</ele>
        <time>2026-03-27T01:47:48.998Z</time>
      </trkpt>
      <trkpt lat="43.730549" lon="-1.243284">
        <ele>45.309743</ele>
        <time>2026-03-27T01:48:13.510Z</time>
      </trkpt>
      <trkpt lat="43.729987" lon="-1.243885">
        <ele>45.761569</ele>
        <time>2026-03-27T01:48:30.974Z</time>
      </trkpt>
      <trkpt lat="43.729506" lon="-1.244341">
        <ele>46.195349</ele>
        <time>2026-03-27T01:48:45.442Z</time>
      </trkpt>
      <trkpt lat="43.729202" lon="-1.244650">
        <ele>46.498832</ele>
        <time>2026-03-27T01:48:54.690Z</time>
      </trkpt>
      <trkpt lat="43.727607" lon="-1.246267">
        <ele>48.134065</ele>
        <time>2026-03-27T01:49:42.417Z</time>
      </trkpt>
      <trkpt lat="43.727510" lon="-1.246401">
        <ele>48.250891</ele>
        <time>2026-03-27T01:49:45.860Z</time>
      </trkpt>
      <trkpt lat="43.727390" lon="-1.246673">
        <ele>48.447185</ele>
        <time>2026-03-27T01:49:51.644Z</time>
      </trkpt>
      <trkpt lat="43.727086" lon="-1.246341">
        <ele>48.777279</ele>
        <time>2026-03-27T01:50:01.451Z</time>
      </trkpt>
      <trkpt lat="43.727015" lon="-1.246251">
        <ele>48.859349</ele>
        <time>2026-03-27T01:50:03.869Z</time>
      </trkpt>
      <trkpt lat="43.726086" lon="-1.245069">
        <ele>49.830847</ele>
        <time>2026-03-27T01:50:35.258Z</time>
      </trkpt>
      <trkpt lat="43.725609" lon="-1.244463">
        <ele>50.283623</ele>
        <time>2026-03-27T01:50:50.371Z</time>
      </trkpt>
      <trkpt lat="43.725450" lon="-1.244200">
        <ele>50.353418</ele>
        <time>2026-03-27T01:50:56.002Z</time>
      </trkpt>
      <trkpt lat="43.725070" lon="-1.243782">
        <ele>50.490145</ele>
        <time>2026-03-27T01:51:06.844Z</time>
      </trkpt>
      <trkpt lat="43.724713" lon="-1.243310">
        <ele>50.629217</ele>
        <time>2026-03-27T01:51:18.022Z</time>
      </trkpt>
      <trkpt lat="43.724469" lon="-1.243106">
        <ele>50.709512</ele>
        <time>2026-03-27T01:51:24.607Z</time>
      </trkpt>
      <trkpt lat="43.724300" lon="-1.242803">
        <ele>50.840316</ele>
        <time>2026-03-27T01:51:31.121Z</time>
      </trkpt>
      <trkpt lat="43.724109" lon="-1.242559">
        <ele>51.080707</ele>
        <time>2026-03-27T01:51:37.388Z</time>
      </trkpt>
      <trkpt lat="43.723890" lon="-1.242946">
        <ele>51.409197</ele>
        <time>2026-03-27T01:51:46.141Z</time>
      </trkpt>
      <trkpt lat="43.722563" lon="-1.245292">
        <ele>53.195805</ele>
        <time>2026-03-27T01:52:40.399Z</time>
      </trkpt>
      <trkpt lat="43.721644" lon="-1.246952">
        <ele>53.807852</ele>
        <time>2026-03-27T01:53:14.839Z</time>
      </trkpt>
      <trkpt lat="43.720492" lon="-1.248853">
        <ele>53.727612</ele>
        <time>2026-03-27T01:53:54.643Z</time>
      </trkpt>
      <trkpt lat="43.718747" lon="-1.251917">
        <ele>52.943094</ele>
        <time>2026-03-27T01:54:55.591Z</time>
      </trkpt>
      <trkpt lat="43.716814" lon="-1.255254">
        <ele>53.527737</ele>
        <time>2026-03-27T01:56:06.194Z</time>
      </trkpt>
      <trkpt lat="43.714986" lon="-1.258010">
        <ele>54.103749</ele>
        <time>2026-03-27T01:56:40.507Z</time>
      </trkpt>
      <trkpt lat="43.712296" lon="-1.262066">
        <ele>53.141389</ele>
        <time>2026-03-27T01:57:26.196Z</time>
      </trkpt>
      <trkpt lat="43.711562" lon="-1.263172">
        <ele>52.644409</ele>
        <time>2026-03-27T01:57:38.118Z</time>
      </trkpt>
      <trkpt lat="43.709127" lon="-1.268794">
        <ele>50.049192</ele>
        <time>2026-03-27T01:58:31.042Z</time>
      </trkpt>
      <trkpt lat="43.709052" lon="-1.268967">
        <ele>49.938403</ele>
        <time>2026-03-27T01:58:32.526Z</time>
      </trkpt>
      <trkpt lat="43.707912" lon="-1.269611">
        <ele>49.182079</ele>
        <time>2026-03-27T01:58:45.145Z</time>
      </trkpt>
      <trkpt lat="43.705473" lon="-1.270989">
        <ele>48.532551</ele>
        <time>2026-03-27T01:59:16.833Z</time>
      </trkpt>
      <trkpt lat="43.705073" lon="-1.271236">
        <ele>48.373483</ele>
        <time>2026-03-27T01:59:21.747Z</time>
      </trkpt>
      <trkpt lat="43.704743" lon="-1.271694">
        <ele>48.090951</ele>
        <time>2026-03-27T01:59:26.853Z</time>
      </trkpt>
      <trkpt lat="43.703057" lon="-1.275789">
        <ele>45.872772</ele>
        <time>2026-03-27T02:00:03.861Z</time>
      </trkpt>
      <trkpt lat="43.701823" lon="-1.278785">
        <ele>44.346123</ele>
        <time>2026-03-27T02:00:31.535Z</time>
      </trkpt>
      <trkpt lat="43.700937" lon="-1.280937">
        <ele>42.435623</ele>
        <time>2026-03-27T02:00:50.554Z</time>
      </trkpt>
      <trkpt lat="43.700919" lon="-1.280980">
        <ele>42.389973</ele>
        <time>2026-03-27T02:00:50.916Z</time>
      </trkpt>
      <trkpt lat="43.700795" lon="-1.281280">
        <ele>42.072488</ele>
        <time>2026-03-27T02:00:53.401Z</time>
      </trkpt>
      <trkpt lat="43.700786" lon="-1.281302">
        <ele>42.049265</ele>
        <time>2026-03-27T02:00:53.553Z</time>
      </trkpt>
      <trkpt lat="43.700724" lon="-1.281454">
        <ele>41.888925</ele>
        <time>2026-03-27T02:00:54.606Z</time>
      </trkpt>
      <trkpt lat="43.699370" lon="-1.284752">
        <ele>36.839773</ele>
        <time>2026-03-27T02:01:16.681Z</time>
      </trkpt>
      <trkpt lat="43.699314" lon="-1.284887">
        <ele>36.689296</ele>
        <time>2026-03-27T02:01:17.673Z</time>
      </trkpt>
      <trkpt lat="43.698764" lon="-1.286226">
        <ele>35.380691</ele>
        <time>2026-03-27T02:01:27.941Z</time>
      </trkpt>
      <trkpt lat="43.698276" lon="-1.287411">
        <ele>34.922766</ele>
        <time>2026-03-27T02:01:37.382Z</time>
      </trkpt>
      <trkpt lat="43.698265" lon="-1.287439">
        <ele>34.912065</ele>
        <time>2026-03-27T02:01:37.602Z</time>
      </trkpt>
      <trkpt lat="43.697797" lon="-1.288539">
        <ele>34.567267</ele>
        <time>2026-03-27T02:01:46.582Z</time>
      </trkpt>
      <trkpt lat="43.697557" lon="-1.289102">
        <ele>34.464328</ele>
        <time>2026-03-27T02:01:51.367Z</time>
      </trkpt>
      <trkpt lat="43.696977" lon="-1.290458">
        <ele>34.308053</ele>
        <time>2026-03-27T02:02:02.608Z</time>
      </trkpt>
      <trkpt lat="43.696795" lon="-1.290883">
        <ele>34.445101</ele>
        <time>2026-03-27T02:02:06.106Z</time>
      </trkpt>
      <trkpt lat="43.696790" lon="-1.290300">
        <ele>34.606867</ele>
        <time>2026-03-27T02:02:15.489Z</time>
      </trkpt>
      <trkpt lat="43.696849" lon="-1.289682">
        <ele>34.779820</ele>
        <time>2026-03-27T02:02:26.119Z</time>
      </trkpt>
      <trkpt lat="43.696849" lon="-1.289477">
        <ele>34.836697</ele>
        <time>2026-03-27T02:02:29.799Z</time>
      </trkpt>
      <trkpt lat="43.696849" lon="-1.288652">
        <ele>35.202133</ele>
        <time>2026-03-27T02:02:45.246Z</time>
      </trkpt>
      <trkpt lat="43.696849" lon="-1.287861">
        <ele>35.659564</ele>
        <time>2026-03-27T02:03:00.181Z</time>
      </trkpt>
      <trkpt lat="43.696919" lon="-1.287194">
        <ele>36.049328</ele>
        <time>2026-03-27T02:03:12.138Z</time>
      </trkpt>
      <trkpt lat="43.696955" lon="-1.286348">
        <ele>36.450292</ele>
        <time>2026-03-27T02:03:25.740Z</time>
      </trkpt>
      <trkpt lat="43.697025" lon="-1.285893">
        <ele>36.570489</ele>
        <time>2026-03-27T02:03:32.918Z</time>
      </trkpt>
      <trkpt lat="43.697213" lon="-1.285357">
        <ele>36.724418</ele>
        <time>2026-03-27T02:03:42.300Z</time>
      </trkpt>
      <trkpt lat="43.697237" lon="-1.284771">
        <ele>36.876073</ele>
        <time>2026-03-27T02:03:52.045Z</time>
      </trkpt>
      <trkpt lat="43.697132" lon="-1.283426">
        <ele>37.875559</ele>
        <time>2026-03-27T02:04:17.629Z</time>
      </trkpt>
      <trkpt lat="43.697029" lon="-1.282108">
        <ele>39.306648</ele>
        <time>2026-03-27T02:04:43.938Z</time>
      </trkpt>
      <trkpt lat="43.696872" lon="-1.281226">
        <ele>39.769504</ele>
        <time>2026-03-27T02:05:00.350Z</time>
      </trkpt>
      <trkpt lat="43.696767" lon="-1.280380">
        <ele>39.869811</ele>
        <time>2026-03-27T02:05:14.095Z</time>
      </trkpt>
      <trkpt lat="43.696622" lon="-1.279979">
        <ele>39.922204</ele>
        <time>2026-03-27T02:05:21.046Z</time>
      </trkpt>
      <trkpt lat="43.696543" lon="-1.279762">
        <ele>39.950595</ele>
        <time>2026-03-27T02:05:24.808Z</time>
      </trkpt>
      <trkpt lat="43.696468" lon="-1.278842">
        <ele>40.143684</ele>
        <time>2026-03-27T02:05:39.495Z</time>
      </trkpt>
      <trkpt lat="43.696476" lon="-1.278494">
        <ele>40.240614</ele>
        <time>2026-03-27T02:05:45.074Z</time>
      </trkpt>
      <trkpt lat="43.696552" lon="-1.278278">
        <ele>40.307489</ele>
        <time>2026-03-27T02:05:49.005Z</time>
      </trkpt>
      <trkpt lat="43.696582" lon="-1.278193">
        <ele>40.333822</ele>
        <time>2026-03-27T02:05:50.607Z</time>
      </trkpt>
      <trkpt lat="43.696647" lon="-1.278044">
        <ele>40.382268</ele>
        <time>2026-03-27T02:05:53.570Z</time>
      </trkpt>
      <trkpt lat="43.696675" lon="-1.277994">
        <ele>40.399874</ele>
        <time>2026-03-27T02:05:54.630Z</time>
      </trkpt>
      <trkpt lat="43.696406" lon="-1.277301">
        <ele>40.618846</ele>
        <time>2026-03-27T02:06:08.686Z</time>
      </trkpt>
      <trkpt lat="43.696230" lon="-1.276847">
        <ele>40.774118</ele>
        <time>2026-03-27T02:06:18.035Z</time>
      </trkpt>
      <trkpt lat="43.696229" lon="-1.276779">
        <ele>40.796158</ele>
        <time>2026-03-27T02:06:19.254Z</time>
      </trkpt>
      <trkpt lat="43.696168" lon="-1.276829">
        <ele>40.827937</ele>
        <time>2026-03-27T02:06:20.959Z</time>
      </trkpt>
      <trkpt lat="43.696112" lon="-1.276822">
        <ele>40.853138</ele>
        <time>2026-03-27T02:06:22.328Z</time>
      </trkpt>
      <trkpt lat="43.695976" lon="-1.276761">
        <ele>40.917215</ele>
        <time>2026-03-27T02:06:25.749Z</time>
      </trkpt>
      <trkpt lat="43.695930" lon="-1.276701">
        <ele>40.945553</ele>
        <time>2026-03-27T02:06:27.259Z</time>
      </trkpt>
      <trkpt lat="43.695887" lon="-1.276705">
        <ele>40.964869</ele>
        <time>2026-03-27T02:06:28.298Z</time>
      </trkpt>
      <trkpt lat="43.695861" lon="-1.276779">
        <ele>40.991529</ele>
        <time>2026-03-27T02:06:29.715Z</time>
      </trkpt>
      <trkpt lat="43.695810" lon="-1.276825">
        <ele>41.018818</ele>
        <time>2026-03-27T02:06:31.150Z</time>
      </trkpt>
      <trkpt lat="43.695759" lon="-1.276825">
        <ele>41.041675</ele>
        <time>2026-03-27T02:06:32.366Z</time>
      </trkpt>
      <trkpt lat="43.695705" lon="-1.276648">
        <ele>41.103928</ele>
        <time>2026-03-27T02:06:35.629Z</time>
      </trkpt>
      <trkpt lat="43.695682" lon="-1.276641">
        <ele>41.114483</ele>
        <time>2026-03-27T02:06:36.178Z</time>
      </trkpt>
      <trkpt lat="43.695577" lon="-1.276751">
        <ele>41.173517</ele>
        <time>2026-03-27T02:06:39.252Z</time>
      </trkpt>
      <trkpt lat="43.695485" lon="-1.276744">
        <ele>41.214813</ele>
        <time>2026-03-27T02:06:41.397Z</time>
      </trkpt>
      <trkpt lat="43.695395" lon="-1.276680">
        <ele>41.260168</ele>
        <time>2026-03-27T02:06:43.730Z</time>
      </trkpt>
      <trkpt lat="43.695319" lon="-1.276577">
        <ele>41.307857</ele>
        <time>2026-03-27T02:06:46.189Z</time>
      </trkpt>
      <trkpt lat="43.695218" lon="-1.276399">
        <ele>41.381178</ele>
        <time>2026-03-27T02:06:49.932Z</time>
      </trkpt>
      <trkpt lat="43.695100" lon="-1.276075">
        <ele>41.492539</ele>
        <time>2026-03-27T02:06:55.835Z</time>
      </trkpt>
      <trkpt lat="43.695054" lon="-1.275879">
        <ele>41.405370</ele>
        <time>2026-03-27T02:06:59.131Z</time>
      </trkpt>
      <trkpt lat="43.694948" lon="-1.275579">
        <ele>41.264124</ele>
        <time>2026-03-27T02:07:04.358Z</time>
      </trkpt>
      <trkpt lat="43.694909" lon="-1.275540">
        <ele>41.235967</ele>
        <time>2026-03-27T02:07:05.386Z</time>
      </trkpt>
      <trkpt lat="43.694801" lon="-1.275202">
        <ele>41.079648</ele>
        <time>2026-03-27T02:07:11.121Z</time>
      </trkpt>
      <trkpt lat="43.694750" lon="-1.275043">
        <ele>41.006068</ele>
        <time>2026-03-27T02:07:13.793Z</time>
      </trkpt>
      <trkpt lat="43.694626" lon="-1.274877">
        <ele>40.905102</ele>
        <time>2026-03-27T02:07:17.434Z</time>
      </trkpt>
      <trkpt lat="43.694479" lon="-1.274825">
        <ele>40.816330</ele>
        <time>2026-03-27T02:07:20.607Z</time>
      </trkpt>
      <trkpt lat="43.694136" lon="-1.274790">
        <ele>40.615110</ele>
        <time>2026-03-27T02:07:27.748Z</time>
      </trkpt>
      <trkpt lat="43.693949" lon="-1.274905">
        <ele>40.495376</ele>
        <time>2026-03-27T02:07:31.969Z</time>
      </trkpt>
      <trkpt lat="43.693834" lon="-1.274933">
        <ele>40.436960</ele>
        <time>2026-03-27T02:07:34.354Z</time>
      </trkpt>
      <trkpt lat="43.693740" lon="-1.274942">
        <ele>40.414559</ele>
        <time>2026-03-27T02:07:36.293Z</time>
      </trkpt>
      <trkpt lat="43.693614" lon="-1.274903">
        <ele>40.383864</ele>
        <time>2026-03-27T02:07:38.949Z</time>
      </trkpt>
      <trkpt lat="43.693540" lon="-1.274920">
        <ele>40.366030</ele>
        <time>2026-03-27T02:07:40.515Z</time>
      </trkpt>
      <trkpt lat="43.693266" lon="-1.274981">
        <ele>40.300052</ele>
        <time>2026-03-27T02:07:46.357Z</time>
      </trkpt>
      <trkpt lat="43.693187" lon="-1.275038">
        <ele>40.278869</ele>
        <time>2026-03-27T02:07:48.256Z</time>
      </trkpt>
      <trkpt lat="43.692964" lon="-1.275066">
        <ele>40.225636</ele>
        <time>2026-03-27T02:07:53.012Z</time>
      </trkpt>
      <trkpt lat="43.692890" lon="-1.275116">
        <ele>40.206056</ele>
        <time>2026-03-27T02:07:54.795Z</time>
      </trkpt>
      <trkpt lat="43.692783" lon="-1.275303">
        <ele>40.165064</ele>
        <time>2026-03-27T02:07:58.566Z</time>
      </trkpt>
      <trkpt lat="43.692729" lon="-1.275328">
        <ele>40.151526</ele>
        <time>2026-03-27T02:07:59.802Z</time>
      </trkpt>
      <trkpt lat="43.692547" lon="-1.275232">
        <ele>40.105218</ele>
        <time>2026-03-27T02:08:04.197Z</time>
      </trkpt>
      <trkpt lat="43.692406" lon="-1.275261">
        <ele>40.071328</ele>
        <time>2026-03-27T02:08:07.497Z</time>
      </trkpt>
      <trkpt lat="43.692142" lon="-1.275763">
        <ele>40.320775</ele>
        <time>2026-03-27T02:08:18.408Z</time>
      </trkpt>
      <trkpt lat="43.692043" lon="-1.275867">
        <ele>40.495576</ele>
        <time>2026-03-27T02:08:21.566Z</time>
      </trkpt>
      <trkpt lat="43.691906" lon="-1.276013">
        <ele>40.738757</ele>
        <time>2026-03-27T02:08:26.109Z</time>
      </trkpt>
      <trkpt lat="43.691504" lon="-1.275775">
        <ele>41.353596</ele>
        <time>2026-03-27T02:08:37.720Z</time>
      </trkpt>
      <trkpt lat="43.691388" lon="-1.275423">
        <ele>41.746876</ele>
        <time>2026-03-27T02:08:45.188Z</time>
      </trkpt>
      <trkpt lat="43.691287" lon="-1.275219">
        <ele>41.998235</ele>
        <time>2026-03-27T02:08:50.048Z</time>
      </trkpt>
      <trkpt lat="43.691248" lon="-1.274932">
        <ele>42.295126</ele>
        <time>2026-03-27T02:08:55.868Z</time>
      </trkpt>
      <trkpt lat="43.690537" lon="-1.273690">
        <ele>44.167379</ele>
        <time>2026-03-27T02:09:26.083Z</time>
      </trkpt>
      <trkpt lat="43.690469" lon="-1.273491">
        <ele>44.434197</ele>
        <time>2026-03-27T02:09:30.191Z</time>
      </trkpt>
      <trkpt lat="43.690374" lon="-1.273294">
        <ele>44.721248</ele>
        <time>2026-03-27T02:09:34.648Z</time>
      </trkpt>
      <trkpt lat="43.690153" lon="-1.272832">
        <ele>45.392772</ele>
        <time>2026-03-27T02:09:45.188Z</time>
      </trkpt>
      <trkpt lat="43.689308" lon="-1.273695">
        <ele>47.472633</ele>
        <time>2026-03-27T02:10:04.952Z</time>
      </trkpt>
      <trkpt lat="43.688734" lon="-1.274269">
        <ele>48.897771</ele>
        <time>2026-03-27T02:10:18.088Z</time>
      </trkpt>
      <trkpt lat="43.688661" lon="-1.274332">
        <ele>49.070894</ele>
        <time>2026-03-27T02:10:20.151Z</time>
      </trkpt>
      <trkpt lat="43.687458" lon="-1.275501">
        <ele>48.699915</ele>
        <time>2026-03-27T02:10:47.486Z</time>
      </trkpt>
      <trkpt lat="43.683572" lon="-1.279279">
        <ele>42.054653</ele>
        <time>2026-03-27T02:12:07.322Z</time>
      </trkpt>
      <trkpt lat="43.682643" lon="-1.280182">
        <ele>41.241155</ele>
        <time>2026-03-27T02:12:27.595Z</time>
      </trkpt>
      <trkpt lat="43.683247" lon="-1.282553">
        <ele>43.713612</ele>
        <time>2026-03-27T02:13:09.974Z</time>
      </trkpt>
      <trkpt lat="43.683929" lon="-1.285229">
        <ele>47.024258</ele>
        <time>2026-03-27T02:14:02.644Z</time>
      </trkpt>
      <trkpt lat="43.683965" lon="-1.285448">
        <ele>46.882767</ele>
        <time>2026-03-27T02:14:04.561Z</time>
      </trkpt>
      <trkpt lat="43.683985" lon="-1.285697">
        <ele>46.724931</ele>
        <time>2026-03-27T02:14:06.262Z</time>
      </trkpt>
      <trkpt lat="43.684294" lon="-1.289601">
        <ele>41.777560</ele>
        <time>2026-03-27T02:14:28.721Z</time>
      </trkpt>
      <trkpt lat="43.684436" lon="-1.290428">
        <ele>41.049760</ele>
        <time>2026-03-27T02:14:34.013Z</time>
      </trkpt>
      <trkpt lat="43.684406" lon="-1.291157">
        <ele>40.457653</ele>
        <time>2026-03-27T02:14:38.767Z</time>
      </trkpt>
      <trkpt lat="43.684445" lon="-1.291751">
        <ele>39.973994</ele>
        <time>2026-03-27T02:14:42.747Z</time>
      </trkpt>
      <trkpt lat="43.684473" lon="-1.292166">
        <ele>39.659184</ele>
        <time>2026-03-27T02:14:45.542Z</time>
      </trkpt>
      <trkpt lat="43.684452" lon="-1.292445">
        <ele>39.540254</ele>
        <time>2026-03-27T02:14:47.417Z</time>
      </trkpt>
      <trkpt lat="43.684365" lon="-1.292968">
        <ele>39.312720</ele>
        <time>2026-03-27T02:14:50.968Z</time>
      </trkpt>
      <trkpt lat="43.684314" lon="-1.293430">
        <ele>39.114571</ele>
        <time>2026-03-27T02:14:54.111Z</time>
      </trkpt>
      <trkpt lat="43.684304" lon="-1.293517">
        <ele>39.077222</ele>
        <time>2026-03-27T02:14:54.709Z</time>
      </trkpt>
      <trkpt lat="43.684385" lon="-1.294094">
        <ele>38.828017</ele>
        <time>2026-03-27T02:14:58.755Z</time>
      </trkpt>
      <trkpt lat="43.684534" lon="-1.295162">
        <ele>38.462759</ele>
        <time>2026-03-27T02:15:06.387Z</time>
      </trkpt>
      <trkpt lat="43.684831" lon="-1.297283">
        <ele>37.844682</ele>
        <time>2026-03-27T02:15:21.508Z</time>
      </trkpt>
      <trkpt lat="43.684900" lon="-1.297539">
        <ele>37.737709</ele>
        <time>2026-03-27T02:15:25.749Z</time>
      </trkpt>
      <trkpt lat="43.685132" lon="-1.298413">
        <ele>37.373169</ele>
        <time>2026-03-27T02:15:40.147Z</time>
      </trkpt>
      <trkpt lat="43.685156" lon="-1.298519">
        <ele>37.329678</ele>
        <time>2026-03-27T02:15:41.857Z</time>
      </trkpt>
      <trkpt lat="43.685368" lon="-1.299454">
        <ele>36.955774</ele>
        <time>2026-03-27T02:15:56.855Z</time>
      </trkpt>
      <trkpt lat="43.685488" lon="-1.300280">
        <ele>36.706661</ele>
        <time>2026-03-27T02:16:09.802Z</time>
      </trkpt>
      <trkpt lat="43.685506" lon="-1.301032">
        <ele>36.484187</ele>
        <time>2026-03-27T02:16:21.619Z</time>
      </trkpt>
      <trkpt lat="43.685564" lon="-1.301417">
        <ele>36.367906</ele>
        <time>2026-03-27T02:16:27.893Z</time>
      </trkpt>
      <trkpt lat="43.685584" lon="-1.301550">
        <ele>36.327739</ele>
        <time>2026-03-27T02:16:30.063Z</time>
      </trkpt>
      <trkpt lat="43.685497" lon="-1.301781">
        <ele>36.250729</ele>
        <time>2026-03-27T02:16:33.605Z</time>
      </trkpt>
      <trkpt lat="43.685453" lon="-1.301840">
        <ele>36.212301</ele>
        <time>2026-03-27T02:16:34.739Z</time>
      </trkpt>
      <trkpt lat="43.685416" lon="-1.301970">
        <ele>36.148719</ele>
        <time>2026-03-27T02:16:36.611Z</time>
      </trkpt>
      <trkpt lat="43.685412" lon="-1.301984">
        <ele>36.141868</ele>
        <time>2026-03-27T02:16:36.811Z</time>
      </trkpt>
      <trkpt lat="43.685456" lon="-1.302382">
        <ele>35.958628</ele>
        <time>2026-03-27T02:16:42.111Z</time>
      </trkpt>
      <trkpt lat="43.685424" lon="-1.302557">
        <ele>35.876476</ele>
        <time>2026-03-27T02:16:44.454Z</time>
      </trkpt>
      <trkpt lat="43.685395" lon="-1.302717">
        <ele>35.801406</ele>
        <time>2026-03-27T02:16:46.574Z</time>
      </trkpt>
      <trkpt lat="43.685379" lon="-1.302928">
        <ele>35.704850</ele>
        <time>2026-03-27T02:16:49.278Z</time>
      </trkpt>
      <trkpt lat="43.685272" lon="-1.303140">
        <ele>35.587189</ele>
        <time>2026-03-27T02:16:52.554Z</time>
      </trkpt>
      <trkpt lat="43.685154" lon="-1.303734">
        <ele>35.306835</ele>
        <time>2026-03-27T02:17:00.398Z</time>
      </trkpt>
      <trkpt lat="43.685091" lon="-1.303809">
        <ele>35.254517</ele>
        <time>2026-03-27T02:17:01.871Z</time>
      </trkpt>
      <trkpt lat="43.685036" lon="-1.303876">
        <ele>35.208387</ele>
        <time>2026-03-27T02:17:03.186Z</time>
      </trkpt>
      <trkpt lat="43.684780" lon="-1.304018">
        <ele>35.164766</ele>
        <time>2026-03-27T02:17:08.190Z</time>
      </trkpt>
      <trkpt lat="43.684652" lon="-1.304138">
        <ele>35.218610</ele>
        <time>2026-03-27T02:17:11.063Z</time>
      </trkpt>
      <trkpt lat="43.684504" lon="-1.304095">
        <ele>35.271267</ele>
        <time>2026-03-27T02:17:13.914Z</time>
      </trkpt>
      <trkpt lat="43.684110" lon="-1.303600">
        <ele>35.456614</ele>
        <time>2026-03-27T02:17:24.479Z</time>
      </trkpt>
      <trkpt lat="43.684053" lon="-1.303511">
        <ele>35.486549</ele>
        <time>2026-03-27T02:17:26.265Z</time>
      </trkpt>
      <trkpt lat="43.683856" lon="-1.303205">
        <ele>35.589706</ele>
        <time>2026-03-27T02:17:32.657Z</time>
      </trkpt>
      <trkpt lat="43.683598" lon="-1.302743">
        <ele>35.736682</ele>
        <time>2026-03-27T02:17:42.014Z</time>
      </trkpt>
      <trkpt lat="43.683326" lon="-1.302382">
        <ele>35.819784</ele>
        <time>2026-03-27T02:17:50.116Z</time>
      </trkpt>
      <trkpt lat="43.683127" lon="-1.302319">
        <ele>35.863080</ele>
        <time>2026-03-27T02:17:54.379Z</time>
      </trkpt>
      <trkpt lat="43.682815" lon="-1.302128">
        <ele>35.935443</ele>
        <time>2026-03-27T02:18:01.094Z</time>
      </trkpt>
      <trkpt lat="43.682723" lon="-1.302175">
        <ele>35.956243</ele>
        <time>2026-03-27T02:18:02.948Z</time>
      </trkpt>
      <trkpt lat="43.682548" lon="-1.302269">
        <ele>35.996058</ele>
        <time>2026-03-27T02:18:06.500Z</time>
      </trkpt>
      <trkpt lat="43.682507" lon="-1.302307">
        <ele>36.006526</ele>
        <time>2026-03-27T02:18:07.437Z</time>
      </trkpt>
      <trkpt lat="43.682339" lon="-1.302460">
        <ele>36.049189</ele>
        <time>2026-03-27T02:18:11.203Z</time>
      </trkpt>
      <trkpt lat="43.682246" lon="-1.302496">
        <ele>36.069670</ele>
        <time>2026-03-27T02:18:12.982Z</time>
      </trkpt>
      <trkpt lat="43.682170" lon="-1.302651">
        <ele>36.098392</ele>
        <time>2026-03-27T02:18:15.496Z</time>
      </trkpt>
      <trkpt lat="43.682200" lon="-1.302892">
        <ele>36.109559</ele>
        <time>2026-03-27T02:18:18.748Z</time>
      </trkpt>
      <trkpt lat="43.682287" lon="-1.303225">
        <ele>36.016620</ele>
        <time>2026-03-27T02:18:23.439Z</time>
      </trkpt>
      <trkpt lat="43.682282" lon="-1.303317">
        <ele>35.992403</ele>
        <time>2026-03-27T02:18:24.670Z</time>
      </trkpt>
      <trkpt lat="43.682236" lon="-1.303451">
        <ele>35.953467</ele>
        <time>2026-03-27T02:18:26.650Z</time>
      </trkpt>
      <trkpt lat="43.681816" lon="-1.303621">
        <ele>35.794624</ele>
        <time>2026-03-27T02:18:34.657Z</time>
      </trkpt>
      <trkpt lat="43.681755" lon="-1.303656">
        <ele>35.770652</ele>
        <time>2026-03-27T02:18:35.872Z</time>
      </trkpt>
      <trkpt lat="43.681688" lon="-1.303756">
        <ele>35.734869</ele>
        <time>2026-03-27T02:18:37.653Z</time>
      </trkpt>
      <trkpt lat="43.681688" lon="-1.304118">
        <ele>35.639846</ele>
        <time>2026-03-27T02:18:42.469Z</time>
      </trkpt>
      <trkpt lat="43.681688" lon="-1.304577">
        <ele>35.519361</ele>
        <time>2026-03-27T02:18:48.633Z</time>
      </trkpt>
      <trkpt lat="43.681665" lon="-1.304750">
        <ele>35.473147</ele>
        <time>2026-03-27T02:18:51.000Z</time>
      </trkpt>
      <trkpt lat="43.681878" lon="-1.304980">
        <ele>35.346846</ele>
        <time>2026-03-27T02:18:56.030Z</time>
      </trkpt>
      <trkpt lat="43.682322" lon="-1.305213">
        <ele>35.124903</ele>
        <time>2026-03-27T02:19:04.882Z</time>
      </trkpt>
      <trkpt lat="43.682442" lon="-1.305275">
        <ele>35.065034</ele>
        <time>2026-03-27T02:19:07.246Z</time>
      </trkpt>
      <trkpt lat="43.682440" lon="-1.305346">
        <ele>35.041020</ele>
        <time>2026-03-27T02:19:08.198Z</time>
      </trkpt>
      <trkpt lat="43.682379" lon="-1.305458">
        <ele>34.993632</ele>
        <time>2026-03-27T02:19:10.052Z</time>
      </trkpt>
      <trkpt lat="43.682482" lon="-1.305514">
        <ele>34.941908</ele>
        <time>2026-03-27T02:19:12.426Z</time>
      </trkpt>
      <trkpt lat="43.683587" lon="-1.306110">
        <ele>34.204923</ele>
        <time>2026-03-27T02:19:37.464Z</time>
      </trkpt>
      <trkpt lat="43.683801" lon="-1.306226">
        <ele>34.017456</ele>
        <time>2026-03-27T02:19:42.187Z</time>
      </trkpt>
      <trkpt lat="43.684270" lon="-1.306406">
        <ele>33.620485</ele>
        <time>2026-03-27T02:19:52.523Z</time>
      </trkpt>
      <trkpt lat="43.684812" lon="-1.306425">
        <ele>33.178293</ele>
        <time>2026-03-27T02:20:03.891Z</time>
      </trkpt>
      <trkpt lat="43.684919" lon="-1.306520">
        <ele>33.026852</ele>
        <time>2026-03-27T02:20:06.494Z</time>
      </trkpt>
      <trkpt lat="43.684958" lon="-1.306545">
        <ele>32.973443</ele>
        <time>2026-03-27T02:20:07.383Z</time>
      </trkpt>
      <trkpt lat="43.685022" lon="-1.306622">
        <ele>32.868041</ele>
        <time>2026-03-27T02:20:09.102Z</time>
      </trkpt>
      <trkpt lat="43.685087" lon="-1.306701">
        <ele>32.760521</ele>
        <time>2026-03-27T02:20:10.866Z</time>
      </trkpt>
      <trkpt lat="43.685161" lon="-1.306917">
        <ele>32.545771</ele>
        <time>2026-03-27T02:20:14.374Z</time>
      </trkpt>
      <trkpt lat="43.685162" lon="-1.306936">
        <ele>32.528654</ele>
        <time>2026-03-27T02:20:14.649Z</time>
      </trkpt>
      <trkpt lat="43.685196" lon="-1.307305">
        <ele>32.194432</ele>
        <time>2026-03-27T02:20:20.106Z</time>
      </trkpt>
      <trkpt lat="43.685192" lon="-1.307654">
        <ele>31.880822</ele>
        <time>2026-03-27T02:20:25.272Z</time>
      </trkpt>
      <trkpt lat="43.685192" lon="-1.307700">
        <ele>31.839491</ele>
        <time>2026-03-27T02:20:25.960Z</time>
      </trkpt>
      <trkpt lat="43.685275" lon="-1.308539">
        <ele>31.078641</ele>
        <time>2026-03-27T02:20:38.274Z</time>
      </trkpt>
      <trkpt lat="43.685508" lon="-1.310150">
        <ele>29.501933</ele>
        <time>2026-03-27T02:21:02.214Z</time>
      </trkpt>
      <trkpt lat="43.685584" lon="-1.310630">
        <ele>29.027019</ele>
        <time>2026-03-27T02:21:09.436Z</time>
      </trkpt>
      <trkpt lat="43.685671" lon="-1.311175">
        <ele>28.512327</ele>
        <time>2026-03-27T02:21:17.658Z</time>
      </trkpt>
      <trkpt lat="43.685720" lon="-1.311478">
        <ele>28.400281</ele>
        <time>2026-03-27T02:21:22.313Z</time>
      </trkpt>
      <trkpt lat="43.685798" lon="-1.311891">
        <ele>28.246240</ele>
        <time>2026-03-27T02:21:28.803Z</time>
      </trkpt>
      <trkpt lat="43.685842" lon="-1.312120">
        <ele>28.160733</ele>
        <time>2026-03-27T02:21:32.427Z</time>
      </trkpt>
      <trkpt lat="43.685937" lon="-1.312433">
        <ele>28.038233</ele>
        <time>2026-03-27T02:21:37.667Z</time>
      </trkpt>
      <trkpt lat="43.686070" lon="-1.312844">
        <ele>27.875740</ele>
        <time>2026-03-27T02:21:44.715Z</time>
      </trkpt>
      <trkpt lat="43.686071" lon="-1.312847">
        <ele>27.874548</ele>
        <time>2026-03-27T02:21:44.769Z</time>
      </trkpt>
      <trkpt lat="43.686212" lon="-1.313157">
        <ele>27.742388</ele>
        <time>2026-03-27T02:21:50.579Z</time>
      </trkpt>
      <trkpt lat="43.686573" lon="-1.313517">
        <ele>27.685347</ele>
        <time>2026-03-27T02:22:00.598Z</time>
      </trkpt>
      <trkpt lat="43.686820" lon="-1.313724">
        <ele>27.759100</ele>
        <time>2026-03-27T02:22:07.215Z</time>
      </trkpt>
      <trkpt lat="43.686918" lon="-1.313802">
        <ele>27.787974</ele>
        <time>2026-03-27T02:22:09.826Z</time>
      </trkpt>
      <trkpt lat="43.686960" lon="-1.313836">
        <ele>27.800402</ele>
        <time>2026-03-27T02:22:10.939Z</time>
      </trkpt>
      <trkpt lat="43.687216" lon="-1.314009">
        <ele>27.873162</ele>
        <time>2026-03-27T02:22:17.427Z</time>
      </trkpt>
      <trkpt lat="43.687580" lon="-1.314143">
        <ele>27.969351</ele>
        <time>2026-03-27T02:22:25.854Z</time>
      </trkpt>
      <trkpt lat="43.687813" lon="-1.314340">
        <ele>28.039090</ele>
        <time>2026-03-27T02:22:32.041Z</time>
      </trkpt>
      <trkpt lat="43.688066" lon="-1.314657">
        <ele>28.230027</ele>
        <time>2026-03-27T02:22:40.234Z</time>
      </trkpt>
      <trkpt lat="43.688190" lon="-1.314956">
        <ele>28.469809</ele>
        <time>2026-03-27T02:22:46.501Z</time>
      </trkpt>
      <trkpt lat="43.688339" lon="-1.315512">
        <ele>28.882300</ele>
        <time>2026-03-27T02:22:52.138Z</time>
      </trkpt>
      <trkpt lat="43.688455" lon="-1.316104">
        <ele>29.308978</ele>
        <time>2026-03-27T02:22:57.779Z</time>
      </trkpt>
      <trkpt lat="43.688451" lon="-1.316405">
        <ele>29.518404</ele>
        <time>2026-03-27T02:23:00.593Z</time>
      </trkpt>
      <trkpt lat="43.688395" lon="-1.316836">
        <ele>29.823585</ele>
        <time>2026-03-27T02:23:04.831Z</time>
      </trkpt>
      <trkpt lat="43.688366" lon="-1.317056">
        <ele>30.001196</ele>
        <time>2026-03-27T02:23:07.070Z</time>
      </trkpt>
      <trkpt lat="43.688311" lon="-1.317483">
        <ele>30.345672</ele>
        <time>2026-03-27T02:23:11.353Z</time>
      </trkpt>
      <trkpt lat="43.688287" lon="-1.318373">
        <ele>31.053032</ele>
        <time>2026-03-27T02:23:19.957Z</time>
      </trkpt>
      <trkpt lat="43.688289" lon="-1.318459">
        <ele>31.121372</ele>
        <time>2026-03-27T02:23:20.797Z</time>
      </trkpt>
      <trkpt lat="43.688324" lon="-1.318472">
        <ele>31.161177</ele>
        <time>2026-03-27T02:23:21.347Z</time>
      </trkpt>
      <trkpt lat="43.688352" lon="-1.318536">
        <ele>31.220587</ele>
        <time>2026-03-27T02:23:22.172Z</time>
      </trkpt>
      <trkpt lat="43.688340" lon="-1.318594">
        <ele>31.268501</ele>
        <time>2026-03-27T02:23:22.847Z</time>
      </trkpt>
      <trkpt lat="43.688303" lon="-1.318626">
        <ele>31.316434</ele>
        <time>2026-03-27T02:23:23.490Z</time>
      </trkpt>
      <trkpt lat="43.688316" lon="-1.318725">
        <ele>31.396349</ele>
        <time>2026-03-27T02:23:24.479Z</time>
      </trkpt>
      <trkpt lat="43.688349" lon="-1.319189">
        <ele>31.766651</ele>
        <time>2026-03-27T02:23:28.994Z</time>
      </trkpt>
      <trkpt lat="43.688353" lon="-1.319228">
        <ele>31.795238</ele>
        <time>2026-03-27T02:23:29.361Z</time>
      </trkpt>
      <trkpt lat="43.688389" lon="-1.319564">
        <ele>31.840759</ele>
        <time>2026-03-27T02:23:32.484Z</time>
      </trkpt>
      <trkpt lat="43.688381" lon="-1.319779">
        <ele>31.869611</ele>
        <time>2026-03-27T02:23:34.384Z</time>
      </trkpt>
      <trkpt lat="43.688335" lon="-1.319948">
        <ele>31.893811</ele>
        <time>2026-03-27T02:23:35.930Z</time>
      </trkpt>
      <trkpt lat="43.688325" lon="-1.320408">
        <ele>31.955486</ele>
        <time>2026-03-27T02:23:39.576Z</time>
      </trkpt>
      <trkpt lat="43.688412" lon="-1.320993">
        <ele>32.035527</ele>
        <time>2026-03-27T02:23:43.907Z</time>
      </trkpt>
      <trkpt lat="43.688718" lon="-1.322078">
        <ele>32.007531</ele>
        <time>2026-03-27T02:23:52.071Z</time>
      </trkpt>
      <trkpt lat="43.688857" lon="-1.322654">
        <ele>31.853244</ele>
        <time>2026-03-27T02:23:56.337Z</time>
      </trkpt>
      <trkpt lat="43.688878" lon="-1.322739">
        <ele>31.830422</ele>
        <time>2026-03-27T02:23:56.969Z</time>
      </trkpt>
      <trkpt lat="43.688954" lon="-1.322915">
        <ele>31.778336</ele>
        <time>2026-03-27T02:23:58.408Z</time>
      </trkpt>
      <trkpt lat="43.689021" lon="-1.322914">
        <ele>31.754792</ele>
        <time>2026-03-27T02:23:59.168Z</time>
      </trkpt>
      <trkpt lat="43.689064" lon="-1.322985">
        <ele>31.731261</ele>
        <time>2026-03-27T02:23:59.925Z</time>
      </trkpt>
      <trkpt lat="43.689347" lon="-1.322871">
        <ele>31.627688</ele>
        <time>2026-03-27T02:24:03.278Z</time>
      </trkpt>
      <trkpt lat="43.689358" lon="-1.322927">
        <ele>31.612944</ele>
        <time>2026-03-27T02:24:03.684Z</time>
      </trkpt>
      <trkpt lat="43.689431" lon="-1.323293">
        <ele>31.516478</ele>
        <time>2026-03-27T02:24:06.347Z</time>
      </trkpt>
      <trkpt lat="43.689491" lon="-1.323356">
        <ele>31.478740</ele>
        <time>2026-03-27T02:24:07.069Z</time>
      </trkpt>
      <trkpt lat="43.689767" lon="-1.323264">
        <ele>31.192517</ele>
        <time>2026-03-27T02:24:09.771Z</time>
      </trkpt>
      <trkpt lat="43.689979" lon="-1.323194">
        <ele>30.972778</ele>
        <time>2026-03-27T02:24:11.801Z</time>
      </trkpt>
      <trkpt lat="43.690075" lon="-1.323179">
        <ele>30.875378</ele>
        <time>2026-03-27T02:24:12.683Z</time>
      </trkpt>
      <trkpt lat="43.690211" lon="-1.323207">
        <ele>30.736756</ele>
        <time>2026-03-27T02:24:13.937Z</time>
      </trkpt>
      <trkpt lat="43.690340" lon="-1.323352">
        <ele>30.569163</ele>
        <time>2026-03-27T02:24:15.425Z</time>
      </trkpt>
      <trkpt lat="43.690379" lon="-1.323449">
        <ele>30.488255</ele>
        <time>2026-03-27T02:24:16.136Z</time>
      </trkpt>
      <trkpt lat="43.690594" lon="-1.324611">
        <ele>29.597413</ele>
        <time>2026-03-27T02:24:23.615Z</time>
      </trkpt>
      <trkpt lat="43.690732" lon="-1.324847">
        <ele>29.323223</ele>
        <time>2026-03-27T02:24:25.481Z</time>
      </trkpt>
      <trkpt lat="43.690802" lon="-1.324968">
        <ele>29.183233</ele>
        <time>2026-03-27T02:24:26.430Z</time>
      </trkpt>
      <trkpt lat="43.691091" lon="-1.324667">
        <ele>28.731228</ele>
        <time>2026-03-27T02:24:31.461Z</time>
      </trkpt>
      <trkpt lat="43.691257" lon="-1.324650">
        <ele>28.523266</ele>
        <time>2026-03-27T02:24:34.294Z</time>
      </trkpt>
      <trkpt lat="43.691314" lon="-1.324857">
        <ele>28.323165</ele>
        <time>2026-03-27T02:24:37.021Z</time>
      </trkpt>
      <trkpt lat="43.691805" lon="-1.326645">
        <ele>27.435540</ele>
        <time>2026-03-27T02:25:01.205Z</time>
      </trkpt>
      <trkpt lat="43.691948" lon="-1.327337">
        <ele>27.435540</ele>
        <time>2026-03-27T02:25:10.560Z</time>
      </trkpt>
      <trkpt lat="43.692030" lon="-1.327920">
        <ele>27.435540</ele>
        <time>2026-03-27T02:25:18.395Z</time>
      </trkpt>
    </trkseg>
  </trk>
</gpx>